<?xml version="1.0" encoding="UTF-8" standalone="no" ?>
<gpx xmlns="http://www.topografix.com/GPX/1/1" xmlns:xsi="http://www.w3.org/2001/XMLSchema-instance" xsi:schemaLocation="http://www.topografix.com/GPX/1/1 http://www.topografix.com/GPX/1/1/gpx.xsd" version="1.1" creator="VisuGPX - https://www.visugpx.com">
  <metadata>
    <name>Grenoble-Bastille-Jalla-Rachais-StEynard-Grenoble</name>
  </metadata>
  <trk>
    <name><![CDATA[ACTIVE LOG053602]]></name>
    <trkseg>
      <trkpt lat="45.1965" lon="5.73947">
        <ele>182.146</ele>
        <time>2021-03-20T04:36:02Z</time>
      </trkpt>
      <trkpt lat="45.19656" lon="5.73944">
        <ele>183.547</ele>
        <time>2021-03-20T04:36:40Z</time>
      </trkpt>
      <trkpt lat="45.19635" lon="5.73969">
        <ele>186.594</ele>
        <time>2021-03-20T04:37:51Z</time>
      </trkpt>
      <trkpt lat="45.19637" lon="5.73974">
        <ele>189.165</ele>
        <time>2021-03-20T04:39:04Z</time>
      </trkpt>
      <trkpt lat="45.19641" lon="5.73972">
        <ele>189.412</ele>
        <time>2021-03-20T04:39:15Z</time>
      </trkpt>
      <trkpt lat="45.19634" lon="5.73973">
        <ele>189.345</ele>
        <time>2021-03-20T04:39:23Z</time>
      </trkpt>
      <trkpt lat="45.19635" lon="5.73971">
        <ele>190.154</ele>
        <time>2021-03-20T04:39:29Z</time>
      </trkpt>
      <trkpt lat="45.19636" lon="5.73977">
        <ele>189.579</ele>
        <time>2021-03-20T04:39:38Z</time>
      </trkpt>
      <trkpt lat="45.1963" lon="5.73979">
        <ele>186.298</ele>
        <time>2021-03-20T04:39:44Z</time>
      </trkpt>
      <trkpt lat="45.19627" lon="5.73976">
        <ele>185.416</ele>
        <time>2021-03-20T04:39:53Z</time>
      </trkpt>
      <trkpt lat="45.19629" lon="5.73974">
        <ele>183.046</ele>
        <time>2021-03-20T04:40:02Z</time>
      </trkpt>
      <trkpt lat="45.19631" lon="5.7397">
        <ele>180.92</ele>
        <time>2021-03-20T04:40:06Z</time>
      </trkpt>
      <trkpt lat="45.19633" lon="5.73975">
        <ele>181.95</ele>
        <time>2021-03-20T04:40:19Z</time>
      </trkpt>
      <trkpt lat="45.19638" lon="5.73969">
        <ele>182.175</ele>
        <time>2021-03-20T04:40:25Z</time>
      </trkpt>
      <trkpt lat="45.19654" lon="5.7396">
        <ele>182.239</ele>
        <time>2021-03-20T04:40:31Z</time>
      </trkpt>
      <trkpt lat="45.19663" lon="5.73949">
        <ele>182.675</ele>
        <time>2021-03-20T04:40:36Z</time>
      </trkpt>
      <trkpt lat="45.19664" lon="5.73949">
        <ele>182.426</ele>
        <time>2021-03-20T04:40:37Z</time>
      </trkpt>
      <trkpt lat="45.19678" lon="5.73961">
        <ele>183.191</ele>
        <time>2021-03-20T04:40:45Z</time>
      </trkpt>
      <trkpt lat="45.19686" lon="5.73975">
        <ele>182.12</ele>
        <time>2021-03-20T04:40:51Z</time>
      </trkpt>
      <trkpt lat="45.19685" lon="5.73978">
        <ele>182.305</ele>
        <time>2021-03-20T04:40:53Z</time>
      </trkpt>
      <trkpt lat="45.19686" lon="5.73986">
        <ele>182.078</ele>
        <time>2021-03-20T04:40:58Z</time>
      </trkpt>
      <trkpt lat="45.19686" lon="5.73991">
        <ele>181.81</ele>
        <time>2021-03-20T04:41:00Z</time>
      </trkpt>
      <trkpt lat="45.19686" lon="5.74004">
        <ele>181.58</ele>
        <time>2021-03-20T04:41:04Z</time>
      </trkpt>
      <trkpt lat="45.19687" lon="5.74009">
        <ele>185.323</ele>
        <time>2021-03-20T04:41:06Z</time>
      </trkpt>
      <trkpt lat="45.19688" lon="5.74011">
        <ele>183.437</ele>
        <time>2021-03-20T04:41:07Z</time>
      </trkpt>
      <trkpt lat="45.19693" lon="5.74034">
        <ele>182.834</ele>
        <time>2021-03-20T04:41:13Z</time>
      </trkpt>
      <trkpt lat="45.19696" lon="5.7406">
        <ele>184.11</ele>
        <time>2021-03-20T04:41:20Z</time>
      </trkpt>
      <trkpt lat="45.19702" lon="5.74071">
        <ele>184.387</ele>
        <time>2021-03-20T04:41:24Z</time>
      </trkpt>
      <trkpt lat="45.19705" lon="5.74085">
        <ele>184.348</ele>
        <time>2021-03-20T04:41:29Z</time>
      </trkpt>
      <trkpt lat="45.19711" lon="5.74111">
        <ele>184.64</ele>
        <time>2021-03-20T04:41:37Z</time>
      </trkpt>
      <trkpt lat="45.19717" lon="5.74136">
        <ele>184.444</ele>
        <time>2021-03-20T04:41:45Z</time>
      </trkpt>
      <trkpt lat="45.19719" lon="5.74149">
        <ele>184.573</ele>
        <time>2021-03-20T04:41:49Z</time>
      </trkpt>
      <trkpt lat="45.19718" lon="5.74167">
        <ele>184.427</ele>
        <time>2021-03-20T04:41:53Z</time>
      </trkpt>
      <trkpt lat="45.19721" lon="5.7419">
        <ele>184.4</ele>
        <time>2021-03-20T04:41:59Z</time>
      </trkpt>
      <trkpt lat="45.19725" lon="5.74211">
        <ele>184.463</ele>
        <time>2021-03-20T04:42:05Z</time>
      </trkpt>
      <trkpt lat="45.19718" lon="5.74252">
        <ele>184.676</ele>
        <time>2021-03-20T04:42:13Z</time>
      </trkpt>
      <trkpt lat="45.19722" lon="5.74257">
        <ele>186.84</ele>
        <time>2021-03-20T04:42:18Z</time>
      </trkpt>
      <trkpt lat="45.19742" lon="5.74252">
        <ele>187.065</ele>
        <time>2021-03-20T04:42:25Z</time>
      </trkpt>
      <trkpt lat="45.19745" lon="5.74251">
        <ele>186.814</ele>
        <time>2021-03-20T04:42:26Z</time>
      </trkpt>
      <trkpt lat="45.1976" lon="5.74249">
        <ele>186.618</ele>
        <time>2021-03-20T04:42:32Z</time>
      </trkpt>
      <trkpt lat="45.19774" lon="5.74247">
        <ele>187.242</ele>
        <time>2021-03-20T04:42:38Z</time>
      </trkpt>
      <trkpt lat="45.19787" lon="5.74243">
        <ele>187.67</ele>
        <time>2021-03-20T04:42:45Z</time>
      </trkpt>
      <trkpt lat="45.19809" lon="5.74228">
        <ele>187.305</ele>
        <time>2021-03-20T04:42:52Z</time>
      </trkpt>
      <trkpt lat="45.1981" lon="5.74226">
        <ele>187.132</ele>
        <time>2021-03-20T04:42:53Z</time>
      </trkpt>
      <trkpt lat="45.19813" lon="5.74223">
        <ele>187.824</ele>
        <time>2021-03-20T04:42:55Z</time>
      </trkpt>
      <trkpt lat="45.19823" lon="5.74222">
        <ele>187.807</ele>
        <time>2021-03-20T04:42:59Z</time>
      </trkpt>
      <trkpt lat="45.19847" lon="5.74218">
        <ele>187.583</ele>
        <time>2021-03-20T04:43:07Z</time>
      </trkpt>
      <trkpt lat="45.19867" lon="5.74213">
        <ele>187.713</ele>
        <time>2021-03-20T04:43:15Z</time>
      </trkpt>
      <trkpt lat="45.19886" lon="5.74207">
        <ele>188.221</ele>
        <time>2021-03-20T04:43:22Z</time>
      </trkpt>
      <trkpt lat="45.19905" lon="5.74197">
        <ele>187.98</ele>
        <time>2021-03-20T04:43:30Z</time>
      </trkpt>
      <trkpt lat="45.19923" lon="5.74184">
        <ele>188.039</ele>
        <time>2021-03-20T04:43:38Z</time>
      </trkpt>
      <trkpt lat="45.19938" lon="5.74171">
        <ele>188.243</ele>
        <time>2021-03-20T04:43:45Z</time>
      </trkpt>
      <trkpt lat="45.19955" lon="5.74153">
        <ele>187.688</ele>
        <time>2021-03-20T04:43:52Z</time>
      </trkpt>
      <trkpt lat="45.19972" lon="5.7414">
        <ele>187.598</ele>
        <time>2021-03-20T04:43:59Z</time>
      </trkpt>
      <trkpt lat="45.19985" lon="5.74128">
        <ele>188.355</ele>
        <time>2021-03-20T04:44:05Z</time>
      </trkpt>
      <trkpt lat="45.20001" lon="5.74112">
        <ele>187.115</ele>
        <time>2021-03-20T04:44:12Z</time>
      </trkpt>
      <trkpt lat="45.20012" lon="5.74094">
        <ele>185.914</ele>
        <time>2021-03-20T04:44:18Z</time>
      </trkpt>
      <trkpt lat="45.20014" lon="5.74092">
        <ele>185.891</ele>
        <time>2021-03-20T04:44:19Z</time>
      </trkpt>
      <trkpt lat="45.20027" lon="5.74079">
        <ele>185.345</ele>
        <time>2021-03-20T04:44:25Z</time>
      </trkpt>
      <trkpt lat="45.20039" lon="5.7406">
        <ele>185.956</ele>
        <time>2021-03-20T04:44:30Z</time>
      </trkpt>
      <trkpt lat="45.20047" lon="5.74041">
        <ele>187.983</ele>
        <time>2021-03-20T04:44:37Z</time>
      </trkpt>
      <trkpt lat="45.20052" lon="5.74035">
        <ele>188.236</ele>
        <time>2021-03-20T04:44:40Z</time>
      </trkpt>
      <trkpt lat="45.20062" lon="5.74018">
        <ele>188.972</ele>
        <time>2021-03-20T04:44:46Z</time>
      </trkpt>
      <trkpt lat="45.20067" lon="5.74009">
        <ele>188.294</ele>
        <time>2021-03-20T04:44:49Z</time>
      </trkpt>
      <trkpt lat="45.20076" lon="5.73994">
        <ele>187.977</ele>
        <time>2021-03-20T04:44:53Z</time>
      </trkpt>
      <trkpt lat="45.20096" lon="5.73979">
        <ele>188.224</ele>
        <time>2021-03-20T04:45:00Z</time>
      </trkpt>
      <trkpt lat="45.20099" lon="5.73974">
        <ele>188.312</ele>
        <time>2021-03-20T04:45:02Z</time>
      </trkpt>
      <trkpt lat="45.20113" lon="5.73949">
        <ele>187.769</ele>
        <time>2021-03-20T04:45:10Z</time>
      </trkpt>
      <trkpt lat="45.20121" lon="5.73934">
        <ele>187.23</ele>
        <time>2021-03-20T04:45:15Z</time>
      </trkpt>
      <trkpt lat="45.20132" lon="5.73918">
        <ele>188.233</ele>
        <time>2021-03-20T04:45:21Z</time>
      </trkpt>
      <trkpt lat="45.20146" lon="5.73899">
        <ele>188.184</ele>
        <time>2021-03-20T04:45:28Z</time>
      </trkpt>
      <trkpt lat="45.20156" lon="5.7388">
        <ele>188.78</ele>
        <time>2021-03-20T04:45:34Z</time>
      </trkpt>
      <trkpt lat="45.20165" lon="5.73855">
        <ele>188.771</ele>
        <time>2021-03-20T04:45:41Z</time>
      </trkpt>
      <trkpt lat="45.20172" lon="5.7383">
        <ele>188.83</ele>
        <time>2021-03-20T04:45:48Z</time>
      </trkpt>
      <trkpt lat="45.20176" lon="5.73808">
        <ele>189.295</ele>
        <time>2021-03-20T04:45:54Z</time>
      </trkpt>
      <trkpt lat="45.20176" lon="5.73793">
        <ele>188.929</ele>
        <time>2021-03-20T04:45:58Z</time>
      </trkpt>
      <trkpt lat="45.20174" lon="5.73765">
        <ele>189.242</ele>
        <time>2021-03-20T04:46:06Z</time>
      </trkpt>
      <trkpt lat="45.20176" lon="5.73737">
        <ele>189.323</ele>
        <time>2021-03-20T04:46:13Z</time>
      </trkpt>
      <trkpt lat="45.20173" lon="5.73711">
        <ele>189.466</ele>
        <time>2021-03-20T04:46:20Z</time>
      </trkpt>
      <trkpt lat="45.20168" lon="5.73689">
        <ele>189.375</ele>
        <time>2021-03-20T04:46:26Z</time>
      </trkpt>
      <trkpt lat="45.20163" lon="5.73668">
        <ele>188.816</ele>
        <time>2021-03-20T04:46:32Z</time>
      </trkpt>
      <trkpt lat="45.20156" lon="5.73644">
        <ele>189.341</ele>
        <time>2021-03-20T04:46:39Z</time>
      </trkpt>
      <trkpt lat="45.20153" lon="5.73623">
        <ele>188.873</ele>
        <time>2021-03-20T04:46:45Z</time>
      </trkpt>
      <trkpt lat="45.20147" lon="5.73605">
        <ele>188.57</ele>
        <time>2021-03-20T04:46:51Z</time>
      </trkpt>
      <trkpt lat="45.20136" lon="5.73585">
        <ele>188.486</ele>
        <time>2021-03-20T04:46:57Z</time>
      </trkpt>
      <trkpt lat="45.20123" lon="5.73562">
        <ele>188.99</ele>
        <time>2021-03-20T04:47:04Z</time>
      </trkpt>
      <trkpt lat="45.20116" lon="5.73552">
        <ele>188.764</ele>
        <time>2021-03-20T04:47:08Z</time>
      </trkpt>
      <trkpt lat="45.20107" lon="5.73543">
        <ele>189.078</ele>
        <time>2021-03-20T04:47:11Z</time>
      </trkpt>
      <trkpt lat="45.20097" lon="5.73523">
        <ele>189.2</ele>
        <time>2021-03-20T04:47:17Z</time>
      </trkpt>
      <trkpt lat="45.20085" lon="5.73511">
        <ele>189.392</ele>
        <time>2021-03-20T04:47:22Z</time>
      </trkpt>
      <trkpt lat="45.20072" lon="5.735">
        <ele>189.716</ele>
        <time>2021-03-20T04:47:27Z</time>
      </trkpt>
      <trkpt lat="45.20057" lon="5.73495">
        <ele>190.082</ele>
        <time>2021-03-20T04:47:32Z</time>
      </trkpt>
      <trkpt lat="45.20054" lon="5.73494">
        <ele>190.027</ele>
        <time>2021-03-20T04:47:33Z</time>
      </trkpt>
      <trkpt lat="45.20043" lon="5.73487">
        <ele>190.311</ele>
        <time>2021-03-20T04:47:37Z</time>
      </trkpt>
      <trkpt lat="45.20022" lon="5.73472">
        <ele>189.471</ele>
        <time>2021-03-20T04:47:45Z</time>
      </trkpt>
      <trkpt lat="45.20007" lon="5.7346">
        <ele>189.247</ele>
        <time>2021-03-20T04:47:52Z</time>
      </trkpt>
      <trkpt lat="45.20005" lon="5.73458">
        <ele>190.088</ele>
        <time>2021-03-20T04:47:53Z</time>
      </trkpt>
      <trkpt lat="45.19985" lon="5.73441">
        <ele>190.449</ele>
        <time>2021-03-20T04:48:01Z</time>
      </trkpt>
      <trkpt lat="45.19972" lon="5.73435">
        <ele>190.405</ele>
        <time>2021-03-20T04:48:07Z</time>
      </trkpt>
      <trkpt lat="45.19952" lon="5.7343">
        <ele>190.729</ele>
        <time>2021-03-20T04:48:14Z</time>
      </trkpt>
      <trkpt lat="45.19935" lon="5.73425">
        <ele>190.947</ele>
        <time>2021-03-20T04:48:20Z</time>
      </trkpt>
      <trkpt lat="45.19919" lon="5.73423">
        <ele>190.421</ele>
        <time>2021-03-20T04:48:26Z</time>
      </trkpt>
      <trkpt lat="45.19909" lon="5.73421">
        <ele>190.946</ele>
        <time>2021-03-20T04:48:30Z</time>
      </trkpt>
      <trkpt lat="45.1989" lon="5.73416">
        <ele>190.879</ele>
        <time>2021-03-20T04:48:37Z</time>
      </trkpt>
      <trkpt lat="45.19875" lon="5.73413">
        <ele>190.603</ele>
        <time>2021-03-20T04:48:43Z</time>
      </trkpt>
      <trkpt lat="45.19853" lon="5.73403">
        <ele>190.529</ele>
        <time>2021-03-20T04:48:52Z</time>
      </trkpt>
      <trkpt lat="45.19841" lon="5.73397">
        <ele>190.524</ele>
        <time>2021-03-20T04:48:58Z</time>
      </trkpt>
      <trkpt lat="45.19828" lon="5.7339">
        <ele>193.828</ele>
        <time>2021-03-20T04:49:04Z</time>
      </trkpt>
      <trkpt lat="45.19823" lon="5.73387">
        <ele>190.568</ele>
        <time>2021-03-20T04:49:06Z</time>
      </trkpt>
      <trkpt lat="45.19821" lon="5.73385">
        <ele>190.479</ele>
        <time>2021-03-20T04:49:07Z</time>
      </trkpt>
      <trkpt lat="45.19814" lon="5.73382">
        <ele>190.196</ele>
        <time>2021-03-20T04:49:10Z</time>
      </trkpt>
      <trkpt lat="45.19803" lon="5.73382">
        <ele>191.855</ele>
        <time>2021-03-20T04:49:14Z</time>
      </trkpt>
      <trkpt lat="45.19782" lon="5.73375">
        <ele>191.186</ele>
        <time>2021-03-20T04:49:22Z</time>
      </trkpt>
      <trkpt lat="45.19761" lon="5.7337">
        <ele>192.081</ele>
        <time>2021-03-20T04:49:29Z</time>
      </trkpt>
      <trkpt lat="45.19739" lon="5.73363">
        <ele>192.845</ele>
        <time>2021-03-20T04:49:37Z</time>
      </trkpt>
      <trkpt lat="45.19732" lon="5.73359">
        <ele>193.603</ele>
        <time>2021-03-20T04:49:40Z</time>
      </trkpt>
      <trkpt lat="45.19734" lon="5.73345">
        <ele>193.953</ele>
        <time>2021-03-20T04:49:45Z</time>
      </trkpt>
      <trkpt lat="45.19736" lon="5.73338">
        <ele>194.167</ele>
        <time>2021-03-20T04:49:47Z</time>
      </trkpt>
      <trkpt lat="45.19745" lon="5.73308">
        <ele>194.857</ele>
        <time>2021-03-20T04:49:56Z</time>
      </trkpt>
      <trkpt lat="45.19756" lon="5.73272">
        <ele>194.914</ele>
        <time>2021-03-20T04:50:06Z</time>
      </trkpt>
      <trkpt lat="45.19766" lon="5.73242">
        <ele>194.051</ele>
        <time>2021-03-20T04:50:14Z</time>
      </trkpt>
      <trkpt lat="45.19773" lon="5.73213">
        <ele>193.27</ele>
        <time>2021-03-20T04:50:21Z</time>
      </trkpt>
      <trkpt lat="45.19778" lon="5.73203">
        <ele>193.132</ele>
        <time>2021-03-20T04:50:24Z</time>
      </trkpt>
      <trkpt lat="45.19777" lon="5.7318">
        <ele>191.88</ele>
        <time>2021-03-20T04:50:31Z</time>
      </trkpt>
      <trkpt lat="45.19776" lon="5.73173">
        <ele>192.931</ele>
        <time>2021-03-20T04:50:33Z</time>
      </trkpt>
      <trkpt lat="45.19779" lon="5.73148">
        <ele>195.953</ele>
        <time>2021-03-20T04:50:42Z</time>
      </trkpt>
      <trkpt lat="45.19781" lon="5.73143">
        <ele>196.905</ele>
        <time>2021-03-20T04:50:44Z</time>
      </trkpt>
      <trkpt lat="45.19782" lon="5.73139">
        <ele>197.405</ele>
        <time>2021-03-20T04:50:46Z</time>
      </trkpt>
      <trkpt lat="45.19786" lon="5.73135">
        <ele>197.621</ele>
        <time>2021-03-20T04:50:49Z</time>
      </trkpt>
      <trkpt lat="45.1979" lon="5.73133">
        <ele>199.084</ele>
        <time>2021-03-20T04:50:51Z</time>
      </trkpt>
      <trkpt lat="45.19801" lon="5.73131">
        <ele>199.697</ele>
        <time>2021-03-20T04:50:55Z</time>
      </trkpt>
      <trkpt lat="45.19803" lon="5.73128">
        <ele>200.589</ele>
        <time>2021-03-20T04:51:00Z</time>
      </trkpt>
      <trkpt lat="45.19793" lon="5.73124">
        <ele>202.304</ele>
        <time>2021-03-20T04:51:07Z</time>
      </trkpt>
      <trkpt lat="45.19792" lon="5.73121">
        <ele>204.19</ele>
        <time>2021-03-20T04:51:10Z</time>
      </trkpt>
      <trkpt lat="45.19778" lon="5.73104">
        <ele>205.098</ele>
        <time>2021-03-20T04:51:15Z</time>
      </trkpt>
      <trkpt lat="45.19766" lon="5.73091">
        <ele>206.623</ele>
        <time>2021-03-20T04:51:21Z</time>
      </trkpt>
      <trkpt lat="45.19763" lon="5.73089">
        <ele>207.448</ele>
        <time>2021-03-20T04:51:23Z</time>
      </trkpt>
      <trkpt lat="45.19764" lon="5.73086">
        <ele>209.061</ele>
        <time>2021-03-20T04:51:28Z</time>
      </trkpt>
      <trkpt lat="45.19772" lon="5.7309">
        <ele>209.922</ele>
        <time>2021-03-20T04:51:34Z</time>
      </trkpt>
      <trkpt lat="45.19779" lon="5.7309">
        <ele>211.076</ele>
        <time>2021-03-20T04:51:37Z</time>
      </trkpt>
      <trkpt lat="45.1979" lon="5.73094">
        <ele>212.021</ele>
        <time>2021-03-20T04:51:44Z</time>
      </trkpt>
      <trkpt lat="45.19793" lon="5.73097">
        <ele>212.832</ele>
        <time>2021-03-20T04:51:47Z</time>
      </trkpt>
      <trkpt lat="45.198" lon="5.73093">
        <ele>214.214</ele>
        <time>2021-03-20T04:51:55Z</time>
      </trkpt>
      <trkpt lat="45.19797" lon="5.73088">
        <ele>215.623</ele>
        <time>2021-03-20T04:52:00Z</time>
      </trkpt>
      <trkpt lat="45.1979" lon="5.73081">
        <ele>215.887</ele>
        <time>2021-03-20T04:52:05Z</time>
      </trkpt>
      <trkpt lat="45.1978" lon="5.73075">
        <ele>217.661</ele>
        <time>2021-03-20T04:52:12Z</time>
      </trkpt>
      <trkpt lat="45.1977" lon="5.73068">
        <ele>219.135</ele>
        <time>2021-03-20T04:52:19Z</time>
      </trkpt>
      <trkpt lat="45.19758" lon="5.73058">
        <ele>220.011</ele>
        <time>2021-03-20T04:52:25Z</time>
      </trkpt>
      <trkpt lat="45.1976" lon="5.73054">
        <ele>221.709</ele>
        <time>2021-03-20T04:52:29Z</time>
      </trkpt>
      <trkpt lat="45.19762" lon="5.73055">
        <ele>222.062</ele>
        <time>2021-03-20T04:52:32Z</time>
      </trkpt>
      <trkpt lat="45.19772" lon="5.73058">
        <ele>224.494</ele>
        <time>2021-03-20T04:52:40Z</time>
      </trkpt>
      <trkpt lat="45.19779" lon="5.7306">
        <ele>225.844</ele>
        <time>2021-03-20T04:52:45Z</time>
      </trkpt>
      <trkpt lat="45.1979" lon="5.73062">
        <ele>227.029</ele>
        <time>2021-03-20T04:52:51Z</time>
      </trkpt>
      <trkpt lat="45.19792" lon="5.73059">
        <ele>227.997</ele>
        <time>2021-03-20T04:52:57Z</time>
      </trkpt>
      <trkpt lat="45.19783" lon="5.7306">
        <ele>229.231</ele>
        <time>2021-03-20T04:53:03Z</time>
      </trkpt>
      <trkpt lat="45.19779" lon="5.73056">
        <ele>231.321</ele>
        <time>2021-03-20T04:53:06Z</time>
      </trkpt>
      <trkpt lat="45.19777" lon="5.73054">
        <ele>231.193</ele>
        <time>2021-03-20T04:53:07Z</time>
      </trkpt>
      <trkpt lat="45.19768" lon="5.73042">
        <ele>233.336</ele>
        <time>2021-03-20T04:53:14Z</time>
      </trkpt>
      <trkpt lat="45.1976" lon="5.73035">
        <ele>234.188</ele>
        <time>2021-03-20T04:53:20Z</time>
      </trkpt>
      <trkpt lat="45.1976" lon="5.73033">
        <ele>234.349</ele>
        <time>2021-03-20T04:53:22Z</time>
      </trkpt>
      <trkpt lat="45.19767" lon="5.73036">
        <ele>235.297</ele>
        <time>2021-03-20T04:53:29Z</time>
      </trkpt>
      <trkpt lat="45.19778" lon="5.73038">
        <ele>237.703</ele>
        <time>2021-03-20T04:53:36Z</time>
      </trkpt>
      <trkpt lat="45.1978" lon="5.73039">
        <ele>237.845</ele>
        <time>2021-03-20T04:53:37Z</time>
      </trkpt>
      <trkpt lat="45.19782" lon="5.73039">
        <ele>238.458</ele>
        <time>2021-03-20T04:53:38Z</time>
      </trkpt>
      <trkpt lat="45.19785" lon="5.73039">
        <ele>239.463</ele>
        <time>2021-03-20T04:53:40Z</time>
      </trkpt>
      <trkpt lat="45.19791" lon="5.73042">
        <ele>239.535</ele>
        <time>2021-03-20T04:53:44Z</time>
      </trkpt>
      <trkpt lat="45.19801" lon="5.73045">
        <ele>241.532</ele>
        <time>2021-03-20T04:53:51Z</time>
      </trkpt>
      <trkpt lat="45.19797" lon="5.73042">
        <ele>243.055</ele>
        <time>2021-03-20T04:53:57Z</time>
      </trkpt>
      <trkpt lat="45.19796" lon="5.73041">
        <ele>243.921</ele>
        <time>2021-03-20T04:53:58Z</time>
      </trkpt>
      <trkpt lat="45.19785" lon="5.73029">
        <ele>244.939</ele>
        <time>2021-03-20T04:54:05Z</time>
      </trkpt>
      <trkpt lat="45.19772" lon="5.7302">
        <ele>246.688</ele>
        <time>2021-03-20T04:54:13Z</time>
      </trkpt>
      <trkpt lat="45.19769" lon="5.73013">
        <ele>247.561</ele>
        <time>2021-03-20T04:54:19Z</time>
      </trkpt>
      <trkpt lat="45.19771" lon="5.73013">
        <ele>247.958</ele>
        <time>2021-03-20T04:54:21Z</time>
      </trkpt>
      <trkpt lat="45.19776" lon="5.73014">
        <ele>249.217</ele>
        <time>2021-03-20T04:54:26Z</time>
      </trkpt>
      <trkpt lat="45.19789" lon="5.73018">
        <ele>250.024</ele>
        <time>2021-03-20T04:54:33Z</time>
      </trkpt>
      <trkpt lat="45.19796" lon="5.73022">
        <ele>251.985</ele>
        <time>2021-03-20T04:54:39Z</time>
      </trkpt>
      <trkpt lat="45.19798" lon="5.73022">
        <ele>252.043</ele>
        <time>2021-03-20T04:54:40Z</time>
      </trkpt>
      <trkpt lat="45.19805" lon="5.73022">
        <ele>253.59</ele>
        <time>2021-03-20T04:54:44Z</time>
      </trkpt>
      <trkpt lat="45.19806" lon="5.7302">
        <ele>254.27</ele>
        <time>2021-03-20T04:54:46Z</time>
      </trkpt>
      <trkpt lat="45.19804" lon="5.73015">
        <ele>254.055</ele>
        <time>2021-03-20T04:54:49Z</time>
      </trkpt>
      <trkpt lat="45.19792" lon="5.73009">
        <ele>255.784</ele>
        <time>2021-03-20T04:54:57Z</time>
      </trkpt>
      <trkpt lat="45.19791" lon="5.73007">
        <ele>255.934</ele>
        <time>2021-03-20T04:54:58Z</time>
      </trkpt>
      <trkpt lat="45.19782" lon="5.72997">
        <ele>258.046</ele>
        <time>2021-03-20T04:55:05Z</time>
      </trkpt>
      <trkpt lat="45.19778" lon="5.72994">
        <ele>258.389</ele>
        <time>2021-03-20T04:55:09Z</time>
      </trkpt>
      <trkpt lat="45.19771" lon="5.72987">
        <ele>259.384</ele>
        <time>2021-03-20T04:55:14Z</time>
      </trkpt>
      <trkpt lat="45.19758" lon="5.72968">
        <ele>262.015</ele>
        <time>2021-03-20T04:55:23Z</time>
      </trkpt>
      <trkpt lat="45.19747" lon="5.72948">
        <ele>263.273</ele>
        <time>2021-03-20T04:55:32Z</time>
      </trkpt>
      <trkpt lat="45.19739" lon="5.72936">
        <ele>263.816</ele>
        <time>2021-03-20T04:55:37Z</time>
      </trkpt>
      <trkpt lat="45.19729" lon="5.72919">
        <ele>266.205</ele>
        <time>2021-03-20T04:55:44Z</time>
      </trkpt>
      <trkpt lat="45.19722" lon="5.72908">
        <ele>267.661</ele>
        <time>2021-03-20T04:55:50Z</time>
      </trkpt>
      <trkpt lat="45.19718" lon="5.72898">
        <ele>268.92</ele>
        <time>2021-03-20T04:55:55Z</time>
      </trkpt>
      <trkpt lat="45.19708" lon="5.72882">
        <ele>270.323</ele>
        <time>2021-03-20T04:56:03Z</time>
      </trkpt>
      <trkpt lat="45.19701" lon="5.7287">
        <ele>272.179</ele>
        <time>2021-03-20T04:56:09Z</time>
      </trkpt>
      <trkpt lat="45.19694" lon="5.72856">
        <ele>273.65</ele>
        <time>2021-03-20T04:56:16Z</time>
      </trkpt>
      <trkpt lat="45.19695" lon="5.72852">
        <ele>275.173</ele>
        <time>2021-03-20T04:56:22Z</time>
      </trkpt>
      <trkpt lat="45.19706" lon="5.72865">
        <ele>276.316</ele>
        <time>2021-03-20T04:56:31Z</time>
      </trkpt>
      <trkpt lat="45.19714" lon="5.72873">
        <ele>278.038</ele>
        <time>2021-03-20T04:56:38Z</time>
      </trkpt>
      <trkpt lat="45.19722" lon="5.7288">
        <ele>279.63</ele>
        <time>2021-03-20T04:56:44Z</time>
      </trkpt>
      <trkpt lat="45.1973" lon="5.72884">
        <ele>281.148</ele>
        <time>2021-03-20T04:56:49Z</time>
      </trkpt>
      <trkpt lat="45.19738" lon="5.72889">
        <ele>282.048</ele>
        <time>2021-03-20T04:56:55Z</time>
      </trkpt>
      <trkpt lat="45.19748" lon="5.72898">
        <ele>283.833</ele>
        <time>2021-03-20T04:57:02Z</time>
      </trkpt>
      <trkpt lat="45.19756" lon="5.72903">
        <ele>284.887</ele>
        <time>2021-03-20T04:57:07Z</time>
      </trkpt>
      <trkpt lat="45.19759" lon="5.72904">
        <ele>285.019</ele>
        <time>2021-03-20T04:57:09Z</time>
      </trkpt>
      <trkpt lat="45.1977" lon="5.72911">
        <ele>286.314</ele>
        <time>2021-03-20T04:57:15Z</time>
      </trkpt>
      <trkpt lat="45.19783" lon="5.72919">
        <ele>288.468</ele>
        <time>2021-03-20T04:57:23Z</time>
      </trkpt>
      <trkpt lat="45.19789" lon="5.72923">
        <ele>289.577</ele>
        <time>2021-03-20T04:57:27Z</time>
      </trkpt>
      <trkpt lat="45.19793" lon="5.72915">
        <ele>290.767</ele>
        <time>2021-03-20T04:57:34Z</time>
      </trkpt>
      <trkpt lat="45.19787" lon="5.72906">
        <ele>293.482</ele>
        <time>2021-03-20T04:57:42Z</time>
      </trkpt>
      <trkpt lat="45.19784" lon="5.72898">
        <ele>294.502</ele>
        <time>2021-03-20T04:57:47Z</time>
      </trkpt>
      <trkpt lat="45.19775" lon="5.72885">
        <ele>296.12</ele>
        <time>2021-03-20T04:57:54Z</time>
      </trkpt>
      <trkpt lat="45.19762" lon="5.72865">
        <ele>297.525</ele>
        <time>2021-03-20T04:58:02Z</time>
      </trkpt>
      <trkpt lat="45.1975" lon="5.72852">
        <ele>298.551</ele>
        <time>2021-03-20T04:58:10Z</time>
      </trkpt>
      <trkpt lat="45.19744" lon="5.72843">
        <ele>300.348</ele>
        <time>2021-03-20T04:58:16Z</time>
      </trkpt>
      <trkpt lat="45.19745" lon="5.7284">
        <ele>300.464</ele>
        <time>2021-03-20T04:58:19Z</time>
      </trkpt>
      <trkpt lat="45.19747" lon="5.72842">
        <ele>301.784</ele>
        <time>2021-03-20T04:58:21Z</time>
      </trkpt>
      <trkpt lat="45.19757" lon="5.7285">
        <ele>303.001</ele>
        <time>2021-03-20T04:58:29Z</time>
      </trkpt>
      <trkpt lat="45.19768" lon="5.72856">
        <ele>304.756</ele>
        <time>2021-03-20T04:58:37Z</time>
      </trkpt>
      <trkpt lat="45.1977" lon="5.72859">
        <ele>305.265</ele>
        <time>2021-03-20T04:58:39Z</time>
      </trkpt>
      <trkpt lat="45.19783" lon="5.72869">
        <ele>307.98</ele>
        <time>2021-03-20T04:58:49Z</time>
      </trkpt>
      <trkpt lat="45.19793" lon="5.72878">
        <ele>308.759</ele>
        <time>2021-03-20T04:58:56Z</time>
      </trkpt>
      <trkpt lat="45.19804" lon="5.7288">
        <ele>309.512</ele>
        <time>2021-03-20T04:59:02Z</time>
      </trkpt>
      <trkpt lat="45.19805" lon="5.72877">
        <ele>310.857</ele>
        <time>2021-03-20T04:59:05Z</time>
      </trkpt>
      <trkpt lat="45.198" lon="5.72869">
        <ele>311.982</ele>
        <time>2021-03-20T04:59:11Z</time>
      </trkpt>
      <trkpt lat="45.19796" lon="5.72862">
        <ele>312.836</ele>
        <time>2021-03-20T04:59:15Z</time>
      </trkpt>
      <trkpt lat="45.19787" lon="5.72849">
        <ele>313.934</ele>
        <time>2021-03-20T04:59:22Z</time>
      </trkpt>
      <trkpt lat="45.19776" lon="5.72838">
        <ele>315.884</ele>
        <time>2021-03-20T04:59:30Z</time>
      </trkpt>
      <trkpt lat="45.19767" lon="5.72829">
        <ele>318.043</ele>
        <time>2021-03-20T04:59:37Z</time>
      </trkpt>
      <trkpt lat="45.19757" lon="5.72812">
        <ele>319.082</ele>
        <time>2021-03-20T04:59:46Z</time>
      </trkpt>
      <trkpt lat="45.19756" lon="5.72807">
        <ele>319.913</ele>
        <time>2021-03-20T04:59:49Z</time>
      </trkpt>
      <trkpt lat="45.19766" lon="5.72814">
        <ele>322.857</ele>
        <time>2021-03-20T04:59:58Z</time>
      </trkpt>
      <trkpt lat="45.19773" lon="5.7282">
        <ele>324.581</ele>
        <time>2021-03-20T05:00:06Z</time>
      </trkpt>
      <trkpt lat="45.19781" lon="5.72824">
        <ele>325.422</ele>
        <time>2021-03-20T05:00:12Z</time>
      </trkpt>
      <trkpt lat="45.19789" lon="5.72832">
        <ele>326.578</ele>
        <time>2021-03-20T05:00:18Z</time>
      </trkpt>
      <trkpt lat="45.19799" lon="5.72836">
        <ele>327.87</ele>
        <time>2021-03-20T05:00:24Z</time>
      </trkpt>
      <trkpt lat="45.19811" lon="5.72841">
        <ele>329.748</ele>
        <time>2021-03-20T05:00:31Z</time>
      </trkpt>
      <trkpt lat="45.1982" lon="5.72842">
        <ele>330.573</ele>
        <time>2021-03-20T05:00:37Z</time>
      </trkpt>
      <trkpt lat="45.19819" lon="5.72841">
        <ele>330.577</ele>
        <time>2021-03-20T05:00:38Z</time>
      </trkpt>
      <trkpt lat="45.19809" lon="5.72831">
        <ele>332.284</ele>
        <time>2021-03-20T05:00:46Z</time>
      </trkpt>
      <trkpt lat="45.19798" lon="5.72819">
        <ele>333.093</ele>
        <time>2021-03-20T05:00:54Z</time>
      </trkpt>
      <trkpt lat="45.19793" lon="5.72812">
        <ele>333.679</ele>
        <time>2021-03-20T05:00:59Z</time>
      </trkpt>
      <trkpt lat="45.19794" lon="5.72812">
        <ele>334.56</ele>
        <time>2021-03-20T05:01:01Z</time>
      </trkpt>
      <trkpt lat="45.19804" lon="5.7282">
        <ele>335.95</ele>
        <time>2021-03-20T05:01:08Z</time>
      </trkpt>
      <trkpt lat="45.19814" lon="5.72825">
        <ele>337.615</ele>
        <time>2021-03-20T05:01:15Z</time>
      </trkpt>
      <trkpt lat="45.19823" lon="5.72831">
        <ele>339.215</ele>
        <time>2021-03-20T05:01:22Z</time>
      </trkpt>
      <trkpt lat="45.19828" lon="5.72832">
        <ele>339.884</ele>
        <time>2021-03-20T05:01:26Z</time>
      </trkpt>
      <trkpt lat="45.1983" lon="5.72829">
        <ele>340.384</ele>
        <time>2021-03-20T05:01:28Z</time>
      </trkpt>
      <trkpt lat="45.19826" lon="5.72825">
        <ele>340.636</ele>
        <time>2021-03-20T05:01:32Z</time>
      </trkpt>
      <trkpt lat="45.19813" lon="5.72813">
        <ele>342.277</ele>
        <time>2021-03-20T05:01:41Z</time>
      </trkpt>
      <trkpt lat="45.19815" lon="5.72813">
        <ele>342.36</ele>
        <time>2021-03-20T05:01:43Z</time>
      </trkpt>
      <trkpt lat="45.19829" lon="5.72821">
        <ele>344.994</ele>
        <time>2021-03-20T05:01:51Z</time>
      </trkpt>
      <trkpt lat="45.19842" lon="5.72828">
        <ele>346.864</ele>
        <time>2021-03-20T05:01:58Z</time>
      </trkpt>
      <trkpt lat="45.19845" lon="5.72828">
        <ele>347.243</ele>
        <time>2021-03-20T05:02:00Z</time>
      </trkpt>
      <trkpt lat="45.19838" lon="5.72822">
        <ele>348.119</ele>
        <time>2021-03-20T05:02:05Z</time>
      </trkpt>
      <trkpt lat="45.19836" lon="5.7282">
        <ele>349.38</ele>
        <time>2021-03-20T05:02:07Z</time>
      </trkpt>
      <trkpt lat="45.19829" lon="5.72812">
        <ele>351.003</ele>
        <time>2021-03-20T05:02:14Z</time>
      </trkpt>
      <trkpt lat="45.19821" lon="5.72804">
        <ele>352.489</ele>
        <time>2021-03-20T05:02:20Z</time>
      </trkpt>
      <trkpt lat="45.19815" lon="5.72798">
        <ele>352.812</ele>
        <time>2021-03-20T05:02:25Z</time>
      </trkpt>
      <trkpt lat="45.19806" lon="5.7279">
        <ele>353.834</ele>
        <time>2021-03-20T05:02:32Z</time>
      </trkpt>
      <trkpt lat="45.19804" lon="5.72785">
        <ele>353.804</ele>
        <time>2021-03-20T05:02:34Z</time>
      </trkpt>
      <trkpt lat="45.19807" lon="5.72782">
        <ele>356.77</ele>
        <time>2021-03-20T05:02:40Z</time>
      </trkpt>
      <trkpt lat="45.19811" lon="5.72785">
        <ele>357.233</ele>
        <time>2021-03-20T05:02:43Z</time>
      </trkpt>
      <trkpt lat="45.19821" lon="5.72792">
        <ele>358.328</ele>
        <time>2021-03-20T05:02:51Z</time>
      </trkpt>
      <trkpt lat="45.19832" lon="5.72799">
        <ele>359.508</ele>
        <time>2021-03-20T05:02:59Z</time>
      </trkpt>
      <trkpt lat="45.19842" lon="5.72802">
        <ele>360.545</ele>
        <time>2021-03-20T05:03:04Z</time>
      </trkpt>
      <trkpt lat="45.19843" lon="5.72799">
        <ele>362.396</ele>
        <time>2021-03-20T05:03:10Z</time>
      </trkpt>
      <trkpt lat="45.19831" lon="5.72785">
        <ele>364.891</ele>
        <time>2021-03-20T05:03:19Z</time>
      </trkpt>
      <trkpt lat="45.1982" lon="5.72772">
        <ele>367.704</ele>
        <time>2021-03-20T05:03:27Z</time>
      </trkpt>
      <trkpt lat="45.19817" lon="5.72765">
        <ele>369.122</ele>
        <time>2021-03-20T05:03:31Z</time>
      </trkpt>
      <trkpt lat="45.19806" lon="5.72751">
        <ele>370.837</ele>
        <time>2021-03-20T05:03:40Z</time>
      </trkpt>
      <trkpt lat="45.19795" lon="5.72738">
        <ele>372.564</ele>
        <time>2021-03-20T05:03:48Z</time>
      </trkpt>
      <trkpt lat="45.19797" lon="5.72735">
        <ele>372.863</ele>
        <time>2021-03-20T05:03:51Z</time>
      </trkpt>
      <trkpt lat="45.19803" lon="5.72748">
        <ele>374.868</ele>
        <time>2021-03-20T05:03:59Z</time>
      </trkpt>
      <trkpt lat="45.19812" lon="5.72758">
        <ele>376.089</ele>
        <time>2021-03-20T05:04:06Z</time>
      </trkpt>
      <trkpt lat="45.19822" lon="5.72768">
        <ele>376.45</ele>
        <time>2021-03-20T05:04:12Z</time>
      </trkpt>
      <trkpt lat="45.19832" lon="5.72775">
        <ele>377.503</ele>
        <time>2021-03-20T05:04:18Z</time>
      </trkpt>
      <trkpt lat="45.19845" lon="5.72783">
        <ele>378.954</ele>
        <time>2021-03-20T05:04:26Z</time>
      </trkpt>
      <trkpt lat="45.19853" lon="5.72785">
        <ele>379.301</ele>
        <time>2021-03-20T05:04:30Z</time>
      </trkpt>
      <trkpt lat="45.1985" lon="5.72772">
        <ele>380.639</ele>
        <time>2021-03-20T05:04:36Z</time>
      </trkpt>
      <trkpt lat="45.19851" lon="5.72773">
        <ele>382.315</ele>
        <time>2021-03-20T05:04:42Z</time>
      </trkpt>
      <trkpt lat="45.19854" lon="5.72773">
        <ele>384.488</ele>
        <time>2021-03-20T05:04:46Z</time>
      </trkpt>
      <trkpt lat="45.19855" lon="5.72777">
        <ele>386.612</ele>
        <time>2021-03-20T05:04:54Z</time>
      </trkpt>
      <trkpt lat="45.19858" lon="5.72771">
        <ele>389.958</ele>
        <time>2021-03-20T05:05:02Z</time>
      </trkpt>
      <trkpt lat="45.19864" lon="5.72764">
        <ele>397.026</ele>
        <time>2021-03-20T05:05:14Z</time>
      </trkpt>
      <trkpt lat="45.19866" lon="5.72761">
        <ele>398.975</ele>
        <time>2021-03-20T05:05:18Z</time>
      </trkpt>
      <trkpt lat="45.19869" lon="5.72758">
        <ele>398.837</ele>
        <time>2021-03-20T05:05:23Z</time>
      </trkpt>
      <trkpt lat="45.19852" lon="5.72748">
        <ele>400.611</ele>
        <time>2021-03-20T05:05:29Z</time>
      </trkpt>
      <trkpt lat="45.19855" lon="5.72757">
        <ele>402.257</ele>
        <time>2021-03-20T05:05:34Z</time>
      </trkpt>
      <trkpt lat="45.19855" lon="5.72758">
        <ele>402.402</ele>
        <time>2021-03-20T05:05:35Z</time>
      </trkpt>
      <trkpt lat="45.19856" lon="5.72763">
        <ele>404.404</ele>
        <time>2021-03-20T05:05:41Z</time>
      </trkpt>
      <trkpt lat="45.19856" lon="5.72761">
        <ele>404.89</ele>
        <time>2021-03-20T05:05:42Z</time>
      </trkpt>
      <trkpt lat="45.19856" lon="5.72752">
        <ele>405.557</ele>
        <time>2021-03-20T05:05:46Z</time>
      </trkpt>
      <trkpt lat="45.19855" lon="5.72746">
        <ele>407.215</ele>
        <time>2021-03-20T05:05:53Z</time>
      </trkpt>
      <trkpt lat="45.19853" lon="5.7274">
        <ele>409.885</ele>
        <time>2021-03-20T05:06:01Z</time>
      </trkpt>
      <trkpt lat="45.19851" lon="5.72737">
        <ele>411.285</ele>
        <time>2021-03-20T05:06:05Z</time>
      </trkpt>
      <trkpt lat="45.19836" lon="5.72742">
        <ele>411.333</ele>
        <time>2021-03-20T05:06:11Z</time>
      </trkpt>
      <trkpt lat="45.19836" lon="5.72729">
        <ele>411.505</ele>
        <time>2021-03-20T05:06:16Z</time>
      </trkpt>
      <trkpt lat="45.1982" lon="5.7271">
        <ele>410.974</ele>
        <time>2021-03-20T05:06:24Z</time>
      </trkpt>
      <trkpt lat="45.19811" lon="5.72702">
        <ele>410.944</ele>
        <time>2021-03-20T05:06:29Z</time>
      </trkpt>
      <trkpt lat="45.19796" lon="5.72687">
        <ele>410.705</ele>
        <time>2021-03-20T05:06:37Z</time>
      </trkpt>
      <trkpt lat="45.19785" lon="5.72676">
        <ele>410.516</ele>
        <time>2021-03-20T05:06:43Z</time>
      </trkpt>
      <trkpt lat="45.19774" lon="5.72678">
        <ele>410.677</ele>
        <time>2021-03-20T05:06:49Z</time>
      </trkpt>
      <trkpt lat="45.19775" lon="5.72666">
        <ele>410.581</ele>
        <time>2021-03-20T05:06:53Z</time>
      </trkpt>
      <trkpt lat="45.19767" lon="5.72657">
        <ele>410.321</ele>
        <time>2021-03-20T05:06:57Z</time>
      </trkpt>
      <trkpt lat="45.1975" lon="5.72637">
        <ele>410.485</ele>
        <time>2021-03-20T05:07:05Z</time>
      </trkpt>
      <trkpt lat="45.19747" lon="5.72632">
        <ele>410.425</ele>
        <time>2021-03-20T05:07:08Z</time>
      </trkpt>
      <trkpt lat="45.19737" lon="5.72633">
        <ele>411.204</ele>
        <time>2021-03-20T05:07:13Z</time>
      </trkpt>
      <trkpt lat="45.19733" lon="5.72619">
        <ele>411.38</ele>
        <time>2021-03-20T05:07:18Z</time>
      </trkpt>
      <trkpt lat="45.19739" lon="5.72612">
        <ele>411.177</ele>
        <time>2021-03-20T05:07:23Z</time>
      </trkpt>
      <trkpt lat="45.1974" lon="5.72606">
        <ele>410.508</ele>
        <time>2021-03-20T05:07:25Z</time>
      </trkpt>
      <trkpt lat="45.19741" lon="5.72575">
        <ele>411.195</ele>
        <time>2021-03-20T05:07:34Z</time>
      </trkpt>
      <trkpt lat="45.19741" lon="5.7256">
        <ele>411.054</ele>
        <time>2021-03-20T05:07:38Z</time>
      </trkpt>
      <trkpt lat="45.1974" lon="5.72546">
        <ele>411.22</ele>
        <time>2021-03-20T05:07:42Z</time>
      </trkpt>
      <trkpt lat="45.19731" lon="5.72531">
        <ele>411.379</ele>
        <time>2021-03-20T05:07:48Z</time>
      </trkpt>
      <trkpt lat="45.19733" lon="5.72516">
        <ele>411.569</ele>
        <time>2021-03-20T05:07:52Z</time>
      </trkpt>
      <trkpt lat="45.19742" lon="5.72512">
        <ele>410.74</ele>
        <time>2021-03-20T05:07:56Z</time>
      </trkpt>
      <trkpt lat="45.1975" lon="5.72502">
        <ele>410.888</ele>
        <time>2021-03-20T05:08:00Z</time>
      </trkpt>
      <trkpt lat="45.1976" lon="5.72483">
        <ele>411.228</ele>
        <time>2021-03-20T05:08:07Z</time>
      </trkpt>
      <trkpt lat="45.19772" lon="5.72462">
        <ele>411.084</ele>
        <time>2021-03-20T05:08:14Z</time>
      </trkpt>
      <trkpt lat="45.19783" lon="5.72447">
        <ele>410.468</ele>
        <time>2021-03-20T05:08:20Z</time>
      </trkpt>
      <trkpt lat="45.19784" lon="5.72447">
        <ele>410.466</ele>
        <time>2021-03-20T05:08:21Z</time>
      </trkpt>
      <trkpt lat="45.19787" lon="5.72456">
        <ele>411.576</ele>
        <time>2021-03-20T05:08:25Z</time>
      </trkpt>
      <trkpt lat="45.19786" lon="5.72463">
        <ele>411.991</ele>
        <time>2021-03-20T05:08:28Z</time>
      </trkpt>
      <trkpt lat="45.1978" lon="5.72489">
        <ele>412.859</ele>
        <time>2021-03-20T05:08:37Z</time>
      </trkpt>
      <trkpt lat="45.19771" lon="5.7251">
        <ele>414.234</ele>
        <time>2021-03-20T05:08:45Z</time>
      </trkpt>
      <trkpt lat="45.19767" lon="5.72529">
        <ele>415.87</ele>
        <time>2021-03-20T05:08:53Z</time>
      </trkpt>
      <trkpt lat="45.19768" lon="5.72548">
        <ele>416.977</ele>
        <time>2021-03-20T05:09:00Z</time>
      </trkpt>
      <trkpt lat="45.1977" lon="5.72568">
        <ele>419.227</ele>
        <time>2021-03-20T05:09:07Z</time>
      </trkpt>
      <trkpt lat="45.1977" lon="5.72576">
        <ele>419.583</ele>
        <time>2021-03-20T05:09:10Z</time>
      </trkpt>
      <trkpt lat="45.19773" lon="5.72579">
        <ele>419.854</ele>
        <time>2021-03-20T05:09:13Z</time>
      </trkpt>
      <trkpt lat="45.19774" lon="5.72571">
        <ele>421.682</ele>
        <time>2021-03-20T05:09:18Z</time>
      </trkpt>
      <trkpt lat="45.19777" lon="5.7256">
        <ele>422.392</ele>
        <time>2021-03-20T05:09:23Z</time>
      </trkpt>
      <trkpt lat="45.19782" lon="5.72542">
        <ele>424.282</ele>
        <time>2021-03-20T05:09:32Z</time>
      </trkpt>
      <trkpt lat="45.19785" lon="5.72538">
        <ele>425.309</ele>
        <time>2021-03-20T05:09:36Z</time>
      </trkpt>
      <trkpt lat="45.19787" lon="5.7255">
        <ele>426.242</ele>
        <time>2021-03-20T05:09:43Z</time>
      </trkpt>
      <trkpt lat="45.19787" lon="5.72574">
        <ele>428.448</ele>
        <time>2021-03-20T05:09:52Z</time>
      </trkpt>
      <trkpt lat="45.19787" lon="5.72586">
        <ele>429.929</ele>
        <time>2021-03-20T05:09:57Z</time>
      </trkpt>
      <trkpt lat="45.19788" lon="5.72608">
        <ele>431.393</ele>
        <time>2021-03-20T05:10:06Z</time>
      </trkpt>
      <trkpt lat="45.19793" lon="5.72624">
        <ele>433.548</ele>
        <time>2021-03-20T05:10:14Z</time>
      </trkpt>
      <trkpt lat="45.19803" lon="5.72633">
        <ele>434.53</ele>
        <time>2021-03-20T05:10:21Z</time>
      </trkpt>
      <trkpt lat="45.19807" lon="5.7264">
        <ele>435.55</ele>
        <time>2021-03-20T05:10:25Z</time>
      </trkpt>
      <trkpt lat="45.19823" lon="5.72655">
        <ele>437.608</ele>
        <time>2021-03-20T05:10:36Z</time>
      </trkpt>
      <trkpt lat="45.19834" lon="5.72668">
        <ele>438.856</ele>
        <time>2021-03-20T05:10:44Z</time>
      </trkpt>
      <trkpt lat="45.19845" lon="5.72683">
        <ele>440.604</ele>
        <time>2021-03-20T05:10:52Z</time>
      </trkpt>
      <trkpt lat="45.19856" lon="5.72687">
        <ele>441.275</ele>
        <time>2021-03-20T05:10:58Z</time>
      </trkpt>
      <trkpt lat="45.1986" lon="5.72685">
        <ele>442.712</ele>
        <time>2021-03-20T05:11:01Z</time>
      </trkpt>
      <trkpt lat="45.19852" lon="5.72669">
        <ele>443.215</ele>
        <time>2021-03-20T05:11:10Z</time>
      </trkpt>
      <trkpt lat="45.19836" lon="5.72649">
        <ele>445.082</ele>
        <time>2021-03-20T05:11:18Z</time>
      </trkpt>
      <trkpt lat="45.19828" lon="5.72632">
        <ele>446.927</ele>
        <time>2021-03-20T05:11:25Z</time>
      </trkpt>
      <trkpt lat="45.19826" lon="5.72628">
        <ele>447.154</ele>
        <time>2021-03-20T05:11:27Z</time>
      </trkpt>
      <trkpt lat="45.19825" lon="5.72614">
        <ele>448.455</ele>
        <time>2021-03-20T05:11:34Z</time>
      </trkpt>
      <trkpt lat="45.19824" lon="5.72601">
        <ele>449.784</ele>
        <time>2021-03-20T05:11:40Z</time>
      </trkpt>
      <trkpt lat="45.19822" lon="5.72581">
        <ele>450.658</ele>
        <time>2021-03-20T05:11:49Z</time>
      </trkpt>
      <trkpt lat="45.19821" lon="5.72559">
        <ele>451.943</ele>
        <time>2021-03-20T05:11:57Z</time>
      </trkpt>
      <trkpt lat="45.1982" lon="5.72531">
        <ele>455.224</ele>
        <time>2021-03-20T05:12:07Z</time>
      </trkpt>
      <trkpt lat="45.19823" lon="5.72509">
        <ele>456.728</ele>
        <time>2021-03-20T05:12:15Z</time>
      </trkpt>
      <trkpt lat="45.19827" lon="5.72493">
        <ele>458.043</ele>
        <time>2021-03-20T05:12:22Z</time>
      </trkpt>
      <trkpt lat="45.19831" lon="5.72476">
        <ele>459.766</ele>
        <time>2021-03-20T05:12:29Z</time>
      </trkpt>
      <trkpt lat="45.19833" lon="5.7246">
        <ele>460.944</ele>
        <time>2021-03-20T05:12:36Z</time>
      </trkpt>
      <trkpt lat="45.19843" lon="5.7245">
        <ele>461.848</ele>
        <time>2021-03-20T05:12:42Z</time>
      </trkpt>
      <trkpt lat="45.19844" lon="5.72452">
        <ele>462.444</ele>
        <time>2021-03-20T05:12:44Z</time>
      </trkpt>
      <trkpt lat="45.19847" lon="5.72465">
        <ele>463.958</ele>
        <time>2021-03-20T05:12:50Z</time>
      </trkpt>
      <trkpt lat="45.19847" lon="5.72472">
        <ele>464.178</ele>
        <time>2021-03-20T05:12:53Z</time>
      </trkpt>
      <trkpt lat="45.19849" lon="5.72493">
        <ele>466.859</ele>
        <time>2021-03-20T05:13:02Z</time>
      </trkpt>
      <trkpt lat="45.19852" lon="5.72509">
        <ele>468.304</ele>
        <time>2021-03-20T05:13:10Z</time>
      </trkpt>
      <trkpt lat="45.19853" lon="5.72531">
        <ele>469.405</ele>
        <time>2021-03-20T05:13:18Z</time>
      </trkpt>
      <trkpt lat="45.19854" lon="5.72555">
        <ele>471.529</ele>
        <time>2021-03-20T05:13:26Z</time>
      </trkpt>
      <trkpt lat="45.19855" lon="5.72555">
        <ele>471.242</ele>
        <time>2021-03-20T05:13:27Z</time>
      </trkpt>
      <trkpt lat="45.19857" lon="5.72541">
        <ele>472.959</ele>
        <time>2021-03-20T05:13:33Z</time>
      </trkpt>
      <trkpt lat="45.19857" lon="5.72521">
        <ele>475.19</ele>
        <time>2021-03-20T05:13:40Z</time>
      </trkpt>
      <trkpt lat="45.19854" lon="5.725">
        <ele>475.799</ele>
        <time>2021-03-20T05:13:46Z</time>
      </trkpt>
      <trkpt lat="45.19852" lon="5.72491">
        <ele>476.272</ele>
        <time>2021-03-20T05:13:51Z</time>
      </trkpt>
      <trkpt lat="45.19853" lon="5.72484">
        <ele>479.815</ele>
        <time>2021-03-20T05:13:57Z</time>
      </trkpt>
      <trkpt lat="45.19855" lon="5.72481">
        <ele>481.453</ele>
        <time>2021-03-20T05:14:01Z</time>
      </trkpt>
      <trkpt lat="45.19859" lon="5.72481">
        <ele>482.924</ele>
        <time>2021-03-20T05:14:05Z</time>
      </trkpt>
      <trkpt lat="45.19862" lon="5.72479">
        <ele>484.352</ele>
        <time>2021-03-20T05:14:08Z</time>
      </trkpt>
      <trkpt lat="45.19871" lon="5.72481">
        <ele>486.365</ele>
        <time>2021-03-20T05:14:14Z</time>
      </trkpt>
      <trkpt lat="45.19874" lon="5.72494">
        <ele>486.964</ele>
        <time>2021-03-20T05:14:19Z</time>
      </trkpt>
      <trkpt lat="45.19883" lon="5.72519">
        <ele>487.067</ele>
        <time>2021-03-20T05:14:29Z</time>
      </trkpt>
      <trkpt lat="45.19884" lon="5.7253">
        <ele>488.64</ele>
        <time>2021-03-20T05:14:34Z</time>
      </trkpt>
      <trkpt lat="45.19885" lon="5.72539">
        <ele>489.632</ele>
        <time>2021-03-20T05:14:40Z</time>
      </trkpt>
      <trkpt lat="45.19882" lon="5.72545">
        <ele>491.789</ele>
        <time>2021-03-20T05:14:45Z</time>
      </trkpt>
      <trkpt lat="45.19881" lon="5.72558">
        <ele>491.995</ele>
        <time>2021-03-20T05:14:51Z</time>
      </trkpt>
      <trkpt lat="45.19876" lon="5.72558">
        <ele>491.928</ele>
        <time>2021-03-20T05:14:57Z</time>
      </trkpt>
      <trkpt lat="45.19875" lon="5.72546">
        <ele>491.799</ele>
        <time>2021-03-20T05:15:01Z</time>
      </trkpt>
      <trkpt lat="45.19874" lon="5.72525">
        <ele>492.276</ele>
        <time>2021-03-20T05:15:08Z</time>
      </trkpt>
      <trkpt lat="45.19871" lon="5.72506">
        <ele>492.19</ele>
        <time>2021-03-20T05:15:14Z</time>
      </trkpt>
      <trkpt lat="45.1987" lon="5.72504">
        <ele>492.135</ele>
        <time>2021-03-20T05:15:15Z</time>
      </trkpt>
      <trkpt lat="45.19875" lon="5.72505">
        <ele>492.106</ele>
        <time>2021-03-20T05:15:20Z</time>
      </trkpt>
      <trkpt lat="45.19875" lon="5.72512">
        <ele>492.115</ele>
        <time>2021-03-20T05:15:22Z</time>
      </trkpt>
      <trkpt lat="45.19878" lon="5.72539">
        <ele>492.206</ele>
        <time>2021-03-20T05:15:31Z</time>
      </trkpt>
      <trkpt lat="45.1988" lon="5.72545">
        <ele>492.465</ele>
        <time>2021-03-20T05:15:33Z</time>
      </trkpt>
      <trkpt lat="45.19881" lon="5.72542">
        <ele>489.609</ele>
        <time>2021-03-20T05:15:40Z</time>
      </trkpt>
      <trkpt lat="45.19881" lon="5.72541">
        <ele>489.608</ele>
        <time>2021-03-20T05:15:41Z</time>
      </trkpt>
      <trkpt lat="45.19881" lon="5.72535">
        <ele>487.486</ele>
        <time>2021-03-20T05:15:47Z</time>
      </trkpt>
      <trkpt lat="45.19885" lon="5.72544">
        <ele>487.724</ele>
        <time>2021-03-20T05:15:51Z</time>
      </trkpt>
      <trkpt lat="45.19889" lon="5.72573">
        <ele>487.288</ele>
        <time>2021-03-20T05:15:59Z</time>
      </trkpt>
      <trkpt lat="45.19889" lon="5.72576">
        <ele>487.372</ele>
        <time>2021-03-20T05:16:00Z</time>
      </trkpt>
      <trkpt lat="45.19896" lon="5.72578">
        <ele>487.79</ele>
        <time>2021-03-20T05:16:05Z</time>
      </trkpt>
      <trkpt lat="45.19896" lon="5.7257">
        <ele>487.709</ele>
        <time>2021-03-20T05:16:08Z</time>
      </trkpt>
      <trkpt lat="45.19895" lon="5.72539">
        <ele>487.857</ele>
        <time>2021-03-20T05:16:17Z</time>
      </trkpt>
      <trkpt lat="45.19894" lon="5.72517">
        <ele>487.956</ele>
        <time>2021-03-20T05:16:24Z</time>
      </trkpt>
      <trkpt lat="45.19892" lon="5.72496">
        <ele>487.994</ele>
        <time>2021-03-20T05:16:30Z</time>
      </trkpt>
      <trkpt lat="45.19891" lon="5.72493">
        <ele>487.502</ele>
        <time>2021-03-20T05:16:31Z</time>
      </trkpt>
      <trkpt lat="45.1988" lon="5.72491">
        <ele>486.801</ele>
        <time>2021-03-20T05:16:37Z</time>
      </trkpt>
      <trkpt lat="45.19875" lon="5.72491">
        <ele>483.328</ele>
        <time>2021-03-20T05:16:41Z</time>
      </trkpt>
      <trkpt lat="45.1986" lon="5.72489">
        <ele>481.74</ele>
        <time>2021-03-20T05:16:48Z</time>
      </trkpt>
      <trkpt lat="45.19854" lon="5.72488">
        <ele>479.047</ele>
        <time>2021-03-20T05:16:51Z</time>
      </trkpt>
      <trkpt lat="45.19852" lon="5.72488">
        <ele>478.302</ele>
        <time>2021-03-20T05:16:53Z</time>
      </trkpt>
      <trkpt lat="45.19851" lon="5.72487">
        <ele>474.939</ele>
        <time>2021-03-20T05:16:55Z</time>
      </trkpt>
      <trkpt lat="45.19863" lon="5.72482">
        <ele>477.194</ele>
        <time>2021-03-20T05:17:01Z</time>
      </trkpt>
      <trkpt lat="45.19877" lon="5.72472">
        <ele>477.681</ele>
        <time>2021-03-20T05:17:07Z</time>
      </trkpt>
      <trkpt lat="45.19879" lon="5.72471">
        <ele>477.75</ele>
        <time>2021-03-20T05:17:08Z</time>
      </trkpt>
      <trkpt lat="45.19883" lon="5.72461">
        <ele>478.436</ele>
        <time>2021-03-20T05:17:12Z</time>
      </trkpt>
      <trkpt lat="45.19889" lon="5.7245">
        <ele>477.992</ele>
        <time>2021-03-20T05:17:17Z</time>
      </trkpt>
      <trkpt lat="45.19891" lon="5.72444">
        <ele>477.045</ele>
        <time>2021-03-20T05:17:19Z</time>
      </trkpt>
      <trkpt lat="45.19901" lon="5.72433">
        <ele>475.753</ele>
        <time>2021-03-20T05:17:24Z</time>
      </trkpt>
      <trkpt lat="45.19911" lon="5.72432">
        <ele>475.045</ele>
        <time>2021-03-20T05:17:27Z</time>
      </trkpt>
      <trkpt lat="45.19932" lon="5.72426">
        <ele>472.987</ele>
        <time>2021-03-20T05:17:34Z</time>
      </trkpt>
      <trkpt lat="45.19946" lon="5.72423">
        <ele>473.687</ele>
        <time>2021-03-20T05:17:39Z</time>
      </trkpt>
      <trkpt lat="45.19965" lon="5.72422">
        <ele>474.182</ele>
        <time>2021-03-20T05:17:46Z</time>
      </trkpt>
      <trkpt lat="45.19976" lon="5.72421">
        <ele>475.974</ele>
        <time>2021-03-20T05:17:51Z</time>
      </trkpt>
      <trkpt lat="45.19992" lon="5.72423">
        <ele>478.75</ele>
        <time>2021-03-20T05:17:59Z</time>
      </trkpt>
      <trkpt lat="45.20008" lon="5.72425">
        <ele>481.027</ele>
        <time>2021-03-20T05:18:07Z</time>
      </trkpt>
      <trkpt lat="45.20025" lon="5.72426">
        <ele>482.161</ele>
        <time>2021-03-20T05:18:16Z</time>
      </trkpt>
      <trkpt lat="45.20039" lon="5.72428">
        <ele>484.029</ele>
        <time>2021-03-20T05:18:23Z</time>
      </trkpt>
      <trkpt lat="45.2005" lon="5.7243">
        <ele>485.305</ele>
        <time>2021-03-20T05:18:31Z</time>
      </trkpt>
      <trkpt lat="45.20062" lon="5.72434">
        <ele>486.382</ele>
        <time>2021-03-20T05:18:37Z</time>
      </trkpt>
      <trkpt lat="45.2007" lon="5.72445">
        <ele>488.419</ele>
        <time>2021-03-20T05:18:43Z</time>
      </trkpt>
      <trkpt lat="45.20072" lon="5.72449">
        <ele>489.243</ele>
        <time>2021-03-20T05:18:45Z</time>
      </trkpt>
      <trkpt lat="45.20075" lon="5.72474">
        <ele>491.017</ele>
        <time>2021-03-20T05:18:54Z</time>
      </trkpt>
      <trkpt lat="45.20073" lon="5.72495">
        <ele>492.448</ele>
        <time>2021-03-20T05:19:01Z</time>
      </trkpt>
      <trkpt lat="45.20069" lon="5.72524">
        <ele>493.336</ele>
        <time>2021-03-20T05:19:10Z</time>
      </trkpt>
      <trkpt lat="45.20079" lon="5.72542">
        <ele>493.129</ele>
        <time>2021-03-20T05:19:17Z</time>
      </trkpt>
      <trkpt lat="45.2009" lon="5.72544">
        <ele>494.576</ele>
        <time>2021-03-20T05:19:23Z</time>
      </trkpt>
      <trkpt lat="45.20099" lon="5.72543">
        <ele>496.789</ele>
        <time>2021-03-20T05:19:30Z</time>
      </trkpt>
      <trkpt lat="45.20105" lon="5.72544">
        <ele>498.048</ele>
        <time>2021-03-20T05:19:36Z</time>
      </trkpt>
      <trkpt lat="45.20115" lon="5.72548">
        <ele>500.742</ele>
        <time>2021-03-20T05:19:44Z</time>
      </trkpt>
      <trkpt lat="45.20119" lon="5.7255">
        <ele>502.237</ele>
        <time>2021-03-20T05:19:47Z</time>
      </trkpt>
      <trkpt lat="45.20133" lon="5.72552">
        <ele>504.345</ele>
        <time>2021-03-20T05:19:55Z</time>
      </trkpt>
      <trkpt lat="45.20146" lon="5.72554">
        <ele>506.022</ele>
        <time>2021-03-20T05:20:02Z</time>
      </trkpt>
      <trkpt lat="45.2016" lon="5.72559">
        <ele>508.364</ele>
        <time>2021-03-20T05:20:11Z</time>
      </trkpt>
      <trkpt lat="45.20161" lon="5.72559">
        <ele>508.308</ele>
        <time>2021-03-20T05:20:12Z</time>
      </trkpt>
      <trkpt lat="45.20173" lon="5.72567">
        <ele>509.668</ele>
        <time>2021-03-20T05:20:20Z</time>
      </trkpt>
      <trkpt lat="45.20182" lon="5.72572">
        <ele>511.182</ele>
        <time>2021-03-20T05:20:27Z</time>
      </trkpt>
      <trkpt lat="45.20192" lon="5.72577">
        <ele>512.82</ele>
        <time>2021-03-20T05:20:34Z</time>
      </trkpt>
      <trkpt lat="45.20203" lon="5.72581">
        <ele>514.043</ele>
        <time>2021-03-20T05:20:41Z</time>
      </trkpt>
      <trkpt lat="45.20214" lon="5.72587">
        <ele>515.73</ele>
        <time>2021-03-20T05:20:49Z</time>
      </trkpt>
      <trkpt lat="45.20226" lon="5.72594">
        <ele>517.905</ele>
        <time>2021-03-20T05:20:57Z</time>
      </trkpt>
      <trkpt lat="45.20235" lon="5.72601">
        <ele>519.752</ele>
        <time>2021-03-20T05:21:04Z</time>
      </trkpt>
      <trkpt lat="45.20244" lon="5.72602">
        <ele>521.365</ele>
        <time>2021-03-20T05:21:11Z</time>
      </trkpt>
      <trkpt lat="45.20256" lon="5.72604">
        <ele>523.444</ele>
        <time>2021-03-20T05:21:18Z</time>
      </trkpt>
      <trkpt lat="45.20268" lon="5.72602">
        <ele>525.288</ele>
        <time>2021-03-20T05:21:26Z</time>
      </trkpt>
      <trkpt lat="45.20275" lon="5.72602">
        <ele>526.306</ele>
        <time>2021-03-20T05:21:32Z</time>
      </trkpt>
      <trkpt lat="45.20285" lon="5.72601">
        <ele>526.797</ele>
        <time>2021-03-20T05:21:40Z</time>
      </trkpt>
      <trkpt lat="45.20296" lon="5.72601">
        <ele>528.734</ele>
        <time>2021-03-20T05:21:47Z</time>
      </trkpt>
      <trkpt lat="45.20299" lon="5.72601">
        <ele>529.016</ele>
        <time>2021-03-20T05:21:49Z</time>
      </trkpt>
      <trkpt lat="45.20309" lon="5.72604">
        <ele>530.864</ele>
        <time>2021-03-20T05:21:56Z</time>
      </trkpt>
      <trkpt lat="45.20319" lon="5.72607">
        <ele>531.844</ele>
        <time>2021-03-20T05:22:03Z</time>
      </trkpt>
      <trkpt lat="45.20324" lon="5.72608">
        <ele>533.437</ele>
        <time>2021-03-20T05:22:06Z</time>
      </trkpt>
      <trkpt lat="45.2033" lon="5.72611">
        <ele>534.323</ele>
        <time>2021-03-20T05:22:11Z</time>
      </trkpt>
      <trkpt lat="45.20339" lon="5.72623">
        <ele>535.217</ele>
        <time>2021-03-20T05:22:18Z</time>
      </trkpt>
      <trkpt lat="45.20348" lon="5.72631">
        <ele>537.681</ele>
        <time>2021-03-20T05:22:26Z</time>
      </trkpt>
      <trkpt lat="45.20357" lon="5.7264">
        <ele>539.458</ele>
        <time>2021-03-20T05:22:33Z</time>
      </trkpt>
      <trkpt lat="45.20365" lon="5.72648">
        <ele>540.835</ele>
        <time>2021-03-20T05:22:41Z</time>
      </trkpt>
      <trkpt lat="45.20369" lon="5.72651">
        <ele>541.486</ele>
        <time>2021-03-20T05:22:44Z</time>
      </trkpt>
      <trkpt lat="45.2038" lon="5.72664">
        <ele>543.492</ele>
        <time>2021-03-20T05:22:53Z</time>
      </trkpt>
      <trkpt lat="45.20391" lon="5.72676">
        <ele>545.331</ele>
        <time>2021-03-20T05:23:02Z</time>
      </trkpt>
      <trkpt lat="45.204" lon="5.72687">
        <ele>546.64</ele>
        <time>2021-03-20T05:23:11Z</time>
      </trkpt>
      <trkpt lat="45.20409" lon="5.72693">
        <ele>548.565</ele>
        <time>2021-03-20T05:23:18Z</time>
      </trkpt>
      <trkpt lat="45.20422" lon="5.72702">
        <ele>551.207</ele>
        <time>2021-03-20T05:23:28Z</time>
      </trkpt>
      <trkpt lat="45.20432" lon="5.7271">
        <ele>552.914</ele>
        <time>2021-03-20T05:23:36Z</time>
      </trkpt>
      <trkpt lat="45.20441" lon="5.72714">
        <ele>554.023</ele>
        <time>2021-03-20T05:23:43Z</time>
      </trkpt>
      <trkpt lat="45.20452" lon="5.72716">
        <ele>554.553</ele>
        <time>2021-03-20T05:23:50Z</time>
      </trkpt>
      <trkpt lat="45.2046" lon="5.72719">
        <ele>555.781</ele>
        <time>2021-03-20T05:23:56Z</time>
      </trkpt>
      <trkpt lat="45.2047" lon="5.72719">
        <ele>556.992</ele>
        <time>2021-03-20T05:24:02Z</time>
      </trkpt>
      <trkpt lat="45.20484" lon="5.72722">
        <ele>558.843</ele>
        <time>2021-03-20T05:24:10Z</time>
      </trkpt>
      <trkpt lat="45.20497" lon="5.72727">
        <ele>560.486</ele>
        <time>2021-03-20T05:24:16Z</time>
      </trkpt>
      <trkpt lat="45.20509" lon="5.72734">
        <ele>561.144</ele>
        <time>2021-03-20T05:24:22Z</time>
      </trkpt>
      <trkpt lat="45.20518" lon="5.72739">
        <ele>562.273</ele>
        <time>2021-03-20T05:24:27Z</time>
      </trkpt>
      <trkpt lat="45.20522" lon="5.72732">
        <ele>563.702</ele>
        <time>2021-03-20T05:24:33Z</time>
      </trkpt>
      <trkpt lat="45.20511" lon="5.72726">
        <ele>566.459</ele>
        <time>2021-03-20T05:24:40Z</time>
      </trkpt>
      <trkpt lat="45.20496" lon="5.72713">
        <ele>567.299</ele>
        <time>2021-03-20T05:24:49Z</time>
      </trkpt>
      <trkpt lat="45.20487" lon="5.72704">
        <ele>567.752</ele>
        <time>2021-03-20T05:24:56Z</time>
      </trkpt>
      <trkpt lat="45.20475" lon="5.72693">
        <ele>569.63</ele>
        <time>2021-03-20T05:25:04Z</time>
      </trkpt>
      <trkpt lat="45.20465" lon="5.72685">
        <ele>571.394</ele>
        <time>2021-03-20T05:25:11Z</time>
      </trkpt>
      <trkpt lat="45.20455" lon="5.72678">
        <ele>572.532</ele>
        <time>2021-03-20T05:25:19Z</time>
      </trkpt>
      <trkpt lat="45.20439" lon="5.72666">
        <ele>575.086</ele>
        <time>2021-03-20T05:25:30Z</time>
      </trkpt>
      <trkpt lat="45.20438" lon="5.72664">
        <ele>575.062</ele>
        <time>2021-03-20T05:25:31Z</time>
      </trkpt>
      <trkpt lat="45.20429" lon="5.72652">
        <ele>577.089</ele>
        <time>2021-03-20T05:25:40Z</time>
      </trkpt>
      <trkpt lat="45.20421" lon="5.72638">
        <ele>578.799</ele>
        <time>2021-03-20T05:25:48Z</time>
      </trkpt>
      <trkpt lat="45.20419" lon="5.7263">
        <ele>580.229</ele>
        <time>2021-03-20T05:25:54Z</time>
      </trkpt>
      <trkpt lat="45.2042" lon="5.72629">
        <ele>580.58</ele>
        <time>2021-03-20T05:25:55Z</time>
      </trkpt>
      <trkpt lat="45.20425" lon="5.72633">
        <ele>581.544</ele>
        <time>2021-03-20T05:25:59Z</time>
      </trkpt>
      <trkpt lat="45.20436" lon="5.72641">
        <ele>582.656</ele>
        <time>2021-03-20T05:26:07Z</time>
      </trkpt>
      <trkpt lat="45.20445" lon="5.72646">
        <ele>584.121</ele>
        <time>2021-03-20T05:26:14Z</time>
      </trkpt>
      <trkpt lat="45.20454" lon="5.72646">
        <ele>585.778</ele>
        <time>2021-03-20T05:26:21Z</time>
      </trkpt>
      <trkpt lat="45.20463" lon="5.72647">
        <ele>585.863</ele>
        <time>2021-03-20T05:26:26Z</time>
      </trkpt>
      <trkpt lat="45.20471" lon="5.72651">
        <ele>587.55</ele>
        <time>2021-03-20T05:26:32Z</time>
      </trkpt>
      <trkpt lat="45.20484" lon="5.72657">
        <ele>588.297</ele>
        <time>2021-03-20T05:26:40Z</time>
      </trkpt>
      <trkpt lat="45.20495" lon="5.72661">
        <ele>589.177</ele>
        <time>2021-03-20T05:26:47Z</time>
      </trkpt>
      <trkpt lat="45.20506" lon="5.72666">
        <ele>590.777</ele>
        <time>2021-03-20T05:26:54Z</time>
      </trkpt>
      <trkpt lat="45.20513" lon="5.72669">
        <ele>591.913</ele>
        <time>2021-03-20T05:26:58Z</time>
      </trkpt>
      <trkpt lat="45.20527" lon="5.72677">
        <ele>594.372</ele>
        <time>2021-03-20T05:27:07Z</time>
      </trkpt>
      <trkpt lat="45.20532" lon="5.72682">
        <ele>595.252</ele>
        <time>2021-03-20T05:27:11Z</time>
      </trkpt>
      <trkpt lat="45.2054" lon="5.72687">
        <ele>596.787</ele>
        <time>2021-03-20T05:27:17Z</time>
      </trkpt>
      <trkpt lat="45.20552" lon="5.72699">
        <ele>598.371</ele>
        <time>2021-03-20T05:27:27Z</time>
      </trkpt>
      <trkpt lat="45.20564" lon="5.72704">
        <ele>600.508</ele>
        <time>2021-03-20T05:27:34Z</time>
      </trkpt>
      <trkpt lat="45.20577" lon="5.72709">
        <ele>603.521</ele>
        <time>2021-03-20T05:27:44Z</time>
      </trkpt>
      <trkpt lat="45.20579" lon="5.72708">
        <ele>603.565</ele>
        <time>2021-03-20T05:27:45Z</time>
      </trkpt>
      <trkpt lat="45.20575" lon="5.727">
        <ele>604.02</ele>
        <time>2021-03-20T05:27:52Z</time>
      </trkpt>
      <trkpt lat="45.20574" lon="5.727">
        <ele>604.418</ele>
        <time>2021-03-20T05:27:53Z</time>
      </trkpt>
      <trkpt lat="45.20564" lon="5.72693">
        <ele>604.279</ele>
        <time>2021-03-20T05:28:01Z</time>
      </trkpt>
      <trkpt lat="45.20555" lon="5.72683">
        <ele>605.049</ele>
        <time>2021-03-20T05:28:08Z</time>
      </trkpt>
      <trkpt lat="45.20549" lon="5.72675">
        <ele>606.331</ele>
        <time>2021-03-20T05:28:14Z</time>
      </trkpt>
      <trkpt lat="45.20544" lon="5.72667">
        <ele>607.91</ele>
        <time>2021-03-20T05:28:20Z</time>
      </trkpt>
      <trkpt lat="45.20539" lon="5.72657">
        <ele>608.624</ele>
        <time>2021-03-20T05:28:27Z</time>
      </trkpt>
      <trkpt lat="45.20533" lon="5.7265">
        <ele>609.649</ele>
        <time>2021-03-20T05:28:33Z</time>
      </trkpt>
      <trkpt lat="45.20524" lon="5.72646">
        <ele>610.404</ele>
        <time>2021-03-20T05:28:39Z</time>
      </trkpt>
      <trkpt lat="45.20519" lon="5.72644">
        <ele>610.383</ele>
        <time>2021-03-20T05:28:41Z</time>
      </trkpt>
      <trkpt lat="45.20506" lon="5.72634">
        <ele>611.914</ele>
        <time>2021-03-20T05:28:49Z</time>
      </trkpt>
      <trkpt lat="45.20496" lon="5.72623">
        <ele>614.971</ele>
        <time>2021-03-20T05:28:57Z</time>
      </trkpt>
      <trkpt lat="45.20492" lon="5.7261">
        <ele>616.846</ele>
        <time>2021-03-20T05:29:06Z</time>
      </trkpt>
      <trkpt lat="45.2049" lon="5.72599">
        <ele>617.927</ele>
        <time>2021-03-20T05:29:14Z</time>
      </trkpt>
      <trkpt lat="45.20486" lon="5.72585">
        <ele>619.167</ele>
        <time>2021-03-20T05:29:23Z</time>
      </trkpt>
      <trkpt lat="45.20485" lon="5.72576">
        <ele>620.302</ele>
        <time>2021-03-20T05:29:29Z</time>
      </trkpt>
      <trkpt lat="45.20485" lon="5.72561">
        <ele>621.182</ele>
        <time>2021-03-20T05:29:36Z</time>
      </trkpt>
      <trkpt lat="45.20487" lon="5.72551">
        <ele>622.86</ele>
        <time>2021-03-20T05:29:41Z</time>
      </trkpt>
      <trkpt lat="45.20469" lon="5.72538">
        <ele>624.902</ele>
        <time>2021-03-20T05:29:48Z</time>
      </trkpt>
      <trkpt lat="45.20469" lon="5.72541">
        <ele>624.628</ele>
        <time>2021-03-20T05:29:52Z</time>
      </trkpt>
      <trkpt lat="45.20473" lon="5.7255">
        <ele>626.232</ele>
        <time>2021-03-20T05:30:00Z</time>
      </trkpt>
      <trkpt lat="45.20482" lon="5.72559">
        <ele>628.336</ele>
        <time>2021-03-20T05:30:08Z</time>
      </trkpt>
      <trkpt lat="45.2049" lon="5.72564">
        <ele>629.146</ele>
        <time>2021-03-20T05:30:15Z</time>
      </trkpt>
      <trkpt lat="45.20491" lon="5.72552">
        <ele>631.048</ele>
        <time>2021-03-20T05:30:21Z</time>
      </trkpt>
      <trkpt lat="45.20487" lon="5.72535">
        <ele>633.301</ele>
        <time>2021-03-20T05:30:31Z</time>
      </trkpt>
      <trkpt lat="45.20485" lon="5.7252">
        <ele>634.327</ele>
        <time>2021-03-20T05:30:38Z</time>
      </trkpt>
      <trkpt lat="45.20487" lon="5.72509">
        <ele>633.951</ele>
        <time>2021-03-20T05:30:42Z</time>
      </trkpt>
      <trkpt lat="45.20486" lon="5.72494">
        <ele>633.524</ele>
        <time>2021-03-20T05:30:48Z</time>
      </trkpt>
      <trkpt lat="45.2048" lon="5.72475">
        <ele>634.579</ele>
        <time>2021-03-20T05:30:55Z</time>
      </trkpt>
      <trkpt lat="45.2048" lon="5.72465">
        <ele>636.225</ele>
        <time>2021-03-20T05:30:59Z</time>
      </trkpt>
      <trkpt lat="45.20479" lon="5.72458">
        <ele>637.76</ele>
        <time>2021-03-20T05:31:02Z</time>
      </trkpt>
      <trkpt lat="45.20479" lon="5.72441">
        <ele>638.517</ele>
        <time>2021-03-20T05:31:10Z</time>
      </trkpt>
      <trkpt lat="45.20484" lon="5.72429">
        <ele>639.246</ele>
        <time>2021-03-20T05:31:17Z</time>
      </trkpt>
      <trkpt lat="45.20492" lon="5.72435">
        <ele>639.517</ele>
        <time>2021-03-20T05:31:23Z</time>
      </trkpt>
      <trkpt lat="45.20506" lon="5.72441">
        <ele>640.304</ele>
        <time>2021-03-20T05:31:31Z</time>
      </trkpt>
      <trkpt lat="45.2051" lon="5.72441">
        <ele>641.115</ele>
        <time>2021-03-20T05:31:34Z</time>
      </trkpt>
      <trkpt lat="45.20503" lon="5.72439">
        <ele>639.985</ele>
        <time>2021-03-20T05:31:40Z</time>
      </trkpt>
      <trkpt lat="45.20497" lon="5.72437">
        <ele>639.381</ele>
        <time>2021-03-20T05:31:43Z</time>
      </trkpt>
      <trkpt lat="45.20488" lon="5.72429">
        <ele>639.137</ele>
        <time>2021-03-20T05:31:49Z</time>
      </trkpt>
      <trkpt lat="45.20474" lon="5.72433">
        <ele>638.464</ele>
        <time>2021-03-20T05:31:56Z</time>
      </trkpt>
      <trkpt lat="45.20475" lon="5.72445">
        <ele>638.224</ele>
        <time>2021-03-20T05:32:01Z</time>
      </trkpt>
      <trkpt lat="45.20479" lon="5.72458">
        <ele>636.492</ele>
        <time>2021-03-20T05:32:07Z</time>
      </trkpt>
      <trkpt lat="45.20479" lon="5.72462">
        <ele>637.049</ele>
        <time>2021-03-20T05:32:08Z</time>
      </trkpt>
      <trkpt lat="45.20479" lon="5.72464">
        <ele>635.836</ele>
        <time>2021-03-20T05:32:09Z</time>
      </trkpt>
      <trkpt lat="45.20478" lon="5.72475">
        <ele>634.442</ele>
        <time>2021-03-20T05:32:12Z</time>
      </trkpt>
      <trkpt lat="45.20484" lon="5.72501">
        <ele>633.443</ele>
        <time>2021-03-20T05:32:20Z</time>
      </trkpt>
      <trkpt lat="45.20488" lon="5.72525">
        <ele>634.158</ele>
        <time>2021-03-20T05:32:27Z</time>
      </trkpt>
      <trkpt lat="45.20499" lon="5.72539">
        <ele>634.606</ele>
        <time>2021-03-20T05:32:34Z</time>
      </trkpt>
      <trkpt lat="45.2051" lon="5.72556">
        <ele>634.725</ele>
        <time>2021-03-20T05:32:41Z</time>
      </trkpt>
      <trkpt lat="45.20523" lon="5.72561">
        <ele>634.556</ele>
        <time>2021-03-20T05:32:47Z</time>
      </trkpt>
      <trkpt lat="45.20532" lon="5.72562">
        <ele>632.643</ele>
        <time>2021-03-20T05:32:52Z</time>
      </trkpt>
      <trkpt lat="45.20544" lon="5.72559">
        <ele>633.205</ele>
        <time>2021-03-20T05:32:59Z</time>
      </trkpt>
      <trkpt lat="45.20545" lon="5.72559">
        <ele>633.026</ele>
        <time>2021-03-20T05:33:00Z</time>
      </trkpt>
      <trkpt lat="45.20562" lon="5.72562">
        <ele>634.288</ele>
        <time>2021-03-20T05:33:08Z</time>
      </trkpt>
      <trkpt lat="45.20566" lon="5.72564">
        <ele>634.633</ele>
        <time>2021-03-20T05:33:10Z</time>
      </trkpt>
      <trkpt lat="45.2058" lon="5.72569">
        <ele>635.403</ele>
        <time>2021-03-20T05:33:17Z</time>
      </trkpt>
      <trkpt lat="45.20587" lon="5.72573">
        <ele>636.277</ele>
        <time>2021-03-20T05:33:21Z</time>
      </trkpt>
      <trkpt lat="45.206" lon="5.72585">
        <ele>636.58</ele>
        <time>2021-03-20T05:33:29Z</time>
      </trkpt>
      <trkpt lat="45.20613" lon="5.72598">
        <ele>639.033</ele>
        <time>2021-03-20T05:33:38Z</time>
      </trkpt>
      <trkpt lat="45.20623" lon="5.72603">
        <ele>640.861</ele>
        <time>2021-03-20T05:33:45Z</time>
      </trkpt>
      <trkpt lat="45.20632" lon="5.72606">
        <ele>641.403</ele>
        <time>2021-03-20T05:33:52Z</time>
      </trkpt>
      <trkpt lat="45.20639" lon="5.72602">
        <ele>641.686</ele>
        <time>2021-03-20T05:34:00Z</time>
      </trkpt>
      <trkpt lat="45.20641" lon="5.72598">
        <ele>643.113</ele>
        <time>2021-03-20T05:34:03Z</time>
      </trkpt>
      <trkpt lat="45.20645" lon="5.72593">
        <ele>643.578</ele>
        <time>2021-03-20T05:34:07Z</time>
      </trkpt>
      <trkpt lat="45.20649" lon="5.72586">
        <ele>644.239</ele>
        <time>2021-03-20T05:34:11Z</time>
      </trkpt>
      <trkpt lat="45.20658" lon="5.7258">
        <ele>646.57</ele>
        <time>2021-03-20T05:34:17Z</time>
      </trkpt>
      <trkpt lat="45.20667" lon="5.72578">
        <ele>648.742</ele>
        <time>2021-03-20T05:34:23Z</time>
      </trkpt>
      <trkpt lat="45.20672" lon="5.72576">
        <ele>649.475</ele>
        <time>2021-03-20T05:34:25Z</time>
      </trkpt>
      <trkpt lat="45.20685" lon="5.72576">
        <ele>650.533</ele>
        <time>2021-03-20T05:34:33Z</time>
      </trkpt>
      <trkpt lat="45.207" lon="5.7258">
        <ele>652.039</ele>
        <time>2021-03-20T05:34:40Z</time>
      </trkpt>
      <trkpt lat="45.20705" lon="5.72581">
        <ele>653.77</ele>
        <time>2021-03-20T05:34:43Z</time>
      </trkpt>
      <trkpt lat="45.20711" lon="5.72582">
        <ele>654.808</ele>
        <time>2021-03-20T05:34:47Z</time>
      </trkpt>
      <trkpt lat="45.2072" lon="5.72581">
        <ele>656.523</ele>
        <time>2021-03-20T05:34:52Z</time>
      </trkpt>
      <trkpt lat="45.2073" lon="5.72586">
        <ele>660.148</ele>
        <time>2021-03-20T05:35:00Z</time>
      </trkpt>
      <trkpt lat="45.20738" lon="5.72589">
        <ele>662.24</ele>
        <time>2021-03-20T05:35:08Z</time>
      </trkpt>
      <trkpt lat="45.20739" lon="5.72597">
        <ele>662.897</ele>
        <time>2021-03-20T05:35:13Z</time>
      </trkpt>
      <trkpt lat="45.20744" lon="5.72612">
        <ele>665.879</ele>
        <time>2021-03-20T05:35:22Z</time>
      </trkpt>
      <trkpt lat="45.20743" lon="5.72616">
        <ele>666.832</ele>
        <time>2021-03-20T05:35:24Z</time>
      </trkpt>
      <trkpt lat="45.20751" lon="5.72618">
        <ele>668.552</ele>
        <time>2021-03-20T05:35:32Z</time>
      </trkpt>
      <trkpt lat="45.20759" lon="5.72616">
        <ele>670.411</ele>
        <time>2021-03-20T05:35:38Z</time>
      </trkpt>
      <trkpt lat="45.20764" lon="5.72614">
        <ele>672.006</ele>
        <time>2021-03-20T05:35:44Z</time>
      </trkpt>
      <trkpt lat="45.2077" lon="5.72612">
        <ele>673.203</ele>
        <time>2021-03-20T05:35:50Z</time>
      </trkpt>
      <trkpt lat="45.20771" lon="5.72615">
        <ele>674.474</ele>
        <time>2021-03-20T05:35:53Z</time>
      </trkpt>
      <trkpt lat="45.20772" lon="5.72622">
        <ele>676.02</ele>
        <time>2021-03-20T05:35:58Z</time>
      </trkpt>
      <trkpt lat="45.2077" lon="5.72637">
        <ele>677.823</ele>
        <time>2021-03-20T05:36:07Z</time>
      </trkpt>
      <trkpt lat="45.20771" lon="5.72645">
        <ele>679.651</ele>
        <time>2021-03-20T05:36:13Z</time>
      </trkpt>
      <trkpt lat="45.20777" lon="5.72647">
        <ele>681.467</ele>
        <time>2021-03-20T05:36:20Z</time>
      </trkpt>
      <trkpt lat="45.20782" lon="5.72641">
        <ele>682.716</ele>
        <time>2021-03-20T05:36:26Z</time>
      </trkpt>
      <trkpt lat="45.20784" lon="5.7264">
        <ele>684.19</ele>
        <time>2021-03-20T05:36:28Z</time>
      </trkpt>
      <trkpt lat="45.20789" lon="5.72638">
        <ele>684.826</ele>
        <time>2021-03-20T05:36:33Z</time>
      </trkpt>
      <trkpt lat="45.20795" lon="5.72631">
        <ele>686.172</ele>
        <time>2021-03-20T05:36:40Z</time>
      </trkpt>
      <trkpt lat="45.20797" lon="5.72624">
        <ele>687.547</ele>
        <time>2021-03-20T05:36:46Z</time>
      </trkpt>
      <trkpt lat="45.20801" lon="5.7263">
        <ele>689.321</ele>
        <time>2021-03-20T05:36:52Z</time>
      </trkpt>
      <trkpt lat="45.20803" lon="5.72637">
        <ele>690.819</ele>
        <time>2021-03-20T05:36:57Z</time>
      </trkpt>
      <trkpt lat="45.20803" lon="5.72649">
        <ele>694.075</ele>
        <time>2021-03-20T05:37:06Z</time>
      </trkpt>
      <trkpt lat="45.20804" lon="5.7266">
        <ele>696.535</ele>
        <time>2021-03-20T05:37:13Z</time>
      </trkpt>
      <trkpt lat="45.20808" lon="5.72668">
        <ele>697.513</ele>
        <time>2021-03-20T05:37:19Z</time>
      </trkpt>
      <trkpt lat="45.20814" lon="5.72667">
        <ele>699.043</ele>
        <time>2021-03-20T05:37:25Z</time>
      </trkpt>
      <trkpt lat="45.20816" lon="5.72666">
        <ele>700.229</ele>
        <time>2021-03-20T05:37:27Z</time>
      </trkpt>
      <trkpt lat="45.20826" lon="5.72655">
        <ele>702.128</ele>
        <time>2021-03-20T05:37:36Z</time>
      </trkpt>
      <trkpt lat="45.20828" lon="5.72654">
        <ele>704.393</ele>
        <time>2021-03-20T05:37:40Z</time>
      </trkpt>
      <trkpt lat="45.20833" lon="5.72658">
        <ele>706.078</ele>
        <time>2021-03-20T05:37:45Z</time>
      </trkpt>
      <trkpt lat="45.20835" lon="5.72665">
        <ele>707.694</ele>
        <time>2021-03-20T05:37:50Z</time>
      </trkpt>
      <trkpt lat="45.20835" lon="5.72668">
        <ele>708.498</ele>
        <time>2021-03-20T05:37:52Z</time>
      </trkpt>
      <trkpt lat="45.20835" lon="5.72675">
        <ele>709.462</ele>
        <time>2021-03-20T05:37:58Z</time>
      </trkpt>
      <trkpt lat="45.20836" lon="5.72688">
        <ele>711.933</ele>
        <time>2021-03-20T05:38:08Z</time>
      </trkpt>
      <trkpt lat="45.20838" lon="5.72693">
        <ele>713.155</ele>
        <time>2021-03-20T05:38:12Z</time>
      </trkpt>
      <trkpt lat="45.20843" lon="5.72691">
        <ele>715.776</ele>
        <time>2021-03-20T05:38:20Z</time>
      </trkpt>
      <trkpt lat="45.20849" lon="5.72689">
        <ele>717.854</ele>
        <time>2021-03-20T05:38:26Z</time>
      </trkpt>
      <trkpt lat="45.20859" lon="5.72687">
        <ele>719.635</ele>
        <time>2021-03-20T05:38:35Z</time>
      </trkpt>
      <trkpt lat="45.20866" lon="5.72687">
        <ele>721.331</ele>
        <time>2021-03-20T05:38:41Z</time>
      </trkpt>
      <trkpt lat="45.20874" lon="5.72684">
        <ele>722.26</ele>
        <time>2021-03-20T05:38:48Z</time>
      </trkpt>
      <trkpt lat="45.20885" lon="5.72679">
        <ele>724.952</ele>
        <time>2021-03-20T05:38:56Z</time>
      </trkpt>
      <trkpt lat="45.20887" lon="5.72679">
        <ele>725.095</ele>
        <time>2021-03-20T05:38:57Z</time>
      </trkpt>
      <trkpt lat="45.20895" lon="5.72677">
        <ele>726.092</ele>
        <time>2021-03-20T05:39:04Z</time>
      </trkpt>
      <trkpt lat="45.20904" lon="5.72676">
        <ele>728.581</ele>
        <time>2021-03-20T05:39:11Z</time>
      </trkpt>
      <trkpt lat="45.20914" lon="5.72673">
        <ele>731.231</ele>
        <time>2021-03-20T05:39:19Z</time>
      </trkpt>
      <trkpt lat="45.20919" lon="5.72677">
        <ele>733.211</ele>
        <time>2021-03-20T05:39:25Z</time>
      </trkpt>
      <trkpt lat="45.20926" lon="5.72682">
        <ele>734.845</ele>
        <time>2021-03-20T05:39:31Z</time>
      </trkpt>
      <trkpt lat="45.20931" lon="5.72685">
        <ele>735.96</ele>
        <time>2021-03-20T05:39:36Z</time>
      </trkpt>
      <trkpt lat="45.20939" lon="5.72699">
        <ele>737.453</ele>
        <time>2021-03-20T05:39:44Z</time>
      </trkpt>
      <trkpt lat="45.20946" lon="5.72709">
        <ele>740.575</ele>
        <time>2021-03-20T05:39:52Z</time>
      </trkpt>
      <trkpt lat="45.20953" lon="5.72713">
        <ele>742.756</ele>
        <time>2021-03-20T05:39:58Z</time>
      </trkpt>
      <trkpt lat="45.20955" lon="5.72714">
        <ele>743.594</ele>
        <time>2021-03-20T05:40:00Z</time>
      </trkpt>
      <trkpt lat="45.2096" lon="5.72718">
        <ele>745.303</ele>
        <time>2021-03-20T05:40:07Z</time>
      </trkpt>
      <trkpt lat="45.20964" lon="5.72721">
        <ele>746.607</ele>
        <time>2021-03-20T05:40:12Z</time>
      </trkpt>
      <trkpt lat="45.2097" lon="5.72727">
        <ele>748.102</ele>
        <time>2021-03-20T05:40:18Z</time>
      </trkpt>
      <trkpt lat="45.20973" lon="5.72733">
        <ele>749.702</ele>
        <time>2021-03-20T05:40:22Z</time>
      </trkpt>
      <trkpt lat="45.20975" lon="5.72742">
        <ele>751.744</ele>
        <time>2021-03-20T05:40:29Z</time>
      </trkpt>
      <trkpt lat="45.20979" lon="5.72749">
        <ele>753.717</ele>
        <time>2021-03-20T05:40:35Z</time>
      </trkpt>
      <trkpt lat="45.20981" lon="5.72754">
        <ele>756.102</ele>
        <time>2021-03-20T05:40:40Z</time>
      </trkpt>
      <trkpt lat="45.20982" lon="5.72755">
        <ele>756.19</ele>
        <time>2021-03-20T05:40:41Z</time>
      </trkpt>
      <trkpt lat="45.20988" lon="5.7276">
        <ele>758.991</ele>
        <time>2021-03-20T05:40:50Z</time>
      </trkpt>
      <trkpt lat="45.2099" lon="5.72761">
        <ele>760.198</ele>
        <time>2021-03-20T05:40:56Z</time>
      </trkpt>
      <trkpt lat="45.20995" lon="5.72756">
        <ele>762.937</ele>
        <time>2021-03-20T05:41:04Z</time>
      </trkpt>
      <trkpt lat="45.21" lon="5.72755">
        <ele>764.561</ele>
        <time>2021-03-20T05:41:10Z</time>
      </trkpt>
      <trkpt lat="45.21003" lon="5.72749">
        <ele>768.039</ele>
        <time>2021-03-20T05:41:18Z</time>
      </trkpt>
      <trkpt lat="45.21008" lon="5.72744">
        <ele>768.588</ele>
        <time>2021-03-20T05:41:25Z</time>
      </trkpt>
      <trkpt lat="45.21012" lon="5.72741">
        <ele>771.132</ele>
        <time>2021-03-20T05:41:34Z</time>
      </trkpt>
      <trkpt lat="45.21017" lon="5.72743">
        <ele>773.964</ele>
        <time>2021-03-20T05:41:41Z</time>
      </trkpt>
      <trkpt lat="45.21019" lon="5.72738">
        <ele>775.214</ele>
        <time>2021-03-20T05:41:47Z</time>
      </trkpt>
      <trkpt lat="45.21028" lon="5.7274">
        <ele>777.331</ele>
        <time>2021-03-20T05:41:55Z</time>
      </trkpt>
      <trkpt lat="45.21036" lon="5.72739">
        <ele>780.481</ele>
        <time>2021-03-20T05:42:01Z</time>
      </trkpt>
      <trkpt lat="45.21036" lon="5.72739">
        <ele>780.75</ele>
        <time>2021-03-20T05:42:02Z</time>
      </trkpt>
      <trkpt lat="45.21044" lon="5.72744">
        <ele>782.462</ele>
        <time>2021-03-20T05:42:09Z</time>
      </trkpt>
      <trkpt lat="45.2105" lon="5.72754">
        <ele>783.214</ele>
        <time>2021-03-20T05:42:17Z</time>
      </trkpt>
      <trkpt lat="45.21052" lon="5.72757">
        <ele>783.468</ele>
        <time>2021-03-20T05:42:19Z</time>
      </trkpt>
      <trkpt lat="45.21054" lon="5.72768">
        <ele>783.954</ele>
        <time>2021-03-20T05:42:25Z</time>
      </trkpt>
      <trkpt lat="45.21059" lon="5.72783">
        <ele>784.505</ele>
        <time>2021-03-20T05:42:32Z</time>
      </trkpt>
      <trkpt lat="45.21063" lon="5.72798">
        <ele>784.112</ele>
        <time>2021-03-20T05:42:39Z</time>
      </trkpt>
      <trkpt lat="45.21072" lon="5.72815">
        <ele>785.452</ele>
        <time>2021-03-20T05:42:47Z</time>
      </trkpt>
      <trkpt lat="45.21078" lon="5.72829">
        <ele>786.576</ele>
        <time>2021-03-20T05:42:53Z</time>
      </trkpt>
      <trkpt lat="45.2109" lon="5.72839">
        <ele>787.464</ele>
        <time>2021-03-20T05:43:02Z</time>
      </trkpt>
      <trkpt lat="45.211" lon="5.72854">
        <ele>789.111</ele>
        <time>2021-03-20T05:43:11Z</time>
      </trkpt>
      <trkpt lat="45.21104" lon="5.72859">
        <ele>790.597</ele>
        <time>2021-03-20T05:43:16Z</time>
      </trkpt>
      <trkpt lat="45.2111" lon="5.72868">
        <ele>791.252</ele>
        <time>2021-03-20T05:43:22Z</time>
      </trkpt>
      <trkpt lat="45.21116" lon="5.72875">
        <ele>792.808</ele>
        <time>2021-03-20T05:43:27Z</time>
      </trkpt>
      <trkpt lat="45.21124" lon="5.7288">
        <ele>794.412</ele>
        <time>2021-03-20T05:43:33Z</time>
      </trkpt>
      <trkpt lat="45.21131" lon="5.72884">
        <ele>797.089</ele>
        <time>2021-03-20T05:43:40Z</time>
      </trkpt>
      <trkpt lat="45.21139" lon="5.72888">
        <ele>799.224</ele>
        <time>2021-03-20T05:43:48Z</time>
      </trkpt>
      <trkpt lat="45.21146" lon="5.72891">
        <ele>801.094</ele>
        <time>2021-03-20T05:43:55Z</time>
      </trkpt>
      <trkpt lat="45.21156" lon="5.72894">
        <ele>801.799</ele>
        <time>2021-03-20T05:44:02Z</time>
      </trkpt>
      <trkpt lat="45.21167" lon="5.72897">
        <ele>802.681</ele>
        <time>2021-03-20T05:44:09Z</time>
      </trkpt>
      <trkpt lat="45.21175" lon="5.72902">
        <ele>804.857</ele>
        <time>2021-03-20T05:44:16Z</time>
      </trkpt>
      <trkpt lat="45.21185" lon="5.72907">
        <ele>806.446</ele>
        <time>2021-03-20T05:44:23Z</time>
      </trkpt>
      <trkpt lat="45.21186" lon="5.72909">
        <ele>807.05</ele>
        <time>2021-03-20T05:44:24Z</time>
      </trkpt>
      <trkpt lat="45.21187" lon="5.72913">
        <ele>807.569</ele>
        <time>2021-03-20T05:44:26Z</time>
      </trkpt>
      <trkpt lat="45.21196" lon="5.72923">
        <ele>809.91</ele>
        <time>2021-03-20T05:44:35Z</time>
      </trkpt>
      <trkpt lat="45.21201" lon="5.72933">
        <ele>810.865</ele>
        <time>2021-03-20T05:44:41Z</time>
      </trkpt>
      <trkpt lat="45.21207" lon="5.72942">
        <ele>812.258</ele>
        <time>2021-03-20T05:44:47Z</time>
      </trkpt>
      <trkpt lat="45.21212" lon="5.72944">
        <ele>813.58</ele>
        <time>2021-03-20T05:44:51Z</time>
      </trkpt>
      <trkpt lat="45.21213" lon="5.72939">
        <ele>815.608</ele>
        <time>2021-03-20T05:44:57Z</time>
      </trkpt>
      <trkpt lat="45.21212" lon="5.72936">
        <ele>816.734</ele>
        <time>2021-03-20T05:44:59Z</time>
      </trkpt>
      <trkpt lat="45.21211" lon="5.72925">
        <ele>819.17</ele>
        <time>2021-03-20T05:45:07Z</time>
      </trkpt>
      <trkpt lat="45.21212" lon="5.72919">
        <ele>819.798</ele>
        <time>2021-03-20T05:45:13Z</time>
      </trkpt>
      <trkpt lat="45.21216" lon="5.72919">
        <ele>820.781</ele>
        <time>2021-03-20T05:45:19Z</time>
      </trkpt>
      <trkpt lat="45.21217" lon="5.7292">
        <ele>821.481</ele>
        <time>2021-03-20T05:45:21Z</time>
      </trkpt>
      <trkpt lat="45.21223" lon="5.72922">
        <ele>822.938</ele>
        <time>2021-03-20T05:45:26Z</time>
      </trkpt>
      <trkpt lat="45.21227" lon="5.72929">
        <ele>823.734</ele>
        <time>2021-03-20T05:45:31Z</time>
      </trkpt>
      <trkpt lat="45.2124" lon="5.72935">
        <ele>825.578</ele>
        <time>2021-03-20T05:45:41Z</time>
      </trkpt>
      <trkpt lat="45.21247" lon="5.72936">
        <ele>827.681</ele>
        <time>2021-03-20T05:45:48Z</time>
      </trkpt>
      <trkpt lat="45.21253" lon="5.72938">
        <ele>829.896</ele>
        <time>2021-03-20T05:45:54Z</time>
      </trkpt>
      <trkpt lat="45.21259" lon="5.72944">
        <ele>830.98</ele>
        <time>2021-03-20T05:46:01Z</time>
      </trkpt>
      <trkpt lat="45.21266" lon="5.72947">
        <ele>833.412</ele>
        <time>2021-03-20T05:46:09Z</time>
      </trkpt>
      <trkpt lat="45.21272" lon="5.7295">
        <ele>835.845</ele>
        <time>2021-03-20T05:46:16Z</time>
      </trkpt>
      <trkpt lat="45.21273" lon="5.72953">
        <ele>835.52</ele>
        <time>2021-03-20T05:46:18Z</time>
      </trkpt>
      <trkpt lat="45.2128" lon="5.72961">
        <ele>838.104</ele>
        <time>2021-03-20T05:46:26Z</time>
      </trkpt>
      <trkpt lat="45.2129" lon="5.7297">
        <ele>841.202</ele>
        <time>2021-03-20T05:46:36Z</time>
      </trkpt>
      <trkpt lat="45.21294" lon="5.72976">
        <ele>842.179</ele>
        <time>2021-03-20T05:46:42Z</time>
      </trkpt>
      <trkpt lat="45.21302" lon="5.72983">
        <ele>844.488</ele>
        <time>2021-03-20T05:46:50Z</time>
      </trkpt>
      <trkpt lat="45.21305" lon="5.72985">
        <ele>844.664</ele>
        <time>2021-03-20T05:46:53Z</time>
      </trkpt>
      <trkpt lat="45.21315" lon="5.73">
        <ele>848.601</ele>
        <time>2021-03-20T05:47:04Z</time>
      </trkpt>
      <trkpt lat="45.21317" lon="5.73004">
        <ele>848.601</ele>
        <time>2021-03-20T05:47:07Z</time>
      </trkpt>
      <trkpt lat="45.21324" lon="5.73012">
        <ele>850.712</ele>
        <time>2021-03-20T05:47:15Z</time>
      </trkpt>
      <trkpt lat="45.21331" lon="5.7302">
        <ele>851.552</ele>
        <time>2021-03-20T05:47:24Z</time>
      </trkpt>
      <trkpt lat="45.21338" lon="5.73028">
        <ele>852.281</ele>
        <time>2021-03-20T05:47:31Z</time>
      </trkpt>
      <trkpt lat="45.21339" lon="5.73031">
        <ele>853.175</ele>
        <time>2021-03-20T05:47:33Z</time>
      </trkpt>
      <trkpt lat="45.21343" lon="5.73036">
        <ele>856.457</ele>
        <time>2021-03-20T05:47:39Z</time>
      </trkpt>
      <trkpt lat="45.21344" lon="5.73037">
        <ele>856.213</ele>
        <time>2021-03-20T05:47:40Z</time>
      </trkpt>
      <trkpt lat="45.21352" lon="5.73045">
        <ele>858.414</ele>
        <time>2021-03-20T05:47:49Z</time>
      </trkpt>
      <trkpt lat="45.21357" lon="5.73054">
        <ele>860.287</ele>
        <time>2021-03-20T05:47:57Z</time>
      </trkpt>
      <trkpt lat="45.21364" lon="5.73062">
        <ele>863.487</ele>
        <time>2021-03-20T05:48:05Z</time>
      </trkpt>
      <trkpt lat="45.21366" lon="5.73065">
        <ele>863.275</ele>
        <time>2021-03-20T05:48:08Z</time>
      </trkpt>
      <trkpt lat="45.21377" lon="5.73078">
        <ele>864.297</ele>
        <time>2021-03-20T05:48:17Z</time>
      </trkpt>
      <trkpt lat="45.21383" lon="5.73085">
        <ele>864.022</ele>
        <time>2021-03-20T05:48:22Z</time>
      </trkpt>
      <trkpt lat="45.21389" lon="5.73092">
        <ele>864.82</ele>
        <time>2021-03-20T05:48:26Z</time>
      </trkpt>
      <trkpt lat="45.214" lon="5.73108">
        <ele>866.802</ele>
        <time>2021-03-20T05:48:35Z</time>
      </trkpt>
      <trkpt lat="45.2141" lon="5.73124">
        <ele>867.482</ele>
        <time>2021-03-20T05:48:43Z</time>
      </trkpt>
      <trkpt lat="45.21418" lon="5.73139">
        <ele>869.113</ele>
        <time>2021-03-20T05:48:51Z</time>
      </trkpt>
      <trkpt lat="45.21424" lon="5.73143">
        <ele>870.227</ele>
        <time>2021-03-20T05:48:56Z</time>
      </trkpt>
      <trkpt lat="45.21429" lon="5.73147">
        <ele>871.248</ele>
        <time>2021-03-20T05:49:01Z</time>
      </trkpt>
      <trkpt lat="45.21437" lon="5.73149">
        <ele>872.777</ele>
        <time>2021-03-20T05:49:07Z</time>
      </trkpt>
      <trkpt lat="45.21445" lon="5.73148">
        <ele>873.459</ele>
        <time>2021-03-20T05:49:12Z</time>
      </trkpt>
      <trkpt lat="45.21452" lon="5.73151">
        <ele>876.126</ele>
        <time>2021-03-20T05:49:18Z</time>
      </trkpt>
      <trkpt lat="45.21458" lon="5.73162">
        <ele>877.168</ele>
        <time>2021-03-20T05:49:25Z</time>
      </trkpt>
      <trkpt lat="45.21463" lon="5.7317">
        <ele>878.299</ele>
        <time>2021-03-20T05:49:31Z</time>
      </trkpt>
      <trkpt lat="45.21471" lon="5.7318">
        <ele>880.551</ele>
        <time>2021-03-20T05:49:40Z</time>
      </trkpt>
      <trkpt lat="45.21473" lon="5.73187">
        <ele>883.512</ele>
        <time>2021-03-20T05:49:47Z</time>
      </trkpt>
      <trkpt lat="45.21474" lon="5.73189">
        <ele>882.943</ele>
        <time>2021-03-20T05:49:48Z</time>
      </trkpt>
      <trkpt lat="45.21476" lon="5.73198">
        <ele>883.715</ele>
        <time>2021-03-20T05:49:53Z</time>
      </trkpt>
      <trkpt lat="45.21477" lon="5.73212">
        <ele>884.738</ele>
        <time>2021-03-20T05:49:59Z</time>
      </trkpt>
      <trkpt lat="45.21482" lon="5.73223">
        <ele>885.386</ele>
        <time>2021-03-20T05:50:04Z</time>
      </trkpt>
      <trkpt lat="45.2149" lon="5.73232">
        <ele>887.254</ele>
        <time>2021-03-20T05:50:12Z</time>
      </trkpt>
      <trkpt lat="45.21496" lon="5.73239">
        <ele>889.421</ele>
        <time>2021-03-20T05:50:19Z</time>
      </trkpt>
      <trkpt lat="45.215" lon="5.73249">
        <ele>890.621</ele>
        <time>2021-03-20T05:50:24Z</time>
      </trkpt>
      <trkpt lat="45.21508" lon="5.73261">
        <ele>892.081</ele>
        <time>2021-03-20T05:50:32Z</time>
      </trkpt>
      <trkpt lat="45.21507" lon="5.73276">
        <ele>891.846</ele>
        <time>2021-03-20T05:50:38Z</time>
      </trkpt>
      <trkpt lat="45.21511" lon="5.7329">
        <ele>891.835</ele>
        <time>2021-03-20T05:50:45Z</time>
      </trkpt>
      <trkpt lat="45.21513" lon="5.73305">
        <ele>894.292</ele>
        <time>2021-03-20T05:50:53Z</time>
      </trkpt>
      <trkpt lat="45.21515" lon="5.73307">
        <ele>894.414</ele>
        <time>2021-03-20T05:50:55Z</time>
      </trkpt>
      <trkpt lat="45.21526" lon="5.73313">
        <ele>895.356</ele>
        <time>2021-03-20T05:51:03Z</time>
      </trkpt>
      <trkpt lat="45.21537" lon="5.73317">
        <ele>896.556</ele>
        <time>2021-03-20T05:51:11Z</time>
      </trkpt>
      <trkpt lat="45.21544" lon="5.73323">
        <ele>897.55</ele>
        <time>2021-03-20T05:51:16Z</time>
      </trkpt>
      <trkpt lat="45.21554" lon="5.73327">
        <ele>899.355</ele>
        <time>2021-03-20T05:51:24Z</time>
      </trkpt>
      <trkpt lat="45.21556" lon="5.73328">
        <ele>900.431</ele>
        <time>2021-03-20T05:51:25Z</time>
      </trkpt>
      <trkpt lat="45.21564" lon="5.73337">
        <ele>901.669</ele>
        <time>2021-03-20T05:51:33Z</time>
      </trkpt>
      <trkpt lat="45.21572" lon="5.73339">
        <ele>902.69</ele>
        <time>2021-03-20T05:51:39Z</time>
      </trkpt>
      <trkpt lat="45.21582" lon="5.73345">
        <ele>904.467</ele>
        <time>2021-03-20T05:51:47Z</time>
      </trkpt>
      <trkpt lat="45.21591" lon="5.73352">
        <ele>906.512</ele>
        <time>2021-03-20T05:51:56Z</time>
      </trkpt>
      <trkpt lat="45.21597" lon="5.73362">
        <ele>908.019</ele>
        <time>2021-03-20T05:52:03Z</time>
      </trkpt>
      <trkpt lat="45.21605" lon="5.7337">
        <ele>909.198</ele>
        <time>2021-03-20T05:52:11Z</time>
      </trkpt>
      <trkpt lat="45.21613" lon="5.73376">
        <ele>910.456</ele>
        <time>2021-03-20T05:52:17Z</time>
      </trkpt>
      <trkpt lat="45.21623" lon="5.73385">
        <ele>912.404</ele>
        <time>2021-03-20T05:52:26Z</time>
      </trkpt>
      <trkpt lat="45.21625" lon="5.73388">
        <ele>913.013</ele>
        <time>2021-03-20T05:52:28Z</time>
      </trkpt>
      <trkpt lat="45.21634" lon="5.73396">
        <ele>914.213</ele>
        <time>2021-03-20T05:52:37Z</time>
      </trkpt>
      <trkpt lat="45.21641" lon="5.73402">
        <ele>915.482</ele>
        <time>2021-03-20T05:52:43Z</time>
      </trkpt>
      <trkpt lat="45.21645" lon="5.73407">
        <ele>915.771</ele>
        <time>2021-03-20T05:52:47Z</time>
      </trkpt>
      <trkpt lat="45.21649" lon="5.73415">
        <ele>916.235</ele>
        <time>2021-03-20T05:52:51Z</time>
      </trkpt>
      <trkpt lat="45.21658" lon="5.73433">
        <ele>917.652</ele>
        <time>2021-03-20T05:53:01Z</time>
      </trkpt>
      <trkpt lat="45.21664" lon="5.73451">
        <ele>918.737</ele>
        <time>2021-03-20T05:53:10Z</time>
      </trkpt>
      <trkpt lat="45.21668" lon="5.73475">
        <ele>921.498</ele>
        <time>2021-03-20T05:53:19Z</time>
      </trkpt>
      <trkpt lat="45.21671" lon="5.73481">
        <ele>922.297</ele>
        <time>2021-03-20T05:53:22Z</time>
      </trkpt>
      <trkpt lat="45.21673" lon="5.73482">
        <ele>922.845</ele>
        <time>2021-03-20T05:53:24Z</time>
      </trkpt>
      <trkpt lat="45.21673" lon="5.73475">
        <ele>924.633</ele>
        <time>2021-03-20T05:53:30Z</time>
      </trkpt>
      <trkpt lat="45.21672" lon="5.7347">
        <ele>925.202</ele>
        <time>2021-03-20T05:53:33Z</time>
      </trkpt>
      <trkpt lat="45.2167" lon="5.73454">
        <ele>927.074</ele>
        <time>2021-03-20T05:53:40Z</time>
      </trkpt>
      <trkpt lat="45.21672" lon="5.73442">
        <ele>928.182</ele>
        <time>2021-03-20T05:53:48Z</time>
      </trkpt>
      <trkpt lat="45.21673" lon="5.73437">
        <ele>928.452</ele>
        <time>2021-03-20T05:53:51Z</time>
      </trkpt>
      <trkpt lat="45.21675" lon="5.73425">
        <ele>930.618</ele>
        <time>2021-03-20T05:53:58Z</time>
      </trkpt>
      <trkpt lat="45.21674" lon="5.7342">
        <ele>931.907</ele>
        <time>2021-03-20T05:54:02Z</time>
      </trkpt>
      <trkpt lat="45.2167" lon="5.73407">
        <ele>933.688</ele>
        <time>2021-03-20T05:54:08Z</time>
      </trkpt>
      <trkpt lat="45.21665" lon="5.73394">
        <ele>935.115</ele>
        <time>2021-03-20T05:54:15Z</time>
      </trkpt>
      <trkpt lat="45.21664" lon="5.73387">
        <ele>936.47</ele>
        <time>2021-03-20T05:54:20Z</time>
      </trkpt>
      <trkpt lat="45.21663" lon="5.73377">
        <ele>939.474</ele>
        <time>2021-03-20T05:54:28Z</time>
      </trkpt>
      <trkpt lat="45.21663" lon="5.73375">
        <ele>939.722</ele>
        <time>2021-03-20T05:54:29Z</time>
      </trkpt>
      <trkpt lat="45.21661" lon="5.73367">
        <ele>940.78</ele>
        <time>2021-03-20T05:54:37Z</time>
      </trkpt>
      <trkpt lat="45.21659" lon="5.73359">
        <ele>942.258</ele>
        <time>2021-03-20T05:54:43Z</time>
      </trkpt>
      <trkpt lat="45.21653" lon="5.73354">
        <ele>944.31</ele>
        <time>2021-03-20T05:54:49Z</time>
      </trkpt>
      <trkpt lat="45.21654" lon="5.73352">
        <ele>945.228</ele>
        <time>2021-03-20T05:54:51Z</time>
      </trkpt>
      <trkpt lat="45.21651" lon="5.73344">
        <ele>946.665</ele>
        <time>2021-03-20T05:54:57Z</time>
      </trkpt>
      <trkpt lat="45.21649" lon="5.73336">
        <ele>948.26</ele>
        <time>2021-03-20T05:55:04Z</time>
      </trkpt>
      <trkpt lat="45.21644" lon="5.73321">
        <ele>950.868</ele>
        <time>2021-03-20T05:55:13Z</time>
      </trkpt>
      <trkpt lat="45.21642" lon="5.73312">
        <ele>952.183</ele>
        <time>2021-03-20T05:55:19Z</time>
      </trkpt>
      <trkpt lat="45.21635" lon="5.73294">
        <ele>954.87</ele>
        <time>2021-03-20T05:55:28Z</time>
      </trkpt>
      <trkpt lat="45.21634" lon="5.73283">
        <ele>956.712</ele>
        <time>2021-03-20T05:55:38Z</time>
      </trkpt>
      <trkpt lat="45.21629" lon="5.73271">
        <ele>957.744</ele>
        <time>2021-03-20T05:55:46Z</time>
      </trkpt>
      <trkpt lat="45.21622" lon="5.73258">
        <ele>960.269</ele>
        <time>2021-03-20T05:55:56Z</time>
      </trkpt>
      <trkpt lat="45.21617" lon="5.7325">
        <ele>962.04</ele>
        <time>2021-03-20T05:56:02Z</time>
      </trkpt>
      <trkpt lat="45.21615" lon="5.73244">
        <ele>962.24</ele>
        <time>2021-03-20T05:56:07Z</time>
      </trkpt>
      <trkpt lat="45.21612" lon="5.73237">
        <ele>964.427</ele>
        <time>2021-03-20T05:56:14Z</time>
      </trkpt>
      <trkpt lat="45.2161" lon="5.73232">
        <ele>966.349</ele>
        <time>2021-03-20T05:56:20Z</time>
      </trkpt>
      <trkpt lat="45.21608" lon="5.73228">
        <ele>967.768</ele>
        <time>2021-03-20T05:56:25Z</time>
      </trkpt>
      <trkpt lat="45.21605" lon="5.73222">
        <ele>968.728</ele>
        <time>2021-03-20T05:56:31Z</time>
      </trkpt>
      <trkpt lat="45.21598" lon="5.73214">
        <ele>969.137</ele>
        <time>2021-03-20T05:56:37Z</time>
      </trkpt>
      <trkpt lat="45.21593" lon="5.73207">
        <ele>970.08</ele>
        <time>2021-03-20T05:56:43Z</time>
      </trkpt>
      <trkpt lat="45.21588" lon="5.73201">
        <ele>971.802</ele>
        <time>2021-03-20T05:56:48Z</time>
      </trkpt>
      <trkpt lat="45.21582" lon="5.73193">
        <ele>973.679</ele>
        <time>2021-03-20T05:56:55Z</time>
      </trkpt>
      <trkpt lat="45.21573" lon="5.73185">
        <ele>975.624</ele>
        <time>2021-03-20T05:57:02Z</time>
      </trkpt>
      <trkpt lat="45.21568" lon="5.73178">
        <ele>977.1</ele>
        <time>2021-03-20T05:57:09Z</time>
      </trkpt>
      <trkpt lat="45.21568" lon="5.73172">
        <ele>979.632</ele>
        <time>2021-03-20T05:57:16Z</time>
      </trkpt>
      <trkpt lat="45.21569" lon="5.73166">
        <ele>981.459</ele>
        <time>2021-03-20T05:57:22Z</time>
      </trkpt>
      <trkpt lat="45.21571" lon="5.7316">
        <ele>982.453</ele>
        <time>2021-03-20T05:57:28Z</time>
      </trkpt>
      <trkpt lat="45.21573" lon="5.73156">
        <ele>985.725</ele>
        <time>2021-03-20T05:57:36Z</time>
      </trkpt>
      <trkpt lat="45.21573" lon="5.73149">
        <ele>987.039</ele>
        <time>2021-03-20T05:57:44Z</time>
      </trkpt>
      <trkpt lat="45.21576" lon="5.73144">
        <ele>989.672</ele>
        <time>2021-03-20T05:57:50Z</time>
      </trkpt>
      <trkpt lat="45.21579" lon="5.7314">
        <ele>991.426</ele>
        <time>2021-03-20T05:57:56Z</time>
      </trkpt>
      <trkpt lat="45.21581" lon="5.73131">
        <ele>993.338</ele>
        <time>2021-03-20T05:58:05Z</time>
      </trkpt>
      <trkpt lat="45.21582" lon="5.73128">
        <ele>995.092</ele>
        <time>2021-03-20T05:58:08Z</time>
      </trkpt>
      <trkpt lat="45.21584" lon="5.73123">
        <ele>997.436</ele>
        <time>2021-03-20T05:58:13Z</time>
      </trkpt>
      <trkpt lat="45.21588" lon="5.73119">
        <ele>999.411</ele>
        <time>2021-03-20T05:58:20Z</time>
      </trkpt>
      <trkpt lat="45.21594" lon="5.73118">
        <ele>1000.649</ele>
        <time>2021-03-20T05:58:26Z</time>
      </trkpt>
      <trkpt lat="45.21601" lon="5.73126">
        <ele>1001.835</ele>
        <time>2021-03-20T05:58:34Z</time>
      </trkpt>
      <trkpt lat="45.21608" lon="5.73128">
        <ele>1003.026</ele>
        <time>2021-03-20T05:58:40Z</time>
      </trkpt>
      <trkpt lat="45.21617" lon="5.7313">
        <ele>1003.728</ele>
        <time>2021-03-20T05:58:48Z</time>
      </trkpt>
      <trkpt lat="45.21623" lon="5.73135">
        <ele>1005.437</ele>
        <time>2021-03-20T05:58:55Z</time>
      </trkpt>
      <trkpt lat="45.21628" lon="5.73137">
        <ele>1007.458</ele>
        <time>2021-03-20T05:59:00Z</time>
      </trkpt>
      <trkpt lat="45.21635" lon="5.73137">
        <ele>1009.294</ele>
        <time>2021-03-20T05:59:06Z</time>
      </trkpt>
      <trkpt lat="45.21642" lon="5.73134">
        <ele>1011.155</ele>
        <time>2021-03-20T05:59:13Z</time>
      </trkpt>
      <trkpt lat="45.21644" lon="5.73134">
        <ele>1012.256</ele>
        <time>2021-03-20T05:59:16Z</time>
      </trkpt>
      <trkpt lat="45.21652" lon="5.73139">
        <ele>1013.764</ele>
        <time>2021-03-20T05:59:24Z</time>
      </trkpt>
      <trkpt lat="45.21657" lon="5.73138">
        <ele>1016.273</ele>
        <time>2021-03-20T05:59:29Z</time>
      </trkpt>
      <trkpt lat="45.21662" lon="5.73139">
        <ele>1018.018</ele>
        <time>2021-03-20T05:59:35Z</time>
      </trkpt>
      <trkpt lat="45.21668" lon="5.7314">
        <ele>1020.588</ele>
        <time>2021-03-20T05:59:43Z</time>
      </trkpt>
      <trkpt lat="45.21676" lon="5.73145">
        <ele>1023.137</ele>
        <time>2021-03-20T05:59:54Z</time>
      </trkpt>
      <trkpt lat="45.21678" lon="5.7316">
        <ele>1025.536</ele>
        <time>2021-03-20T06:00:03Z</time>
      </trkpt>
      <trkpt lat="45.21682" lon="5.73164">
        <ele>1027.151</ele>
        <time>2021-03-20T06:00:09Z</time>
      </trkpt>
      <trkpt lat="45.21687" lon="5.73176">
        <ele>1030.376</ele>
        <time>2021-03-20T06:00:19Z</time>
      </trkpt>
      <trkpt lat="45.2169" lon="5.73181">
        <ele>1032.826</ele>
        <time>2021-03-20T06:00:25Z</time>
      </trkpt>
      <trkpt lat="45.21695" lon="5.7319">
        <ele>1033.523</ele>
        <time>2021-03-20T06:00:33Z</time>
      </trkpt>
      <trkpt lat="45.21703" lon="5.73198">
        <ele>1033.846</ele>
        <time>2021-03-20T06:00:42Z</time>
      </trkpt>
      <trkpt lat="45.21711" lon="5.73209">
        <ele>1033.596</ele>
        <time>2021-03-20T06:00:50Z</time>
      </trkpt>
      <trkpt lat="45.21718" lon="5.73214">
        <ele>1034.163</ele>
        <time>2021-03-20T06:00:57Z</time>
      </trkpt>
      <trkpt lat="45.21723" lon="5.73219">
        <ele>1036.481</ele>
        <time>2021-03-20T06:01:04Z</time>
      </trkpt>
      <trkpt lat="45.21727" lon="5.73216">
        <ele>1038.021</ele>
        <time>2021-03-20T06:01:11Z</time>
      </trkpt>
      <trkpt lat="45.2173" lon="5.73212">
        <ele>1039.153</ele>
        <time>2021-03-20T06:01:17Z</time>
      </trkpt>
      <trkpt lat="45.21733" lon="5.73207">
        <ele>1039.211</ele>
        <time>2021-03-20T06:01:21Z</time>
      </trkpt>
      <trkpt lat="45.2174" lon="5.73204">
        <ele>1039.469</ele>
        <time>2021-03-20T06:01:27Z</time>
      </trkpt>
      <trkpt lat="45.21746" lon="5.73203">
        <ele>1038.76</ele>
        <time>2021-03-20T06:01:34Z</time>
      </trkpt>
      <trkpt lat="45.2175" lon="5.73205">
        <ele>1038.97</ele>
        <time>2021-03-20T06:01:41Z</time>
      </trkpt>
      <trkpt lat="45.21754" lon="5.73205">
        <ele>1038.289</ele>
        <time>2021-03-20T06:01:53Z</time>
      </trkpt>
      <trkpt lat="45.21758" lon="5.73211">
        <ele>1039.125</ele>
        <time>2021-03-20T06:02:20Z</time>
      </trkpt>
      <trkpt lat="45.21759" lon="5.73215">
        <ele>1040.213</ele>
        <time>2021-03-20T06:02:26Z</time>
      </trkpt>
      <trkpt lat="45.21763" lon="5.73222">
        <ele>1041.992</ele>
        <time>2021-03-20T06:02:32Z</time>
      </trkpt>
      <trkpt lat="45.21765" lon="5.73227">
        <ele>1041.712</ele>
        <time>2021-03-20T06:02:37Z</time>
      </trkpt>
      <trkpt lat="45.21768" lon="5.7323">
        <ele>1042.166</ele>
        <time>2021-03-20T06:02:42Z</time>
      </trkpt>
      <trkpt lat="45.21772" lon="5.73234">
        <ele>1041.349</ele>
        <time>2021-03-20T06:02:45Z</time>
      </trkpt>
      <trkpt lat="45.21776" lon="5.73241">
        <ele>1042.72</ele>
        <time>2021-03-20T06:02:51Z</time>
      </trkpt>
      <trkpt lat="45.21779" lon="5.73252">
        <ele>1044.31</ele>
        <time>2021-03-20T06:02:58Z</time>
      </trkpt>
      <trkpt lat="45.21781" lon="5.7326">
        <ele>1046.39</ele>
        <time>2021-03-20T06:03:05Z</time>
      </trkpt>
      <trkpt lat="45.21779" lon="5.73263">
        <ele>1046.38</ele>
        <time>2021-03-20T06:03:09Z</time>
      </trkpt>
      <trkpt lat="45.21779" lon="5.73266">
        <ele>1047.203</ele>
        <time>2021-03-20T06:03:11Z</time>
      </trkpt>
      <trkpt lat="45.21785" lon="5.73276">
        <ele>1047.581</ele>
        <time>2021-03-20T06:03:20Z</time>
      </trkpt>
      <trkpt lat="45.2179" lon="5.73283">
        <ele>1049.273</ele>
        <time>2021-03-20T06:03:26Z</time>
      </trkpt>
      <trkpt lat="45.21798" lon="5.73296">
        <ele>1052.177</ele>
        <time>2021-03-20T06:03:35Z</time>
      </trkpt>
      <trkpt lat="45.21799" lon="5.73297">
        <ele>1051.72</ele>
        <time>2021-03-20T06:03:36Z</time>
      </trkpt>
      <trkpt lat="45.21808" lon="5.73304">
        <ele>1052.345</ele>
        <time>2021-03-20T06:03:44Z</time>
      </trkpt>
      <trkpt lat="45.21809" lon="5.73305">
        <ele>1052.76</ele>
        <time>2021-03-20T06:03:45Z</time>
      </trkpt>
      <trkpt lat="45.21816" lon="5.7331">
        <ele>1053.01</ele>
        <time>2021-03-20T06:03:52Z</time>
      </trkpt>
      <trkpt lat="45.2182" lon="5.73313">
        <ele>1054.292</ele>
        <time>2021-03-20T06:04:02Z</time>
      </trkpt>
      <trkpt lat="45.21823" lon="5.73315">
        <ele>1055.052</ele>
        <time>2021-03-20T06:04:12Z</time>
      </trkpt>
      <trkpt lat="45.21824" lon="5.73318">
        <ele>1056.078</ele>
        <time>2021-03-20T06:04:14Z</time>
      </trkpt>
      <trkpt lat="45.21825" lon="5.73319">
        <ele>1056.994</ele>
        <time>2021-03-20T06:04:15Z</time>
      </trkpt>
      <trkpt lat="45.21828" lon="5.7332">
        <ele>1057.666</ele>
        <time>2021-03-20T06:04:17Z</time>
      </trkpt>
      <trkpt lat="45.21837" lon="5.73331">
        <ele>1059.364</ele>
        <time>2021-03-20T06:04:25Z</time>
      </trkpt>
      <trkpt lat="45.2184" lon="5.73335">
        <ele>1059.06</ele>
        <time>2021-03-20T06:04:31Z</time>
      </trkpt>
      <trkpt lat="45.21845" lon="5.73343">
        <ele>1058.956</ele>
        <time>2021-03-20T06:04:41Z</time>
      </trkpt>
      <trkpt lat="45.21848" lon="5.73343">
        <ele>1059.958</ele>
        <time>2021-03-20T06:04:48Z</time>
      </trkpt>
      <trkpt lat="45.21849" lon="5.73345">
        <ele>1059.8</ele>
        <time>2021-03-20T06:04:55Z</time>
      </trkpt>
      <trkpt lat="45.21848" lon="5.73345">
        <ele>1059.836</ele>
        <time>2021-03-20T06:05:04Z</time>
      </trkpt>
      <trkpt lat="45.21845" lon="5.73354">
        <ele>1059.233</ele>
        <time>2021-03-20T06:05:12Z</time>
      </trkpt>
      <trkpt lat="45.21845" lon="5.73348">
        <ele>1060.552</ele>
        <time>2021-03-20T06:05:35Z</time>
      </trkpt>
      <trkpt lat="45.2185" lon="5.73345">
        <ele>1059.199</ele>
        <time>2021-03-20T06:05:50Z</time>
      </trkpt>
      <trkpt lat="45.21853" lon="5.73348">
        <ele>1058.945</ele>
        <time>2021-03-20T06:05:58Z</time>
      </trkpt>
      <trkpt lat="45.21854" lon="5.73349">
        <ele>1057.93</ele>
        <time>2021-03-20T06:06:00Z</time>
      </trkpt>
      <trkpt lat="45.21858" lon="5.73352">
        <ele>1056.077</ele>
        <time>2021-03-20T06:06:07Z</time>
      </trkpt>
      <trkpt lat="45.21864" lon="5.73356">
        <ele>1052.759</ele>
        <time>2021-03-20T06:06:16Z</time>
      </trkpt>
      <trkpt lat="45.21866" lon="5.73359">
        <ele>1052.129</ele>
        <time>2021-03-20T06:06:18Z</time>
      </trkpt>
      <trkpt lat="45.21875" lon="5.73365">
        <ele>1051.074</ele>
        <time>2021-03-20T06:06:25Z</time>
      </trkpt>
      <trkpt lat="45.21881" lon="5.73368">
        <ele>1049.437</ele>
        <time>2021-03-20T06:06:32Z</time>
      </trkpt>
      <trkpt lat="45.21892" lon="5.73381">
        <ele>1049.892</ele>
        <time>2021-03-20T06:06:42Z</time>
      </trkpt>
      <trkpt lat="45.21894" lon="5.73381">
        <ele>1050.968</ele>
        <time>2021-03-20T06:06:43Z</time>
      </trkpt>
      <trkpt lat="45.21907" lon="5.73384">
        <ele>1050.789</ele>
        <time>2021-03-20T06:06:51Z</time>
      </trkpt>
      <trkpt lat="45.21914" lon="5.73388">
        <ele>1050.218</ele>
        <time>2021-03-20T06:06:57Z</time>
      </trkpt>
      <trkpt lat="45.21921" lon="5.73397">
        <ele>1049.635</ele>
        <time>2021-03-20T06:07:04Z</time>
      </trkpt>
      <trkpt lat="45.21926" lon="5.73407">
        <ele>1049.681</ele>
        <time>2021-03-20T06:07:10Z</time>
      </trkpt>
      <trkpt lat="45.21932" lon="5.73419">
        <ele>1050.812</ele>
        <time>2021-03-20T06:07:17Z</time>
      </trkpt>
      <trkpt lat="45.21936" lon="5.73425">
        <ele>1051.953</ele>
        <time>2021-03-20T06:07:22Z</time>
      </trkpt>
      <trkpt lat="45.21943" lon="5.73431">
        <ele>1053.462</ele>
        <time>2021-03-20T06:07:28Z</time>
      </trkpt>
      <trkpt lat="45.21958" lon="5.73428">
        <ele>1054.652</ele>
        <time>2021-03-20T06:07:36Z</time>
      </trkpt>
      <trkpt lat="45.21966" lon="5.73429">
        <ele>1054.937</ele>
        <time>2021-03-20T06:07:41Z</time>
      </trkpt>
      <trkpt lat="45.21971" lon="5.7343">
        <ele>1055.083</ele>
        <time>2021-03-20T06:07:44Z</time>
      </trkpt>
      <trkpt lat="45.21983" lon="5.73435">
        <ele>1057.174</ele>
        <time>2021-03-20T06:07:53Z</time>
      </trkpt>
      <trkpt lat="45.21991" lon="5.73439">
        <ele>1059.116</ele>
        <time>2021-03-20T06:08:00Z</time>
      </trkpt>
      <trkpt lat="45.21992" lon="5.73438">
        <ele>1059.572</ele>
        <time>2021-03-20T06:08:01Z</time>
      </trkpt>
      <trkpt lat="45.22001" lon="5.73439">
        <ele>1059.435</ele>
        <time>2021-03-20T06:08:07Z</time>
      </trkpt>
      <trkpt lat="45.22009" lon="5.73443">
        <ele>1059.183</ele>
        <time>2021-03-20T06:08:12Z</time>
      </trkpt>
      <trkpt lat="45.2202" lon="5.7345">
        <ele>1057.813</ele>
        <time>2021-03-20T06:08:19Z</time>
      </trkpt>
      <trkpt lat="45.22028" lon="5.73457">
        <ele>1056.051</ele>
        <time>2021-03-20T06:08:26Z</time>
      </trkpt>
      <trkpt lat="45.22032" lon="5.73461">
        <ele>1054.623</ele>
        <time>2021-03-20T06:08:31Z</time>
      </trkpt>
      <trkpt lat="45.22035" lon="5.73463">
        <ele>1053.911</ele>
        <time>2021-03-20T06:08:35Z</time>
      </trkpt>
      <trkpt lat="45.22043" lon="5.73469">
        <ele>1050.46</ele>
        <time>2021-03-20T06:08:43Z</time>
      </trkpt>
      <trkpt lat="45.2205" lon="5.73475">
        <ele>1049.055</ele>
        <time>2021-03-20T06:08:49Z</time>
      </trkpt>
      <trkpt lat="45.22058" lon="5.73481">
        <ele>1048.294</ele>
        <time>2021-03-20T06:08:56Z</time>
      </trkpt>
      <trkpt lat="45.22065" lon="5.73489">
        <ele>1048.08</ele>
        <time>2021-03-20T06:09:03Z</time>
      </trkpt>
      <trkpt lat="45.22072" lon="5.73495">
        <ele>1046.883</ele>
        <time>2021-03-20T06:09:10Z</time>
      </trkpt>
      <trkpt lat="45.22078" lon="5.735">
        <ele>1044.5</ele>
        <time>2021-03-20T06:09:15Z</time>
      </trkpt>
      <trkpt lat="45.22079" lon="5.73501">
        <ele>1044.52</ele>
        <time>2021-03-20T06:09:16Z</time>
      </trkpt>
      <trkpt lat="45.22086" lon="5.73506">
        <ele>1043.612</ele>
        <time>2021-03-20T06:09:22Z</time>
      </trkpt>
      <trkpt lat="45.22091" lon="5.7351">
        <ele>1043.085</ele>
        <time>2021-03-20T06:09:29Z</time>
      </trkpt>
      <trkpt lat="45.22096" lon="5.73513">
        <ele>1039.978</ele>
        <time>2021-03-20T06:09:34Z</time>
      </trkpt>
      <trkpt lat="45.22098" lon="5.73514">
        <ele>1040.14</ele>
        <time>2021-03-20T06:09:35Z</time>
      </trkpt>
      <trkpt lat="45.22107" lon="5.73517">
        <ele>1038.218</ele>
        <time>2021-03-20T06:09:42Z</time>
      </trkpt>
      <trkpt lat="45.22116" lon="5.73521">
        <ele>1035.503</ele>
        <time>2021-03-20T06:09:51Z</time>
      </trkpt>
      <trkpt lat="45.22118" lon="5.73525">
        <ele>1034.132</ele>
        <time>2021-03-20T06:09:55Z</time>
      </trkpt>
      <trkpt lat="45.22117" lon="5.73535">
        <ele>1033.158</ele>
        <time>2021-03-20T06:09:59Z</time>
      </trkpt>
      <trkpt lat="45.22124" lon="5.73543">
        <ele>1030.6</ele>
        <time>2021-03-20T06:10:06Z</time>
      </trkpt>
      <trkpt lat="45.22132" lon="5.73546">
        <ele>1029.68</ele>
        <time>2021-03-20T06:10:12Z</time>
      </trkpt>
      <trkpt lat="45.22138" lon="5.73548">
        <ele>1025.856</ele>
        <time>2021-03-20T06:10:17Z</time>
      </trkpt>
      <trkpt lat="45.22139" lon="5.73548">
        <ele>1026.059</ele>
        <time>2021-03-20T06:10:18Z</time>
      </trkpt>
      <trkpt lat="45.22148" lon="5.73552">
        <ele>1023.494</ele>
        <time>2021-03-20T06:10:24Z</time>
      </trkpt>
      <trkpt lat="45.22159" lon="5.73554">
        <ele>1022.695</ele>
        <time>2021-03-20T06:10:32Z</time>
      </trkpt>
      <trkpt lat="45.22163" lon="5.73557">
        <ele>1020.982</ele>
        <time>2021-03-20T06:10:37Z</time>
      </trkpt>
      <trkpt lat="45.22166" lon="5.73565">
        <ele>1019.622</ele>
        <time>2021-03-20T06:10:40Z</time>
      </trkpt>
      <trkpt lat="45.22171" lon="5.73573">
        <ele>1019.099</ele>
        <time>2021-03-20T06:10:45Z</time>
      </trkpt>
      <trkpt lat="45.22177" lon="5.73579">
        <ele>1018.013</ele>
        <time>2021-03-20T06:10:51Z</time>
      </trkpt>
      <trkpt lat="45.22178" lon="5.73581">
        <ele>1017.382</ele>
        <time>2021-03-20T06:10:52Z</time>
      </trkpt>
      <trkpt lat="45.22188" lon="5.73589">
        <ele>1015.898</ele>
        <time>2021-03-20T06:10:58Z</time>
      </trkpt>
      <trkpt lat="45.22192" lon="5.73599">
        <ele>1014.573</ele>
        <time>2021-03-20T06:11:05Z</time>
      </trkpt>
      <trkpt lat="45.222" lon="5.73609">
        <ele>1013.104</ele>
        <time>2021-03-20T06:11:11Z</time>
      </trkpt>
      <trkpt lat="45.22208" lon="5.73616">
        <ele>1011.885</ele>
        <time>2021-03-20T06:11:15Z</time>
      </trkpt>
      <trkpt lat="45.22222" lon="5.73627">
        <ele>1011.117</ele>
        <time>2021-03-20T06:11:23Z</time>
      </trkpt>
      <trkpt lat="45.22233" lon="5.7364">
        <ele>1010.45</ele>
        <time>2021-03-20T06:11:30Z</time>
      </trkpt>
      <trkpt lat="45.22242" lon="5.73647">
        <ele>1008.67</ele>
        <time>2021-03-20T06:11:36Z</time>
      </trkpt>
      <trkpt lat="45.22244" lon="5.73648">
        <ele>1008.741</ele>
        <time>2021-03-20T06:11:37Z</time>
      </trkpt>
      <trkpt lat="45.22254" lon="5.73652">
        <ele>1006.985</ele>
        <time>2021-03-20T06:11:44Z</time>
      </trkpt>
      <trkpt lat="45.22262" lon="5.73655">
        <ele>1005.419</ele>
        <time>2021-03-20T06:11:49Z</time>
      </trkpt>
      <trkpt lat="45.22265" lon="5.73655">
        <ele>1003.645</ele>
        <time>2021-03-20T06:11:51Z</time>
      </trkpt>
      <trkpt lat="45.22274" lon="5.73655">
        <ele>1003.043</ele>
        <time>2021-03-20T06:11:55Z</time>
      </trkpt>
      <trkpt lat="45.22285" lon="5.73657">
        <ele>1001.106</ele>
        <time>2021-03-20T06:12:03Z</time>
      </trkpt>
      <trkpt lat="45.22295" lon="5.7366">
        <ele>999.141</ele>
        <time>2021-03-20T06:12:09Z</time>
      </trkpt>
      <trkpt lat="45.22301" lon="5.73662">
        <ele>997.449</ele>
        <time>2021-03-20T06:12:14Z</time>
      </trkpt>
      <trkpt lat="45.22306" lon="5.73663">
        <ele>996.053</ele>
        <time>2021-03-20T06:12:17Z</time>
      </trkpt>
      <trkpt lat="45.22316" lon="5.73668">
        <ele>992.437</ele>
        <time>2021-03-20T06:12:25Z</time>
      </trkpt>
      <trkpt lat="45.22324" lon="5.73669">
        <ele>990.295</ele>
        <time>2021-03-20T06:12:31Z</time>
      </trkpt>
      <trkpt lat="45.22337" lon="5.73671">
        <ele>989.198</ele>
        <time>2021-03-20T06:12:38Z</time>
      </trkpt>
      <trkpt lat="45.22352" lon="5.73678">
        <ele>989.03</ele>
        <time>2021-03-20T06:12:45Z</time>
      </trkpt>
      <trkpt lat="45.22361" lon="5.73682">
        <ele>987.275</ele>
        <time>2021-03-20T06:12:50Z</time>
      </trkpt>
      <trkpt lat="45.22363" lon="5.73683">
        <ele>987.216</ele>
        <time>2021-03-20T06:12:51Z</time>
      </trkpt>
      <trkpt lat="45.22371" lon="5.7369">
        <ele>986.663</ele>
        <time>2021-03-20T06:12:56Z</time>
      </trkpt>
      <trkpt lat="45.22382" lon="5.73696">
        <ele>987.383</ele>
        <time>2021-03-20T06:13:03Z</time>
      </trkpt>
      <trkpt lat="45.22388" lon="5.73697">
        <ele>988.807</ele>
        <time>2021-03-20T06:13:06Z</time>
      </trkpt>
      <trkpt lat="45.22398" lon="5.73698">
        <ele>990.39</ele>
        <time>2021-03-20T06:13:13Z</time>
      </trkpt>
      <trkpt lat="45.22409" lon="5.73698">
        <ele>992.318</ele>
        <time>2021-03-20T06:13:22Z</time>
      </trkpt>
      <trkpt lat="45.22417" lon="5.73698">
        <ele>994.467</ele>
        <time>2021-03-20T06:13:28Z</time>
      </trkpt>
      <trkpt lat="45.22419" lon="5.737">
        <ele>995.992</ele>
        <time>2021-03-20T06:13:31Z</time>
      </trkpt>
      <trkpt lat="45.22427" lon="5.73698">
        <ele>998.427</ele>
        <time>2021-03-20T06:13:39Z</time>
      </trkpt>
      <trkpt lat="45.22438" lon="5.73697">
        <ele>1001.198</ele>
        <time>2021-03-20T06:13:49Z</time>
      </trkpt>
      <trkpt lat="45.22444" lon="5.73701">
        <ele>1002.153</ele>
        <time>2021-03-20T06:13:54Z</time>
      </trkpt>
      <trkpt lat="45.2245" lon="5.73703">
        <ele>1002.873</ele>
        <time>2021-03-20T06:13:59Z</time>
      </trkpt>
      <trkpt lat="45.22456" lon="5.73704">
        <ele>1001.111</ele>
        <time>2021-03-20T06:14:04Z</time>
      </trkpt>
      <trkpt lat="45.22465" lon="5.73703">
        <ele>1002.983</ele>
        <time>2021-03-20T06:14:10Z</time>
      </trkpt>
      <trkpt lat="45.2247" lon="5.73703">
        <ele>1003.639</ele>
        <time>2021-03-20T06:14:12Z</time>
      </trkpt>
      <trkpt lat="45.22482" lon="5.73703">
        <ele>1006.466</ele>
        <time>2021-03-20T06:14:23Z</time>
      </trkpt>
      <trkpt lat="45.22487" lon="5.73701">
        <ele>1008.567</ele>
        <time>2021-03-20T06:14:30Z</time>
      </trkpt>
      <trkpt lat="45.22493" lon="5.73699">
        <ele>1009.553</ele>
        <time>2021-03-20T06:14:35Z</time>
      </trkpt>
      <trkpt lat="45.225" lon="5.73694">
        <ele>1010.909</ele>
        <time>2021-03-20T06:14:42Z</time>
      </trkpt>
      <trkpt lat="45.22509" lon="5.73692">
        <ele>1013.971</ele>
        <time>2021-03-20T06:14:50Z</time>
      </trkpt>
      <trkpt lat="45.22515" lon="5.73692">
        <ele>1014.642</ele>
        <time>2021-03-20T06:14:56Z</time>
      </trkpt>
      <trkpt lat="45.2252" lon="5.73694">
        <ele>1016.914</ele>
        <time>2021-03-20T06:15:02Z</time>
      </trkpt>
      <trkpt lat="45.22531" lon="5.73698">
        <ele>1018.793</ele>
        <time>2021-03-20T06:15:13Z</time>
      </trkpt>
      <trkpt lat="45.22539" lon="5.73702">
        <ele>1020.698</ele>
        <time>2021-03-20T06:15:21Z</time>
      </trkpt>
      <trkpt lat="45.22548" lon="5.73705">
        <ele>1023.763</ele>
        <time>2021-03-20T06:15:30Z</time>
      </trkpt>
      <trkpt lat="45.22557" lon="5.7371">
        <ele>1026.648</ele>
        <time>2021-03-20T06:15:39Z</time>
      </trkpt>
      <trkpt lat="45.22562" lon="5.73717">
        <ele>1027.401</ele>
        <time>2021-03-20T06:15:44Z</time>
      </trkpt>
      <trkpt lat="45.22565" lon="5.73721">
        <ele>1027.763</ele>
        <time>2021-03-20T06:15:47Z</time>
      </trkpt>
      <trkpt lat="45.22574" lon="5.73723">
        <ele>1028.005</ele>
        <time>2021-03-20T06:15:54Z</time>
      </trkpt>
      <trkpt lat="45.22582" lon="5.73722">
        <ele>1028.214</ele>
        <time>2021-03-20T06:16:00Z</time>
      </trkpt>
      <trkpt lat="45.22592" lon="5.73725">
        <ele>1030.015</ele>
        <time>2021-03-20T06:16:08Z</time>
      </trkpt>
      <trkpt lat="45.22594" lon="5.73727">
        <ele>1031.156</ele>
        <time>2021-03-20T06:16:10Z</time>
      </trkpt>
      <trkpt lat="45.22602" lon="5.73738">
        <ele>1033.229</ele>
        <time>2021-03-20T06:16:20Z</time>
      </trkpt>
      <trkpt lat="45.2261" lon="5.73742">
        <ele>1033.879</ele>
        <time>2021-03-20T06:16:26Z</time>
      </trkpt>
      <trkpt lat="45.22617" lon="5.73749">
        <ele>1034.96</ele>
        <time>2021-03-20T06:16:33Z</time>
      </trkpt>
      <trkpt lat="45.22621" lon="5.73751">
        <ele>1035.275</ele>
        <time>2021-03-20T06:16:36Z</time>
      </trkpt>
      <trkpt lat="45.22629" lon="5.73758">
        <ele>1034.816</ele>
        <time>2021-03-20T06:16:43Z</time>
      </trkpt>
      <trkpt lat="45.22637" lon="5.73764">
        <ele>1035.03</ele>
        <time>2021-03-20T06:16:49Z</time>
      </trkpt>
      <trkpt lat="45.22643" lon="5.73771">
        <ele>1034.521</ele>
        <time>2021-03-20T06:16:57Z</time>
      </trkpt>
      <trkpt lat="45.22646" lon="5.7377">
        <ele>1034.576</ele>
        <time>2021-03-20T06:17:05Z</time>
      </trkpt>
      <trkpt lat="45.22652" lon="5.73777">
        <ele>1034.695</ele>
        <time>2021-03-20T06:17:10Z</time>
      </trkpt>
      <trkpt lat="45.22662" lon="5.73781">
        <ele>1037.399</ele>
        <time>2021-03-20T06:17:17Z</time>
      </trkpt>
      <trkpt lat="45.22668" lon="5.73788">
        <ele>1040.371</ele>
        <time>2021-03-20T06:17:23Z</time>
      </trkpt>
      <trkpt lat="45.22672" lon="5.73793">
        <ele>1040.754</ele>
        <time>2021-03-20T06:17:27Z</time>
      </trkpt>
      <trkpt lat="45.22681" lon="5.738">
        <ele>1040.628</ele>
        <time>2021-03-20T06:17:34Z</time>
      </trkpt>
      <trkpt lat="45.22687" lon="5.73805">
        <ele>1040.611</ele>
        <time>2021-03-20T06:17:39Z</time>
      </trkpt>
      <trkpt lat="45.22689" lon="5.73806">
        <ele>1040.907</ele>
        <time>2021-03-20T06:17:40Z</time>
      </trkpt>
      <trkpt lat="45.22694" lon="5.7381">
        <ele>1040.843</ele>
        <time>2021-03-20T06:17:43Z</time>
      </trkpt>
      <trkpt lat="45.22703" lon="5.73813">
        <ele>1041.598</ele>
        <time>2021-03-20T06:17:48Z</time>
      </trkpt>
      <trkpt lat="45.22707" lon="5.73816">
        <ele>1041.514</ele>
        <time>2021-03-20T06:17:50Z</time>
      </trkpt>
      <trkpt lat="45.22719" lon="5.73824">
        <ele>1041.269</ele>
        <time>2021-03-20T06:17:57Z</time>
      </trkpt>
      <trkpt lat="45.22725" lon="5.73823">
        <ele>1041.034</ele>
        <time>2021-03-20T06:18:01Z</time>
      </trkpt>
      <trkpt lat="45.22741" lon="5.73828">
        <ele>1040.318</ele>
        <time>2021-03-20T06:18:09Z</time>
      </trkpt>
      <trkpt lat="45.22745" lon="5.73831">
        <ele>1040.319</ele>
        <time>2021-03-20T06:18:11Z</time>
      </trkpt>
      <trkpt lat="45.22748" lon="5.73833">
        <ele>1039.845</ele>
        <time>2021-03-20T06:18:13Z</time>
      </trkpt>
      <trkpt lat="45.22766" lon="5.73845">
        <ele>1039.961</ele>
        <time>2021-03-20T06:18:21Z</time>
      </trkpt>
      <trkpt lat="45.22772" lon="5.7385">
        <ele>1040.257</ele>
        <time>2021-03-20T06:18:25Z</time>
      </trkpt>
      <trkpt lat="45.22783" lon="5.73851">
        <ele>1039.843</ele>
        <time>2021-03-20T06:18:32Z</time>
      </trkpt>
      <trkpt lat="45.22786" lon="5.73853">
        <ele>1039.404</ele>
        <time>2021-03-20T06:18:34Z</time>
      </trkpt>
      <trkpt lat="45.228" lon="5.73858">
        <ele>1038.759</ele>
        <time>2021-03-20T06:18:41Z</time>
      </trkpt>
      <trkpt lat="45.22808" lon="5.73863">
        <ele>1038.006</ele>
        <time>2021-03-20T06:18:46Z</time>
      </trkpt>
      <trkpt lat="45.22815" lon="5.73866">
        <ele>1036.039</ele>
        <time>2021-03-20T06:18:50Z</time>
      </trkpt>
      <trkpt lat="45.2282" lon="5.73868">
        <ele>1036.017</ele>
        <time>2021-03-20T06:18:53Z</time>
      </trkpt>
      <trkpt lat="45.22828" lon="5.73872">
        <ele>1034.638</ele>
        <time>2021-03-20T06:18:57Z</time>
      </trkpt>
      <trkpt lat="45.22843" lon="5.73876">
        <ele>1033.536</ele>
        <time>2021-03-20T06:19:04Z</time>
      </trkpt>
      <trkpt lat="45.22845" lon="5.73876">
        <ele>1033.666</ele>
        <time>2021-03-20T06:19:05Z</time>
      </trkpt>
      <trkpt lat="45.22854" lon="5.7388">
        <ele>1032.464</ele>
        <time>2021-03-20T06:19:10Z</time>
      </trkpt>
      <trkpt lat="45.22873" lon="5.7388">
        <ele>1031.697</ele>
        <time>2021-03-20T06:19:18Z</time>
      </trkpt>
      <trkpt lat="45.22887" lon="5.73873">
        <ele>1031.591</ele>
        <time>2021-03-20T06:19:24Z</time>
      </trkpt>
      <trkpt lat="45.22891" lon="5.73872">
        <ele>1031.057</ele>
        <time>2021-03-20T06:19:26Z</time>
      </trkpt>
      <trkpt lat="45.22906" lon="5.73869">
        <ele>1030.917</ele>
        <time>2021-03-20T06:19:34Z</time>
      </trkpt>
      <trkpt lat="45.22907" lon="5.73869">
        <ele>1030.777</ele>
        <time>2021-03-20T06:19:35Z</time>
      </trkpt>
      <trkpt lat="45.22917" lon="5.7387">
        <ele>1030.847</ele>
        <time>2021-03-20T06:19:40Z</time>
      </trkpt>
      <trkpt lat="45.22931" lon="5.73868">
        <ele>1029.877</ele>
        <time>2021-03-20T06:19:47Z</time>
      </trkpt>
      <trkpt lat="45.22939" lon="5.73869">
        <ele>1028.418</ele>
        <time>2021-03-20T06:19:52Z</time>
      </trkpt>
      <trkpt lat="45.22942" lon="5.73873">
        <ele>1027.573</ele>
        <time>2021-03-20T06:19:54Z</time>
      </trkpt>
      <trkpt lat="45.22943" lon="5.73889">
        <ele>1025.73</ele>
        <time>2021-03-20T06:20:01Z</time>
      </trkpt>
      <trkpt lat="45.22944" lon="5.73898">
        <ele>1024.37</ele>
        <time>2021-03-20T06:20:04Z</time>
      </trkpt>
      <trkpt lat="45.22948" lon="5.73929">
        <ele>1022.007</ele>
        <time>2021-03-20T06:20:14Z</time>
      </trkpt>
      <trkpt lat="45.22957" lon="5.7395">
        <ele>1022.824</ele>
        <time>2021-03-20T06:20:22Z</time>
      </trkpt>
      <trkpt lat="45.22972" lon="5.73965">
        <ele>1021.461</ele>
        <time>2021-03-20T06:20:31Z</time>
      </trkpt>
      <trkpt lat="45.22986" lon="5.73971">
        <ele>1023.175</ele>
        <time>2021-03-20T06:20:38Z</time>
      </trkpt>
      <trkpt lat="45.23003" lon="5.73975">
        <ele>1023.628</ele>
        <time>2021-03-20T06:20:46Z</time>
      </trkpt>
      <trkpt lat="45.23017" lon="5.73979">
        <ele>1024.088</ele>
        <time>2021-03-20T06:20:53Z</time>
      </trkpt>
      <trkpt lat="45.23033" lon="5.73981">
        <ele>1023.896</ele>
        <time>2021-03-20T06:21:00Z</time>
      </trkpt>
      <trkpt lat="45.23043" lon="5.73978">
        <ele>1024.571</ele>
        <time>2021-03-20T06:21:05Z</time>
      </trkpt>
      <trkpt lat="45.23057" lon="5.7397">
        <ele>1025.747</ele>
        <time>2021-03-20T06:21:12Z</time>
      </trkpt>
      <trkpt lat="45.23072" lon="5.7397">
        <ele>1028.081</ele>
        <time>2021-03-20T06:21:19Z</time>
      </trkpt>
      <trkpt lat="45.23084" lon="5.73978">
        <ele>1030.087</ele>
        <time>2021-03-20T06:21:27Z</time>
      </trkpt>
      <trkpt lat="45.23089" lon="5.73982">
        <ele>1030.637</ele>
        <time>2021-03-20T06:21:31Z</time>
      </trkpt>
      <trkpt lat="45.23098" lon="5.73983">
        <ele>1030.47</ele>
        <time>2021-03-20T06:21:37Z</time>
      </trkpt>
      <trkpt lat="45.23108" lon="5.7398">
        <ele>1031.472</ele>
        <time>2021-03-20T06:21:43Z</time>
      </trkpt>
      <trkpt lat="45.23109" lon="5.73979">
        <ele>1031.289</ele>
        <time>2021-03-20T06:21:44Z</time>
      </trkpt>
      <trkpt lat="45.23127" lon="5.73979">
        <ele>1032.356</ele>
        <time>2021-03-20T06:21:52Z</time>
      </trkpt>
      <trkpt lat="45.23146" lon="5.73986">
        <ele>1033.707</ele>
        <time>2021-03-20T06:22:01Z</time>
      </trkpt>
      <trkpt lat="45.23161" lon="5.73989">
        <ele>1032.266</ele>
        <time>2021-03-20T06:22:09Z</time>
      </trkpt>
      <trkpt lat="45.23173" lon="5.73995">
        <ele>1031.776</ele>
        <time>2021-03-20T06:22:16Z</time>
      </trkpt>
      <trkpt lat="45.23188" lon="5.74001">
        <ele>1029.481</ele>
        <time>2021-03-20T06:22:24Z</time>
      </trkpt>
      <trkpt lat="45.23201" lon="5.74011">
        <ele>1028.329</ele>
        <time>2021-03-20T06:22:31Z</time>
      </trkpt>
      <trkpt lat="45.23215" lon="5.74026">
        <ele>1027.625</ele>
        <time>2021-03-20T06:22:39Z</time>
      </trkpt>
      <trkpt lat="45.23222" lon="5.74032">
        <ele>1027.548</ele>
        <time>2021-03-20T06:22:43Z</time>
      </trkpt>
      <trkpt lat="45.23225" lon="5.74039">
        <ele>1028.517</ele>
        <time>2021-03-20T06:22:46Z</time>
      </trkpt>
      <trkpt lat="45.23225" lon="5.7405">
        <ele>1029.646</ele>
        <time>2021-03-20T06:22:51Z</time>
      </trkpt>
      <trkpt lat="45.23224" lon="5.74065">
        <ele>1031.547</ele>
        <time>2021-03-20T06:22:57Z</time>
      </trkpt>
      <trkpt lat="45.23224" lon="5.74079">
        <ele>1032.084</ele>
        <time>2021-03-20T06:23:03Z</time>
      </trkpt>
      <trkpt lat="45.23222" lon="5.74096">
        <ele>1031.65</ele>
        <time>2021-03-20T06:23:09Z</time>
      </trkpt>
      <trkpt lat="45.23219" lon="5.74105">
        <ele>1032.329</ele>
        <time>2021-03-20T06:23:12Z</time>
      </trkpt>
      <trkpt lat="45.23222" lon="5.74125">
        <ele>1031.997</ele>
        <time>2021-03-20T06:23:20Z</time>
      </trkpt>
      <trkpt lat="45.23225" lon="5.74128">
        <ele>1030.166</ele>
        <time>2021-03-20T06:23:22Z</time>
      </trkpt>
      <trkpt lat="45.23227" lon="5.74132">
        <ele>1030.381</ele>
        <time>2021-03-20T06:23:24Z</time>
      </trkpt>
      <trkpt lat="45.23235" lon="5.74139">
        <ele>1030.203</ele>
        <time>2021-03-20T06:23:28Z</time>
      </trkpt>
      <trkpt lat="45.23247" lon="5.74148">
        <ele>1030.939</ele>
        <time>2021-03-20T06:23:35Z</time>
      </trkpt>
      <trkpt lat="45.23256" lon="5.74157">
        <ele>1031.817</ele>
        <time>2021-03-20T06:23:41Z</time>
      </trkpt>
      <trkpt lat="45.23258" lon="5.74158">
        <ele>1031.964</ele>
        <time>2021-03-20T06:23:42Z</time>
      </trkpt>
      <trkpt lat="45.23268" lon="5.74172">
        <ele>1031.006</ele>
        <time>2021-03-20T06:23:51Z</time>
      </trkpt>
      <trkpt lat="45.23281" lon="5.74187">
        <ele>1029.375</ele>
        <time>2021-03-20T06:23:59Z</time>
      </trkpt>
      <trkpt lat="45.23291" lon="5.74195">
        <ele>1029.058</ele>
        <time>2021-03-20T06:24:06Z</time>
      </trkpt>
      <trkpt lat="45.233" lon="5.742">
        <ele>1029.102</ele>
        <time>2021-03-20T06:24:11Z</time>
      </trkpt>
      <trkpt lat="45.23308" lon="5.74205">
        <ele>1028.459</ele>
        <time>2021-03-20T06:24:16Z</time>
      </trkpt>
      <trkpt lat="45.23323" lon="5.74212">
        <ele>1028.595</ele>
        <time>2021-03-20T06:24:23Z</time>
      </trkpt>
      <trkpt lat="45.23337" lon="5.74218">
        <ele>1029.044</ele>
        <time>2021-03-20T06:24:30Z</time>
      </trkpt>
      <trkpt lat="45.23339" lon="5.74219">
        <ele>1028.796</ele>
        <time>2021-03-20T06:24:31Z</time>
      </trkpt>
      <trkpt lat="45.23349" lon="5.74226">
        <ele>1028.915</ele>
        <time>2021-03-20T06:24:37Z</time>
      </trkpt>
      <trkpt lat="45.23358" lon="5.74234">
        <ele>1028.76</ele>
        <time>2021-03-20T06:24:43Z</time>
      </trkpt>
      <trkpt lat="45.23373" lon="5.74246">
        <ele>1026.961</ele>
        <time>2021-03-20T06:24:51Z</time>
      </trkpt>
      <trkpt lat="45.23379" lon="5.74252">
        <ele>1027.383</ele>
        <time>2021-03-20T06:24:54Z</time>
      </trkpt>
      <trkpt lat="45.23383" lon="5.74269">
        <ele>1026.17</ele>
        <time>2021-03-20T06:25:01Z</time>
      </trkpt>
      <trkpt lat="45.23384" lon="5.74278">
        <ele>1024.063</ele>
        <time>2021-03-20T06:25:06Z</time>
      </trkpt>
      <trkpt lat="45.23383" lon="5.74288">
        <ele>1023.31</ele>
        <time>2021-03-20T06:25:11Z</time>
      </trkpt>
      <trkpt lat="45.23377" lon="5.74301">
        <ele>1021.218</ele>
        <time>2021-03-20T06:25:18Z</time>
      </trkpt>
      <trkpt lat="45.23374" lon="5.74311">
        <ele>1020.94</ele>
        <time>2021-03-20T06:25:22Z</time>
      </trkpt>
      <trkpt lat="45.23371" lon="5.74335">
        <ele>1019.845</ele>
        <time>2021-03-20T06:25:30Z</time>
      </trkpt>
      <trkpt lat="45.23375" lon="5.7435">
        <ele>1018.712</ele>
        <time>2021-03-20T06:25:34Z</time>
      </trkpt>
      <trkpt lat="45.23382" lon="5.74368">
        <ele>1015.924</ele>
        <time>2021-03-20T06:25:41Z</time>
      </trkpt>
      <trkpt lat="45.23379" lon="5.74377">
        <ele>1014.324</ele>
        <time>2021-03-20T06:25:46Z</time>
      </trkpt>
      <trkpt lat="45.23365" lon="5.74379">
        <ele>1013.259</ele>
        <time>2021-03-20T06:25:52Z</time>
      </trkpt>
      <trkpt lat="45.23347" lon="5.74378">
        <ele>1011.912</ele>
        <time>2021-03-20T06:26:02Z</time>
      </trkpt>
      <trkpt lat="45.23332" lon="5.74373">
        <ele>1010.556</ele>
        <time>2021-03-20T06:26:09Z</time>
      </trkpt>
      <trkpt lat="45.23318" lon="5.74373">
        <ele>1009.452</ele>
        <time>2021-03-20T06:26:16Z</time>
      </trkpt>
      <trkpt lat="45.23304" lon="5.74364">
        <ele>1006.299</ele>
        <time>2021-03-20T06:26:25Z</time>
      </trkpt>
      <trkpt lat="45.23299" lon="5.74359">
        <ele>1005.975</ele>
        <time>2021-03-20T06:26:28Z</time>
      </trkpt>
      <trkpt lat="45.23286" lon="5.74349">
        <ele>1004.859</ele>
        <time>2021-03-20T06:26:37Z</time>
      </trkpt>
      <trkpt lat="45.23277" lon="5.74341">
        <ele>1004.175</ele>
        <time>2021-03-20T06:26:43Z</time>
      </trkpt>
      <trkpt lat="45.23263" lon="5.7433">
        <ele>1000.977</ele>
        <time>2021-03-20T06:26:50Z</time>
      </trkpt>
      <trkpt lat="45.23249" lon="5.7432">
        <ele>1000.33</ele>
        <time>2021-03-20T06:26:57Z</time>
      </trkpt>
      <trkpt lat="45.23236" lon="5.74311">
        <ele>999.233</ele>
        <time>2021-03-20T06:27:04Z</time>
      </trkpt>
      <trkpt lat="45.23235" lon="5.7431">
        <ele>998.38</ele>
        <time>2021-03-20T06:27:05Z</time>
      </trkpt>
      <trkpt lat="45.23219" lon="5.74305">
        <ele>995.756</ele>
        <time>2021-03-20T06:27:13Z</time>
      </trkpt>
      <trkpt lat="45.23207" lon="5.743">
        <ele>994.116</ele>
        <time>2021-03-20T06:27:19Z</time>
      </trkpt>
      <trkpt lat="45.23198" lon="5.74298">
        <ele>992.816</ele>
        <time>2021-03-20T06:27:25Z</time>
      </trkpt>
      <trkpt lat="45.23182" lon="5.74294">
        <ele>991.809</ele>
        <time>2021-03-20T06:27:33Z</time>
      </trkpt>
      <trkpt lat="45.23167" lon="5.74288">
        <ele>989.901</ele>
        <time>2021-03-20T06:27:41Z</time>
      </trkpt>
      <trkpt lat="45.23155" lon="5.74286">
        <ele>987.865</ele>
        <time>2021-03-20T06:27:47Z</time>
      </trkpt>
      <trkpt lat="45.23141" lon="5.74281">
        <ele>986.535</ele>
        <time>2021-03-20T06:27:53Z</time>
      </trkpt>
      <trkpt lat="45.23126" lon="5.74274">
        <ele>985.527</ele>
        <time>2021-03-20T06:28:00Z</time>
      </trkpt>
      <trkpt lat="45.23116" lon="5.74272">
        <ele>983.49</ele>
        <time>2021-03-20T06:28:06Z</time>
      </trkpt>
      <trkpt lat="45.23097" lon="5.74264">
        <ele>981.292</ele>
        <time>2021-03-20T06:28:14Z</time>
      </trkpt>
      <trkpt lat="45.23078" lon="5.74257">
        <ele>979.317</ele>
        <time>2021-03-20T06:28:23Z</time>
      </trkpt>
      <trkpt lat="45.23064" lon="5.74249">
        <ele>977.896</ele>
        <time>2021-03-20T06:28:30Z</time>
      </trkpt>
      <trkpt lat="45.23054" lon="5.74244">
        <ele>976.279</ele>
        <time>2021-03-20T06:28:36Z</time>
      </trkpt>
      <trkpt lat="45.23045" lon="5.74241">
        <ele>975.222</ele>
        <time>2021-03-20T06:28:41Z</time>
      </trkpt>
      <trkpt lat="45.23031" lon="5.74237">
        <ele>973.578</ele>
        <time>2021-03-20T06:28:48Z</time>
      </trkpt>
      <trkpt lat="45.23015" lon="5.74232">
        <ele>972.154</ele>
        <time>2021-03-20T06:28:54Z</time>
      </trkpt>
      <trkpt lat="45.23006" lon="5.74229">
        <ele>970.913</ele>
        <time>2021-03-20T06:28:59Z</time>
      </trkpt>
      <trkpt lat="45.22997" lon="5.74228">
        <ele>969.993</ele>
        <time>2021-03-20T06:29:03Z</time>
      </trkpt>
      <trkpt lat="45.22987" lon="5.74224">
        <ele>968.983</ele>
        <time>2021-03-20T06:29:07Z</time>
      </trkpt>
      <trkpt lat="45.22974" lon="5.74221">
        <ele>967.718</ele>
        <time>2021-03-20T06:29:13Z</time>
      </trkpt>
      <trkpt lat="45.22954" lon="5.74211">
        <ele>964.901</ele>
        <time>2021-03-20T06:29:21Z</time>
      </trkpt>
      <trkpt lat="45.22951" lon="5.7421">
        <ele>964.603</ele>
        <time>2021-03-20T06:29:22Z</time>
      </trkpt>
      <trkpt lat="45.22939" lon="5.74201">
        <ele>963.169</ele>
        <time>2021-03-20T06:29:28Z</time>
      </trkpt>
      <trkpt lat="45.22937" lon="5.742">
        <ele>963.013</ele>
        <time>2021-03-20T06:29:29Z</time>
      </trkpt>
      <trkpt lat="45.2292" lon="5.74189">
        <ele>960.97</ele>
        <time>2021-03-20T06:29:37Z</time>
      </trkpt>
      <trkpt lat="45.22908" lon="5.74184">
        <ele>959.859</ele>
        <time>2021-03-20T06:29:42Z</time>
      </trkpt>
      <trkpt lat="45.22897" lon="5.7418">
        <ele>957.737</ele>
        <time>2021-03-20T06:29:46Z</time>
      </trkpt>
      <trkpt lat="45.22893" lon="5.74177">
        <ele>957.518</ele>
        <time>2021-03-20T06:29:48Z</time>
      </trkpt>
      <trkpt lat="45.2288" lon="5.74171">
        <ele>955.764</ele>
        <time>2021-03-20T06:29:54Z</time>
      </trkpt>
      <trkpt lat="45.22874" lon="5.7417">
        <ele>956.204</ele>
        <time>2021-03-20T06:29:57Z</time>
      </trkpt>
      <trkpt lat="45.22868" lon="5.74165">
        <ele>955.361</ele>
        <time>2021-03-20T06:30:01Z</time>
      </trkpt>
      <trkpt lat="45.22864" lon="5.74163">
        <ele>953.857</ele>
        <time>2021-03-20T06:30:03Z</time>
      </trkpt>
      <trkpt lat="45.22845" lon="5.74157">
        <ele>952.094</ele>
        <time>2021-03-20T06:30:10Z</time>
      </trkpt>
      <trkpt lat="45.22837" lon="5.74153">
        <ele>951.317</ele>
        <time>2021-03-20T06:30:14Z</time>
      </trkpt>
      <trkpt lat="45.2283" lon="5.7415">
        <ele>949.832</ele>
        <time>2021-03-20T06:30:17Z</time>
      </trkpt>
      <trkpt lat="45.22819" lon="5.74145">
        <ele>947.59</ele>
        <time>2021-03-20T06:30:23Z</time>
      </trkpt>
      <trkpt lat="45.22804" lon="5.7414">
        <ele>945.725</ele>
        <time>2021-03-20T06:30:30Z</time>
      </trkpt>
      <trkpt lat="45.22791" lon="5.74137">
        <ele>944.516</ele>
        <time>2021-03-20T06:30:35Z</time>
      </trkpt>
      <trkpt lat="45.22773" lon="5.74128">
        <ele>943.044</ele>
        <time>2021-03-20T06:30:43Z</time>
      </trkpt>
      <trkpt lat="45.22755" lon="5.74117">
        <ele>941.962</ele>
        <time>2021-03-20T06:30:51Z</time>
      </trkpt>
      <trkpt lat="45.2274" lon="5.74115">
        <ele>939.293</ele>
        <time>2021-03-20T06:30:57Z</time>
      </trkpt>
      <trkpt lat="45.22723" lon="5.7411">
        <ele>938.618</ele>
        <time>2021-03-20T06:31:04Z</time>
      </trkpt>
      <trkpt lat="45.22704" lon="5.74106">
        <ele>935.524</ele>
        <time>2021-03-20T06:31:11Z</time>
      </trkpt>
      <trkpt lat="45.22695" lon="5.74106">
        <ele>934.953</ele>
        <time>2021-03-20T06:31:15Z</time>
      </trkpt>
      <trkpt lat="45.22681" lon="5.74102">
        <ele>932.286</ele>
        <time>2021-03-20T06:31:22Z</time>
      </trkpt>
      <trkpt lat="45.22662" lon="5.74102">
        <ele>930.733</ele>
        <time>2021-03-20T06:31:29Z</time>
      </trkpt>
      <trkpt lat="45.22645" lon="5.74099">
        <ele>929.763</ele>
        <time>2021-03-20T06:31:36Z</time>
      </trkpt>
      <trkpt lat="45.22625" lon="5.74095">
        <ele>928.708</ele>
        <time>2021-03-20T06:31:43Z</time>
      </trkpt>
      <trkpt lat="45.22608" lon="5.74091">
        <ele>925.989</ele>
        <time>2021-03-20T06:31:50Z</time>
      </trkpt>
      <trkpt lat="45.22592" lon="5.74088">
        <ele>923.754</ele>
        <time>2021-03-20T06:31:56Z</time>
      </trkpt>
      <trkpt lat="45.22579" lon="5.74089">
        <ele>922.005</ele>
        <time>2021-03-20T06:32:01Z</time>
      </trkpt>
      <trkpt lat="45.22565" lon="5.74094">
        <ele>919.736</ele>
        <time>2021-03-20T06:32:07Z</time>
      </trkpt>
      <trkpt lat="45.22549" lon="5.74102">
        <ele>917.559</ele>
        <time>2021-03-20T06:32:14Z</time>
      </trkpt>
      <trkpt lat="45.22547" lon="5.74102">
        <ele>917.26</ele>
        <time>2021-03-20T06:32:15Z</time>
      </trkpt>
      <trkpt lat="45.22532" lon="5.74105">
        <ele>915.626</ele>
        <time>2021-03-20T06:32:21Z</time>
      </trkpt>
      <trkpt lat="45.22517" lon="5.74108">
        <ele>915.217</ele>
        <time>2021-03-20T06:32:28Z</time>
      </trkpt>
      <trkpt lat="45.22501" lon="5.74109">
        <ele>913.616</ele>
        <time>2021-03-20T06:32:34Z</time>
      </trkpt>
      <trkpt lat="45.22493" lon="5.74108">
        <ele>911.927</ele>
        <time>2021-03-20T06:32:37Z</time>
      </trkpt>
      <trkpt lat="45.22475" lon="5.74107">
        <ele>910.865</ele>
        <time>2021-03-20T06:32:43Z</time>
      </trkpt>
      <trkpt lat="45.22467" lon="5.74104">
        <ele>909.525</ele>
        <time>2021-03-20T06:32:46Z</time>
      </trkpt>
      <trkpt lat="45.22453" lon="5.74099">
        <ele>907.549</ele>
        <time>2021-03-20T06:32:51Z</time>
      </trkpt>
      <trkpt lat="45.22433" lon="5.74088">
        <ele>905.753</ele>
        <time>2021-03-20T06:32:59Z</time>
      </trkpt>
      <trkpt lat="45.22419" lon="5.74079">
        <ele>903.11</ele>
        <time>2021-03-20T06:33:05Z</time>
      </trkpt>
      <trkpt lat="45.22403" lon="5.74069">
        <ele>901.28</ele>
        <time>2021-03-20T06:33:12Z</time>
      </trkpt>
      <trkpt lat="45.22393" lon="5.74063">
        <ele>899.608</ele>
        <time>2021-03-20T06:33:17Z</time>
      </trkpt>
      <trkpt lat="45.22389" lon="5.74063">
        <ele>900.187</ele>
        <time>2021-03-20T06:33:22Z</time>
      </trkpt>
      <trkpt lat="45.22388" lon="5.74062">
        <ele>899.792</ele>
        <time>2021-03-20T06:33:26Z</time>
      </trkpt>
      <trkpt lat="45.22388" lon="5.74062">
        <ele>900.739</ele>
        <time>2021-03-20T06:33:28Z</time>
      </trkpt>
      <trkpt lat="45.22387" lon="5.74058">
        <ele>900.553</ele>
        <time>2021-03-20T06:33:40Z</time>
      </trkpt>
      <trkpt lat="45.2239" lon="5.74062">
        <ele>900.452</ele>
        <time>2021-03-20T06:33:48Z</time>
      </trkpt>
      <trkpt lat="45.22401" lon="5.74078">
        <ele>899.952</ele>
        <time>2021-03-20T06:33:56Z</time>
      </trkpt>
      <trkpt lat="45.22413" lon="5.74095">
        <ele>897.553</ele>
        <time>2021-03-20T06:34:02Z</time>
      </trkpt>
      <trkpt lat="45.22426" lon="5.74113">
        <ele>895.084</ele>
        <time>2021-03-20T06:34:09Z</time>
      </trkpt>
      <trkpt lat="45.22434" lon="5.74127">
        <ele>892.709</ele>
        <time>2021-03-20T06:34:14Z</time>
      </trkpt>
      <trkpt lat="45.22446" lon="5.74144">
        <ele>892.247</ele>
        <time>2021-03-20T06:34:21Z</time>
      </trkpt>
      <trkpt lat="45.22459" lon="5.74164">
        <ele>891.464</ele>
        <time>2021-03-20T06:34:28Z</time>
      </trkpt>
      <trkpt lat="45.2247" lon="5.74179">
        <ele>889.353</ele>
        <time>2021-03-20T06:34:34Z</time>
      </trkpt>
      <trkpt lat="45.22481" lon="5.74192">
        <ele>887.026</ele>
        <time>2021-03-20T06:34:40Z</time>
      </trkpt>
      <trkpt lat="45.22485" lon="5.74196">
        <ele>886.787</ele>
        <time>2021-03-20T06:34:42Z</time>
      </trkpt>
      <trkpt lat="45.22496" lon="5.74207">
        <ele>885.709</ele>
        <time>2021-03-20T06:34:48Z</time>
      </trkpt>
      <trkpt lat="45.22498" lon="5.74209">
        <ele>884.997</ele>
        <time>2021-03-20T06:34:49Z</time>
      </trkpt>
      <trkpt lat="45.22509" lon="5.74216">
        <ele>883.259</ele>
        <time>2021-03-20T06:34:53Z</time>
      </trkpt>
      <trkpt lat="45.22525" lon="5.74229">
        <ele>882.607</ele>
        <time>2021-03-20T06:34:59Z</time>
      </trkpt>
      <trkpt lat="45.22531" lon="5.74232">
        <ele>881.751</ele>
        <time>2021-03-20T06:35:01Z</time>
      </trkpt>
      <trkpt lat="45.22545" lon="5.74241">
        <ele>879.833</ele>
        <time>2021-03-20T06:35:07Z</time>
      </trkpt>
      <trkpt lat="45.22554" lon="5.74245">
        <ele>878.199</ele>
        <time>2021-03-20T06:35:10Z</time>
      </trkpt>
      <trkpt lat="45.2257" lon="5.74253">
        <ele>877</ele>
        <time>2021-03-20T06:35:16Z</time>
      </trkpt>
      <trkpt lat="45.22584" lon="5.74261">
        <ele>874.214</ele>
        <time>2021-03-20T06:35:22Z</time>
      </trkpt>
      <trkpt lat="45.22592" lon="5.74262">
        <ele>873.101</ele>
        <time>2021-03-20T06:35:26Z</time>
      </trkpt>
      <trkpt lat="45.22594" lon="5.74263">
        <ele>872.459</ele>
        <time>2021-03-20T06:35:27Z</time>
      </trkpt>
      <trkpt lat="45.22611" lon="5.74267">
        <ele>871.534</ele>
        <time>2021-03-20T06:35:34Z</time>
      </trkpt>
      <trkpt lat="45.22621" lon="5.7427">
        <ele>870.339</ele>
        <time>2021-03-20T06:35:38Z</time>
      </trkpt>
      <trkpt lat="45.22638" lon="5.74272">
        <ele>867.029</ele>
        <time>2021-03-20T06:35:45Z</time>
      </trkpt>
      <trkpt lat="45.22654" lon="5.74274">
        <ele>866.246</ele>
        <time>2021-03-20T06:35:52Z</time>
      </trkpt>
      <trkpt lat="45.22668" lon="5.7428">
        <ele>863.784</ele>
        <time>2021-03-20T06:35:57Z</time>
      </trkpt>
      <trkpt lat="45.22683" lon="5.74286">
        <ele>862.832</ele>
        <time>2021-03-20T06:36:04Z</time>
      </trkpt>
      <trkpt lat="45.22691" lon="5.74292">
        <ele>861.967</ele>
        <time>2021-03-20T06:36:08Z</time>
      </trkpt>
      <trkpt lat="45.22708" lon="5.74315">
        <ele>860.358</ele>
        <time>2021-03-20T06:36:16Z</time>
      </trkpt>
      <trkpt lat="45.22716" lon="5.74323">
        <ele>858.805</ele>
        <time>2021-03-20T06:36:19Z</time>
      </trkpt>
      <trkpt lat="45.22725" lon="5.74329">
        <ele>857.395</ele>
        <time>2021-03-20T06:36:22Z</time>
      </trkpt>
      <trkpt lat="45.22744" lon="5.74342">
        <ele>854.325</ele>
        <time>2021-03-20T06:36:29Z</time>
      </trkpt>
      <trkpt lat="45.22756" lon="5.74353">
        <ele>853.76</ele>
        <time>2021-03-20T06:36:34Z</time>
      </trkpt>
      <trkpt lat="45.22769" lon="5.74363">
        <ele>852.363</ele>
        <time>2021-03-20T06:36:40Z</time>
      </trkpt>
      <trkpt lat="45.22776" lon="5.74369">
        <ele>851.134</ele>
        <time>2021-03-20T06:36:43Z</time>
      </trkpt>
      <trkpt lat="45.22787" lon="5.74378">
        <ele>849.884</ele>
        <time>2021-03-20T06:36:48Z</time>
      </trkpt>
      <trkpt lat="45.22794" lon="5.74381">
        <ele>848.508</ele>
        <time>2021-03-20T06:36:51Z</time>
      </trkpt>
      <trkpt lat="45.22799" lon="5.74384">
        <ele>848.088</ele>
        <time>2021-03-20T06:36:53Z</time>
      </trkpt>
      <trkpt lat="45.22814" lon="5.74398">
        <ele>846.631</ele>
        <time>2021-03-20T06:36:59Z</time>
      </trkpt>
      <trkpt lat="45.22829" lon="5.74407">
        <ele>845.312</ele>
        <time>2021-03-20T06:37:05Z</time>
      </trkpt>
      <trkpt lat="45.22845" lon="5.74416">
        <ele>844.156</ele>
        <time>2021-03-20T06:37:11Z</time>
      </trkpt>
      <trkpt lat="45.22858" lon="5.74423">
        <ele>842.257</ele>
        <time>2021-03-20T06:37:17Z</time>
      </trkpt>
      <trkpt lat="45.22874" lon="5.74434">
        <ele>840.078</ele>
        <time>2021-03-20T06:37:24Z</time>
      </trkpt>
      <trkpt lat="45.22876" lon="5.74435">
        <ele>839.995</ele>
        <time>2021-03-20T06:37:25Z</time>
      </trkpt>
      <trkpt lat="45.22888" lon="5.74446">
        <ele>836.642</ele>
        <time>2021-03-20T06:37:31Z</time>
      </trkpt>
      <trkpt lat="45.2289" lon="5.74449">
        <ele>836.388</ele>
        <time>2021-03-20T06:37:32Z</time>
      </trkpt>
      <trkpt lat="45.22902" lon="5.7446">
        <ele>835.712</ele>
        <time>2021-03-20T06:37:37Z</time>
      </trkpt>
      <trkpt lat="45.22916" lon="5.74477">
        <ele>834.537</ele>
        <time>2021-03-20T06:37:43Z</time>
      </trkpt>
      <trkpt lat="45.22928" lon="5.7449">
        <ele>832.082</ele>
        <time>2021-03-20T06:37:49Z</time>
      </trkpt>
      <trkpt lat="45.2293" lon="5.74492">
        <ele>832.134</ele>
        <time>2021-03-20T06:37:50Z</time>
      </trkpt>
      <trkpt lat="45.22943" lon="5.74505">
        <ele>830.664</ele>
        <time>2021-03-20T06:37:56Z</time>
      </trkpt>
      <trkpt lat="45.22946" lon="5.7451">
        <ele>830.115</ele>
        <time>2021-03-20T06:37:58Z</time>
      </trkpt>
      <trkpt lat="45.22956" lon="5.74524">
        <ele>828.305</ele>
        <time>2021-03-20T06:38:04Z</time>
      </trkpt>
      <trkpt lat="45.22957" lon="5.74526">
        <ele>827.521</ele>
        <time>2021-03-20T06:38:05Z</time>
      </trkpt>
      <trkpt lat="45.22968" lon="5.74539">
        <ele>826.341</ele>
        <time>2021-03-20T06:38:10Z</time>
      </trkpt>
      <trkpt lat="45.22983" lon="5.74559">
        <ele>825.362</ele>
        <time>2021-03-20T06:38:16Z</time>
      </trkpt>
      <trkpt lat="45.22995" lon="5.74574">
        <ele>822.822</ele>
        <time>2021-03-20T06:38:22Z</time>
      </trkpt>
      <trkpt lat="45.22998" lon="5.74576">
        <ele>822.593</ele>
        <time>2021-03-20T06:38:23Z</time>
      </trkpt>
      <trkpt lat="45.2301" lon="5.7459">
        <ele>821.062</ele>
        <time>2021-03-20T06:38:29Z</time>
      </trkpt>
      <trkpt lat="45.2302" lon="5.74603">
        <ele>820.096</ele>
        <time>2021-03-20T06:38:34Z</time>
      </trkpt>
      <trkpt lat="45.23024" lon="5.74608">
        <ele>818.795</ele>
        <time>2021-03-20T06:38:36Z</time>
      </trkpt>
      <trkpt lat="45.23034" lon="5.74621">
        <ele>817.404</ele>
        <time>2021-03-20T06:38:42Z</time>
      </trkpt>
      <trkpt lat="45.23046" lon="5.74631">
        <ele>815.701</ele>
        <time>2021-03-20T06:38:48Z</time>
      </trkpt>
      <trkpt lat="45.23057" lon="5.74646">
        <ele>815.27</ele>
        <time>2021-03-20T06:38:53Z</time>
      </trkpt>
      <trkpt lat="45.23069" lon="5.74661">
        <ele>813.83</ele>
        <time>2021-03-20T06:38:59Z</time>
      </trkpt>
      <trkpt lat="45.23077" lon="5.74672">
        <ele>812.431</ele>
        <time>2021-03-20T06:39:03Z</time>
      </trkpt>
      <trkpt lat="45.23087" lon="5.74683">
        <ele>810.971</ele>
        <time>2021-03-20T06:39:08Z</time>
      </trkpt>
      <trkpt lat="45.23099" lon="5.74702">
        <ele>808.531</ele>
        <time>2021-03-20T06:39:15Z</time>
      </trkpt>
      <trkpt lat="45.23109" lon="5.74715">
        <ele>807.469</ele>
        <time>2021-03-20T06:39:21Z</time>
      </trkpt>
      <trkpt lat="45.23119" lon="5.7473">
        <ele>805.688</ele>
        <time>2021-03-20T06:39:27Z</time>
      </trkpt>
      <trkpt lat="45.23128" lon="5.74741">
        <ele>803.421</ele>
        <time>2021-03-20T06:39:33Z</time>
      </trkpt>
      <trkpt lat="45.23135" lon="5.74754">
        <ele>802.79</ele>
        <time>2021-03-20T06:39:37Z</time>
      </trkpt>
      <trkpt lat="45.23145" lon="5.74775">
        <ele>800.692</ele>
        <time>2021-03-20T06:39:43Z</time>
      </trkpt>
      <trkpt lat="45.23156" lon="5.74794">
        <ele>798.914</ele>
        <time>2021-03-20T06:39:49Z</time>
      </trkpt>
      <trkpt lat="45.23166" lon="5.74814">
        <ele>797.694</ele>
        <time>2021-03-20T06:39:56Z</time>
      </trkpt>
      <trkpt lat="45.23175" lon="5.74834">
        <ele>796.441</ele>
        <time>2021-03-20T06:40:02Z</time>
      </trkpt>
      <trkpt lat="45.23186" lon="5.74852">
        <ele>794.899</ele>
        <time>2021-03-20T06:40:08Z</time>
      </trkpt>
      <trkpt lat="45.23198" lon="5.74863">
        <ele>793.595</ele>
        <time>2021-03-20T06:40:13Z</time>
      </trkpt>
      <trkpt lat="45.23212" lon="5.74869">
        <ele>790.584</ele>
        <time>2021-03-20T06:40:18Z</time>
      </trkpt>
      <trkpt lat="45.23218" lon="5.74881">
        <ele>789.479</ele>
        <time>2021-03-20T06:40:23Z</time>
      </trkpt>
      <trkpt lat="45.23222" lon="5.74898">
        <ele>788.044</ele>
        <time>2021-03-20T06:40:29Z</time>
      </trkpt>
      <trkpt lat="45.23224" lon="5.74904">
        <ele>787.065</ele>
        <time>2021-03-20T06:40:31Z</time>
      </trkpt>
      <trkpt lat="45.23233" lon="5.74913">
        <ele>786.444</ele>
        <time>2021-03-20T06:40:35Z</time>
      </trkpt>
      <trkpt lat="45.23248" lon="5.74929">
        <ele>784.675</ele>
        <time>2021-03-20T06:40:42Z</time>
      </trkpt>
      <trkpt lat="45.23264" lon="5.74946">
        <ele>782.328</ele>
        <time>2021-03-20T06:40:49Z</time>
      </trkpt>
      <trkpt lat="45.23271" lon="5.74956">
        <ele>781.166</ele>
        <time>2021-03-20T06:40:53Z</time>
      </trkpt>
      <trkpt lat="45.23284" lon="5.74975">
        <ele>779.763</ele>
        <time>2021-03-20T06:41:00Z</time>
      </trkpt>
      <trkpt lat="45.23297" lon="5.75002">
        <ele>777.745</ele>
        <time>2021-03-20T06:41:09Z</time>
      </trkpt>
      <trkpt lat="45.23309" lon="5.75023">
        <ele>776.259</ele>
        <time>2021-03-20T06:41:16Z</time>
      </trkpt>
      <trkpt lat="45.23319" lon="5.75042">
        <ele>775.225</ele>
        <time>2021-03-20T06:41:22Z</time>
      </trkpt>
      <trkpt lat="45.23327" lon="5.75076">
        <ele>771.639</ele>
        <time>2021-03-20T06:41:31Z</time>
      </trkpt>
      <trkpt lat="45.23324" lon="5.751">
        <ele>769.289</ele>
        <time>2021-03-20T06:41:38Z</time>
      </trkpt>
      <trkpt lat="45.23322" lon="5.7511">
        <ele>769.602</ele>
        <time>2021-03-20T06:41:41Z</time>
      </trkpt>
      <trkpt lat="45.23334" lon="5.75108">
        <ele>771.11</ele>
        <time>2021-03-20T06:41:47Z</time>
      </trkpt>
      <trkpt lat="45.23349" lon="5.75104">
        <ele>773.396</ele>
        <time>2021-03-20T06:41:54Z</time>
      </trkpt>
      <trkpt lat="45.23353" lon="5.75103">
        <ele>775.143</ele>
        <time>2021-03-20T06:41:56Z</time>
      </trkpt>
      <trkpt lat="45.23373" lon="5.75103">
        <ele>776.446</ele>
        <time>2021-03-20T06:42:04Z</time>
      </trkpt>
      <trkpt lat="45.23391" lon="5.75101">
        <ele>777.162</ele>
        <time>2021-03-20T06:42:10Z</time>
      </trkpt>
      <trkpt lat="45.23413" lon="5.75098">
        <ele>778.192</ele>
        <time>2021-03-20T06:42:18Z</time>
      </trkpt>
      <trkpt lat="45.23428" lon="5.75096">
        <ele>778.372</ele>
        <time>2021-03-20T06:42:24Z</time>
      </trkpt>
      <trkpt lat="45.23449" lon="5.75092">
        <ele>779.343</ele>
        <time>2021-03-20T06:42:33Z</time>
      </trkpt>
      <trkpt lat="45.23463" lon="5.75089">
        <ele>779.743</ele>
        <time>2021-03-20T06:42:40Z</time>
      </trkpt>
      <trkpt lat="45.2348" lon="5.75089">
        <ele>782.177</ele>
        <time>2021-03-20T06:42:48Z</time>
      </trkpt>
      <trkpt lat="45.23499" lon="5.75083">
        <ele>783.855</ele>
        <time>2021-03-20T06:42:57Z</time>
      </trkpt>
      <trkpt lat="45.23518" lon="5.75081">
        <ele>784.672</ele>
        <time>2021-03-20T06:43:04Z</time>
      </trkpt>
      <trkpt lat="45.23533" lon="5.75084">
        <ele>785.007</ele>
        <time>2021-03-20T06:43:10Z</time>
      </trkpt>
      <trkpt lat="45.23547" lon="5.75093">
        <ele>786.116</ele>
        <time>2021-03-20T06:43:17Z</time>
      </trkpt>
      <trkpt lat="45.23552" lon="5.75097">
        <ele>787.39</ele>
        <time>2021-03-20T06:43:21Z</time>
      </trkpt>
      <trkpt lat="45.23558" lon="5.75105">
        <ele>790.322</ele>
        <time>2021-03-20T06:43:28Z</time>
      </trkpt>
      <trkpt lat="45.23563" lon="5.7511">
        <ele>792.018</ele>
        <time>2021-03-20T06:43:34Z</time>
      </trkpt>
      <trkpt lat="45.23574" lon="5.75119">
        <ele>794.242</ele>
        <time>2021-03-20T06:43:42Z</time>
      </trkpt>
      <trkpt lat="45.23582" lon="5.75128">
        <ele>797.222</ele>
        <time>2021-03-20T06:43:49Z</time>
      </trkpt>
      <trkpt lat="45.23584" lon="5.75136">
        <ele>798.872</ele>
        <time>2021-03-20T06:43:54Z</time>
      </trkpt>
      <trkpt lat="45.23579" lon="5.75137">
        <ele>799.522</ele>
        <time>2021-03-20T06:43:56Z</time>
      </trkpt>
      <trkpt lat="45.23568" lon="5.75136">
        <ele>802.186</ele>
        <time>2021-03-20T06:44:04Z</time>
      </trkpt>
      <trkpt lat="45.23561" lon="5.75139">
        <ele>803.972</ele>
        <time>2021-03-20T06:44:09Z</time>
      </trkpt>
      <trkpt lat="45.23554" lon="5.75141">
        <ele>804.859</ele>
        <time>2021-03-20T06:44:14Z</time>
      </trkpt>
      <trkpt lat="45.23547" lon="5.75144">
        <ele>807.112</ele>
        <time>2021-03-20T06:44:20Z</time>
      </trkpt>
      <trkpt lat="45.23539" lon="5.75145">
        <ele>808.704</ele>
        <time>2021-03-20T06:44:26Z</time>
      </trkpt>
      <trkpt lat="45.23536" lon="5.75148">
        <ele>809.047</ele>
        <time>2021-03-20T06:44:28Z</time>
      </trkpt>
      <trkpt lat="45.23525" lon="5.75153">
        <ele>810.705</ele>
        <time>2021-03-20T06:44:36Z</time>
      </trkpt>
      <trkpt lat="45.23518" lon="5.75161">
        <ele>813.461</ele>
        <time>2021-03-20T06:44:45Z</time>
      </trkpt>
      <trkpt lat="45.23512" lon="5.75165">
        <ele>815.145</ele>
        <time>2021-03-20T06:44:50Z</time>
      </trkpt>
      <trkpt lat="45.23505" lon="5.75173">
        <ele>816.312</ele>
        <time>2021-03-20T06:44:56Z</time>
      </trkpt>
      <trkpt lat="45.23497" lon="5.75182">
        <ele>819.989</ele>
        <time>2021-03-20T06:45:06Z</time>
      </trkpt>
      <trkpt lat="45.23494" lon="5.75185">
        <ele>820.741</ele>
        <time>2021-03-20T06:45:08Z</time>
      </trkpt>
      <trkpt lat="45.23488" lon="5.75191">
        <ele>822.1</ele>
        <time>2021-03-20T06:45:14Z</time>
      </trkpt>
      <trkpt lat="45.23483" lon="5.75198">
        <ele>823.055</ele>
        <time>2021-03-20T06:45:19Z</time>
      </trkpt>
      <trkpt lat="45.23477" lon="5.75204">
        <ele>824.948</ele>
        <time>2021-03-20T06:45:24Z</time>
      </trkpt>
      <trkpt lat="45.23471" lon="5.75209">
        <ele>826.136</ele>
        <time>2021-03-20T06:45:30Z</time>
      </trkpt>
      <trkpt lat="45.23466" lon="5.75213">
        <ele>827.954</ele>
        <time>2021-03-20T06:45:35Z</time>
      </trkpt>
      <trkpt lat="45.23462" lon="5.75219">
        <ele>829.611</ele>
        <time>2021-03-20T06:45:41Z</time>
      </trkpt>
      <trkpt lat="45.23455" lon="5.75224">
        <ele>831.52</ele>
        <time>2021-03-20T06:45:47Z</time>
      </trkpt>
      <trkpt lat="45.23452" lon="5.75228">
        <ele>831.822</ele>
        <time>2021-03-20T06:45:52Z</time>
      </trkpt>
      <trkpt lat="45.23447" lon="5.75234">
        <ele>833.587</ele>
        <time>2021-03-20T06:45:57Z</time>
      </trkpt>
      <trkpt lat="45.23442" lon="5.75241">
        <ele>835.471</ele>
        <time>2021-03-20T06:46:03Z</time>
      </trkpt>
      <trkpt lat="45.2344" lon="5.75245">
        <ele>836.039</ele>
        <time>2021-03-20T06:46:05Z</time>
      </trkpt>
      <trkpt lat="45.23438" lon="5.75259">
        <ele>838.645</ele>
        <time>2021-03-20T06:46:12Z</time>
      </trkpt>
      <trkpt lat="45.23432" lon="5.75267">
        <ele>840.181</ele>
        <time>2021-03-20T06:46:19Z</time>
      </trkpt>
      <trkpt lat="45.23431" lon="5.75267">
        <ele>840.297</ele>
        <time>2021-03-20T06:46:20Z</time>
      </trkpt>
      <trkpt lat="45.23422" lon="5.75276">
        <ele>843.679</ele>
        <time>2021-03-20T06:46:29Z</time>
      </trkpt>
      <trkpt lat="45.2341" lon="5.75292">
        <ele>845.735</ele>
        <time>2021-03-20T06:46:39Z</time>
      </trkpt>
      <trkpt lat="45.23408" lon="5.75308">
        <ele>848.672</ele>
        <time>2021-03-20T06:46:47Z</time>
      </trkpt>
      <trkpt lat="45.23415" lon="5.75323">
        <ele>850.262</ele>
        <time>2021-03-20T06:46:55Z</time>
      </trkpt>
      <trkpt lat="45.23414" lon="5.7533">
        <ele>852.404</ele>
        <time>2021-03-20T06:47:00Z</time>
      </trkpt>
      <trkpt lat="45.23408" lon="5.75332">
        <ele>853.755</ele>
        <time>2021-03-20T06:47:06Z</time>
      </trkpt>
      <trkpt lat="45.234" lon="5.75337">
        <ele>854.528</ele>
        <time>2021-03-20T06:47:12Z</time>
      </trkpt>
      <trkpt lat="45.23399" lon="5.75338">
        <ele>854.636</ele>
        <time>2021-03-20T06:47:13Z</time>
      </trkpt>
      <trkpt lat="45.23393" lon="5.7534">
        <ele>857.453</ele>
        <time>2021-03-20T06:47:19Z</time>
      </trkpt>
      <trkpt lat="45.23386" lon="5.75342">
        <ele>859.734</ele>
        <time>2021-03-20T06:47:25Z</time>
      </trkpt>
      <trkpt lat="45.23382" lon="5.75345">
        <ele>860.476</ele>
        <time>2021-03-20T06:47:29Z</time>
      </trkpt>
      <trkpt lat="45.23377" lon="5.75348">
        <ele>862.374</ele>
        <time>2021-03-20T06:47:34Z</time>
      </trkpt>
      <trkpt lat="45.2337" lon="5.7535">
        <ele>863.609</ele>
        <time>2021-03-20T06:47:41Z</time>
      </trkpt>
      <trkpt lat="45.23366" lon="5.75354">
        <ele>864.269</ele>
        <time>2021-03-20T06:47:46Z</time>
      </trkpt>
      <trkpt lat="45.2336" lon="5.7536">
        <ele>864.879</ele>
        <time>2021-03-20T06:47:53Z</time>
      </trkpt>
      <trkpt lat="45.23356" lon="5.75363">
        <ele>867.693</ele>
        <time>2021-03-20T06:47:58Z</time>
      </trkpt>
      <trkpt lat="45.2335" lon="5.75365">
        <ele>868.228</ele>
        <time>2021-03-20T06:48:04Z</time>
      </trkpt>
      <trkpt lat="45.23346" lon="5.75369">
        <ele>870.408</ele>
        <time>2021-03-20T06:48:09Z</time>
      </trkpt>
      <trkpt lat="45.23338" lon="5.75374">
        <ele>872.328</ele>
        <time>2021-03-20T06:48:17Z</time>
      </trkpt>
      <trkpt lat="45.23332" lon="5.75379">
        <ele>873.625</ele>
        <time>2021-03-20T06:48:22Z</time>
      </trkpt>
      <trkpt lat="45.23325" lon="5.75386">
        <ele>875.803</ele>
        <time>2021-03-20T06:48:28Z</time>
      </trkpt>
      <trkpt lat="45.23321" lon="5.75392">
        <ele>877.477</ele>
        <time>2021-03-20T06:48:32Z</time>
      </trkpt>
      <trkpt lat="45.23316" lon="5.75399">
        <ele>879.624</ele>
        <time>2021-03-20T06:48:39Z</time>
      </trkpt>
      <trkpt lat="45.23311" lon="5.75405">
        <ele>879.915</ele>
        <time>2021-03-20T06:48:44Z</time>
      </trkpt>
      <trkpt lat="45.23305" lon="5.75418">
        <ele>881.67</ele>
        <time>2021-03-20T06:48:53Z</time>
      </trkpt>
      <trkpt lat="45.23299" lon="5.75428">
        <ele>883.457</ele>
        <time>2021-03-20T06:49:02Z</time>
      </trkpt>
      <trkpt lat="45.23295" lon="5.75435">
        <ele>884.593</ele>
        <time>2021-03-20T06:49:07Z</time>
      </trkpt>
      <trkpt lat="45.2329" lon="5.75443">
        <ele>887.042</ele>
        <time>2021-03-20T06:49:14Z</time>
      </trkpt>
      <trkpt lat="45.23285" lon="5.75453">
        <ele>889.25</ele>
        <time>2021-03-20T06:49:23Z</time>
      </trkpt>
      <trkpt lat="45.2328" lon="5.75463">
        <ele>891.453</ele>
        <time>2021-03-20T06:49:30Z</time>
      </trkpt>
      <trkpt lat="45.23276" lon="5.75472">
        <ele>892.615</ele>
        <time>2021-03-20T06:49:37Z</time>
      </trkpt>
      <trkpt lat="45.23271" lon="5.7548">
        <ele>894.756</ele>
        <time>2021-03-20T06:49:43Z</time>
      </trkpt>
      <trkpt lat="45.23263" lon="5.7549">
        <ele>897.023</ele>
        <time>2021-03-20T06:49:52Z</time>
      </trkpt>
      <trkpt lat="45.23263" lon="5.75492">
        <ele>898</ele>
        <time>2021-03-20T06:49:54Z</time>
      </trkpt>
      <trkpt lat="45.2327" lon="5.7549">
        <ele>898.891</ele>
        <time>2021-03-20T06:50:00Z</time>
      </trkpt>
      <trkpt lat="45.23274" lon="5.75488">
        <ele>899.954</ele>
        <time>2021-03-20T06:50:04Z</time>
      </trkpt>
      <trkpt lat="45.23281" lon="5.75487">
        <ele>902.455</ele>
        <time>2021-03-20T06:50:13Z</time>
      </trkpt>
      <trkpt lat="45.23292" lon="5.75482">
        <ele>904.645</ele>
        <time>2021-03-20T06:50:19Z</time>
      </trkpt>
      <trkpt lat="45.23299" lon="5.75481">
        <ele>905.695</ele>
        <time>2021-03-20T06:50:24Z</time>
      </trkpt>
      <trkpt lat="45.23305" lon="5.75476">
        <ele>905.602</ele>
        <time>2021-03-20T06:50:30Z</time>
      </trkpt>
      <trkpt lat="45.2331" lon="5.75475">
        <ele>905.857</ele>
        <time>2021-03-20T06:50:35Z</time>
      </trkpt>
      <trkpt lat="45.2332" lon="5.75475">
        <ele>908.22</ele>
        <time>2021-03-20T06:50:42Z</time>
      </trkpt>
      <trkpt lat="45.23325" lon="5.7547">
        <ele>910.566</ele>
        <time>2021-03-20T06:50:48Z</time>
      </trkpt>
      <trkpt lat="45.23333" lon="5.75471">
        <ele>911.854</ele>
        <time>2021-03-20T06:50:53Z</time>
      </trkpt>
      <trkpt lat="45.23341" lon="5.7547">
        <ele>913.178</ele>
        <time>2021-03-20T06:50:59Z</time>
      </trkpt>
      <trkpt lat="45.23349" lon="5.75467">
        <ele>915.497</ele>
        <time>2021-03-20T06:51:06Z</time>
      </trkpt>
      <trkpt lat="45.23358" lon="5.75467">
        <ele>917.117</ele>
        <time>2021-03-20T06:51:12Z</time>
      </trkpt>
      <trkpt lat="45.23367" lon="5.75465">
        <ele>919.186</ele>
        <time>2021-03-20T06:51:19Z</time>
      </trkpt>
      <trkpt lat="45.23371" lon="5.75464">
        <ele>920.534</ele>
        <time>2021-03-20T06:51:22Z</time>
      </trkpt>
      <trkpt lat="45.23381" lon="5.75466">
        <ele>921.61</ele>
        <time>2021-03-20T06:51:28Z</time>
      </trkpt>
      <trkpt lat="45.23386" lon="5.75465">
        <ele>922.612</ele>
        <time>2021-03-20T06:51:33Z</time>
      </trkpt>
      <trkpt lat="45.23389" lon="5.75465">
        <ele>924.431</ele>
        <time>2021-03-20T06:51:37Z</time>
      </trkpt>
      <trkpt lat="45.23396" lon="5.75463">
        <ele>926.318</ele>
        <time>2021-03-20T06:51:44Z</time>
      </trkpt>
      <trkpt lat="45.23403" lon="5.75462">
        <ele>928.678</ele>
        <time>2021-03-20T06:51:53Z</time>
      </trkpt>
      <trkpt lat="45.23408" lon="5.75462">
        <ele>929.224</ele>
        <time>2021-03-20T06:51:59Z</time>
      </trkpt>
      <trkpt lat="45.23417" lon="5.75462">
        <ele>931.404</ele>
        <time>2021-03-20T06:52:07Z</time>
      </trkpt>
      <trkpt lat="45.23426" lon="5.75463">
        <ele>933.704</ele>
        <time>2021-03-20T06:52:14Z</time>
      </trkpt>
      <trkpt lat="45.23436" lon="5.75466">
        <ele>935.507</ele>
        <time>2021-03-20T06:52:20Z</time>
      </trkpt>
      <trkpt lat="45.23441" lon="5.75463">
        <ele>937.7</ele>
        <time>2021-03-20T06:52:27Z</time>
      </trkpt>
      <trkpt lat="45.23447" lon="5.75468">
        <ele>940.451</ele>
        <time>2021-03-20T06:52:35Z</time>
      </trkpt>
      <trkpt lat="45.23453" lon="5.75471">
        <ele>941.329</ele>
        <time>2021-03-20T06:52:41Z</time>
      </trkpt>
      <trkpt lat="45.2346" lon="5.75472">
        <ele>942.861</ele>
        <time>2021-03-20T06:52:44Z</time>
      </trkpt>
      <trkpt lat="45.23468" lon="5.75472">
        <ele>943.47</ele>
        <time>2021-03-20T06:52:50Z</time>
      </trkpt>
      <trkpt lat="45.23474" lon="5.75475">
        <ele>944.597</ele>
        <time>2021-03-20T06:52:55Z</time>
      </trkpt>
      <trkpt lat="45.23479" lon="5.75474">
        <ele>945.375</ele>
        <time>2021-03-20T06:53:00Z</time>
      </trkpt>
      <trkpt lat="45.23485" lon="5.75473">
        <ele>946.526</ele>
        <time>2021-03-20T06:53:05Z</time>
      </trkpt>
      <trkpt lat="45.23494" lon="5.75477">
        <ele>949.154</ele>
        <time>2021-03-20T06:53:12Z</time>
      </trkpt>
      <trkpt lat="45.23485" lon="5.75484">
        <ele>951.401</ele>
        <time>2021-03-20T06:53:19Z</time>
      </trkpt>
      <trkpt lat="45.23478" lon="5.75485">
        <ele>952.489</ele>
        <time>2021-03-20T06:53:25Z</time>
      </trkpt>
      <trkpt lat="45.23471" lon="5.75488">
        <ele>953.716</ele>
        <time>2021-03-20T06:53:32Z</time>
      </trkpt>
      <trkpt lat="45.23464" lon="5.75491">
        <ele>954.749</ele>
        <time>2021-03-20T06:53:39Z</time>
      </trkpt>
      <trkpt lat="45.23461" lon="5.75499">
        <ele>957.073</ele>
        <time>2021-03-20T06:53:45Z</time>
      </trkpt>
      <trkpt lat="45.23452" lon="5.755">
        <ele>957.755</ele>
        <time>2021-03-20T06:53:53Z</time>
      </trkpt>
      <trkpt lat="45.23445" lon="5.75503">
        <ele>959.519</ele>
        <time>2021-03-20T06:53:59Z</time>
      </trkpt>
      <trkpt lat="45.23438" lon="5.75508">
        <ele>960.292</ele>
        <time>2021-03-20T06:54:06Z</time>
      </trkpt>
      <trkpt lat="45.23432" lon="5.75513">
        <ele>963.208</ele>
        <time>2021-03-20T06:54:14Z</time>
      </trkpt>
      <trkpt lat="45.23426" lon="5.75514">
        <ele>964.112</ele>
        <time>2021-03-20T06:54:19Z</time>
      </trkpt>
      <trkpt lat="45.23421" lon="5.75517">
        <ele>966.007</ele>
        <time>2021-03-20T06:54:24Z</time>
      </trkpt>
      <trkpt lat="45.23416" lon="5.75518">
        <ele>967.88</ele>
        <time>2021-03-20T06:54:29Z</time>
      </trkpt>
      <trkpt lat="45.2341" lon="5.75523">
        <ele>968.393</ele>
        <time>2021-03-20T06:54:34Z</time>
      </trkpt>
      <trkpt lat="45.23403" lon="5.75532">
        <ele>970</ele>
        <time>2021-03-20T06:54:40Z</time>
      </trkpt>
      <trkpt lat="45.23396" lon="5.75536">
        <ele>971.543</ele>
        <time>2021-03-20T06:54:46Z</time>
      </trkpt>
      <trkpt lat="45.23388" lon="5.75543">
        <ele>973.147</ele>
        <time>2021-03-20T06:54:55Z</time>
      </trkpt>
      <trkpt lat="45.23383" lon="5.75549">
        <ele>974.178</ele>
        <time>2021-03-20T06:55:01Z</time>
      </trkpt>
      <trkpt lat="45.23372" lon="5.75558">
        <ele>977.375</ele>
        <time>2021-03-20T06:55:15Z</time>
      </trkpt>
      <trkpt lat="45.23365" lon="5.75566">
        <ele>978.494</ele>
        <time>2021-03-20T06:55:22Z</time>
      </trkpt>
      <trkpt lat="45.23356" lon="5.75576">
        <ele>981.576</ele>
        <time>2021-03-20T06:55:34Z</time>
      </trkpt>
      <trkpt lat="45.2335" lon="5.75582">
        <ele>982.995</ele>
        <time>2021-03-20T06:55:40Z</time>
      </trkpt>
      <trkpt lat="45.23344" lon="5.75591">
        <ele>984.731</ele>
        <time>2021-03-20T06:55:47Z</time>
      </trkpt>
      <trkpt lat="45.23339" lon="5.75599">
        <ele>986.267</ele>
        <time>2021-03-20T06:55:53Z</time>
      </trkpt>
      <trkpt lat="45.2334" lon="5.75603">
        <ele>987.74</ele>
        <time>2021-03-20T06:55:59Z</time>
      </trkpt>
      <trkpt lat="45.23342" lon="5.75601">
        <ele>989.111</ele>
        <time>2021-03-20T06:56:02Z</time>
      </trkpt>
      <trkpt lat="45.2335" lon="5.75597">
        <ele>990.155</ele>
        <time>2021-03-20T06:56:09Z</time>
      </trkpt>
      <trkpt lat="45.23354" lon="5.75593">
        <ele>992.092</ele>
        <time>2021-03-20T06:56:15Z</time>
      </trkpt>
      <trkpt lat="45.23355" lon="5.75591">
        <ele>993.316</ele>
        <time>2021-03-20T06:56:17Z</time>
      </trkpt>
      <trkpt lat="45.23361" lon="5.75587">
        <ele>994.043</ele>
        <time>2021-03-20T06:56:22Z</time>
      </trkpt>
      <trkpt lat="45.23368" lon="5.75582">
        <ele>994.835</ele>
        <time>2021-03-20T06:56:30Z</time>
      </trkpt>
      <trkpt lat="45.23373" lon="5.75581">
        <ele>997.009</ele>
        <time>2021-03-20T06:56:34Z</time>
      </trkpt>
      <trkpt lat="45.23379" lon="5.75577">
        <ele>998.689</ele>
        <time>2021-03-20T06:56:40Z</time>
      </trkpt>
      <trkpt lat="45.23386" lon="5.75577">
        <ele>999.395</ele>
        <time>2021-03-20T06:56:45Z</time>
      </trkpt>
      <trkpt lat="45.23393" lon="5.75579">
        <ele>1000.346</ele>
        <time>2021-03-20T06:56:51Z</time>
      </trkpt>
      <trkpt lat="45.234" lon="5.75581">
        <ele>1001.752</ele>
        <time>2021-03-20T06:56:58Z</time>
      </trkpt>
      <trkpt lat="45.23404" lon="5.75579">
        <ele>1003.042</ele>
        <time>2021-03-20T06:57:02Z</time>
      </trkpt>
      <trkpt lat="45.2341" lon="5.75576">
        <ele>1004.782</ele>
        <time>2021-03-20T06:57:07Z</time>
      </trkpt>
      <trkpt lat="45.23417" lon="5.75577">
        <ele>1007.184</ele>
        <time>2021-03-20T06:57:13Z</time>
      </trkpt>
      <trkpt lat="45.23417" lon="5.75577">
        <ele>1007.414</ele>
        <time>2021-03-20T06:57:14Z</time>
      </trkpt>
      <trkpt lat="45.23424" lon="5.75576">
        <ele>1007.904</ele>
        <time>2021-03-20T06:57:21Z</time>
      </trkpt>
      <trkpt lat="45.23431" lon="5.75578">
        <ele>1008.61</ele>
        <time>2021-03-20T06:57:26Z</time>
      </trkpt>
      <trkpt lat="45.23438" lon="5.75578">
        <ele>1011.552</ele>
        <time>2021-03-20T06:57:32Z</time>
      </trkpt>
      <trkpt lat="45.23443" lon="5.7558">
        <ele>1012.278</ele>
        <time>2021-03-20T06:57:37Z</time>
      </trkpt>
      <trkpt lat="45.23451" lon="5.7558">
        <ele>1013.571</ele>
        <time>2021-03-20T06:57:44Z</time>
      </trkpt>
      <trkpt lat="45.23455" lon="5.75581">
        <ele>1015.135</ele>
        <time>2021-03-20T06:57:48Z</time>
      </trkpt>
      <trkpt lat="45.23458" lon="5.7558">
        <ele>1016.076</ele>
        <time>2021-03-20T06:57:53Z</time>
      </trkpt>
      <trkpt lat="45.23459" lon="5.75579">
        <ele>1017.175</ele>
        <time>2021-03-20T06:57:55Z</time>
      </trkpt>
      <trkpt lat="45.23466" lon="5.75578">
        <ele>1018.077</ele>
        <time>2021-03-20T06:58:00Z</time>
      </trkpt>
      <trkpt lat="45.23472" lon="5.75581">
        <ele>1018.994</ele>
        <time>2021-03-20T06:58:04Z</time>
      </trkpt>
      <trkpt lat="45.23476" lon="5.75584">
        <ele>1020.907</ele>
        <time>2021-03-20T06:58:11Z</time>
      </trkpt>
      <trkpt lat="45.23481" lon="5.75586">
        <ele>1021.557</ele>
        <time>2021-03-20T06:58:17Z</time>
      </trkpt>
      <trkpt lat="45.23485" lon="5.75589">
        <ele>1022.836</ele>
        <time>2021-03-20T06:58:21Z</time>
      </trkpt>
      <trkpt lat="45.23493" lon="5.75585">
        <ele>1024.625</ele>
        <time>2021-03-20T06:58:28Z</time>
      </trkpt>
      <trkpt lat="45.23498" lon="5.75586">
        <ele>1025.848</ele>
        <time>2021-03-20T06:58:35Z</time>
      </trkpt>
      <trkpt lat="45.23505" lon="5.75592">
        <ele>1028.925</ele>
        <time>2021-03-20T06:58:43Z</time>
      </trkpt>
      <trkpt lat="45.2351" lon="5.75599">
        <ele>1030.084</ele>
        <time>2021-03-20T06:58:50Z</time>
      </trkpt>
      <trkpt lat="45.23515" lon="5.75605">
        <ele>1031.075</ele>
        <time>2021-03-20T06:58:56Z</time>
      </trkpt>
      <trkpt lat="45.23523" lon="5.75607">
        <ele>1031.891</ele>
        <time>2021-03-20T06:59:03Z</time>
      </trkpt>
      <trkpt lat="45.2353" lon="5.75605">
        <ele>1033.054</ele>
        <time>2021-03-20T06:59:10Z</time>
      </trkpt>
      <trkpt lat="45.2354" lon="5.75608">
        <ele>1034.923</ele>
        <time>2021-03-20T06:59:17Z</time>
      </trkpt>
      <trkpt lat="45.23538" lon="5.75611">
        <ele>1035.822</ele>
        <time>2021-03-20T06:59:19Z</time>
      </trkpt>
      <trkpt lat="45.2353" lon="5.75612">
        <ele>1037.375</ele>
        <time>2021-03-20T06:59:26Z</time>
      </trkpt>
      <trkpt lat="45.23521" lon="5.75616">
        <ele>1039.335</ele>
        <time>2021-03-20T06:59:34Z</time>
      </trkpt>
      <trkpt lat="45.23514" lon="5.7562">
        <ele>1040.761</ele>
        <time>2021-03-20T06:59:43Z</time>
      </trkpt>
      <trkpt lat="45.23508" lon="5.7562">
        <ele>1042.305</ele>
        <time>2021-03-20T06:59:48Z</time>
      </trkpt>
      <trkpt lat="45.23502" lon="5.75616">
        <ele>1043.823</ele>
        <time>2021-03-20T06:59:54Z</time>
      </trkpt>
      <trkpt lat="45.23496" lon="5.75616">
        <ele>1045.052</ele>
        <time>2021-03-20T07:00:00Z</time>
      </trkpt>
      <trkpt lat="45.2349" lon="5.75617">
        <ele>1047.203</ele>
        <time>2021-03-20T07:00:06Z</time>
      </trkpt>
      <trkpt lat="45.23482" lon="5.75625">
        <ele>1048.999</ele>
        <time>2021-03-20T07:00:14Z</time>
      </trkpt>
      <trkpt lat="45.23478" lon="5.75629">
        <ele>1050.87</ele>
        <time>2021-03-20T07:00:19Z</time>
      </trkpt>
      <trkpt lat="45.23472" lon="5.7563">
        <ele>1051.181</ele>
        <time>2021-03-20T07:00:25Z</time>
      </trkpt>
      <trkpt lat="45.23468" lon="5.75628">
        <ele>1051.688</ele>
        <time>2021-03-20T07:00:29Z</time>
      </trkpt>
      <trkpt lat="45.23463" lon="5.75629">
        <ele>1052.353</ele>
        <time>2021-03-20T07:00:34Z</time>
      </trkpt>
      <trkpt lat="45.23458" lon="5.75634">
        <ele>1053.785</ele>
        <time>2021-03-20T07:00:39Z</time>
      </trkpt>
      <trkpt lat="45.2345" lon="5.75642">
        <ele>1056.045</ele>
        <time>2021-03-20T07:00:47Z</time>
      </trkpt>
      <trkpt lat="45.23448" lon="5.75644">
        <ele>1056.775</ele>
        <time>2021-03-20T07:00:49Z</time>
      </trkpt>
      <trkpt lat="45.2343" lon="5.7565">
        <ele>1060.288</ele>
        <time>2021-03-20T07:01:09Z</time>
      </trkpt>
      <trkpt lat="45.23423" lon="5.75656">
        <ele>1062.762</ele>
        <time>2021-03-20T07:01:18Z</time>
      </trkpt>
      <trkpt lat="45.23418" lon="5.75665">
        <ele>1063.493</ele>
        <time>2021-03-20T07:01:25Z</time>
      </trkpt>
      <trkpt lat="45.23417" lon="5.75675">
        <ele>1064.966</ele>
        <time>2021-03-20T07:01:33Z</time>
      </trkpt>
      <trkpt lat="45.23412" lon="5.75685">
        <ele>1066.902</ele>
        <time>2021-03-20T07:01:39Z</time>
      </trkpt>
      <trkpt lat="45.23407" lon="5.75694">
        <ele>1067.778</ele>
        <time>2021-03-20T07:01:47Z</time>
      </trkpt>
      <trkpt lat="45.23404" lon="5.75703">
        <ele>1069.845</ele>
        <time>2021-03-20T07:01:54Z</time>
      </trkpt>
      <trkpt lat="45.23402" lon="5.75709">
        <ele>1071.191</ele>
        <time>2021-03-20T07:01:59Z</time>
      </trkpt>
      <trkpt lat="45.234" lon="5.75717">
        <ele>1071.359</ele>
        <time>2021-03-20T07:02:05Z</time>
      </trkpt>
      <trkpt lat="45.23397" lon="5.75724">
        <ele>1073.339</ele>
        <time>2021-03-20T07:02:13Z</time>
      </trkpt>
      <trkpt lat="45.23396" lon="5.75732">
        <ele>1075.085</ele>
        <time>2021-03-20T07:02:20Z</time>
      </trkpt>
      <trkpt lat="45.23403" lon="5.75726">
        <ele>1076.031</ele>
        <time>2021-03-20T07:02:28Z</time>
      </trkpt>
      <trkpt lat="45.23411" lon="5.75717">
        <ele>1077.705</ele>
        <time>2021-03-20T07:02:36Z</time>
      </trkpt>
      <trkpt lat="45.23417" lon="5.75712">
        <ele>1081.01</ele>
        <time>2021-03-20T07:02:42Z</time>
      </trkpt>
      <trkpt lat="45.23422" lon="5.75706">
        <ele>1081.303</ele>
        <time>2021-03-20T07:02:48Z</time>
      </trkpt>
      <trkpt lat="45.23428" lon="5.757">
        <ele>1083.544</ele>
        <time>2021-03-20T07:02:55Z</time>
      </trkpt>
      <trkpt lat="45.23433" lon="5.75695">
        <ele>1085.367</ele>
        <time>2021-03-20T07:03:02Z</time>
      </trkpt>
      <trkpt lat="45.23433" lon="5.75699">
        <ele>1085.926</ele>
        <time>2021-03-20T07:03:08Z</time>
      </trkpt>
      <trkpt lat="45.23429" lon="5.75712">
        <ele>1087.318</ele>
        <time>2021-03-20T07:03:16Z</time>
      </trkpt>
      <trkpt lat="45.23426" lon="5.75723">
        <ele>1089.67</ele>
        <time>2021-03-20T07:03:24Z</time>
      </trkpt>
      <trkpt lat="45.23425" lon="5.75731">
        <ele>1090.816</ele>
        <time>2021-03-20T07:03:30Z</time>
      </trkpt>
      <trkpt lat="45.2342" lon="5.75744">
        <ele>1092.919</ele>
        <time>2021-03-20T07:03:39Z</time>
      </trkpt>
      <trkpt lat="45.23418" lon="5.75749">
        <ele>1094.265</ele>
        <time>2021-03-20T07:03:46Z</time>
      </trkpt>
      <trkpt lat="45.23416" lon="5.75758">
        <ele>1097.334</ele>
        <time>2021-03-20T07:03:54Z</time>
      </trkpt>
      <trkpt lat="45.23416" lon="5.75759">
        <ele>1097.48</ele>
        <time>2021-03-20T07:03:55Z</time>
      </trkpt>
      <trkpt lat="45.23414" lon="5.75765">
        <ele>1098.713</ele>
        <time>2021-03-20T07:04:01Z</time>
      </trkpt>
      <trkpt lat="45.2341" lon="5.75775">
        <ele>1100.184</ele>
        <time>2021-03-20T07:04:09Z</time>
      </trkpt>
      <trkpt lat="45.23409" lon="5.75779">
        <ele>1100.322</ele>
        <time>2021-03-20T07:04:12Z</time>
      </trkpt>
      <trkpt lat="45.23406" lon="5.75789">
        <ele>1101.771</ele>
        <time>2021-03-20T07:04:20Z</time>
      </trkpt>
      <trkpt lat="45.23404" lon="5.75797">
        <ele>1102.53</ele>
        <time>2021-03-20T07:04:26Z</time>
      </trkpt>
      <trkpt lat="45.23402" lon="5.7581">
        <ele>1104.476</ele>
        <time>2021-03-20T07:04:34Z</time>
      </trkpt>
      <trkpt lat="45.23399" lon="5.7582">
        <ele>1106.197</ele>
        <time>2021-03-20T07:04:41Z</time>
      </trkpt>
      <trkpt lat="45.23394" lon="5.75827">
        <ele>1107.76</ele>
        <time>2021-03-20T07:04:47Z</time>
      </trkpt>
      <trkpt lat="45.2339" lon="5.75833">
        <ele>1109.275</ele>
        <time>2021-03-20T07:04:53Z</time>
      </trkpt>
      <trkpt lat="45.23385" lon="5.75836">
        <ele>1110.353</ele>
        <time>2021-03-20T07:04:59Z</time>
      </trkpt>
      <trkpt lat="45.23379" lon="5.75838">
        <ele>1111.006</ele>
        <time>2021-03-20T07:05:07Z</time>
      </trkpt>
      <trkpt lat="45.23375" lon="5.75841">
        <ele>1111.892</ele>
        <time>2021-03-20T07:05:13Z</time>
      </trkpt>
      <trkpt lat="45.23369" lon="5.75844">
        <ele>1113.129</ele>
        <time>2021-03-20T07:05:19Z</time>
      </trkpt>
      <trkpt lat="45.23362" lon="5.75851">
        <ele>1114.204</ele>
        <time>2021-03-20T07:05:28Z</time>
      </trkpt>
      <trkpt lat="45.23355" lon="5.75857">
        <ele>1115.811</ele>
        <time>2021-03-20T07:05:35Z</time>
      </trkpt>
      <trkpt lat="45.23347" lon="5.7587">
        <ele>1116.784</ele>
        <time>2021-03-20T07:05:44Z</time>
      </trkpt>
      <trkpt lat="45.23349" lon="5.75884">
        <ele>1119.194</ele>
        <time>2021-03-20T07:05:53Z</time>
      </trkpt>
      <trkpt lat="45.23354" lon="5.75892">
        <ele>1121.027</ele>
        <time>2021-03-20T07:06:01Z</time>
      </trkpt>
      <trkpt lat="45.23356" lon="5.75899">
        <ele>1122.664</ele>
        <time>2021-03-20T07:06:06Z</time>
      </trkpt>
      <trkpt lat="45.23358" lon="5.75908">
        <ele>1124.413</ele>
        <time>2021-03-20T07:06:14Z</time>
      </trkpt>
      <trkpt lat="45.23361" lon="5.75916">
        <ele>1125.255</ele>
        <time>2021-03-20T07:06:20Z</time>
      </trkpt>
      <trkpt lat="45.23362" lon="5.75925">
        <ele>1126.819</ele>
        <time>2021-03-20T07:06:26Z</time>
      </trkpt>
      <trkpt lat="45.23363" lon="5.75937">
        <ele>1128.503</ele>
        <time>2021-03-20T07:06:33Z</time>
      </trkpt>
      <trkpt lat="45.23365" lon="5.75943">
        <ele>1129.245</ele>
        <time>2021-03-20T07:06:38Z</time>
      </trkpt>
      <trkpt lat="45.23371" lon="5.75938">
        <ele>1131.256</ele>
        <time>2021-03-20T07:06:46Z</time>
      </trkpt>
      <trkpt lat="45.23373" lon="5.75928">
        <ele>1131.95</ele>
        <time>2021-03-20T07:06:52Z</time>
      </trkpt>
      <trkpt lat="45.23374" lon="5.75915">
        <ele>1133.329</ele>
        <time>2021-03-20T07:07:01Z</time>
      </trkpt>
      <trkpt lat="45.23376" lon="5.75907">
        <ele>1135.926</ele>
        <time>2021-03-20T07:07:07Z</time>
      </trkpt>
      <trkpt lat="45.2338" lon="5.75898">
        <ele>1138.071</ele>
        <time>2021-03-20T07:07:15Z</time>
      </trkpt>
      <trkpt lat="45.23389" lon="5.75893">
        <ele>1139.787</ele>
        <time>2021-03-20T07:07:23Z</time>
      </trkpt>
      <trkpt lat="45.23396" lon="5.75891">
        <ele>1141.245</ele>
        <time>2021-03-20T07:07:29Z</time>
      </trkpt>
      <trkpt lat="45.23399" lon="5.75892">
        <ele>1143.096</ele>
        <time>2021-03-20T07:07:34Z</time>
      </trkpt>
      <trkpt lat="45.23407" lon="5.75891">
        <ele>1144.27</ele>
        <time>2021-03-20T07:07:41Z</time>
      </trkpt>
      <trkpt lat="45.23417" lon="5.7589">
        <ele>1145.836</ele>
        <time>2021-03-20T07:07:48Z</time>
      </trkpt>
      <trkpt lat="45.23422" lon="5.75888">
        <ele>1146.941</ele>
        <time>2021-03-20T07:07:55Z</time>
      </trkpt>
      <trkpt lat="45.23428" lon="5.7588">
        <ele>1148.488</ele>
        <time>2021-03-20T07:08:02Z</time>
      </trkpt>
      <trkpt lat="45.23435" lon="5.75874">
        <ele>1150.469</ele>
        <time>2021-03-20T07:08:08Z</time>
      </trkpt>
      <trkpt lat="45.2344" lon="5.7587">
        <ele>1152.296</ele>
        <time>2021-03-20T07:08:14Z</time>
      </trkpt>
      <trkpt lat="45.23445" lon="5.75867">
        <ele>1154.055</ele>
        <time>2021-03-20T07:08:21Z</time>
      </trkpt>
      <trkpt lat="45.2345" lon="5.75861">
        <ele>1155.127</ele>
        <time>2021-03-20T07:08:27Z</time>
      </trkpt>
      <trkpt lat="45.23458" lon="5.7586">
        <ele>1157.428</ele>
        <time>2021-03-20T07:08:34Z</time>
      </trkpt>
      <trkpt lat="45.23463" lon="5.75854">
        <ele>1159.594</ele>
        <time>2021-03-20T07:08:42Z</time>
      </trkpt>
      <trkpt lat="45.23471" lon="5.75851">
        <ele>1161.655</ele>
        <time>2021-03-20T07:08:50Z</time>
      </trkpt>
      <trkpt lat="45.23481" lon="5.75844">
        <ele>1164.494</ele>
        <time>2021-03-20T07:09:01Z</time>
      </trkpt>
      <trkpt lat="45.23486" lon="5.75841">
        <ele>1166.467</ele>
        <time>2021-03-20T07:09:08Z</time>
      </trkpt>
      <trkpt lat="45.23491" lon="5.75838">
        <ele>1167.798</ele>
        <time>2021-03-20T07:09:14Z</time>
      </trkpt>
      <trkpt lat="45.23494" lon="5.75834">
        <ele>1168.696</ele>
        <time>2021-03-20T07:09:17Z</time>
      </trkpt>
      <trkpt lat="45.23503" lon="5.75833">
        <ele>1170.569</ele>
        <time>2021-03-20T07:09:25Z</time>
      </trkpt>
      <trkpt lat="45.23513" lon="5.75824">
        <ele>1171.615</ele>
        <time>2021-03-20T07:09:38Z</time>
      </trkpt>
      <trkpt lat="45.23515" lon="5.75824">
        <ele>1173.987</ele>
        <time>2021-03-20T07:09:40Z</time>
      </trkpt>
      <trkpt lat="45.23521" lon="5.75822">
        <ele>1175.273</ele>
        <time>2021-03-20T07:09:46Z</time>
      </trkpt>
      <trkpt lat="45.23526" lon="5.75817">
        <ele>1176.755</ele>
        <time>2021-03-20T07:09:52Z</time>
      </trkpt>
      <trkpt lat="45.23531" lon="5.75817">
        <ele>1178.525</ele>
        <time>2021-03-20T07:09:58Z</time>
      </trkpt>
      <trkpt lat="45.23538" lon="5.75813">
        <ele>1180.06</ele>
        <time>2021-03-20T07:10:07Z</time>
      </trkpt>
      <trkpt lat="45.23542" lon="5.75811">
        <ele>1181.251</ele>
        <time>2021-03-20T07:10:11Z</time>
      </trkpt>
      <trkpt lat="45.23546" lon="5.75806">
        <ele>1182.663</ele>
        <time>2021-03-20T07:10:18Z</time>
      </trkpt>
      <trkpt lat="45.23551" lon="5.75805">
        <ele>1184.301</ele>
        <time>2021-03-20T07:10:24Z</time>
      </trkpt>
      <trkpt lat="45.23563" lon="5.758">
        <ele>1186.318</ele>
        <time>2021-03-20T07:10:38Z</time>
      </trkpt>
      <trkpt lat="45.2357" lon="5.75798">
        <ele>1188.465</ele>
        <time>2021-03-20T07:10:44Z</time>
      </trkpt>
      <trkpt lat="45.23579" lon="5.75799">
        <ele>1190.793</ele>
        <time>2021-03-20T07:10:57Z</time>
      </trkpt>
      <trkpt lat="45.23583" lon="5.75797">
        <ele>1193.457</ele>
        <time>2021-03-20T07:11:03Z</time>
      </trkpt>
      <trkpt lat="45.23588" lon="5.75794">
        <ele>1196.597</ele>
        <time>2021-03-20T07:11:10Z</time>
      </trkpt>
      <trkpt lat="45.23595" lon="5.75791">
        <ele>1197.828</ele>
        <time>2021-03-20T07:11:16Z</time>
      </trkpt>
      <trkpt lat="45.23602" lon="5.75785">
        <ele>1198.679</ele>
        <time>2021-03-20T07:11:23Z</time>
      </trkpt>
      <trkpt lat="45.23607" lon="5.7579">
        <ele>1199.045</ele>
        <time>2021-03-20T07:11:29Z</time>
      </trkpt>
      <trkpt lat="45.23603" lon="5.75795">
        <ele>1201.648</ele>
        <time>2021-03-20T07:11:35Z</time>
      </trkpt>
      <trkpt lat="45.23598" lon="5.75803">
        <ele>1202.771</ele>
        <time>2021-03-20T07:11:42Z</time>
      </trkpt>
      <trkpt lat="45.23593" lon="5.75809">
        <ele>1203.762</ele>
        <time>2021-03-20T07:11:48Z</time>
      </trkpt>
      <trkpt lat="45.23587" lon="5.7582">
        <ele>1204.872</ele>
        <time>2021-03-20T07:11:55Z</time>
      </trkpt>
      <trkpt lat="45.23584" lon="5.75829">
        <ele>1206.984</ele>
        <time>2021-03-20T07:12:02Z</time>
      </trkpt>
      <trkpt lat="45.2358" lon="5.75838">
        <ele>1208.584</ele>
        <time>2021-03-20T07:12:09Z</time>
      </trkpt>
      <trkpt lat="45.23579" lon="5.75845">
        <ele>1208.608</ele>
        <time>2021-03-20T07:12:13Z</time>
      </trkpt>
      <trkpt lat="45.23574" lon="5.75855">
        <ele>1210.677</ele>
        <time>2021-03-20T07:12:21Z</time>
      </trkpt>
      <trkpt lat="45.2357" lon="5.75864">
        <ele>1211.781</ele>
        <time>2021-03-20T07:12:27Z</time>
      </trkpt>
      <trkpt lat="45.23568" lon="5.75872">
        <ele>1212.798</ele>
        <time>2021-03-20T07:12:34Z</time>
      </trkpt>
      <trkpt lat="45.23562" lon="5.75886">
        <ele>1215.031</ele>
        <time>2021-03-20T07:12:43Z</time>
      </trkpt>
      <trkpt lat="45.23555" lon="5.75895">
        <ele>1216.686</ele>
        <time>2021-03-20T07:12:51Z</time>
      </trkpt>
      <trkpt lat="45.23551" lon="5.75902">
        <ele>1217.631</ele>
        <time>2021-03-20T07:12:58Z</time>
      </trkpt>
      <trkpt lat="45.23549" lon="5.75913">
        <ele>1219.459</ele>
        <time>2021-03-20T07:13:06Z</time>
      </trkpt>
      <trkpt lat="45.23545" lon="5.75924">
        <ele>1220.567</ele>
        <time>2021-03-20T07:13:13Z</time>
      </trkpt>
      <trkpt lat="45.2354" lon="5.75934">
        <ele>1221.931</ele>
        <time>2021-03-20T07:13:21Z</time>
      </trkpt>
      <trkpt lat="45.23538" lon="5.75936">
        <ele>1223.717</ele>
        <time>2021-03-20T07:13:24Z</time>
      </trkpt>
      <trkpt lat="45.23536" lon="5.75943">
        <ele>1224.867</ele>
        <time>2021-03-20T07:13:29Z</time>
      </trkpt>
      <trkpt lat="45.23535" lon="5.75952">
        <ele>1226.393</ele>
        <time>2021-03-20T07:13:35Z</time>
      </trkpt>
      <trkpt lat="45.23532" lon="5.75963">
        <ele>1227.591</ele>
        <time>2021-03-20T07:13:43Z</time>
      </trkpt>
      <trkpt lat="45.23527" lon="5.75971">
        <ele>1230.605</ele>
        <time>2021-03-20T07:13:50Z</time>
      </trkpt>
      <trkpt lat="45.23524" lon="5.75978">
        <ele>1230.615</ele>
        <time>2021-03-20T07:13:56Z</time>
      </trkpt>
      <trkpt lat="45.23521" lon="5.75986">
        <ele>1233.229</ele>
        <time>2021-03-20T07:14:05Z</time>
      </trkpt>
      <trkpt lat="45.23516" lon="5.75995">
        <ele>1234.437</ele>
        <time>2021-03-20T07:14:12Z</time>
      </trkpt>
      <trkpt lat="45.23512" lon="5.76005">
        <ele>1235.617</ele>
        <time>2021-03-20T07:14:19Z</time>
      </trkpt>
      <trkpt lat="45.23508" lon="5.76018">
        <ele>1237.221</ele>
        <time>2021-03-20T07:14:28Z</time>
      </trkpt>
      <trkpt lat="45.2351" lon="5.7602">
        <ele>1238.678</ele>
        <time>2021-03-20T07:14:35Z</time>
      </trkpt>
      <trkpt lat="45.23514" lon="5.76014">
        <ele>1240.939</ele>
        <time>2021-03-20T07:14:41Z</time>
      </trkpt>
      <trkpt lat="45.23519" lon="5.76008">
        <ele>1242.199</ele>
        <time>2021-03-20T07:14:47Z</time>
      </trkpt>
      <trkpt lat="45.23523" lon="5.76">
        <ele>1244.211</ele>
        <time>2021-03-20T07:14:55Z</time>
      </trkpt>
      <trkpt lat="45.23528" lon="5.75999">
        <ele>1245.749</ele>
        <time>2021-03-20T07:15:00Z</time>
      </trkpt>
      <trkpt lat="45.23534" lon="5.75994">
        <ele>1247.476</ele>
        <time>2021-03-20T07:15:07Z</time>
      </trkpt>
      <trkpt lat="45.2354" lon="5.7599">
        <ele>1248.843</ele>
        <time>2021-03-20T07:15:14Z</time>
      </trkpt>
      <trkpt lat="45.23546" lon="5.75987">
        <ele>1249.148</ele>
        <time>2021-03-20T07:15:20Z</time>
      </trkpt>
      <trkpt lat="45.23551" lon="5.75982">
        <ele>1249.764</ele>
        <time>2021-03-20T07:15:28Z</time>
      </trkpt>
      <trkpt lat="45.23557" lon="5.7598">
        <ele>1250.371</ele>
        <time>2021-03-20T07:15:34Z</time>
      </trkpt>
      <trkpt lat="45.23563" lon="5.75979">
        <ele>1252.579</ele>
        <time>2021-03-20T07:15:42Z</time>
      </trkpt>
      <trkpt lat="45.23567" lon="5.75975">
        <ele>1254.51</ele>
        <time>2021-03-20T07:15:47Z</time>
      </trkpt>
      <trkpt lat="45.23574" lon="5.75968">
        <ele>1255.824</ele>
        <time>2021-03-20T07:15:54Z</time>
      </trkpt>
      <trkpt lat="45.23579" lon="5.75964">
        <ele>1257.545</ele>
        <time>2021-03-20T07:16:00Z</time>
      </trkpt>
      <trkpt lat="45.23584" lon="5.75961">
        <ele>1258.316</ele>
        <time>2021-03-20T07:16:06Z</time>
      </trkpt>
      <trkpt lat="45.2359" lon="5.75957">
        <ele>1259.834</ele>
        <time>2021-03-20T07:16:12Z</time>
      </trkpt>
      <trkpt lat="45.23593" lon="5.75955">
        <ele>1261.384</ele>
        <time>2021-03-20T07:16:15Z</time>
      </trkpt>
      <trkpt lat="45.23595" lon="5.75954">
        <ele>1261.487</ele>
        <time>2021-03-20T07:16:17Z</time>
      </trkpt>
      <trkpt lat="45.23601" lon="5.7595">
        <ele>1263.399</ele>
        <time>2021-03-20T07:16:24Z</time>
      </trkpt>
      <trkpt lat="45.2361" lon="5.75949">
        <ele>1266.595</ele>
        <time>2021-03-20T07:16:31Z</time>
      </trkpt>
      <trkpt lat="45.2362" lon="5.75949">
        <ele>1268.14</ele>
        <time>2021-03-20T07:16:39Z</time>
      </trkpt>
      <trkpt lat="45.23626" lon="5.75943">
        <ele>1269.42</ele>
        <time>2021-03-20T07:16:47Z</time>
      </trkpt>
      <trkpt lat="45.23629" lon="5.75949">
        <ele>1270.811</ele>
        <time>2021-03-20T07:16:54Z</time>
      </trkpt>
      <trkpt lat="45.23625" lon="5.75955">
        <ele>1271.535</ele>
        <time>2021-03-20T07:17:00Z</time>
      </trkpt>
      <trkpt lat="45.23621" lon="5.75958">
        <ele>1272.658</ele>
        <time>2021-03-20T07:17:07Z</time>
      </trkpt>
      <trkpt lat="45.23619" lon="5.75964">
        <ele>1273.623</ele>
        <time>2021-03-20T07:17:12Z</time>
      </trkpt>
      <trkpt lat="45.23614" lon="5.75974">
        <ele>1275.121</ele>
        <time>2021-03-20T07:17:20Z</time>
      </trkpt>
      <trkpt lat="45.23611" lon="5.75979">
        <ele>1276.689</ele>
        <time>2021-03-20T07:17:24Z</time>
      </trkpt>
      <trkpt lat="45.23604" lon="5.7599">
        <ele>1277.788</ele>
        <time>2021-03-20T07:17:33Z</time>
      </trkpt>
      <trkpt lat="45.23601" lon="5.75998">
        <ele>1280.336</ele>
        <time>2021-03-20T07:17:39Z</time>
      </trkpt>
      <trkpt lat="45.23599" lon="5.76004">
        <ele>1281.457</ele>
        <time>2021-03-20T07:17:43Z</time>
      </trkpt>
      <trkpt lat="45.23596" lon="5.76007">
        <ele>1282.087</ele>
        <time>2021-03-20T07:17:49Z</time>
      </trkpt>
      <trkpt lat="45.23589" lon="5.7602">
        <ele>1284.934</ele>
        <time>2021-03-20T07:17:59Z</time>
      </trkpt>
      <trkpt lat="45.23587" lon="5.76028">
        <ele>1286.506</ele>
        <time>2021-03-20T07:18:05Z</time>
      </trkpt>
      <trkpt lat="45.23584" lon="5.76036">
        <ele>1289.238</ele>
        <time>2021-03-20T07:18:14Z</time>
      </trkpt>
      <trkpt lat="45.23579" lon="5.76039">
        <ele>1290.408</ele>
        <time>2021-03-20T07:18:20Z</time>
      </trkpt>
      <trkpt lat="45.23575" lon="5.76046">
        <ele>1290.739</ele>
        <time>2021-03-20T07:18:25Z</time>
      </trkpt>
      <trkpt lat="45.2357" lon="5.7605">
        <ele>1291.671</ele>
        <time>2021-03-20T07:18:30Z</time>
      </trkpt>
      <trkpt lat="45.23564" lon="5.76061">
        <ele>1294.785</ele>
        <time>2021-03-20T07:18:42Z</time>
      </trkpt>
      <trkpt lat="45.23563" lon="5.76066">
        <ele>1296.039</ele>
        <time>2021-03-20T07:18:46Z</time>
      </trkpt>
      <trkpt lat="45.23562" lon="5.76068">
        <ele>1297.446</ele>
        <time>2021-03-20T07:18:51Z</time>
      </trkpt>
      <trkpt lat="45.23556" lon="5.76071">
        <ele>1298.012</ele>
        <time>2021-03-20T07:18:59Z</time>
      </trkpt>
      <trkpt lat="45.23557" lon="5.76075">
        <ele>1298.751</ele>
        <time>2021-03-20T07:19:03Z</time>
      </trkpt>
      <trkpt lat="45.23562" lon="5.76074">
        <ele>1301.02</ele>
        <time>2021-03-20T07:19:12Z</time>
      </trkpt>
      <trkpt lat="45.2357" lon="5.76072">
        <ele>1303.173</ele>
        <time>2021-03-20T07:19:22Z</time>
      </trkpt>
      <trkpt lat="45.23571" lon="5.76072">
        <ele>1304.044</ele>
        <time>2021-03-20T07:19:24Z</time>
      </trkpt>
      <trkpt lat="45.23574" lon="5.76069">
        <ele>1305.997</ele>
        <time>2021-03-20T07:19:29Z</time>
      </trkpt>
      <trkpt lat="45.23578" lon="5.76066">
        <ele>1306.918</ele>
        <time>2021-03-20T07:19:36Z</time>
      </trkpt>
      <trkpt lat="45.23588" lon="5.76063">
        <ele>1308.822</ele>
        <time>2021-03-20T07:19:46Z</time>
      </trkpt>
      <trkpt lat="45.23588" lon="5.76066">
        <ele>1311.125</ele>
        <time>2021-03-20T07:19:52Z</time>
      </trkpt>
      <trkpt lat="45.23585" lon="5.76071">
        <ele>1313.217</ele>
        <time>2021-03-20T07:19:58Z</time>
      </trkpt>
      <trkpt lat="45.23579" lon="5.76078">
        <ele>1314.632</ele>
        <time>2021-03-20T07:20:06Z</time>
      </trkpt>
      <trkpt lat="45.23575" lon="5.76085">
        <ele>1316.259</ele>
        <time>2021-03-20T07:20:12Z</time>
      </trkpt>
      <trkpt lat="45.23571" lon="5.76091">
        <ele>1317.589</ele>
        <time>2021-03-20T07:20:17Z</time>
      </trkpt>
      <trkpt lat="45.23567" lon="5.76101">
        <ele>1318.497</ele>
        <time>2021-03-20T07:20:25Z</time>
      </trkpt>
      <trkpt lat="45.23563" lon="5.76103">
        <ele>1320.224</ele>
        <time>2021-03-20T07:20:31Z</time>
      </trkpt>
      <trkpt lat="45.23558" lon="5.76107">
        <ele>1321.781</ele>
        <time>2021-03-20T07:20:37Z</time>
      </trkpt>
      <trkpt lat="45.23556" lon="5.76112">
        <ele>1322.829</ele>
        <time>2021-03-20T07:20:44Z</time>
      </trkpt>
      <trkpt lat="45.23561" lon="5.7611">
        <ele>1324.151</ele>
        <time>2021-03-20T07:20:52Z</time>
      </trkpt>
      <trkpt lat="45.2357" lon="5.76107">
        <ele>1326.415</ele>
        <time>2021-03-20T07:21:01Z</time>
      </trkpt>
      <trkpt lat="45.23577" lon="5.76103">
        <ele>1328.342</ele>
        <time>2021-03-20T07:21:09Z</time>
      </trkpt>
      <trkpt lat="45.23582" lon="5.76103">
        <ele>1330.598</ele>
        <time>2021-03-20T07:21:19Z</time>
      </trkpt>
      <trkpt lat="45.23575" lon="5.76111">
        <ele>1332.032</ele>
        <time>2021-03-20T07:21:28Z</time>
      </trkpt>
      <trkpt lat="45.23573" lon="5.76115">
        <ele>1332.911</ele>
        <time>2021-03-20T07:21:31Z</time>
      </trkpt>
      <trkpt lat="45.23563" lon="5.76122">
        <ele>1336.142</ele>
        <time>2021-03-20T07:21:41Z</time>
      </trkpt>
      <trkpt lat="45.23558" lon="5.76127">
        <ele>1336.741</ele>
        <time>2021-03-20T07:21:47Z</time>
      </trkpt>
      <trkpt lat="45.2355" lon="5.76131">
        <ele>1338.798</ele>
        <time>2021-03-20T07:21:56Z</time>
      </trkpt>
      <trkpt lat="45.23547" lon="5.76135">
        <ele>1339.382</ele>
        <time>2021-03-20T07:22:00Z</time>
      </trkpt>
      <trkpt lat="45.23541" lon="5.7614">
        <ele>1341.006</ele>
        <time>2021-03-20T07:22:08Z</time>
      </trkpt>
      <trkpt lat="45.23539" lon="5.76143">
        <ele>1342.04</ele>
        <time>2021-03-20T07:22:15Z</time>
      </trkpt>
      <trkpt lat="45.23544" lon="5.76145">
        <ele>1343.645</ele>
        <time>2021-03-20T07:22:20Z</time>
      </trkpt>
      <trkpt lat="45.23548" lon="5.76146">
        <ele>1346.776</ele>
        <time>2021-03-20T07:22:26Z</time>
      </trkpt>
      <trkpt lat="45.23551" lon="5.76143">
        <ele>1348.329</ele>
        <time>2021-03-20T07:22:31Z</time>
      </trkpt>
      <trkpt lat="45.23558" lon="5.76139">
        <ele>1349.675</ele>
        <time>2021-03-20T07:22:40Z</time>
      </trkpt>
      <trkpt lat="45.23557" lon="5.76142">
        <ele>1350.44</ele>
        <time>2021-03-20T07:22:45Z</time>
      </trkpt>
      <trkpt lat="45.23552" lon="5.76145">
        <ele>1353.68</ele>
        <time>2021-03-20T07:22:53Z</time>
      </trkpt>
      <trkpt lat="45.23552" lon="5.76149">
        <ele>1355.344</ele>
        <time>2021-03-20T07:23:01Z</time>
      </trkpt>
      <trkpt lat="45.23545" lon="5.76151">
        <ele>1353.432</ele>
        <time>2021-03-20T07:23:10Z</time>
      </trkpt>
      <trkpt lat="45.23542" lon="5.76152">
        <ele>1354.497</ele>
        <time>2021-03-20T07:23:17Z</time>
      </trkpt>
      <trkpt lat="45.23542" lon="5.76153">
        <ele>1353.995</ele>
        <time>2021-03-20T07:23:31Z</time>
      </trkpt>
      <trkpt lat="45.23542" lon="5.76149">
        <ele>1353.184</ele>
        <time>2021-03-20T07:24:07Z</time>
      </trkpt>
      <trkpt lat="45.23542" lon="5.7615">
        <ele>1353.192</ele>
        <time>2021-03-20T07:24:21Z</time>
      </trkpt>
      <trkpt lat="45.23541" lon="5.7615">
        <ele>1353.293</ele>
        <time>2021-03-20T07:24:33Z</time>
      </trkpt>
      <trkpt lat="45.2354" lon="5.76152">
        <ele>1353.097</ele>
        <time>2021-03-20T07:24:52Z</time>
      </trkpt>
      <trkpt lat="45.2354" lon="5.7615">
        <ele>1352.812</ele>
        <time>2021-03-20T07:25:13Z</time>
      </trkpt>
      <trkpt lat="45.23539" lon="5.7615">
        <ele>1352.849</ele>
        <time>2021-03-20T07:25:23Z</time>
      </trkpt>
      <trkpt lat="45.23541" lon="5.76152">
        <ele>1354.15</ele>
        <time>2021-03-20T07:25:32Z</time>
      </trkpt>
      <trkpt lat="45.23542" lon="5.76151">
        <ele>1352.94</ele>
        <time>2021-03-20T07:25:34Z</time>
      </trkpt>
      <trkpt lat="45.2355" lon="5.76149">
        <ele>1353.108</ele>
        <time>2021-03-20T07:25:44Z</time>
      </trkpt>
      <trkpt lat="45.23551" lon="5.76148">
        <ele>1353.517</ele>
        <time>2021-03-20T07:25:55Z</time>
      </trkpt>
      <trkpt lat="45.23551" lon="5.76149">
        <ele>1353.316</ele>
        <time>2021-03-20T07:26:19Z</time>
      </trkpt>
      <trkpt lat="45.23551" lon="5.76146">
        <ele>1352.973</ele>
        <time>2021-03-20T07:26:56Z</time>
      </trkpt>
      <trkpt lat="45.23553" lon="5.76143">
        <ele>1351.471</ele>
        <time>2021-03-20T07:27:07Z</time>
      </trkpt>
      <trkpt lat="45.23556" lon="5.76142">
        <ele>1349.286</ele>
        <time>2021-03-20T07:27:15Z</time>
      </trkpt>
      <trkpt lat="45.23557" lon="5.76138">
        <ele>1347.228</ele>
        <time>2021-03-20T07:27:20Z</time>
      </trkpt>
      <trkpt lat="45.23556" lon="5.76138">
        <ele>1347.011</ele>
        <time>2021-03-20T07:27:21Z</time>
      </trkpt>
      <trkpt lat="45.23551" lon="5.7614">
        <ele>1346.761</ele>
        <time>2021-03-20T07:27:25Z</time>
      </trkpt>
      <trkpt lat="45.23547" lon="5.76146">
        <ele>1346.402</ele>
        <time>2021-03-20T07:27:33Z</time>
      </trkpt>
      <trkpt lat="45.23543" lon="5.76144">
        <ele>1343.087</ele>
        <time>2021-03-20T07:27:49Z</time>
      </trkpt>
      <trkpt lat="45.2354" lon="5.76146">
        <ele>1341.578</ele>
        <time>2021-03-20T07:27:58Z</time>
      </trkpt>
      <trkpt lat="45.23536" lon="5.76146">
        <ele>1340.94</ele>
        <time>2021-03-20T07:28:06Z</time>
      </trkpt>
      <trkpt lat="45.23537" lon="5.76145">
        <ele>1339.617</ele>
        <time>2021-03-20T07:28:20Z</time>
      </trkpt>
      <trkpt lat="45.23538" lon="5.76143">
        <ele>1339.334</ele>
        <time>2021-03-20T07:28:32Z</time>
      </trkpt>
      <trkpt lat="45.23541" lon="5.7614">
        <ele>1338.614</ele>
        <time>2021-03-20T07:28:36Z</time>
      </trkpt>
      <trkpt lat="45.23551" lon="5.76131">
        <ele>1336.343</ele>
        <time>2021-03-20T07:28:47Z</time>
      </trkpt>
      <trkpt lat="45.2356" lon="5.76123">
        <ele>1333.198</ele>
        <time>2021-03-20T07:28:56Z</time>
      </trkpt>
      <trkpt lat="45.23574" lon="5.76111">
        <ele>1330.667</ele>
        <time>2021-03-20T07:29:07Z</time>
      </trkpt>
      <trkpt lat="45.23576" lon="5.76109">
        <ele>1329.721</ele>
        <time>2021-03-20T07:29:09Z</time>
      </trkpt>
      <trkpt lat="45.23581" lon="5.76101">
        <ele>1328.637</ele>
        <time>2021-03-20T07:29:16Z</time>
      </trkpt>
      <trkpt lat="45.23583" lon="5.76108">
        <ele>1327.623</ele>
        <time>2021-03-20T07:29:27Z</time>
      </trkpt>
      <trkpt lat="45.23583" lon="5.76108">
        <ele>1327.913</ele>
        <time>2021-03-20T07:29:35Z</time>
      </trkpt>
      <trkpt lat="45.2358" lon="5.76097">
        <ele>1327.855</ele>
        <time>2021-03-20T07:29:56Z</time>
      </trkpt>
      <trkpt lat="45.23571" lon="5.76099">
        <ele>1324.939</ele>
        <time>2021-03-20T07:30:04Z</time>
      </trkpt>
      <trkpt lat="45.23567" lon="5.76101">
        <ele>1323.452</ele>
        <time>2021-03-20T07:30:08Z</time>
      </trkpt>
      <trkpt lat="45.23557" lon="5.76109">
        <ele>1320.306</ele>
        <time>2021-03-20T07:30:17Z</time>
      </trkpt>
      <trkpt lat="45.23552" lon="5.76109">
        <ele>1318.531</ele>
        <time>2021-03-20T07:30:25Z</time>
      </trkpt>
      <trkpt lat="45.23556" lon="5.76103">
        <ele>1317.41</ele>
        <time>2021-03-20T07:30:33Z</time>
      </trkpt>
      <trkpt lat="45.23559" lon="5.76101">
        <ele>1317.043</ele>
        <time>2021-03-20T07:30:37Z</time>
      </trkpt>
      <trkpt lat="45.23562" lon="5.76097">
        <ele>1315.358</ele>
        <time>2021-03-20T07:30:40Z</time>
      </trkpt>
      <trkpt lat="45.23574" lon="5.76084">
        <ele>1312.497</ele>
        <time>2021-03-20T07:30:51Z</time>
      </trkpt>
      <trkpt lat="45.23579" lon="5.7608">
        <ele>1310.18</ele>
        <time>2021-03-20T07:30:55Z</time>
      </trkpt>
      <trkpt lat="45.23585" lon="5.76073">
        <ele>1309.023</ele>
        <time>2021-03-20T07:31:02Z</time>
      </trkpt>
      <trkpt lat="45.23587" lon="5.76071">
        <ele>1307.674</ele>
        <time>2021-03-20T07:31:04Z</time>
      </trkpt>
      <trkpt lat="45.23586" lon="5.76069">
        <ele>1304.597</ele>
        <time>2021-03-20T07:31:10Z</time>
      </trkpt>
      <trkpt lat="45.2358" lon="5.76071">
        <ele>1302.42</ele>
        <time>2021-03-20T07:31:18Z</time>
      </trkpt>
      <trkpt lat="45.23575" lon="5.76073">
        <ele>1301.318</ele>
        <time>2021-03-20T07:31:24Z</time>
      </trkpt>
      <trkpt lat="45.2357" lon="5.76075">
        <ele>1300.155</ele>
        <time>2021-03-20T07:31:32Z</time>
      </trkpt>
      <trkpt lat="45.23567" lon="5.76074">
        <ele>1297.676</ele>
        <time>2021-03-20T07:31:36Z</time>
      </trkpt>
      <trkpt lat="45.2356" lon="5.76074">
        <ele>1295.19</ele>
        <time>2021-03-20T07:31:44Z</time>
      </trkpt>
      <trkpt lat="45.23556" lon="5.76074">
        <ele>1293.627</ele>
        <time>2021-03-20T07:31:50Z</time>
      </trkpt>
      <trkpt lat="45.2356" lon="5.76066">
        <ele>1291.914</ele>
        <time>2021-03-20T07:31:58Z</time>
      </trkpt>
      <trkpt lat="45.23563" lon="5.76061">
        <ele>1289.924</ele>
        <time>2021-03-20T07:32:06Z</time>
      </trkpt>
      <trkpt lat="45.23566" lon="5.7605">
        <ele>1287.075</ele>
        <time>2021-03-20T07:32:15Z</time>
      </trkpt>
      <trkpt lat="45.23571" lon="5.76039">
        <ele>1284.283</ele>
        <time>2021-03-20T07:32:24Z</time>
      </trkpt>
      <trkpt lat="45.23579" lon="5.76035">
        <ele>1282.58</ele>
        <time>2021-03-20T07:32:33Z</time>
      </trkpt>
      <trkpt lat="45.23584" lon="5.76028">
        <ele>1279.61</ele>
        <time>2021-03-20T07:32:42Z</time>
      </trkpt>
      <trkpt lat="45.23587" lon="5.7602">
        <ele>1277.899</ele>
        <time>2021-03-20T07:32:49Z</time>
      </trkpt>
      <trkpt lat="45.23595" lon="5.7601">
        <ele>1275.104</ele>
        <time>2021-03-20T07:32:58Z</time>
      </trkpt>
      <trkpt lat="45.23599" lon="5.75997">
        <ele>1272.792</ele>
        <time>2021-03-20T07:33:07Z</time>
      </trkpt>
      <trkpt lat="45.23602" lon="5.7599">
        <ele>1271.289</ele>
        <time>2021-03-20T07:33:14Z</time>
      </trkpt>
      <trkpt lat="45.23604" lon="5.75989">
        <ele>1270.678</ele>
        <time>2021-03-20T07:33:16Z</time>
      </trkpt>
      <trkpt lat="45.23612" lon="5.75976">
        <ele>1267.321</ele>
        <time>2021-03-20T07:33:25Z</time>
      </trkpt>
      <trkpt lat="45.23618" lon="5.75963">
        <ele>1265.297</ele>
        <time>2021-03-20T07:33:33Z</time>
      </trkpt>
      <trkpt lat="45.23624" lon="5.75955">
        <ele>1263.805</ele>
        <time>2021-03-20T07:33:40Z</time>
      </trkpt>
      <trkpt lat="45.23626" lon="5.75952">
        <ele>1262.973</ele>
        <time>2021-03-20T07:33:43Z</time>
      </trkpt>
      <trkpt lat="45.23626" lon="5.75947">
        <ele>1261.846</ele>
        <time>2021-03-20T07:33:48Z</time>
      </trkpt>
      <trkpt lat="45.23619" lon="5.75948">
        <ele>1260.372</ele>
        <time>2021-03-20T07:33:55Z</time>
      </trkpt>
      <trkpt lat="45.23616" lon="5.7595">
        <ele>1259.03</ele>
        <time>2021-03-20T07:33:58Z</time>
      </trkpt>
      <trkpt lat="45.2361" lon="5.75951">
        <ele>1255.888</ele>
        <time>2021-03-20T07:34:04Z</time>
      </trkpt>
      <trkpt lat="45.23607" lon="5.75955">
        <ele>1254.588</ele>
        <time>2021-03-20T07:34:07Z</time>
      </trkpt>
      <trkpt lat="45.23603" lon="5.75958">
        <ele>1253.442</ele>
        <time>2021-03-20T07:34:10Z</time>
      </trkpt>
      <trkpt lat="45.23598" lon="5.75962">
        <ele>1251.556</ele>
        <time>2021-03-20T07:34:15Z</time>
      </trkpt>
      <trkpt lat="45.23589" lon="5.75967">
        <ele>1249.664</ele>
        <time>2021-03-20T07:34:23Z</time>
      </trkpt>
      <trkpt lat="45.23587" lon="5.75967">
        <ele>1249.165</ele>
        <time>2021-03-20T07:34:25Z</time>
      </trkpt>
      <trkpt lat="45.23582" lon="5.75969">
        <ele>1246.905</ele>
        <time>2021-03-20T07:34:28Z</time>
      </trkpt>
      <trkpt lat="45.23579" lon="5.7597">
        <ele>1245.073</ele>
        <time>2021-03-20T07:34:31Z</time>
      </trkpt>
      <trkpt lat="45.23573" lon="5.75978">
        <ele>1243.296</ele>
        <time>2021-03-20T07:34:38Z</time>
      </trkpt>
      <trkpt lat="45.23566" lon="5.75984">
        <ele>1242.528</ele>
        <time>2021-03-20T07:34:46Z</time>
      </trkpt>
      <trkpt lat="45.23563" lon="5.75986">
        <ele>1242.097</ele>
        <time>2021-03-20T07:34:48Z</time>
      </trkpt>
      <trkpt lat="45.23556" lon="5.75992">
        <ele>1240.356</ele>
        <time>2021-03-20T07:34:54Z</time>
      </trkpt>
      <trkpt lat="45.23547" lon="5.75994">
        <ele>1237.144</ele>
        <time>2021-03-20T07:35:01Z</time>
      </trkpt>
      <trkpt lat="45.23546" lon="5.75995">
        <ele>1236.614</ele>
        <time>2021-03-20T07:35:02Z</time>
      </trkpt>
      <trkpt lat="45.23537" lon="5.76001">
        <ele>1234.117</ele>
        <time>2021-03-20T07:35:09Z</time>
      </trkpt>
      <trkpt lat="45.23531" lon="5.76004">
        <ele>1231.925</ele>
        <time>2021-03-20T07:35:14Z</time>
      </trkpt>
      <trkpt lat="45.23524" lon="5.76015">
        <ele>1230.595</ele>
        <time>2021-03-20T07:35:22Z</time>
      </trkpt>
      <trkpt lat="45.2352" lon="5.76018">
        <ele>1229.207</ele>
        <time>2021-03-20T07:35:25Z</time>
      </trkpt>
      <trkpt lat="45.23513" lon="5.76014">
        <ele>1227.304</ele>
        <time>2021-03-20T07:35:31Z</time>
      </trkpt>
      <trkpt lat="45.23513" lon="5.76011">
        <ele>1226.16</ele>
        <time>2021-03-20T07:35:33Z</time>
      </trkpt>
      <trkpt lat="45.23518" lon="5.76">
        <ele>1223.743</ele>
        <time>2021-03-20T07:35:42Z</time>
      </trkpt>
      <trkpt lat="45.23519" lon="5.75994">
        <ele>1221.963</ele>
        <time>2021-03-20T07:35:47Z</time>
      </trkpt>
      <trkpt lat="45.23523" lon="5.75979">
        <ele>1220.665</ele>
        <time>2021-03-20T07:35:53Z</time>
      </trkpt>
      <trkpt lat="45.23529" lon="5.75965">
        <ele>1218.032</ele>
        <time>2021-03-20T07:36:01Z</time>
      </trkpt>
      <trkpt lat="45.23532" lon="5.75953">
        <ele>1213.927</ele>
        <time>2021-03-20T07:36:07Z</time>
      </trkpt>
      <trkpt lat="45.23532" lon="5.75942">
        <ele>1213.395</ele>
        <time>2021-03-20T07:36:13Z</time>
      </trkpt>
      <trkpt lat="45.23537" lon="5.75927">
        <ele>1211.938</ele>
        <time>2021-03-20T07:36:22Z</time>
      </trkpt>
      <trkpt lat="45.23538" lon="5.75922">
        <ele>1210.383</ele>
        <time>2021-03-20T07:36:25Z</time>
      </trkpt>
      <trkpt lat="45.23543" lon="5.75912">
        <ele>1209.163</ele>
        <time>2021-03-20T07:36:30Z</time>
      </trkpt>
      <trkpt lat="45.23549" lon="5.75903">
        <ele>1207.041</ele>
        <time>2021-03-20T07:36:37Z</time>
      </trkpt>
      <trkpt lat="45.23553" lon="5.75894">
        <ele>1205.668</ele>
        <time>2021-03-20T07:36:43Z</time>
      </trkpt>
      <trkpt lat="45.23558" lon="5.75885">
        <ele>1203.881</ele>
        <time>2021-03-20T07:36:49Z</time>
      </trkpt>
      <trkpt lat="45.2356" lon="5.75881">
        <ele>1202.631</ele>
        <time>2021-03-20T07:36:51Z</time>
      </trkpt>
      <trkpt lat="45.23567" lon="5.7587">
        <ele>1200.297</ele>
        <time>2021-03-20T07:36:58Z</time>
      </trkpt>
      <trkpt lat="45.23573" lon="5.75856">
        <ele>1197.057</ele>
        <time>2021-03-20T07:37:06Z</time>
      </trkpt>
      <trkpt lat="45.23579" lon="5.75846">
        <ele>1195.518</ele>
        <time>2021-03-20T07:37:13Z</time>
      </trkpt>
      <trkpt lat="45.23581" lon="5.75841">
        <ele>1193.638</ele>
        <time>2021-03-20T07:37:16Z</time>
      </trkpt>
      <trkpt lat="45.23586" lon="5.75831">
        <ele>1192.587</ele>
        <time>2021-03-20T07:37:23Z</time>
      </trkpt>
      <trkpt lat="45.23594" lon="5.7582">
        <ele>1189.251</ele>
        <time>2021-03-20T07:37:30Z</time>
      </trkpt>
      <trkpt lat="45.23595" lon="5.75818">
        <ele>1189.234</ele>
        <time>2021-03-20T07:37:31Z</time>
      </trkpt>
      <trkpt lat="45.23601" lon="5.75808">
        <ele>1186.564</ele>
        <time>2021-03-20T07:37:35Z</time>
      </trkpt>
      <trkpt lat="45.23606" lon="5.75798">
        <ele>1185.29</ele>
        <time>2021-03-20T07:37:41Z</time>
      </trkpt>
      <trkpt lat="45.23606" lon="5.75795">
        <ele>1184.734</ele>
        <time>2021-03-20T07:37:43Z</time>
      </trkpt>
      <trkpt lat="45.23603" lon="5.75794">
        <ele>1183.659</ele>
        <time>2021-03-20T07:37:45Z</time>
      </trkpt>
      <trkpt lat="45.23594" lon="5.75796">
        <ele>1181.776</ele>
        <time>2021-03-20T07:37:52Z</time>
      </trkpt>
      <trkpt lat="45.23588" lon="5.75796">
        <ele>1180.843</ele>
        <time>2021-03-20T07:37:57Z</time>
      </trkpt>
      <trkpt lat="45.2358" lon="5.75798">
        <ele>1177.728</ele>
        <time>2021-03-20T07:38:04Z</time>
      </trkpt>
      <trkpt lat="45.23573" lon="5.758">
        <ele>1176.709</ele>
        <time>2021-03-20T07:38:09Z</time>
      </trkpt>
      <trkpt lat="45.23566" lon="5.75799">
        <ele>1174.759</ele>
        <time>2021-03-20T07:38:16Z</time>
      </trkpt>
      <trkpt lat="45.23562" lon="5.75801">
        <ele>1172.969</ele>
        <time>2021-03-20T07:38:21Z</time>
      </trkpt>
      <trkpt lat="45.23559" lon="5.75804">
        <ele>1172.072</ele>
        <time>2021-03-20T07:38:26Z</time>
      </trkpt>
      <trkpt lat="45.23554" lon="5.75808">
        <ele>1169.108</ele>
        <time>2021-03-20T07:38:32Z</time>
      </trkpt>
      <trkpt lat="45.23547" lon="5.75809">
        <ele>1168.151</ele>
        <time>2021-03-20T07:38:38Z</time>
      </trkpt>
      <trkpt lat="45.23542" lon="5.75812">
        <ele>1165.74</ele>
        <time>2021-03-20T07:38:44Z</time>
      </trkpt>
      <trkpt lat="45.23536" lon="5.75819">
        <ele>1163.854</ele>
        <time>2021-03-20T07:38:51Z</time>
      </trkpt>
      <trkpt lat="45.23528" lon="5.75822">
        <ele>1160.889</ele>
        <time>2021-03-20T07:38:59Z</time>
      </trkpt>
      <trkpt lat="45.23527" lon="5.75823">
        <ele>1160.962</ele>
        <time>2021-03-20T07:39:00Z</time>
      </trkpt>
      <trkpt lat="45.2352" lon="5.7583">
        <ele>1159.931</ele>
        <time>2021-03-20T07:39:07Z</time>
      </trkpt>
      <trkpt lat="45.23514" lon="5.75833">
        <ele>1157.474</ele>
        <time>2021-03-20T07:39:13Z</time>
      </trkpt>
      <trkpt lat="45.23508" lon="5.75835">
        <ele>1155.948</ele>
        <time>2021-03-20T07:39:19Z</time>
      </trkpt>
      <trkpt lat="45.23501" lon="5.7584">
        <ele>1153.208</ele>
        <time>2021-03-20T07:39:25Z</time>
      </trkpt>
      <trkpt lat="45.23492" lon="5.75847">
        <ele>1151.31</ele>
        <time>2021-03-20T07:39:33Z</time>
      </trkpt>
      <trkpt lat="45.23485" lon="5.7585">
        <ele>1148.529</ele>
        <time>2021-03-20T07:39:40Z</time>
      </trkpt>
      <trkpt lat="45.23479" lon="5.75853">
        <ele>1146.72</ele>
        <time>2021-03-20T07:39:46Z</time>
      </trkpt>
      <trkpt lat="45.23472" lon="5.75856">
        <ele>1144.774</ele>
        <time>2021-03-20T07:39:55Z</time>
      </trkpt>
      <trkpt lat="45.23464" lon="5.7586">
        <ele>1143.077</ele>
        <time>2021-03-20T07:40:02Z</time>
      </trkpt>
      <trkpt lat="45.23459" lon="5.75862">
        <ele>1141.489</ele>
        <time>2021-03-20T07:40:07Z</time>
      </trkpt>
      <trkpt lat="45.23457" lon="5.75863">
        <ele>1140.398</ele>
        <time>2021-03-20T07:40:09Z</time>
      </trkpt>
      <trkpt lat="45.23453" lon="5.75869">
        <ele>1139.037</ele>
        <time>2021-03-20T07:40:14Z</time>
      </trkpt>
      <trkpt lat="45.23445" lon="5.75874">
        <ele>1135.854</ele>
        <time>2021-03-20T07:40:21Z</time>
      </trkpt>
      <trkpt lat="45.23435" lon="5.75881">
        <ele>1134.201</ele>
        <time>2021-03-20T07:40:29Z</time>
      </trkpt>
      <trkpt lat="45.23432" lon="5.75883">
        <ele>1133.411</ele>
        <time>2021-03-20T07:40:31Z</time>
      </trkpt>
      <trkpt lat="45.23427" lon="5.75885">
        <ele>1131.65</ele>
        <time>2021-03-20T07:40:35Z</time>
      </trkpt>
      <trkpt lat="45.23424" lon="5.75887">
        <ele>1130.258</ele>
        <time>2021-03-20T07:40:38Z</time>
      </trkpt>
      <trkpt lat="45.23415" lon="5.75889">
        <ele>1128.774</ele>
        <time>2021-03-20T07:40:45Z</time>
      </trkpt>
      <trkpt lat="45.23408" lon="5.75889">
        <ele>1127.989</ele>
        <time>2021-03-20T07:40:51Z</time>
      </trkpt>
      <trkpt lat="45.234" lon="5.75889">
        <ele>1125.522</ele>
        <time>2021-03-20T07:40:59Z</time>
      </trkpt>
      <trkpt lat="45.23399" lon="5.75888">
        <ele>1125.513</ele>
        <time>2021-03-20T07:41:00Z</time>
      </trkpt>
      <trkpt lat="45.23393" lon="5.75891">
        <ele>1123.821</ele>
        <time>2021-03-20T07:41:06Z</time>
      </trkpt>
      <trkpt lat="45.23388" lon="5.75901">
        <ele>1121.551</ele>
        <time>2021-03-20T07:41:14Z</time>
      </trkpt>
      <trkpt lat="45.23387" lon="5.75905">
        <ele>1120.698</ele>
        <time>2021-03-20T07:41:16Z</time>
      </trkpt>
      <trkpt lat="45.23388" lon="5.75909">
        <ele>1119.181</ele>
        <time>2021-03-20T07:41:19Z</time>
      </trkpt>
      <trkpt lat="45.23389" lon="5.75916">
        <ele>1116.876</ele>
        <time>2021-03-20T07:41:25Z</time>
      </trkpt>
      <trkpt lat="45.23388" lon="5.75926">
        <ele>1114.096</ele>
        <time>2021-03-20T07:41:31Z</time>
      </trkpt>
      <trkpt lat="45.23379" lon="5.75929">
        <ele>1113.06</ele>
        <time>2021-03-20T07:41:39Z</time>
      </trkpt>
      <trkpt lat="45.23374" lon="5.75921">
        <ele>1111.119</ele>
        <time>2021-03-20T07:41:47Z</time>
      </trkpt>
      <trkpt lat="45.23367" lon="5.75909">
        <ele>1107.823</ele>
        <time>2021-03-20T07:41:57Z</time>
      </trkpt>
      <trkpt lat="45.23362" lon="5.759">
        <ele>1106.864</ele>
        <time>2021-03-20T07:42:04Z</time>
      </trkpt>
      <trkpt lat="45.23357" lon="5.7589">
        <ele>1105.839</ele>
        <time>2021-03-20T07:42:09Z</time>
      </trkpt>
      <trkpt lat="45.23352" lon="5.75886">
        <ele>1105.016</ele>
        <time>2021-03-20T07:42:13Z</time>
      </trkpt>
      <trkpt lat="45.23349" lon="5.7588">
        <ele>1103.622</ele>
        <time>2021-03-20T07:42:16Z</time>
      </trkpt>
      <trkpt lat="45.23349" lon="5.75873">
        <ele>1102.647</ele>
        <time>2021-03-20T07:42:20Z</time>
      </trkpt>
      <trkpt lat="45.23355" lon="5.75855">
        <ele>1100.351</ele>
        <time>2021-03-20T07:42:29Z</time>
      </trkpt>
      <trkpt lat="45.2336" lon="5.75847">
        <ele>1098.207</ele>
        <time>2021-03-20T07:42:35Z</time>
      </trkpt>
      <trkpt lat="45.23365" lon="5.75841">
        <ele>1097.164</ele>
        <time>2021-03-20T07:42:42Z</time>
      </trkpt>
      <trkpt lat="45.23374" lon="5.75838">
        <ele>1095.662</ele>
        <time>2021-03-20T07:42:48Z</time>
      </trkpt>
      <trkpt lat="45.23378" lon="5.75836">
        <ele>1094.477</ele>
        <time>2021-03-20T07:42:54Z</time>
      </trkpt>
      <trkpt lat="45.23386" lon="5.75832">
        <ele>1094.076</ele>
        <time>2021-03-20T07:43:01Z</time>
      </trkpt>
      <trkpt lat="45.2339" lon="5.7583">
        <ele>1092.838</ele>
        <time>2021-03-20T07:43:03Z</time>
      </trkpt>
      <trkpt lat="45.23397" lon="5.75824">
        <ele>1090.773</ele>
        <time>2021-03-20T07:43:09Z</time>
      </trkpt>
      <trkpt lat="45.23401" lon="5.75815">
        <ele>1089.514</ele>
        <time>2021-03-20T07:43:14Z</time>
      </trkpt>
      <trkpt lat="45.23403" lon="5.75803">
        <ele>1087.69</ele>
        <time>2021-03-20T07:43:22Z</time>
      </trkpt>
      <trkpt lat="45.23406" lon="5.75792">
        <ele>1086.192</ele>
        <time>2021-03-20T07:43:29Z</time>
      </trkpt>
      <trkpt lat="45.23409" lon="5.75783">
        <ele>1083.382</ele>
        <time>2021-03-20T07:43:35Z</time>
      </trkpt>
      <trkpt lat="45.23411" lon="5.75777">
        <ele>1082.382</ele>
        <time>2021-03-20T07:43:39Z</time>
      </trkpt>
      <trkpt lat="45.23414" lon="5.75765">
        <ele>1081.331</ele>
        <time>2021-03-20T07:43:46Z</time>
      </trkpt>
      <trkpt lat="45.23418" lon="5.75751">
        <ele>1078.839</ele>
        <time>2021-03-20T07:43:55Z</time>
      </trkpt>
      <trkpt lat="45.23421" lon="5.75744">
        <ele>1077.763</ele>
        <time>2021-03-20T07:44:01Z</time>
      </trkpt>
      <trkpt lat="45.23424" lon="5.75737">
        <ele>1075.529</ele>
        <time>2021-03-20T07:44:08Z</time>
      </trkpt>
      <trkpt lat="45.23426" lon="5.75732">
        <ele>1072.269</ele>
        <time>2021-03-20T07:44:12Z</time>
      </trkpt>
      <trkpt lat="45.23426" lon="5.75731">
        <ele>1072.018</ele>
        <time>2021-03-20T07:44:13Z</time>
      </trkpt>
      <trkpt lat="45.23429" lon="5.75724">
        <ele>1070.009</ele>
        <time>2021-03-20T07:44:17Z</time>
      </trkpt>
      <trkpt lat="45.23433" lon="5.75715">
        <ele>1069.158</ele>
        <time>2021-03-20T07:44:24Z</time>
      </trkpt>
      <trkpt lat="45.23436" lon="5.75706">
        <ele>1068.142</ele>
        <time>2021-03-20T07:44:30Z</time>
      </trkpt>
      <trkpt lat="45.23433" lon="5.75705">
        <ele>1065.469</ele>
        <time>2021-03-20T07:44:37Z</time>
      </trkpt>
      <trkpt lat="45.23428" lon="5.75709">
        <ele>1064.158</ele>
        <time>2021-03-20T07:44:44Z</time>
      </trkpt>
      <trkpt lat="45.23417" lon="5.75713">
        <ele>1061.637</ele>
        <time>2021-03-20T07:44:52Z</time>
      </trkpt>
      <trkpt lat="45.23415" lon="5.75715">
        <ele>1060.446</ele>
        <time>2021-03-20T07:44:54Z</time>
      </trkpt>
      <trkpt lat="45.23409" lon="5.75719">
        <ele>1058.158</ele>
        <time>2021-03-20T07:45:00Z</time>
      </trkpt>
      <trkpt lat="45.23402" lon="5.75726">
        <ele>1056.636</ele>
        <time>2021-03-20T07:45:06Z</time>
      </trkpt>
      <trkpt lat="45.23399" lon="5.75721">
        <ele>1056.211</ele>
        <time>2021-03-20T07:45:09Z</time>
      </trkpt>
      <trkpt lat="45.23403" lon="5.75712">
        <ele>1054.205</ele>
        <time>2021-03-20T07:45:17Z</time>
      </trkpt>
      <trkpt lat="45.23405" lon="5.75698">
        <ele>1050.911</ele>
        <time>2021-03-20T07:45:25Z</time>
      </trkpt>
      <trkpt lat="45.2341" lon="5.7569">
        <ele>1050.431</ele>
        <time>2021-03-20T07:45:31Z</time>
      </trkpt>
      <trkpt lat="45.23416" lon="5.75684">
        <ele>1048.251</ele>
        <time>2021-03-20T07:45:38Z</time>
      </trkpt>
      <trkpt lat="45.23416" lon="5.75682">
        <ele>1048.555</ele>
        <time>2021-03-20T07:45:39Z</time>
      </trkpt>
      <trkpt lat="45.23418" lon="5.75674">
        <ele>1045.385</ele>
        <time>2021-03-20T07:45:46Z</time>
      </trkpt>
      <trkpt lat="45.23422" lon="5.75665">
        <ele>1043.832</ele>
        <time>2021-03-20T07:45:53Z</time>
      </trkpt>
      <trkpt lat="45.23429" lon="5.75654">
        <ele>1042.81</ele>
        <time>2021-03-20T07:46:00Z</time>
      </trkpt>
      <trkpt lat="45.23434" lon="5.75646">
        <ele>1041.286</ele>
        <time>2021-03-20T07:46:06Z</time>
      </trkpt>
      <trkpt lat="45.23445" lon="5.7564">
        <ele>1039.35</ele>
        <time>2021-03-20T07:46:14Z</time>
      </trkpt>
      <trkpt lat="45.23453" lon="5.75635">
        <ele>1037.206</ele>
        <time>2021-03-20T07:46:22Z</time>
      </trkpt>
      <trkpt lat="45.23459" lon="5.75627">
        <ele>1035.383</ele>
        <time>2021-03-20T07:46:31Z</time>
      </trkpt>
      <trkpt lat="45.2347" lon="5.75623">
        <ele>1031.818</ele>
        <time>2021-03-20T07:46:39Z</time>
      </trkpt>
      <trkpt lat="45.23471" lon="5.75624">
        <ele>1031.593</ele>
        <time>2021-03-20T07:46:40Z</time>
      </trkpt>
      <trkpt lat="45.2348" lon="5.75625">
        <ele>1029.553</ele>
        <time>2021-03-20T07:46:49Z</time>
      </trkpt>
      <trkpt lat="45.23483" lon="5.75623">
        <ele>1027.894</ele>
        <time>2021-03-20T07:46:55Z</time>
      </trkpt>
      <trkpt lat="45.23487" lon="5.7562">
        <ele>1025.873</ele>
        <time>2021-03-20T07:47:02Z</time>
      </trkpt>
      <trkpt lat="45.23492" lon="5.75619">
        <ele>1024.159</ele>
        <time>2021-03-20T07:47:08Z</time>
      </trkpt>
      <trkpt lat="45.23496" lon="5.7562">
        <ele>1022.343</ele>
        <time>2021-03-20T07:47:11Z</time>
      </trkpt>
      <trkpt lat="45.23502" lon="5.75623">
        <ele>1020.923</ele>
        <time>2021-03-20T07:47:20Z</time>
      </trkpt>
      <trkpt lat="45.23511" lon="5.75618">
        <ele>1018.617</ele>
        <time>2021-03-20T07:47:30Z</time>
      </trkpt>
      <trkpt lat="45.23523" lon="5.75616">
        <ele>1016.94</ele>
        <time>2021-03-20T07:47:38Z</time>
      </trkpt>
      <trkpt lat="45.2353" lon="5.75612">
        <ele>1015.582</ele>
        <time>2021-03-20T07:47:40Z</time>
      </trkpt>
      <trkpt lat="45.23522" lon="5.75609">
        <ele>1012.967</ele>
        <time>2021-03-20T07:47:48Z</time>
      </trkpt>
      <trkpt lat="45.23521" lon="5.75609">
        <ele>1011.753</ele>
        <time>2021-03-20T07:47:49Z</time>
      </trkpt>
      <trkpt lat="45.23519" lon="5.75607">
        <ele>1011.473</ele>
        <time>2021-03-20T07:47:51Z</time>
      </trkpt>
      <trkpt lat="45.2351" lon="5.75604">
        <ele>1009.162</ele>
        <time>2021-03-20T07:48:00Z</time>
      </trkpt>
      <trkpt lat="45.23503" lon="5.75597">
        <ele>1005.984</ele>
        <time>2021-03-20T07:48:09Z</time>
      </trkpt>
      <trkpt lat="45.23501" lon="5.75597">
        <ele>1006.215</ele>
        <time>2021-03-20T07:48:10Z</time>
      </trkpt>
      <trkpt lat="45.23487" lon="5.75594">
        <ele>1003.58</ele>
        <time>2021-03-20T07:48:19Z</time>
      </trkpt>
      <trkpt lat="45.23481" lon="5.75593">
        <ele>1002.001</ele>
        <time>2021-03-20T07:48:23Z</time>
      </trkpt>
      <trkpt lat="45.23473" lon="5.7559">
        <ele>998.921</ele>
        <time>2021-03-20T07:48:29Z</time>
      </trkpt>
      <trkpt lat="45.23463" lon="5.75589">
        <ele>996.735</ele>
        <time>2021-03-20T07:48:36Z</time>
      </trkpt>
      <trkpt lat="45.23457" lon="5.7559">
        <ele>994.848</ele>
        <time>2021-03-20T07:48:41Z</time>
      </trkpt>
      <trkpt lat="45.23442" lon="5.75585">
        <ele>991.589</ele>
        <time>2021-03-20T07:48:51Z</time>
      </trkpt>
      <trkpt lat="45.23435" lon="5.75587">
        <ele>990.426</ele>
        <time>2021-03-20T07:48:55Z</time>
      </trkpt>
      <trkpt lat="45.23425" lon="5.75587">
        <ele>986.904</ele>
        <time>2021-03-20T07:49:02Z</time>
      </trkpt>
      <trkpt lat="45.23424" lon="5.75586">
        <ele>986.933</ele>
        <time>2021-03-20T07:49:03Z</time>
      </trkpt>
      <trkpt lat="45.23413" lon="5.75584">
        <ele>984.829</ele>
        <time>2021-03-20T07:49:11Z</time>
      </trkpt>
      <trkpt lat="45.23404" lon="5.75583">
        <ele>983.451</ele>
        <time>2021-03-20T07:49:16Z</time>
      </trkpt>
      <trkpt lat="45.23401" lon="5.75583">
        <ele>982.529</ele>
        <time>2021-03-20T07:49:18Z</time>
      </trkpt>
      <trkpt lat="45.23396" lon="5.75584">
        <ele>981.166</ele>
        <time>2021-03-20T07:49:23Z</time>
      </trkpt>
      <trkpt lat="45.23391" lon="5.75583">
        <ele>979.3</ele>
        <time>2021-03-20T07:49:26Z</time>
      </trkpt>
      <trkpt lat="45.23387" lon="5.75582">
        <ele>979.127</ele>
        <time>2021-03-20T07:49:28Z</time>
      </trkpt>
      <trkpt lat="45.2338" lon="5.7558">
        <ele>978.341</ele>
        <time>2021-03-20T07:49:33Z</time>
      </trkpt>
      <trkpt lat="45.23371" lon="5.75582">
        <ele>974.751</ele>
        <time>2021-03-20T07:49:39Z</time>
      </trkpt>
      <trkpt lat="45.2336" lon="5.75589">
        <ele>973.387</ele>
        <time>2021-03-20T07:49:46Z</time>
      </trkpt>
      <trkpt lat="45.23352" lon="5.75594">
        <ele>970.337</ele>
        <time>2021-03-20T07:49:52Z</time>
      </trkpt>
      <trkpt lat="45.23348" lon="5.75597">
        <ele>968.637</ele>
        <time>2021-03-20T07:49:55Z</time>
      </trkpt>
      <trkpt lat="45.23343" lon="5.756">
        <ele>966.987</ele>
        <time>2021-03-20T07:50:00Z</time>
      </trkpt>
      <trkpt lat="45.2335" lon="5.75587">
        <ele>963.594</ele>
        <time>2021-03-20T07:50:08Z</time>
      </trkpt>
      <trkpt lat="45.23351" lon="5.75586">
        <ele>963.29</ele>
        <time>2021-03-20T07:50:09Z</time>
      </trkpt>
      <trkpt lat="45.23353" lon="5.75584">
        <ele>962.624</ele>
        <time>2021-03-20T07:50:10Z</time>
      </trkpt>
      <trkpt lat="45.23361" lon="5.75577">
        <ele>960.398</ele>
        <time>2021-03-20T07:50:17Z</time>
      </trkpt>
      <trkpt lat="45.2337" lon="5.75569">
        <ele>959.138</ele>
        <time>2021-03-20T07:50:24Z</time>
      </trkpt>
      <trkpt lat="45.23372" lon="5.75566">
        <ele>957.308</ele>
        <time>2021-03-20T07:50:26Z</time>
      </trkpt>
      <trkpt lat="45.23383" lon="5.75558">
        <ele>954.488</ele>
        <time>2021-03-20T07:50:32Z</time>
      </trkpt>
      <trkpt lat="45.23386" lon="5.75555">
        <ele>953.804</ele>
        <time>2021-03-20T07:50:34Z</time>
      </trkpt>
      <trkpt lat="45.23399" lon="5.75541">
        <ele>950.426</ele>
        <time>2021-03-20T07:50:43Z</time>
      </trkpt>
      <trkpt lat="45.23408" lon="5.75526">
        <ele>947.696</ele>
        <time>2021-03-20T07:50:51Z</time>
      </trkpt>
      <trkpt lat="45.23419" lon="5.75519">
        <ele>945.706</ele>
        <time>2021-03-20T07:50:58Z</time>
      </trkpt>
      <trkpt lat="45.23429" lon="5.75515">
        <ele>942.705</ele>
        <time>2021-03-20T07:51:03Z</time>
      </trkpt>
      <trkpt lat="45.2344" lon="5.7551">
        <ele>940.076</ele>
        <time>2021-03-20T07:51:10Z</time>
      </trkpt>
      <trkpt lat="45.23443" lon="5.75508">
        <ele>939.4</ele>
        <time>2021-03-20T07:51:12Z</time>
      </trkpt>
      <trkpt lat="45.23458" lon="5.75502">
        <ele>936.357</ele>
        <time>2021-03-20T07:51:20Z</time>
      </trkpt>
      <trkpt lat="45.23468" lon="5.75498">
        <ele>934.88</ele>
        <time>2021-03-20T07:51:28Z</time>
      </trkpt>
      <trkpt lat="45.2347" lon="5.75493">
        <ele>933.073</ele>
        <time>2021-03-20T07:51:33Z</time>
      </trkpt>
      <trkpt lat="45.23482" lon="5.75489">
        <ele>930.569</ele>
        <time>2021-03-20T07:51:41Z</time>
      </trkpt>
      <trkpt lat="45.23488" lon="5.75484">
        <ele>928.936</ele>
        <time>2021-03-20T07:51:48Z</time>
      </trkpt>
      <trkpt lat="45.23486" lon="5.75483">
        <ele>926.929</ele>
        <time>2021-03-20T07:51:51Z</time>
      </trkpt>
      <trkpt lat="45.23479" lon="5.75483">
        <ele>924.556</ele>
        <time>2021-03-20T07:51:56Z</time>
      </trkpt>
      <trkpt lat="45.23468" lon="5.75481">
        <ele>921.47</ele>
        <time>2021-03-20T07:52:04Z</time>
      </trkpt>
      <trkpt lat="45.23456" lon="5.75484">
        <ele>919.911</ele>
        <time>2021-03-20T07:52:11Z</time>
      </trkpt>
      <trkpt lat="45.23455" lon="5.75484">
        <ele>920.173</ele>
        <time>2021-03-20T07:52:12Z</time>
      </trkpt>
      <trkpt lat="45.23451" lon="5.75482">
        <ele>918.754</ele>
        <time>2021-03-20T07:52:14Z</time>
      </trkpt>
      <trkpt lat="45.23439" lon="5.7548">
        <ele>915.161</ele>
        <time>2021-03-20T07:52:21Z</time>
      </trkpt>
      <trkpt lat="45.23437" lon="5.75479">
        <ele>915.056</ele>
        <time>2021-03-20T07:52:22Z</time>
      </trkpt>
      <trkpt lat="45.23434" lon="5.75478">
        <ele>913.46</ele>
        <time>2021-03-20T07:52:24Z</time>
      </trkpt>
      <trkpt lat="45.2343" lon="5.75478">
        <ele>912.855</ele>
        <time>2021-03-20T07:52:26Z</time>
      </trkpt>
      <trkpt lat="45.23416" lon="5.75472">
        <ele>909.412</ele>
        <time>2021-03-20T07:52:34Z</time>
      </trkpt>
      <trkpt lat="45.23409" lon="5.75472">
        <ele>907.196</ele>
        <time>2021-03-20T07:52:38Z</time>
      </trkpt>
      <trkpt lat="45.23403" lon="5.7547">
        <ele>906.321</ele>
        <time>2021-03-20T07:52:41Z</time>
      </trkpt>
      <trkpt lat="45.23397" lon="5.75468">
        <ele>905.134</ele>
        <time>2021-03-20T07:52:45Z</time>
      </trkpt>
      <trkpt lat="45.23378" lon="5.75467">
        <ele>901.308</ele>
        <time>2021-03-20T07:52:56Z</time>
      </trkpt>
      <trkpt lat="45.23369" lon="5.75465">
        <ele>897.941</ele>
        <time>2021-03-20T07:53:02Z</time>
      </trkpt>
      <trkpt lat="45.23367" lon="5.75466">
        <ele>897.941</ele>
        <time>2021-03-20T07:53:03Z</time>
      </trkpt>
      <trkpt lat="45.23362" lon="5.75466">
        <ele>896.423</ele>
        <time>2021-03-20T07:53:06Z</time>
      </trkpt>
      <trkpt lat="45.23349" lon="5.75465">
        <ele>894.067</ele>
        <time>2021-03-20T07:53:14Z</time>
      </trkpt>
      <trkpt lat="45.23338" lon="5.75466">
        <ele>891.705</ele>
        <time>2021-03-20T07:53:20Z</time>
      </trkpt>
      <trkpt lat="45.2333" lon="5.75467">
        <ele>890.165</ele>
        <time>2021-03-20T07:53:24Z</time>
      </trkpt>
      <trkpt lat="45.23323" lon="5.75468">
        <ele>887.869</ele>
        <time>2021-03-20T07:53:27Z</time>
      </trkpt>
      <trkpt lat="45.23311" lon="5.75471">
        <ele>885.774</ele>
        <time>2021-03-20T07:53:34Z</time>
      </trkpt>
      <trkpt lat="45.23301" lon="5.75475">
        <ele>882.882</ele>
        <time>2021-03-20T07:53:41Z</time>
      </trkpt>
      <trkpt lat="45.23299" lon="5.75479">
        <ele>881.19</ele>
        <time>2021-03-20T07:53:44Z</time>
      </trkpt>
      <trkpt lat="45.23298" lon="5.7548">
        <ele>880.273</ele>
        <time>2021-03-20T07:53:45Z</time>
      </trkpt>
      <trkpt lat="45.23285" lon="5.75485">
        <ele>878.239</ele>
        <time>2021-03-20T07:53:53Z</time>
      </trkpt>
      <trkpt lat="45.23275" lon="5.75486">
        <ele>876.36</ele>
        <time>2021-03-20T07:54:01Z</time>
      </trkpt>
      <trkpt lat="45.23275" lon="5.75484">
        <ele>873.795</ele>
        <time>2021-03-20T07:54:05Z</time>
      </trkpt>
      <trkpt lat="45.23282" lon="5.75473">
        <ele>870.89</ele>
        <time>2021-03-20T07:54:14Z</time>
      </trkpt>
      <trkpt lat="45.23289" lon="5.75456">
        <ele>868.062</ele>
        <time>2021-03-20T07:54:22Z</time>
      </trkpt>
      <trkpt lat="45.23295" lon="5.75442">
        <ele>865.096</ele>
        <time>2021-03-20T07:54:27Z</time>
      </trkpt>
      <trkpt lat="45.23304" lon="5.7543">
        <ele>862.585</ele>
        <time>2021-03-20T07:54:35Z</time>
      </trkpt>
      <trkpt lat="45.23309" lon="5.75423">
        <ele>860.482</ele>
        <time>2021-03-20T07:54:39Z</time>
      </trkpt>
      <trkpt lat="45.23318" lon="5.7541">
        <ele>858.467</ele>
        <time>2021-03-20T07:54:46Z</time>
      </trkpt>
      <trkpt lat="45.23319" lon="5.75408">
        <ele>857.974</ele>
        <time>2021-03-20T07:54:47Z</time>
      </trkpt>
      <trkpt lat="45.23322" lon="5.75405">
        <ele>857.054</ele>
        <time>2021-03-20T07:54:49Z</time>
      </trkpt>
      <trkpt lat="45.23326" lon="5.754">
        <ele>855.464</ele>
        <time>2021-03-20T07:54:52Z</time>
      </trkpt>
      <trkpt lat="45.23335" lon="5.75385">
        <ele>852.777</ele>
        <time>2021-03-20T07:54:59Z</time>
      </trkpt>
      <trkpt lat="45.23341" lon="5.75372">
        <ele>849.745</ele>
        <time>2021-03-20T07:55:09Z</time>
      </trkpt>
      <trkpt lat="45.23348" lon="5.75368">
        <ele>847.418</ele>
        <time>2021-03-20T07:55:16Z</time>
      </trkpt>
      <trkpt lat="45.23355" lon="5.75365">
        <ele>845.041</ele>
        <time>2021-03-20T07:55:22Z</time>
      </trkpt>
      <trkpt lat="45.23358" lon="5.75363">
        <ele>843.565</ele>
        <time>2021-03-20T07:55:25Z</time>
      </trkpt>
      <trkpt lat="45.23363" lon="5.75358">
        <ele>840.25</ele>
        <time>2021-03-20T07:55:30Z</time>
      </trkpt>
      <trkpt lat="45.23371" lon="5.75351">
        <ele>837.849</ele>
        <time>2021-03-20T07:55:38Z</time>
      </trkpt>
      <trkpt lat="45.23381" lon="5.75345">
        <ele>834.527</ele>
        <time>2021-03-20T07:55:45Z</time>
      </trkpt>
      <trkpt lat="45.2339" lon="5.7534">
        <ele>831.948</ele>
        <time>2021-03-20T07:55:50Z</time>
      </trkpt>
      <trkpt lat="45.23401" lon="5.75328">
        <ele>830.267</ele>
        <time>2021-03-20T07:55:57Z</time>
      </trkpt>
      <trkpt lat="45.23403" lon="5.75323">
        <ele>829.794</ele>
        <time>2021-03-20T07:55:59Z</time>
      </trkpt>
      <trkpt lat="45.23412" lon="5.75304">
        <ele>826.083</ele>
        <time>2021-03-20T07:56:06Z</time>
      </trkpt>
      <trkpt lat="45.23413" lon="5.75302">
        <ele>826.26</ele>
        <time>2021-03-20T07:56:07Z</time>
      </trkpt>
      <trkpt lat="45.23414" lon="5.753">
        <ele>825.474</ele>
        <time>2021-03-20T07:56:08Z</time>
      </trkpt>
      <trkpt lat="45.23421" lon="5.75281">
        <ele>820.965</ele>
        <time>2021-03-20T07:56:14Z</time>
      </trkpt>
      <trkpt lat="45.23431" lon="5.7527">
        <ele>818.549</ele>
        <time>2021-03-20T07:56:21Z</time>
      </trkpt>
      <trkpt lat="45.23438" lon="5.75251">
        <ele>815.397</ele>
        <time>2021-03-20T07:56:28Z</time>
      </trkpt>
      <trkpt lat="45.23443" lon="5.75243">
        <ele>814.866</ele>
        <time>2021-03-20T07:56:31Z</time>
      </trkpt>
      <trkpt lat="45.2345" lon="5.7523">
        <ele>811.293</ele>
        <time>2021-03-20T07:56:37Z</time>
      </trkpt>
      <trkpt lat="45.23452" lon="5.75226">
        <ele>810.276</ele>
        <time>2021-03-20T07:56:39Z</time>
      </trkpt>
      <trkpt lat="45.23457" lon="5.75218">
        <ele>808.714</ele>
        <time>2021-03-20T07:56:45Z</time>
      </trkpt>
      <trkpt lat="45.23459" lon="5.75214">
        <ele>807.599</ele>
        <time>2021-03-20T07:56:48Z</time>
      </trkpt>
      <trkpt lat="45.2346" lon="5.75211">
        <ele>806.011</ele>
        <time>2021-03-20T07:56:50Z</time>
      </trkpt>
      <trkpt lat="45.23467" lon="5.75206">
        <ele>803.337</ele>
        <time>2021-03-20T07:56:57Z</time>
      </trkpt>
      <trkpt lat="45.23475" lon="5.75197">
        <ele>801.591</ele>
        <time>2021-03-20T07:57:03Z</time>
      </trkpt>
      <trkpt lat="45.23479" lon="5.75191">
        <ele>799.265</ele>
        <time>2021-03-20T07:57:06Z</time>
      </trkpt>
      <trkpt lat="45.2349" lon="5.75181">
        <ele>795.867</ele>
        <time>2021-03-20T07:57:14Z</time>
      </trkpt>
      <trkpt lat="45.235" lon="5.75171">
        <ele>793.674</ele>
        <time>2021-03-20T07:57:21Z</time>
      </trkpt>
      <trkpt lat="45.23502" lon="5.7517">
        <ele>793.671</ele>
        <time>2021-03-20T07:57:22Z</time>
      </trkpt>
      <trkpt lat="45.23515" lon="5.7516">
        <ele>790.517</ele>
        <time>2021-03-20T07:57:30Z</time>
      </trkpt>
      <trkpt lat="45.23524" lon="5.75156">
        <ele>787.383</ele>
        <time>2021-03-20T07:57:35Z</time>
      </trkpt>
      <trkpt lat="45.23532" lon="5.7515">
        <ele>785.011</ele>
        <time>2021-03-20T07:57:41Z</time>
      </trkpt>
      <trkpt lat="45.23536" lon="5.75148">
        <ele>784.318</ele>
        <time>2021-03-20T07:57:43Z</time>
      </trkpt>
      <trkpt lat="45.23542" lon="5.75146">
        <ele>782.985</ele>
        <time>2021-03-20T07:57:46Z</time>
      </trkpt>
      <trkpt lat="45.23547" lon="5.75145">
        <ele>781.115</ele>
        <time>2021-03-20T07:57:49Z</time>
      </trkpt>
      <trkpt lat="45.23554" lon="5.75144">
        <ele>779.617</ele>
        <time>2021-03-20T07:57:52Z</time>
      </trkpt>
      <trkpt lat="45.23559" lon="5.75143">
        <ele>778.464</ele>
        <time>2021-03-20T07:57:55Z</time>
      </trkpt>
      <trkpt lat="45.23561" lon="5.75139">
        <ele>777.292</ele>
        <time>2021-03-20T07:57:57Z</time>
      </trkpt>
      <trkpt lat="45.23562" lon="5.75137">
        <ele>776.515</ele>
        <time>2021-03-20T07:57:58Z</time>
      </trkpt>
      <trkpt lat="45.23562" lon="5.75133">
        <ele>775.344</ele>
        <time>2021-03-20T07:58:00Z</time>
      </trkpt>
      <trkpt lat="45.23562" lon="5.7512">
        <ele>773.796</ele>
        <time>2021-03-20T07:58:05Z</time>
      </trkpt>
      <trkpt lat="45.2356" lon="5.75116">
        <ele>772.181</ele>
        <time>2021-03-20T07:58:08Z</time>
      </trkpt>
      <trkpt lat="45.23546" lon="5.75096">
        <ele>769.133</ele>
        <time>2021-03-20T07:58:15Z</time>
      </trkpt>
      <trkpt lat="45.23534" lon="5.75082">
        <ele>766.077</ele>
        <time>2021-03-20T07:58:20Z</time>
      </trkpt>
      <trkpt lat="45.23531" lon="5.75078">
        <ele>765.942</ele>
        <time>2021-03-20T07:58:21Z</time>
      </trkpt>
      <trkpt lat="45.23521" lon="5.75071">
        <ele>765.126</ele>
        <time>2021-03-20T07:58:27Z</time>
      </trkpt>
      <trkpt lat="45.23505" lon="5.75077">
        <ele>763.95</ele>
        <time>2021-03-20T07:58:34Z</time>
      </trkpt>
      <trkpt lat="45.23489" lon="5.75084">
        <ele>763.044</ele>
        <time>2021-03-20T07:58:40Z</time>
      </trkpt>
      <trkpt lat="45.23466" lon="5.7509">
        <ele>761.543</ele>
        <time>2021-03-20T07:58:48Z</time>
      </trkpt>
      <trkpt lat="45.23445" lon="5.75091">
        <ele>758.23</ele>
        <time>2021-03-20T07:58:55Z</time>
      </trkpt>
      <trkpt lat="45.23419" lon="5.75093">
        <ele>756.704</ele>
        <time>2021-03-20T07:59:03Z</time>
      </trkpt>
      <trkpt lat="45.23397" lon="5.75096">
        <ele>756.075</ele>
        <time>2021-03-20T07:59:10Z</time>
      </trkpt>
      <trkpt lat="45.23377" lon="5.75105">
        <ele>754.569</ele>
        <time>2021-03-20T07:59:18Z</time>
      </trkpt>
      <trkpt lat="45.23366" lon="5.75105">
        <ele>754.037</ele>
        <time>2021-03-20T07:59:22Z</time>
      </trkpt>
      <trkpt lat="45.23344" lon="5.75104">
        <ele>752.328</ele>
        <time>2021-03-20T07:59:30Z</time>
      </trkpt>
      <trkpt lat="45.2333" lon="5.75109">
        <ele>750.345</ele>
        <time>2021-03-20T07:59:35Z</time>
      </trkpt>
      <trkpt lat="45.23325" lon="5.75111">
        <ele>750.515</ele>
        <time>2021-03-20T07:59:37Z</time>
      </trkpt>
      <trkpt lat="45.23323" lon="5.75102">
        <ele>750.253</ele>
        <time>2021-03-20T07:59:40Z</time>
      </trkpt>
      <trkpt lat="45.23324" lon="5.7508">
        <ele>750.066</ele>
        <time>2021-03-20T07:59:46Z</time>
      </trkpt>
      <trkpt lat="45.2332" lon="5.75055">
        <ele>751.49</ele>
        <time>2021-03-20T07:59:52Z</time>
      </trkpt>
      <trkpt lat="45.23315" lon="5.75032">
        <ele>754.548</ele>
        <time>2021-03-20T08:00:01Z</time>
      </trkpt>
      <trkpt lat="45.23309" lon="5.75019">
        <ele>756.061</ele>
        <time>2021-03-20T08:00:08Z</time>
      </trkpt>
      <trkpt lat="45.23301" lon="5.75">
        <ele>757.871</ele>
        <time>2021-03-20T08:00:16Z</time>
      </trkpt>
      <trkpt lat="45.23291" lon="5.74982">
        <ele>759.97</ele>
        <time>2021-03-20T08:00:25Z</time>
      </trkpt>
      <trkpt lat="45.23284" lon="5.74965">
        <ele>761.311</ele>
        <time>2021-03-20T08:00:33Z</time>
      </trkpt>
      <trkpt lat="45.23274" lon="5.74949">
        <ele>763.59</ele>
        <time>2021-03-20T08:00:40Z</time>
      </trkpt>
      <trkpt lat="45.23262" lon="5.74932">
        <ele>765.092</ele>
        <time>2021-03-20T08:00:48Z</time>
      </trkpt>
      <trkpt lat="45.23252" lon="5.74918">
        <ele>766.958</ele>
        <time>2021-03-20T08:00:56Z</time>
      </trkpt>
      <trkpt lat="45.23241" lon="5.74909">
        <ele>768.238</ele>
        <time>2021-03-20T08:01:03Z</time>
      </trkpt>
      <trkpt lat="45.23233" lon="5.74901">
        <ele>770.145</ele>
        <time>2021-03-20T08:01:09Z</time>
      </trkpt>
      <trkpt lat="45.23223" lon="5.74888">
        <ele>770.399</ele>
        <time>2021-03-20T08:01:16Z</time>
      </trkpt>
      <trkpt lat="45.23219" lon="5.74878">
        <ele>771.755</ele>
        <time>2021-03-20T08:01:20Z</time>
      </trkpt>
      <trkpt lat="45.23211" lon="5.74862">
        <ele>773.019</ele>
        <time>2021-03-20T08:01:26Z</time>
      </trkpt>
      <trkpt lat="45.232" lon="5.74856">
        <ele>775.081</ele>
        <time>2021-03-20T08:01:33Z</time>
      </trkpt>
      <trkpt lat="45.23192" lon="5.74854">
        <ele>776.375</ele>
        <time>2021-03-20T08:01:39Z</time>
      </trkpt>
      <trkpt lat="45.23185" lon="5.74848">
        <ele>777.265</ele>
        <time>2021-03-20T08:01:43Z</time>
      </trkpt>
      <trkpt lat="45.23179" lon="5.74839">
        <ele>777.943</ele>
        <time>2021-03-20T08:01:47Z</time>
      </trkpt>
      <trkpt lat="45.23178" lon="5.74827">
        <ele>779.605</ele>
        <time>2021-03-20T08:01:51Z</time>
      </trkpt>
      <trkpt lat="45.23175" lon="5.74817">
        <ele>780.8</ele>
        <time>2021-03-20T08:01:56Z</time>
      </trkpt>
      <trkpt lat="45.23167" lon="5.74802">
        <ele>781.946</ele>
        <time>2021-03-20T08:02:04Z</time>
      </trkpt>
      <trkpt lat="45.23164" lon="5.74796">
        <ele>782.118</ele>
        <time>2021-03-20T08:02:07Z</time>
      </trkpt>
      <trkpt lat="45.23158" lon="5.74791">
        <ele>783.181</ele>
        <time>2021-03-20T08:02:11Z</time>
      </trkpt>
      <trkpt lat="45.23152" lon="5.74775">
        <ele>784.414</ele>
        <time>2021-03-20T08:02:19Z</time>
      </trkpt>
      <trkpt lat="45.23144" lon="5.74762">
        <ele>786.179</ele>
        <time>2021-03-20T08:02:26Z</time>
      </trkpt>
      <trkpt lat="45.23139" lon="5.74755">
        <ele>786.803</ele>
        <time>2021-03-20T08:02:30Z</time>
      </trkpt>
      <trkpt lat="45.23131" lon="5.74744">
        <ele>787.643</ele>
        <time>2021-03-20T08:02:36Z</time>
      </trkpt>
      <trkpt lat="45.23128" lon="5.74738">
        <ele>788.662</ele>
        <time>2021-03-20T08:02:39Z</time>
      </trkpt>
      <trkpt lat="45.23124" lon="5.74731">
        <ele>789.327</ele>
        <time>2021-03-20T08:02:43Z</time>
      </trkpt>
      <trkpt lat="45.23117" lon="5.74731">
        <ele>790.662</ele>
        <time>2021-03-20T08:02:46Z</time>
      </trkpt>
      <trkpt lat="45.23116" lon="5.74728">
        <ele>790.164</ele>
        <time>2021-03-20T08:02:48Z</time>
      </trkpt>
      <trkpt lat="45.23107" lon="5.74713">
        <ele>792.922</ele>
        <time>2021-03-20T08:02:56Z</time>
      </trkpt>
      <trkpt lat="45.23103" lon="5.74703">
        <ele>794.164</ele>
        <time>2021-03-20T08:03:01Z</time>
      </trkpt>
      <trkpt lat="45.23099" lon="5.74693">
        <ele>794.589</ele>
        <time>2021-03-20T08:03:05Z</time>
      </trkpt>
      <trkpt lat="45.23091" lon="5.74675">
        <ele>796.124</ele>
        <time>2021-03-20T08:03:13Z</time>
      </trkpt>
      <trkpt lat="45.2308" lon="5.74658">
        <ele>798.33</ele>
        <time>2021-03-20T08:03:21Z</time>
      </trkpt>
      <trkpt lat="45.23068" lon="5.74644">
        <ele>800.613</ele>
        <time>2021-03-20T08:03:31Z</time>
      </trkpt>
      <trkpt lat="45.23057" lon="5.74637">
        <ele>802.651</ele>
        <time>2021-03-20T08:03:39Z</time>
      </trkpt>
      <trkpt lat="45.23055" lon="5.74636">
        <ele>802.735</ele>
        <time>2021-03-20T08:03:40Z</time>
      </trkpt>
      <trkpt lat="45.23045" lon="5.74625">
        <ele>804.136</ele>
        <time>2021-03-20T08:03:48Z</time>
      </trkpt>
      <trkpt lat="45.23042" lon="5.74621">
        <ele>804.152</ele>
        <time>2021-03-20T08:03:50Z</time>
      </trkpt>
      <trkpt lat="45.23032" lon="5.74607">
        <ele>805.09</ele>
        <time>2021-03-20T08:03:57Z</time>
      </trkpt>
      <trkpt lat="45.2303" lon="5.74606">
        <ele>804.887</ele>
        <time>2021-03-20T08:03:58Z</time>
      </trkpt>
      <trkpt lat="45.2302" lon="5.74598">
        <ele>806.38</ele>
        <time>2021-03-20T08:04:04Z</time>
      </trkpt>
      <trkpt lat="45.23019" lon="5.74596">
        <ele>806.617</ele>
        <time>2021-03-20T08:04:05Z</time>
      </trkpt>
      <trkpt lat="45.23007" lon="5.74582">
        <ele>808.78</ele>
        <time>2021-03-20T08:04:12Z</time>
      </trkpt>
      <trkpt lat="45.22995" lon="5.7457">
        <ele>811.342</ele>
        <time>2021-03-20T08:04:20Z</time>
      </trkpt>
      <trkpt lat="45.22987" lon="5.74557">
        <ele>811.842</ele>
        <time>2021-03-20T08:04:26Z</time>
      </trkpt>
      <trkpt lat="45.22976" lon="5.74547">
        <ele>813.606</ele>
        <time>2021-03-20T08:04:33Z</time>
      </trkpt>
      <trkpt lat="45.22971" lon="5.74544">
        <ele>814.474</ele>
        <time>2021-03-20T08:04:37Z</time>
      </trkpt>
      <trkpt lat="45.22961" lon="5.74532">
        <ele>816.576</ele>
        <time>2021-03-20T08:04:45Z</time>
      </trkpt>
      <trkpt lat="45.22957" lon="5.74525">
        <ele>817.76</ele>
        <time>2021-03-20T08:04:50Z</time>
      </trkpt>
      <trkpt lat="45.22946" lon="5.7451">
        <ele>819.21</ele>
        <time>2021-03-20T08:04:59Z</time>
      </trkpt>
      <trkpt lat="45.22937" lon="5.74501">
        <ele>820.977</ele>
        <time>2021-03-20T08:05:06Z</time>
      </trkpt>
      <trkpt lat="45.22932" lon="5.74492">
        <ele>821.866</ele>
        <time>2021-03-20T08:05:11Z</time>
      </trkpt>
      <trkpt lat="45.22926" lon="5.7448">
        <ele>823.671</ele>
        <time>2021-03-20T08:05:18Z</time>
      </trkpt>
      <trkpt lat="45.22914" lon="5.7447">
        <ele>824.807</ele>
        <time>2021-03-20T08:05:26Z</time>
      </trkpt>
      <trkpt lat="45.22901" lon="5.74459">
        <ele>826.945</ele>
        <time>2021-03-20T08:05:34Z</time>
      </trkpt>
      <trkpt lat="45.22888" lon="5.7445">
        <ele>828.262</ele>
        <time>2021-03-20T08:05:43Z</time>
      </trkpt>
      <trkpt lat="45.22882" lon="5.74446">
        <ele>829.218</ele>
        <time>2021-03-20T08:05:47Z</time>
      </trkpt>
      <trkpt lat="45.22868" lon="5.74437">
        <ele>831.169</ele>
        <time>2021-03-20T08:05:56Z</time>
      </trkpt>
      <trkpt lat="45.22862" lon="5.7443">
        <ele>832.27</ele>
        <time>2021-03-20T08:06:01Z</time>
      </trkpt>
      <trkpt lat="45.22855" lon="5.74419">
        <ele>834.131</ele>
        <time>2021-03-20T08:06:07Z</time>
      </trkpt>
      <trkpt lat="45.22851" lon="5.74413">
        <ele>834.938</ele>
        <time>2021-03-20T08:06:10Z</time>
      </trkpt>
      <trkpt lat="45.22841" lon="5.7441">
        <ele>835.333</ele>
        <time>2021-03-20T08:06:15Z</time>
      </trkpt>
      <trkpt lat="45.22837" lon="5.74407">
        <ele>836.391</ele>
        <time>2021-03-20T08:06:17Z</time>
      </trkpt>
      <trkpt lat="45.22825" lon="5.74402">
        <ele>837.872</ele>
        <time>2021-03-20T08:06:24Z</time>
      </trkpt>
      <trkpt lat="45.22813" lon="5.74394">
        <ele>839.403</ele>
        <time>2021-03-20T08:06:31Z</time>
      </trkpt>
      <trkpt lat="45.2281" lon="5.74392">
        <ele>839.42</ele>
        <time>2021-03-20T08:06:33Z</time>
      </trkpt>
      <trkpt lat="45.228" lon="5.74389">
        <ele>839.577</ele>
        <time>2021-03-20T08:06:39Z</time>
      </trkpt>
      <trkpt lat="45.22793" lon="5.74382">
        <ele>841.184</ele>
        <time>2021-03-20T08:06:45Z</time>
      </trkpt>
      <trkpt lat="45.22787" lon="5.74377">
        <ele>842.096</ele>
        <time>2021-03-20T08:06:49Z</time>
      </trkpt>
      <trkpt lat="45.2278" lon="5.74371">
        <ele>843.531</ele>
        <time>2021-03-20T08:06:53Z</time>
      </trkpt>
      <trkpt lat="45.22766" lon="5.7436">
        <ele>844.611</ele>
        <time>2021-03-20T08:07:01Z</time>
      </trkpt>
      <trkpt lat="45.22755" lon="5.74353">
        <ele>846.331</ele>
        <time>2021-03-20T08:07:08Z</time>
      </trkpt>
      <trkpt lat="45.22742" lon="5.74346">
        <ele>847.42</ele>
        <time>2021-03-20T08:07:16Z</time>
      </trkpt>
      <trkpt lat="45.22733" lon="5.74337">
        <ele>849.604</ele>
        <time>2021-03-20T08:07:23Z</time>
      </trkpt>
      <trkpt lat="45.22725" lon="5.74334">
        <ele>850.51</ele>
        <time>2021-03-20T08:07:28Z</time>
      </trkpt>
      <trkpt lat="45.22715" lon="5.74325">
        <ele>852.631</ele>
        <time>2021-03-20T08:07:35Z</time>
      </trkpt>
      <trkpt lat="45.22707" lon="5.74319">
        <ele>854.509</ele>
        <time>2021-03-20T08:07:41Z</time>
      </trkpt>
      <trkpt lat="45.22698" lon="5.74314">
        <ele>855.816</ele>
        <time>2021-03-20T08:07:46Z</time>
      </trkpt>
      <trkpt lat="45.22693" lon="5.74299">
        <ele>856.124</ele>
        <time>2021-03-20T08:07:52Z</time>
      </trkpt>
      <trkpt lat="45.22683" lon="5.7429">
        <ele>856.394</ele>
        <time>2021-03-20T08:07:57Z</time>
      </trkpt>
      <trkpt lat="45.22669" lon="5.74277">
        <ele>858.221</ele>
        <time>2021-03-20T08:08:06Z</time>
      </trkpt>
      <trkpt lat="45.22661" lon="5.74277">
        <ele>859.258</ele>
        <time>2021-03-20T08:08:10Z</time>
      </trkpt>
      <trkpt lat="45.22641" lon="5.74275">
        <ele>861.095</ele>
        <time>2021-03-20T08:08:20Z</time>
      </trkpt>
      <trkpt lat="45.22628" lon="5.74273">
        <ele>862.844</ele>
        <time>2021-03-20T08:08:27Z</time>
      </trkpt>
      <trkpt lat="45.22617" lon="5.74271">
        <ele>864.576</ele>
        <time>2021-03-20T08:08:34Z</time>
      </trkpt>
      <trkpt lat="45.22614" lon="5.74268">
        <ele>865.477</ele>
        <time>2021-03-20T08:08:37Z</time>
      </trkpt>
      <trkpt lat="45.22596" lon="5.74263">
        <ele>868.101</ele>
        <time>2021-03-20T08:08:47Z</time>
      </trkpt>
      <trkpt lat="45.22581" lon="5.74253">
        <ele>869.77</ele>
        <time>2021-03-20T08:08:56Z</time>
      </trkpt>
      <trkpt lat="45.22569" lon="5.7425">
        <ele>870.959</ele>
        <time>2021-03-20T08:09:03Z</time>
      </trkpt>
      <trkpt lat="45.22557" lon="5.74244">
        <ele>872.953</ele>
        <time>2021-03-20T08:09:11Z</time>
      </trkpt>
      <trkpt lat="45.22543" lon="5.74237">
        <ele>874.336</ele>
        <time>2021-03-20T08:09:19Z</time>
      </trkpt>
      <trkpt lat="45.22531" lon="5.74228">
        <ele>875.73</ele>
        <time>2021-03-20T08:09:27Z</time>
      </trkpt>
      <trkpt lat="45.22516" lon="5.74221">
        <ele>878.103</ele>
        <time>2021-03-20T08:09:35Z</time>
      </trkpt>
      <trkpt lat="45.22506" lon="5.74213">
        <ele>878.856</ele>
        <time>2021-03-20T08:09:42Z</time>
      </trkpt>
      <trkpt lat="45.22493" lon="5.74203">
        <ele>880.608</ele>
        <time>2021-03-20T08:09:50Z</time>
      </trkpt>
      <trkpt lat="45.2248" lon="5.74193">
        <ele>882.956</ele>
        <time>2021-03-20T08:09:58Z</time>
      </trkpt>
      <trkpt lat="45.22471" lon="5.74181">
        <ele>884.099</ele>
        <time>2021-03-20T08:10:06Z</time>
      </trkpt>
      <trkpt lat="45.22464" lon="5.7417">
        <ele>884.234</ele>
        <time>2021-03-20T08:10:12Z</time>
      </trkpt>
      <trkpt lat="45.22456" lon="5.74157">
        <ele>884.852</ele>
        <time>2021-03-20T08:10:20Z</time>
      </trkpt>
      <trkpt lat="45.22454" lon="5.74153">
        <ele>885.298</ele>
        <time>2021-03-20T08:10:22Z</time>
      </trkpt>
      <trkpt lat="45.22443" lon="5.74139">
        <ele>887.641</ele>
        <time>2021-03-20T08:10:30Z</time>
      </trkpt>
      <trkpt lat="45.22437" lon="5.7413">
        <ele>888.195</ele>
        <time>2021-03-20T08:10:35Z</time>
      </trkpt>
      <trkpt lat="45.22427" lon="5.74111">
        <ele>890.381</ele>
        <time>2021-03-20T08:10:44Z</time>
      </trkpt>
      <trkpt lat="45.22417" lon="5.74098">
        <ele>892.213</ele>
        <time>2021-03-20T08:10:52Z</time>
      </trkpt>
      <trkpt lat="45.22409" lon="5.7409">
        <ele>894.347</ele>
        <time>2021-03-20T08:10:59Z</time>
      </trkpt>
      <trkpt lat="45.22403" lon="5.74084">
        <ele>895.441</ele>
        <time>2021-03-20T08:11:03Z</time>
      </trkpt>
      <trkpt lat="45.224" lon="5.74082">
        <ele>895.742</ele>
        <time>2021-03-20T08:11:05Z</time>
      </trkpt>
      <trkpt lat="45.22393" lon="5.74073">
        <ele>896.371</ele>
        <time>2021-03-20T08:11:09Z</time>
      </trkpt>
      <trkpt lat="45.2238" lon="5.74057">
        <ele>897.239</ele>
        <time>2021-03-20T08:11:18Z</time>
      </trkpt>
      <trkpt lat="45.22377" lon="5.74054">
        <ele>897.141</ele>
        <time>2021-03-20T08:11:20Z</time>
      </trkpt>
      <trkpt lat="45.22374" lon="5.74049">
        <ele>897.227</ele>
        <time>2021-03-20T08:11:23Z</time>
      </trkpt>
      <trkpt lat="45.22367" lon="5.74037">
        <ele>897.098</ele>
        <time>2021-03-20T08:11:30Z</time>
      </trkpt>
      <trkpt lat="45.22356" lon="5.74026">
        <ele>895.086</ele>
        <time>2021-03-20T08:11:36Z</time>
      </trkpt>
      <trkpt lat="45.22343" lon="5.7402">
        <ele>894.426</ele>
        <time>2021-03-20T08:11:43Z</time>
      </trkpt>
      <trkpt lat="45.22339" lon="5.74019">
        <ele>892.6</ele>
        <time>2021-03-20T08:11:45Z</time>
      </trkpt>
      <trkpt lat="45.22321" lon="5.74013">
        <ele>891.416</ele>
        <time>2021-03-20T08:11:53Z</time>
      </trkpt>
      <trkpt lat="45.22312" lon="5.74008">
        <ele>890.379</ele>
        <time>2021-03-20T08:11:57Z</time>
      </trkpt>
      <trkpt lat="45.22301" lon="5.74008">
        <ele>889.423</ele>
        <time>2021-03-20T08:12:01Z</time>
      </trkpt>
      <trkpt lat="45.22288" lon="5.73997">
        <ele>887.924</ele>
        <time>2021-03-20T08:12:08Z</time>
      </trkpt>
      <trkpt lat="45.22264" lon="5.73984">
        <ele>886.368</ele>
        <time>2021-03-20T08:12:16Z</time>
      </trkpt>
      <trkpt lat="45.22248" lon="5.73976">
        <ele>884.154</ele>
        <time>2021-03-20T08:12:22Z</time>
      </trkpt>
      <trkpt lat="45.22234" lon="5.73971">
        <ele>883.671</ele>
        <time>2021-03-20T08:12:28Z</time>
      </trkpt>
      <trkpt lat="45.22224" lon="5.7396">
        <ele>881.342</ele>
        <time>2021-03-20T08:12:35Z</time>
      </trkpt>
      <trkpt lat="45.2222" lon="5.73945">
        <ele>881.434</ele>
        <time>2021-03-20T08:12:41Z</time>
      </trkpt>
      <trkpt lat="45.22219" lon="5.73943">
        <ele>881.595</ele>
        <time>2021-03-20T08:12:42Z</time>
      </trkpt>
      <trkpt lat="45.2221" lon="5.73933">
        <ele>881.159</ele>
        <time>2021-03-20T08:12:46Z</time>
      </trkpt>
      <trkpt lat="45.22206" lon="5.73926">
        <ele>881.006</ele>
        <time>2021-03-20T08:12:48Z</time>
      </trkpt>
      <trkpt lat="45.22184" lon="5.73913">
        <ele>879.192</ele>
        <time>2021-03-20T08:12:56Z</time>
      </trkpt>
      <trkpt lat="45.22163" lon="5.73905">
        <ele>876.661</ele>
        <time>2021-03-20T08:13:04Z</time>
      </trkpt>
      <trkpt lat="45.22153" lon="5.73903">
        <ele>873.615</ele>
        <time>2021-03-20T08:13:10Z</time>
      </trkpt>
      <trkpt lat="45.22153" lon="5.73902">
        <ele>878.939</ele>
        <time>2021-03-20T08:13:11Z</time>
      </trkpt>
      <trkpt lat="45.22153" lon="5.739">
        <ele>876.492</ele>
        <time>2021-03-20T08:13:12Z</time>
      </trkpt>
      <trkpt lat="45.22151" lon="5.73893">
        <ele>874.719</ele>
        <time>2021-03-20T08:13:38Z</time>
      </trkpt>
      <trkpt lat="45.22141" lon="5.73896">
        <ele>874.972</ele>
        <time>2021-03-20T08:13:44Z</time>
      </trkpt>
      <trkpt lat="45.22131" lon="5.7389">
        <ele>871.894</ele>
        <time>2021-03-20T08:13:49Z</time>
      </trkpt>
      <trkpt lat="45.22121" lon="5.73887">
        <ele>873.281</ele>
        <time>2021-03-20T08:13:54Z</time>
      </trkpt>
      <trkpt lat="45.22108" lon="5.73886">
        <ele>871.738</ele>
        <time>2021-03-20T08:13:59Z</time>
      </trkpt>
      <trkpt lat="45.22092" lon="5.73879">
        <ele>868.723</ele>
        <time>2021-03-20T08:14:06Z</time>
      </trkpt>
      <trkpt lat="45.22081" lon="5.73871">
        <ele>868.267</ele>
        <time>2021-03-20T08:14:11Z</time>
      </trkpt>
      <trkpt lat="45.22062" lon="5.73862">
        <ele>868.834</ele>
        <time>2021-03-20T08:14:18Z</time>
      </trkpt>
      <trkpt lat="45.22052" lon="5.73856">
        <ele>869.747</ele>
        <time>2021-03-20T08:14:23Z</time>
      </trkpt>
      <trkpt lat="45.22049" lon="5.73852">
        <ele>870.212</ele>
        <time>2021-03-20T08:14:25Z</time>
      </trkpt>
      <trkpt lat="45.22032" lon="5.7384">
        <ele>872.374</ele>
        <time>2021-03-20T08:14:33Z</time>
      </trkpt>
      <trkpt lat="45.22027" lon="5.73835">
        <ele>872.493</ele>
        <time>2021-03-20T08:14:37Z</time>
      </trkpt>
      <trkpt lat="45.22022" lon="5.73828">
        <ele>872.819</ele>
        <time>2021-03-20T08:14:40Z</time>
      </trkpt>
      <trkpt lat="45.22006" lon="5.73822">
        <ele>874.867</ele>
        <time>2021-03-20T08:14:47Z</time>
      </trkpt>
      <trkpt lat="45.22004" lon="5.7382">
        <ele>875.161</ele>
        <time>2021-03-20T08:14:48Z</time>
      </trkpt>
      <trkpt lat="45.21988" lon="5.73812">
        <ele>877.45</ele>
        <time>2021-03-20T08:14:58Z</time>
      </trkpt>
      <trkpt lat="45.21987" lon="5.73811">
        <ele>878.314</ele>
        <time>2021-03-20T08:14:59Z</time>
      </trkpt>
      <trkpt lat="45.21977" lon="5.73795">
        <ele>880.677</ele>
        <time>2021-03-20T08:15:08Z</time>
      </trkpt>
      <trkpt lat="45.21973" lon="5.73785">
        <ele>881.653</ele>
        <time>2021-03-20T08:15:13Z</time>
      </trkpt>
      <trkpt lat="45.21967" lon="5.7377">
        <ele>882.182</ele>
        <time>2021-03-20T08:15:21Z</time>
      </trkpt>
      <trkpt lat="45.21964" lon="5.73764">
        <ele>882.354</ele>
        <time>2021-03-20T08:15:26Z</time>
      </trkpt>
      <trkpt lat="45.21962" lon="5.73755">
        <ele>882.85</ele>
        <time>2021-03-20T08:15:31Z</time>
      </trkpt>
      <trkpt lat="45.21958" lon="5.73746">
        <ele>883.002</ele>
        <time>2021-03-20T08:15:36Z</time>
      </trkpt>
      <trkpt lat="45.21954" lon="5.73736">
        <ele>886.157</ele>
        <time>2021-03-20T08:15:42Z</time>
      </trkpt>
      <trkpt lat="45.21946" lon="5.73727">
        <ele>887.192</ele>
        <time>2021-03-20T08:15:47Z</time>
      </trkpt>
      <trkpt lat="45.21936" lon="5.73719">
        <ele>888.919</ele>
        <time>2021-03-20T08:15:54Z</time>
      </trkpt>
      <trkpt lat="45.21931" lon="5.73716">
        <ele>890.139</ele>
        <time>2021-03-20T08:15:57Z</time>
      </trkpt>
      <trkpt lat="45.21928" lon="5.73715">
        <ele>890.242</ele>
        <time>2021-03-20T08:15:59Z</time>
      </trkpt>
      <trkpt lat="45.21912" lon="5.73707">
        <ele>894.365</ele>
        <time>2021-03-20T08:16:09Z</time>
      </trkpt>
      <trkpt lat="45.2191" lon="5.73707">
        <ele>894.34</ele>
        <time>2021-03-20T08:16:10Z</time>
      </trkpt>
      <trkpt lat="45.21902" lon="5.73705">
        <ele>896.017</ele>
        <time>2021-03-20T08:16:17Z</time>
      </trkpt>
      <trkpt lat="45.21893" lon="5.737">
        <ele>898.375</ele>
        <time>2021-03-20T08:16:25Z</time>
      </trkpt>
      <trkpt lat="45.21886" lon="5.7369">
        <ele>899.926</ele>
        <time>2021-03-20T08:16:33Z</time>
      </trkpt>
      <trkpt lat="45.21883" lon="5.73686">
        <ele>899.849</ele>
        <time>2021-03-20T08:16:35Z</time>
      </trkpt>
      <trkpt lat="45.21877" lon="5.73671">
        <ele>899.696</ele>
        <time>2021-03-20T08:16:41Z</time>
      </trkpt>
      <trkpt lat="45.21875" lon="5.7367">
        <ele>899.269</ele>
        <time>2021-03-20T08:16:42Z</time>
      </trkpt>
      <trkpt lat="45.21861" lon="5.73658">
        <ele>899.128</ele>
        <time>2021-03-20T08:16:50Z</time>
      </trkpt>
      <trkpt lat="45.2185" lon="5.73644">
        <ele>899.364</ele>
        <time>2021-03-20T08:16:57Z</time>
      </trkpt>
      <trkpt lat="45.21849" lon="5.73641">
        <ele>899.745</ele>
        <time>2021-03-20T08:16:58Z</time>
      </trkpt>
      <trkpt lat="45.21838" lon="5.73624">
        <ele>900.492</ele>
        <time>2021-03-20T08:17:06Z</time>
      </trkpt>
      <trkpt lat="45.21829" lon="5.73609">
        <ele>900.973</ele>
        <time>2021-03-20T08:17:13Z</time>
      </trkpt>
      <trkpt lat="45.21818" lon="5.73596">
        <ele>903.323</ele>
        <time>2021-03-20T08:17:21Z</time>
      </trkpt>
      <trkpt lat="45.21811" lon="5.73585">
        <ele>905.063</ele>
        <time>2021-03-20T08:17:29Z</time>
      </trkpt>
      <trkpt lat="45.21805" lon="5.73575">
        <ele>907.107</ele>
        <time>2021-03-20T08:17:36Z</time>
      </trkpt>
      <trkpt lat="45.21802" lon="5.73565">
        <ele>907.914</ele>
        <time>2021-03-20T08:17:42Z</time>
      </trkpt>
      <trkpt lat="45.21798" lon="5.73557">
        <ele>909.815</ele>
        <time>2021-03-20T08:17:48Z</time>
      </trkpt>
      <trkpt lat="45.21795" lon="5.73544">
        <ele>911.392</ele>
        <time>2021-03-20T08:17:57Z</time>
      </trkpt>
      <trkpt lat="45.21789" lon="5.73537">
        <ele>913.479</ele>
        <time>2021-03-20T08:18:03Z</time>
      </trkpt>
      <trkpt lat="45.2178" lon="5.73532">
        <ele>915.624</ele>
        <time>2021-03-20T08:18:09Z</time>
      </trkpt>
      <trkpt lat="45.21766" lon="5.73525">
        <ele>916.897</ele>
        <time>2021-03-20T08:18:16Z</time>
      </trkpt>
      <trkpt lat="45.21749" lon="5.73515">
        <ele>915.155</ele>
        <time>2021-03-20T08:18:24Z</time>
      </trkpt>
      <trkpt lat="45.21738" lon="5.73517">
        <ele>915.412</ele>
        <time>2021-03-20T08:18:29Z</time>
      </trkpt>
      <trkpt lat="45.21723" lon="5.73504">
        <ele>914.94</ele>
        <time>2021-03-20T08:18:38Z</time>
      </trkpt>
      <trkpt lat="45.21718" lon="5.73498">
        <ele>915.509</ele>
        <time>2021-03-20T08:18:41Z</time>
      </trkpt>
      <trkpt lat="45.21701" lon="5.73493">
        <ele>913.904</ele>
        <time>2021-03-20T08:18:49Z</time>
      </trkpt>
      <trkpt lat="45.21687" lon="5.73492">
        <ele>912.886</ele>
        <time>2021-03-20T08:18:55Z</time>
      </trkpt>
      <trkpt lat="45.21678" lon="5.7348">
        <ele>912.025</ele>
        <time>2021-03-20T08:19:00Z</time>
      </trkpt>
      <trkpt lat="45.21668" lon="5.7345">
        <ele>909.796</ele>
        <time>2021-03-20T08:19:09Z</time>
      </trkpt>
      <trkpt lat="45.21661" lon="5.73428">
        <ele>908.421</ele>
        <time>2021-03-20T08:19:16Z</time>
      </trkpt>
      <trkpt lat="45.21652" lon="5.73409">
        <ele>908.083</ele>
        <time>2021-03-20T08:19:22Z</time>
      </trkpt>
      <trkpt lat="45.2164" lon="5.73392">
        <ele>907.37</ele>
        <time>2021-03-20T08:19:29Z</time>
      </trkpt>
      <trkpt lat="45.21629" lon="5.73382">
        <ele>905.249</ele>
        <time>2021-03-20T08:19:35Z</time>
      </trkpt>
      <trkpt lat="45.21617" lon="5.73375">
        <ele>902.468</ele>
        <time>2021-03-20T08:19:42Z</time>
      </trkpt>
      <trkpt lat="45.21614" lon="5.73373">
        <ele>901.594</ele>
        <time>2021-03-20T08:19:44Z</time>
      </trkpt>
      <trkpt lat="45.21605" lon="5.73363">
        <ele>898.812</ele>
        <time>2021-03-20T08:19:52Z</time>
      </trkpt>
      <trkpt lat="45.21601" lon="5.73357">
        <ele>898.235</ele>
        <time>2021-03-20T08:19:55Z</time>
      </trkpt>
      <trkpt lat="45.21591" lon="5.73344">
        <ele>896.309</ele>
        <time>2021-03-20T08:20:01Z</time>
      </trkpt>
      <trkpt lat="45.21573" lon="5.73331">
        <ele>892.587</ele>
        <time>2021-03-20T08:20:09Z</time>
      </trkpt>
      <trkpt lat="45.2157" lon="5.7333">
        <ele>892.593</ele>
        <time>2021-03-20T08:20:10Z</time>
      </trkpt>
      <trkpt lat="45.21567" lon="5.73327">
        <ele>892.079</ele>
        <time>2021-03-20T08:20:12Z</time>
      </trkpt>
      <trkpt lat="45.2156" lon="5.73323">
        <ele>890.784</ele>
        <time>2021-03-20T08:20:16Z</time>
      </trkpt>
      <trkpt lat="45.21553" lon="5.73319">
        <ele>889.378</ele>
        <time>2021-03-20T08:20:20Z</time>
      </trkpt>
      <trkpt lat="45.21541" lon="5.73313">
        <ele>886.42</ele>
        <time>2021-03-20T08:20:27Z</time>
      </trkpt>
      <trkpt lat="45.21529" lon="5.73314">
        <ele>883.896</ele>
        <time>2021-03-20T08:20:32Z</time>
      </trkpt>
      <trkpt lat="45.21526" lon="5.73313">
        <ele>883.424</ele>
        <time>2021-03-20T08:20:33Z</time>
      </trkpt>
      <trkpt lat="45.21521" lon="5.73309">
        <ele>884.172</ele>
        <time>2021-03-20T08:20:36Z</time>
      </trkpt>
      <trkpt lat="45.21518" lon="5.73298">
        <ele>881.92</ele>
        <time>2021-03-20T08:20:42Z</time>
      </trkpt>
      <trkpt lat="45.21514" lon="5.73284">
        <ele>881.754</ele>
        <time>2021-03-20T08:20:47Z</time>
      </trkpt>
      <trkpt lat="45.21512" lon="5.73261">
        <ele>881.952</ele>
        <time>2021-03-20T08:20:54Z</time>
      </trkpt>
      <trkpt lat="45.21501" lon="5.73249">
        <ele>881.179</ele>
        <time>2021-03-20T08:20:59Z</time>
      </trkpt>
      <trkpt lat="45.21494" lon="5.7324">
        <ele>879.384</ele>
        <time>2021-03-20T08:21:04Z</time>
      </trkpt>
      <trkpt lat="45.21484" lon="5.7323">
        <ele>875.89</ele>
        <time>2021-03-20T08:21:10Z</time>
      </trkpt>
      <trkpt lat="45.21478" lon="5.73215">
        <ele>874.519</ele>
        <time>2021-03-20T08:21:16Z</time>
      </trkpt>
      <trkpt lat="45.21478" lon="5.73197">
        <ele>874.419</ele>
        <time>2021-03-20T08:21:22Z</time>
      </trkpt>
      <trkpt lat="45.21472" lon="5.73186">
        <ele>871.555</ele>
        <time>2021-03-20T08:21:30Z</time>
      </trkpt>
      <trkpt lat="45.2147" lon="5.73182">
        <ele>869.264</ele>
        <time>2021-03-20T08:21:33Z</time>
      </trkpt>
      <trkpt lat="45.21466" lon="5.73173">
        <ele>867.178</ele>
        <time>2021-03-20T08:21:39Z</time>
      </trkpt>
      <trkpt lat="45.21458" lon="5.73168">
        <ele>865.493</ele>
        <time>2021-03-20T08:21:44Z</time>
      </trkpt>
      <trkpt lat="45.21452" lon="5.73164">
        <ele>863.597</ele>
        <time>2021-03-20T08:21:47Z</time>
      </trkpt>
      <trkpt lat="45.21449" lon="5.73163">
        <ele>862.872</ele>
        <time>2021-03-20T08:21:48Z</time>
      </trkpt>
      <trkpt lat="45.21435" lon="5.73149">
        <ele>860.609</ele>
        <time>2021-03-20T08:21:55Z</time>
      </trkpt>
      <trkpt lat="45.21425" lon="5.73142">
        <ele>859.305</ele>
        <time>2021-03-20T08:22:00Z</time>
      </trkpt>
      <trkpt lat="45.21422" lon="5.73138">
        <ele>858.51</ele>
        <time>2021-03-20T08:22:02Z</time>
      </trkpt>
      <trkpt lat="45.21419" lon="5.73132">
        <ele>857.093</ele>
        <time>2021-03-20T08:22:04Z</time>
      </trkpt>
      <trkpt lat="45.21409" lon="5.7312">
        <ele>855.914</ele>
        <time>2021-03-20T08:22:11Z</time>
      </trkpt>
      <trkpt lat="45.21403" lon="5.73114">
        <ele>855.145</ele>
        <time>2021-03-20T08:22:14Z</time>
      </trkpt>
      <trkpt lat="45.21394" lon="5.73101">
        <ele>853.941</ele>
        <time>2021-03-20T08:22:20Z</time>
      </trkpt>
      <trkpt lat="45.21379" lon="5.73077">
        <ele>853.09</ele>
        <time>2021-03-20T08:22:27Z</time>
      </trkpt>
      <trkpt lat="45.21373" lon="5.73071">
        <ele>853.226</ele>
        <time>2021-03-20T08:22:30Z</time>
      </trkpt>
      <trkpt lat="45.21361" lon="5.73058">
        <ele>851.241</ele>
        <time>2021-03-20T08:22:38Z</time>
      </trkpt>
      <trkpt lat="45.21356" lon="5.73048">
        <ele>848.275</ele>
        <time>2021-03-20T08:22:43Z</time>
      </trkpt>
      <trkpt lat="45.21351" lon="5.73039">
        <ele>844.284</ele>
        <time>2021-03-20T08:22:49Z</time>
      </trkpt>
      <trkpt lat="45.21344" lon="5.73031">
        <ele>841.993</ele>
        <time>2021-03-20T08:22:55Z</time>
      </trkpt>
      <trkpt lat="45.21343" lon="5.7303">
        <ele>841.384</ele>
        <time>2021-03-20T08:22:56Z</time>
      </trkpt>
      <trkpt lat="45.21335" lon="5.73018">
        <ele>839.642</ele>
        <time>2021-03-20T08:23:02Z</time>
      </trkpt>
      <trkpt lat="45.21328" lon="5.73011">
        <ele>836.189</ele>
        <time>2021-03-20T08:23:07Z</time>
      </trkpt>
      <trkpt lat="45.21319" lon="5.72997">
        <ele>834.785</ele>
        <time>2021-03-20T08:23:14Z</time>
      </trkpt>
      <trkpt lat="45.21312" lon="5.72986">
        <ele>833.889</ele>
        <time>2021-03-20T08:23:20Z</time>
      </trkpt>
      <trkpt lat="45.21302" lon="5.72978">
        <ele>830.779</ele>
        <time>2021-03-20T08:23:27Z</time>
      </trkpt>
      <trkpt lat="45.21298" lon="5.72975">
        <ele>828.638</ele>
        <time>2021-03-20T08:23:32Z</time>
      </trkpt>
      <trkpt lat="45.21295" lon="5.72974">
        <ele>826.651</ele>
        <time>2021-03-20T08:23:35Z</time>
      </trkpt>
      <trkpt lat="45.21289" lon="5.72971">
        <ele>823.802</ele>
        <time>2021-03-20T08:23:41Z</time>
      </trkpt>
      <trkpt lat="45.21283" lon="5.72967">
        <ele>822.712</ele>
        <time>2021-03-20T08:23:48Z</time>
      </trkpt>
      <trkpt lat="45.2128" lon="5.72967">
        <ele>820.572</ele>
        <time>2021-03-20T08:23:52Z</time>
      </trkpt>
      <trkpt lat="45.21277" lon="5.72965">
        <ele>819.55</ele>
        <time>2021-03-20T08:23:55Z</time>
      </trkpt>
      <trkpt lat="45.21267" lon="5.72958">
        <ele>815.419</ele>
        <time>2021-03-20T08:24:03Z</time>
      </trkpt>
      <trkpt lat="45.21259" lon="5.72957">
        <ele>814.081</ele>
        <time>2021-03-20T08:24:09Z</time>
      </trkpt>
      <trkpt lat="45.21253" lon="5.72956">
        <ele>812.87</ele>
        <time>2021-03-20T08:24:14Z</time>
      </trkpt>
      <trkpt lat="45.21244" lon="5.72947">
        <ele>809.97</ele>
        <time>2021-03-20T08:24:21Z</time>
      </trkpt>
      <trkpt lat="45.21241" lon="5.72945">
        <ele>809.112</ele>
        <time>2021-03-20T08:24:23Z</time>
      </trkpt>
      <trkpt lat="45.21233" lon="5.72942">
        <ele>806.905</ele>
        <time>2021-03-20T08:24:30Z</time>
      </trkpt>
      <trkpt lat="45.21221" lon="5.72933">
        <ele>804.234</ele>
        <time>2021-03-20T08:24:37Z</time>
      </trkpt>
      <trkpt lat="45.21222" lon="5.72937">
        <ele>802.465</ele>
        <time>2021-03-20T08:24:41Z</time>
      </trkpt>
      <trkpt lat="45.21223" lon="5.72941">
        <ele>801.131</ele>
        <time>2021-03-20T08:24:45Z</time>
      </trkpt>
      <trkpt lat="45.21221" lon="5.72942">
        <ele>800.398</ele>
        <time>2021-03-20T08:24:47Z</time>
      </trkpt>
      <trkpt lat="45.21212" lon="5.72937">
        <ele>799.698</ele>
        <time>2021-03-20T08:24:53Z</time>
      </trkpt>
      <trkpt lat="45.21207" lon="5.72931">
        <ele>797.577</ele>
        <time>2021-03-20T08:24:59Z</time>
      </trkpt>
      <trkpt lat="45.21201" lon="5.72925">
        <ele>795.634</ele>
        <time>2021-03-20T08:25:04Z</time>
      </trkpt>
      <trkpt lat="45.21193" lon="5.7292">
        <ele>793.018</ele>
        <time>2021-03-20T08:25:11Z</time>
      </trkpt>
      <trkpt lat="45.2119" lon="5.72918">
        <ele>791.51</ele>
        <time>2021-03-20T08:25:13Z</time>
      </trkpt>
      <trkpt lat="45.21183" lon="5.72916">
        <ele>791.063</ele>
        <time>2021-03-20T08:25:17Z</time>
      </trkpt>
      <trkpt lat="45.21169" lon="5.72912">
        <ele>787.708</ele>
        <time>2021-03-20T08:25:26Z</time>
      </trkpt>
      <trkpt lat="45.21165" lon="5.72909">
        <ele>784.579</ele>
        <time>2021-03-20T08:25:32Z</time>
      </trkpt>
      <trkpt lat="45.21157" lon="5.72906">
        <ele>781.502</ele>
        <time>2021-03-20T08:25:39Z</time>
      </trkpt>
      <trkpt lat="45.21156" lon="5.72904">
        <ele>781.649</ele>
        <time>2021-03-20T08:25:40Z</time>
      </trkpt>
      <trkpt lat="45.21146" lon="5.72898">
        <ele>779.542</ele>
        <time>2021-03-20T08:25:46Z</time>
      </trkpt>
      <trkpt lat="45.21142" lon="5.7289">
        <ele>776.587</ele>
        <time>2021-03-20T08:25:53Z</time>
      </trkpt>
      <trkpt lat="45.21141" lon="5.72889">
        <ele>776.781</ele>
        <time>2021-03-20T08:25:54Z</time>
      </trkpt>
      <trkpt lat="45.21134" lon="5.72884">
        <ele>773.984</ele>
        <time>2021-03-20T08:26:01Z</time>
      </trkpt>
      <trkpt lat="45.21122" lon="5.72869">
        <ele>771.971</ele>
        <time>2021-03-20T08:26:09Z</time>
      </trkpt>
      <trkpt lat="45.21115" lon="5.72861">
        <ele>771.048</ele>
        <time>2021-03-20T08:26:14Z</time>
      </trkpt>
      <trkpt lat="45.21103" lon="5.72848">
        <ele>771.127</ele>
        <time>2021-03-20T08:26:22Z</time>
      </trkpt>
      <trkpt lat="45.21101" lon="5.72846">
        <ele>769.721</ele>
        <time>2021-03-20T08:26:23Z</time>
      </trkpt>
      <trkpt lat="45.21092" lon="5.72833">
        <ele>769.054</ele>
        <time>2021-03-20T08:26:30Z</time>
      </trkpt>
      <trkpt lat="45.21086" lon="5.72823">
        <ele>768.154</ele>
        <time>2021-03-20T08:26:34Z</time>
      </trkpt>
      <trkpt lat="45.21084" lon="5.72821">
        <ele>767.87</ele>
        <time>2021-03-20T08:26:35Z</time>
      </trkpt>
      <trkpt lat="45.21076" lon="5.72816">
        <ele>767.056</ele>
        <time>2021-03-20T08:26:40Z</time>
      </trkpt>
      <trkpt lat="45.21068" lon="5.72802">
        <ele>764.261</ele>
        <time>2021-03-20T08:26:46Z</time>
      </trkpt>
      <trkpt lat="45.2106" lon="5.72788">
        <ele>762.046</ele>
        <time>2021-03-20T08:26:51Z</time>
      </trkpt>
      <trkpt lat="45.21054" lon="5.7278">
        <ele>760.208</ele>
        <time>2021-03-20T08:26:55Z</time>
      </trkpt>
      <trkpt lat="45.21045" lon="5.72775">
        <ele>758.4</ele>
        <time>2021-03-20T08:27:01Z</time>
      </trkpt>
      <trkpt lat="45.21043" lon="5.72774">
        <ele>757.164</ele>
        <time>2021-03-20T08:27:03Z</time>
      </trkpt>
      <trkpt lat="45.21035" lon="5.72771">
        <ele>754.826</ele>
        <time>2021-03-20T08:27:09Z</time>
      </trkpt>
      <trkpt lat="45.21026" lon="5.7277">
        <ele>751.817</ele>
        <time>2021-03-20T08:27:16Z</time>
      </trkpt>
      <trkpt lat="45.2102" lon="5.72772">
        <ele>749.758</ele>
        <time>2021-03-20T08:27:24Z</time>
      </trkpt>
      <trkpt lat="45.21009" lon="5.72766">
        <ele>745.79</ele>
        <time>2021-03-20T08:27:29Z</time>
      </trkpt>
      <trkpt lat="45.21004" lon="5.72763">
        <ele>744.557</ele>
        <time>2021-03-20T08:27:32Z</time>
      </trkpt>
      <trkpt lat="45.21" lon="5.72763">
        <ele>741.809</ele>
        <time>2021-03-20T08:27:38Z</time>
      </trkpt>
      <trkpt lat="45.20992" lon="5.72759">
        <ele>739.537</ele>
        <time>2021-03-20T08:27:46Z</time>
      </trkpt>
      <trkpt lat="45.20989" lon="5.72755">
        <ele>736.019</ele>
        <time>2021-03-20T08:27:50Z</time>
      </trkpt>
      <trkpt lat="45.20986" lon="5.72751">
        <ele>733.084</ele>
        <time>2021-03-20T08:27:55Z</time>
      </trkpt>
      <trkpt lat="45.20982" lon="5.72744">
        <ele>730.548</ele>
        <time>2021-03-20T08:28:01Z</time>
      </trkpt>
      <trkpt lat="45.20976" lon="5.72739">
        <ele>728.393</ele>
        <time>2021-03-20T08:28:07Z</time>
      </trkpt>
      <trkpt lat="45.2097" lon="5.72733">
        <ele>726.26</ele>
        <time>2021-03-20T08:28:12Z</time>
      </trkpt>
      <trkpt lat="45.20967" lon="5.72731">
        <ele>725.521</ele>
        <time>2021-03-20T08:28:14Z</time>
      </trkpt>
      <trkpt lat="45.20964" lon="5.72728">
        <ele>724.57</ele>
        <time>2021-03-20T08:28:16Z</time>
      </trkpt>
      <trkpt lat="45.20959" lon="5.7272">
        <ele>721.456</ele>
        <time>2021-03-20T08:28:20Z</time>
      </trkpt>
      <trkpt lat="45.20955" lon="5.72712">
        <ele>719.344</ele>
        <time>2021-03-20T08:28:23Z</time>
      </trkpt>
      <trkpt lat="45.20941" lon="5.72702">
        <ele>717.678</ele>
        <time>2021-03-20T08:28:30Z</time>
      </trkpt>
      <trkpt lat="45.20938" lon="5.72698">
        <ele>716.632</ele>
        <time>2021-03-20T08:28:32Z</time>
      </trkpt>
      <trkpt lat="45.20931" lon="5.72693">
        <ele>714.908</ele>
        <time>2021-03-20T08:28:37Z</time>
      </trkpt>
      <trkpt lat="45.20927" lon="5.72693">
        <ele>713.326</ele>
        <time>2021-03-20T08:28:40Z</time>
      </trkpt>
      <trkpt lat="45.20918" lon="5.72693">
        <ele>711.307</ele>
        <time>2021-03-20T08:28:46Z</time>
      </trkpt>
      <trkpt lat="45.20906" lon="5.72693">
        <ele>709.287</ele>
        <time>2021-03-20T08:28:52Z</time>
      </trkpt>
      <trkpt lat="45.209" lon="5.72695">
        <ele>707.718</ele>
        <time>2021-03-20T08:28:57Z</time>
      </trkpt>
      <trkpt lat="45.20893" lon="5.727">
        <ele>705.188</ele>
        <time>2021-03-20T08:29:02Z</time>
      </trkpt>
      <trkpt lat="45.2088" lon="5.72704">
        <ele>702.583</ele>
        <time>2021-03-20T08:29:10Z</time>
      </trkpt>
      <trkpt lat="45.20869" lon="5.72707">
        <ele>699.849</ele>
        <time>2021-03-20T08:29:18Z</time>
      </trkpt>
      <trkpt lat="45.20859" lon="5.72713">
        <ele>697.811</ele>
        <time>2021-03-20T08:29:25Z</time>
      </trkpt>
      <trkpt lat="45.20856" lon="5.72713">
        <ele>696.897</ele>
        <time>2021-03-20T08:29:27Z</time>
      </trkpt>
      <trkpt lat="45.20854" lon="5.72709">
        <ele>695.579</ele>
        <time>2021-03-20T08:29:30Z</time>
      </trkpt>
      <trkpt lat="45.20854" lon="5.72702">
        <ele>693.502</ele>
        <time>2021-03-20T08:29:33Z</time>
      </trkpt>
      <trkpt lat="45.20854" lon="5.72689">
        <ele>690.49</ele>
        <time>2021-03-20T08:29:39Z</time>
      </trkpt>
      <trkpt lat="45.20846" lon="5.72682">
        <ele>688.234</ele>
        <time>2021-03-20T08:29:47Z</time>
      </trkpt>
      <trkpt lat="45.20845" lon="5.72683">
        <ele>686.924</ele>
        <time>2021-03-20T08:29:49Z</time>
      </trkpt>
      <trkpt lat="45.20841" lon="5.72685">
        <ele>684.385</ele>
        <time>2021-03-20T08:29:53Z</time>
      </trkpt>
      <trkpt lat="45.20835" lon="5.72684">
        <ele>681.95</ele>
        <time>2021-03-20T08:29:58Z</time>
      </trkpt>
      <trkpt lat="45.20827" lon="5.72674">
        <ele>679.537</ele>
        <time>2021-03-20T08:30:04Z</time>
      </trkpt>
      <trkpt lat="45.20826" lon="5.72669">
        <ele>677.917</ele>
        <time>2021-03-20T08:30:07Z</time>
      </trkpt>
      <trkpt lat="45.20822" lon="5.72661">
        <ele>675.822</ele>
        <time>2021-03-20T08:30:14Z</time>
      </trkpt>
      <trkpt lat="45.20818" lon="5.72657">
        <ele>673.826</ele>
        <time>2021-03-20T08:30:20Z</time>
      </trkpt>
      <trkpt lat="45.20814" lon="5.72652">
        <ele>671.615</ele>
        <time>2021-03-20T08:30:25Z</time>
      </trkpt>
      <trkpt lat="45.20811" lon="5.72654">
        <ele>670.308</ele>
        <time>2021-03-20T08:30:28Z</time>
      </trkpt>
      <trkpt lat="45.2081" lon="5.72655">
        <ele>669.307</ele>
        <time>2021-03-20T08:30:30Z</time>
      </trkpt>
      <trkpt lat="45.20803" lon="5.72659">
        <ele>667.563</ele>
        <time>2021-03-20T08:30:36Z</time>
      </trkpt>
      <trkpt lat="45.20795" lon="5.72662">
        <ele>663.838</ele>
        <time>2021-03-20T08:30:42Z</time>
      </trkpt>
      <trkpt lat="45.20794" lon="5.72662">
        <ele>663.991</ele>
        <time>2021-03-20T08:30:43Z</time>
      </trkpt>
      <trkpt lat="45.20791" lon="5.72656">
        <ele>661.867</ele>
        <time>2021-03-20T08:30:48Z</time>
      </trkpt>
      <trkpt lat="45.2079" lon="5.72654">
        <ele>661.798</ele>
        <time>2021-03-20T08:30:50Z</time>
      </trkpt>
      <trkpt lat="45.20791" lon="5.72644">
        <ele>659.874</ele>
        <time>2021-03-20T08:30:54Z</time>
      </trkpt>
      <trkpt lat="45.20787" lon="5.72631">
        <ele>656.215</ele>
        <time>2021-03-20T08:31:01Z</time>
      </trkpt>
      <trkpt lat="45.20786" lon="5.72631">
        <ele>655.941</ele>
        <time>2021-03-20T08:31:02Z</time>
      </trkpt>
      <trkpt lat="45.20785" lon="5.72631">
        <ele>655.049</ele>
        <time>2021-03-20T08:31:03Z</time>
      </trkpt>
      <trkpt lat="45.20778" lon="5.72633">
        <ele>653.284</ele>
        <time>2021-03-20T08:31:08Z</time>
      </trkpt>
      <trkpt lat="45.20768" lon="5.72635">
        <ele>650.291</ele>
        <time>2021-03-20T08:31:16Z</time>
      </trkpt>
      <trkpt lat="45.20764" lon="5.72629">
        <ele>647.968</ele>
        <time>2021-03-20T08:31:22Z</time>
      </trkpt>
      <trkpt lat="45.2076" lon="5.72616">
        <ele>647.968</ele>
        <time>2021-03-20T08:31:29Z</time>
      </trkpt>
      <trkpt lat="45.20757" lon="5.72612">
        <ele>644.832</ele>
        <time>2021-03-20T08:31:32Z</time>
      </trkpt>
      <trkpt lat="45.20752" lon="5.72609">
        <ele>642.181</ele>
        <time>2021-03-20T08:31:35Z</time>
      </trkpt>
      <trkpt lat="45.20747" lon="5.72605">
        <ele>640.516</ele>
        <time>2021-03-20T08:31:38Z</time>
      </trkpt>
      <trkpt lat="45.20735" lon="5.72603">
        <ele>638.305</ele>
        <time>2021-03-20T08:31:44Z</time>
      </trkpt>
      <trkpt lat="45.20732" lon="5.72601">
        <ele>636.833</ele>
        <time>2021-03-20T08:31:46Z</time>
      </trkpt>
      <trkpt lat="45.20727" lon="5.72596">
        <ele>634.785</ele>
        <time>2021-03-20T08:31:50Z</time>
      </trkpt>
      <trkpt lat="45.20719" lon="5.72589">
        <ele>632.98</ele>
        <time>2021-03-20T08:31:56Z</time>
      </trkpt>
      <trkpt lat="45.20709" lon="5.72589">
        <ele>630.906</ele>
        <time>2021-03-20T08:32:03Z</time>
      </trkpt>
      <trkpt lat="45.20696" lon="5.72597">
        <ele>628.406</ele>
        <time>2021-03-20T08:32:10Z</time>
      </trkpt>
      <trkpt lat="45.20683" lon="5.72599">
        <ele>626.638</ele>
        <time>2021-03-20T08:32:15Z</time>
      </trkpt>
      <trkpt lat="45.20671" lon="5.726">
        <ele>625.793</ele>
        <time>2021-03-20T08:32:18Z</time>
      </trkpt>
      <trkpt lat="45.20659" lon="5.72602">
        <ele>624.493</ele>
        <time>2021-03-20T08:32:22Z</time>
      </trkpt>
      <trkpt lat="45.20646" lon="5.7261">
        <ele>624.375</ele>
        <time>2021-03-20T08:32:26Z</time>
      </trkpt>
      <trkpt lat="45.20633" lon="5.7261">
        <ele>622.113</ele>
        <time>2021-03-20T08:32:33Z</time>
      </trkpt>
      <trkpt lat="45.20631" lon="5.7261">
        <ele>621.857</ele>
        <time>2021-03-20T08:32:34Z</time>
      </trkpt>
      <trkpt lat="45.20616" lon="5.726">
        <ele>620.837</ele>
        <time>2021-03-20T08:32:42Z</time>
      </trkpt>
      <trkpt lat="45.20603" lon="5.7259">
        <ele>618.969</ele>
        <time>2021-03-20T08:32:48Z</time>
      </trkpt>
      <trkpt lat="45.20588" lon="5.72579">
        <ele>617.505</ele>
        <time>2021-03-20T08:32:55Z</time>
      </trkpt>
      <trkpt lat="45.20572" lon="5.72573">
        <ele>617.144</ele>
        <time>2021-03-20T08:33:02Z</time>
      </trkpt>
      <trkpt lat="45.20558" lon="5.72576">
        <ele>615.114</ele>
        <time>2021-03-20T08:33:07Z</time>
      </trkpt>
      <trkpt lat="45.2054" lon="5.72578">
        <ele>613.691</ele>
        <time>2021-03-20T08:33:12Z</time>
      </trkpt>
      <trkpt lat="45.20524" lon="5.72578">
        <ele>612.328</ele>
        <time>2021-03-20T08:33:18Z</time>
      </trkpt>
      <trkpt lat="45.20504" lon="5.72572">
        <ele>611.329</ele>
        <time>2021-03-20T08:33:25Z</time>
      </trkpt>
      <trkpt lat="45.20499" lon="5.7257">
        <ele>610.766</ele>
        <time>2021-03-20T08:33:27Z</time>
      </trkpt>
      <trkpt lat="45.20485" lon="5.7256">
        <ele>609.418</ele>
        <time>2021-03-20T08:33:34Z</time>
      </trkpt>
      <trkpt lat="45.2047" lon="5.72541">
        <ele>606.568</ele>
        <time>2021-03-20T08:33:43Z</time>
      </trkpt>
      <trkpt lat="45.20461" lon="5.72527">
        <ele>605.525</ele>
        <time>2021-03-20T08:33:48Z</time>
      </trkpt>
      <trkpt lat="45.20455" lon="5.72523">
        <ele>604.085</ele>
        <time>2021-03-20T08:33:50Z</time>
      </trkpt>
      <trkpt lat="45.20446" lon="5.72524">
        <ele>603.47</ele>
        <time>2021-03-20T08:33:54Z</time>
      </trkpt>
      <trkpt lat="45.20447" lon="5.72529">
        <ele>602.935</ele>
        <time>2021-03-20T08:33:56Z</time>
      </trkpt>
      <trkpt lat="45.20449" lon="5.72534">
        <ele>602.383</ele>
        <time>2021-03-20T08:33:58Z</time>
      </trkpt>
      <trkpt lat="45.20456" lon="5.72555">
        <ele>601.51</ele>
        <time>2021-03-20T08:34:05Z</time>
      </trkpt>
      <trkpt lat="45.20463" lon="5.72567">
        <ele>599.943</ele>
        <time>2021-03-20T08:34:11Z</time>
      </trkpt>
      <trkpt lat="45.20468" lon="5.72575">
        <ele>599.108</ele>
        <time>2021-03-20T08:34:15Z</time>
      </trkpt>
      <trkpt lat="45.20471" lon="5.72589">
        <ele>596.955</ele>
        <time>2021-03-20T08:34:19Z</time>
      </trkpt>
      <trkpt lat="45.20475" lon="5.72599">
        <ele>596.21</ele>
        <time>2021-03-20T08:34:22Z</time>
      </trkpt>
      <trkpt lat="45.20493" lon="5.72617">
        <ele>593.476</ele>
        <time>2021-03-20T08:34:30Z</time>
      </trkpt>
      <trkpt lat="45.20499" lon="5.72619">
        <ele>592.933</ele>
        <time>2021-03-20T08:34:32Z</time>
      </trkpt>
      <trkpt lat="45.20522" lon="5.72632">
        <ele>590.603</ele>
        <time>2021-03-20T08:34:41Z</time>
      </trkpt>
      <trkpt lat="45.20533" lon="5.72647">
        <ele>589.174</ele>
        <time>2021-03-20T08:34:46Z</time>
      </trkpt>
      <trkpt lat="45.20548" lon="5.72668">
        <ele>586.935</ele>
        <time>2021-03-20T08:34:52Z</time>
      </trkpt>
      <trkpt lat="45.2056" lon="5.72688">
        <ele>585.717</ele>
        <time>2021-03-20T08:34:58Z</time>
      </trkpt>
      <trkpt lat="45.20574" lon="5.72701">
        <ele>584.679</ele>
        <time>2021-03-20T08:35:04Z</time>
      </trkpt>
      <trkpt lat="45.20583" lon="5.72708">
        <ele>583.969</ele>
        <time>2021-03-20T08:35:09Z</time>
      </trkpt>
      <trkpt lat="45.20576" lon="5.72711">
        <ele>582.21</ele>
        <time>2021-03-20T08:35:13Z</time>
      </trkpt>
      <trkpt lat="45.20571" lon="5.72708">
        <ele>581.749</ele>
        <time>2021-03-20T08:35:15Z</time>
      </trkpt>
      <trkpt lat="45.20554" lon="5.72695">
        <ele>579.739</ele>
        <time>2021-03-20T08:35:23Z</time>
      </trkpt>
      <trkpt lat="45.20544" lon="5.72688">
        <ele>578.613</ele>
        <time>2021-03-20T08:35:27Z</time>
      </trkpt>
      <trkpt lat="45.20542" lon="5.72687">
        <ele>578.621</ele>
        <time>2021-03-20T08:35:28Z</time>
      </trkpt>
      <trkpt lat="45.20531" lon="5.72679">
        <ele>576.614</ele>
        <time>2021-03-20T08:35:33Z</time>
      </trkpt>
      <trkpt lat="45.20523" lon="5.72674">
        <ele>574.935</ele>
        <time>2021-03-20T08:35:37Z</time>
      </trkpt>
      <trkpt lat="45.20497" lon="5.72661">
        <ele>572.427</ele>
        <time>2021-03-20T08:35:45Z</time>
      </trkpt>
      <trkpt lat="45.2048" lon="5.72657">
        <ele>570.643</ele>
        <time>2021-03-20T08:35:52Z</time>
      </trkpt>
      <trkpt lat="45.20468" lon="5.72648">
        <ele>569.168</ele>
        <time>2021-03-20T08:35:58Z</time>
      </trkpt>
      <trkpt lat="45.20453" lon="5.72642">
        <ele>567.187</ele>
        <time>2021-03-20T08:36:05Z</time>
      </trkpt>
      <trkpt lat="45.20451" lon="5.72642">
        <ele>566.383</ele>
        <time>2021-03-20T08:36:06Z</time>
      </trkpt>
      <trkpt lat="45.2043" lon="5.72629">
        <ele>564.555</ele>
        <time>2021-03-20T08:36:15Z</time>
      </trkpt>
      <trkpt lat="45.20425" lon="5.72622">
        <ele>564.294</ele>
        <time>2021-03-20T08:36:18Z</time>
      </trkpt>
      <trkpt lat="45.20417" lon="5.72629">
        <ele>561.536</ele>
        <time>2021-03-20T08:36:23Z</time>
      </trkpt>
      <trkpt lat="45.20425" lon="5.72644">
        <ele>560.179</ele>
        <time>2021-03-20T08:36:29Z</time>
      </trkpt>
      <trkpt lat="45.20425" lon="5.72646">
        <ele>559.79</ele>
        <time>2021-03-20T08:36:30Z</time>
      </trkpt>
      <trkpt lat="45.20428" lon="5.72656">
        <ele>559.166</ele>
        <time>2021-03-20T08:36:33Z</time>
      </trkpt>
      <trkpt lat="45.20442" lon="5.72669">
        <ele>557.758</ele>
        <time>2021-03-20T08:36:40Z</time>
      </trkpt>
      <trkpt lat="45.20446" lon="5.72673">
        <ele>556.723</ele>
        <time>2021-03-20T08:36:42Z</time>
      </trkpt>
      <trkpt lat="45.20457" lon="5.72679">
        <ele>555.628</ele>
        <time>2021-03-20T08:36:47Z</time>
      </trkpt>
      <trkpt lat="45.20463" lon="5.72684">
        <ele>554.163</ele>
        <time>2021-03-20T08:36:50Z</time>
      </trkpt>
      <trkpt lat="45.20467" lon="5.72689">
        <ele>553.551</ele>
        <time>2021-03-20T08:36:52Z</time>
      </trkpt>
      <trkpt lat="45.20479" lon="5.72701">
        <ele>551.312</ele>
        <time>2021-03-20T08:36:58Z</time>
      </trkpt>
      <trkpt lat="45.20499" lon="5.72719">
        <ele>549.184</ele>
        <time>2021-03-20T08:37:06Z</time>
      </trkpt>
      <trkpt lat="45.20513" lon="5.72732">
        <ele>547.128</ele>
        <time>2021-03-20T08:37:12Z</time>
      </trkpt>
      <trkpt lat="45.2052" lon="5.72741">
        <ele>547.167</ele>
        <time>2021-03-20T08:37:16Z</time>
      </trkpt>
      <trkpt lat="45.20509" lon="5.72735">
        <ele>543.589</ele>
        <time>2021-03-20T08:37:22Z</time>
      </trkpt>
      <trkpt lat="45.20504" lon="5.72731">
        <ele>543.179</ele>
        <time>2021-03-20T08:37:24Z</time>
      </trkpt>
      <trkpt lat="45.20481" lon="5.72719">
        <ele>541.067</ele>
        <time>2021-03-20T08:37:32Z</time>
      </trkpt>
      <trkpt lat="45.20467" lon="5.72716">
        <ele>539.666</ele>
        <time>2021-03-20T08:37:38Z</time>
      </trkpt>
      <trkpt lat="45.20452" lon="5.72712">
        <ele>537.686</ele>
        <time>2021-03-20T08:37:44Z</time>
      </trkpt>
      <trkpt lat="45.20434" lon="5.72704">
        <ele>534.997</ele>
        <time>2021-03-20T08:37:51Z</time>
      </trkpt>
      <trkpt lat="45.20416" lon="5.72695">
        <ele>532.328</ele>
        <time>2021-03-20T08:37:59Z</time>
      </trkpt>
      <trkpt lat="45.20404" lon="5.72683">
        <ele>530.695</ele>
        <time>2021-03-20T08:38:06Z</time>
      </trkpt>
      <trkpt lat="45.20399" lon="5.72677">
        <ele>529.428</ele>
        <time>2021-03-20T08:38:09Z</time>
      </trkpt>
      <trkpt lat="45.20389" lon="5.72664">
        <ele>526.886</ele>
        <time>2021-03-20T08:38:15Z</time>
      </trkpt>
      <trkpt lat="45.2038" lon="5.7265">
        <ele>524.881</ele>
        <time>2021-03-20T08:38:21Z</time>
      </trkpt>
      <trkpt lat="45.20365" lon="5.72638">
        <ele>524.21</ele>
        <time>2021-03-20T08:38:27Z</time>
      </trkpt>
      <trkpt lat="45.20349" lon="5.72629">
        <ele>520.463</ele>
        <time>2021-03-20T08:38:33Z</time>
      </trkpt>
      <trkpt lat="45.20333" lon="5.72618">
        <ele>519.612</ele>
        <time>2021-03-20T08:38:40Z</time>
      </trkpt>
      <trkpt lat="45.20326" lon="5.72615">
        <ele>517.784</ele>
        <time>2021-03-20T08:38:43Z</time>
      </trkpt>
      <trkpt lat="45.20317" lon="5.72612">
        <ele>515.54</ele>
        <time>2021-03-20T08:38:48Z</time>
      </trkpt>
      <trkpt lat="45.20303" lon="5.72607">
        <ele>513.119</ele>
        <time>2021-03-20T08:38:55Z</time>
      </trkpt>
      <trkpt lat="45.20294" lon="5.72606">
        <ele>511.32</ele>
        <time>2021-03-20T08:39:00Z</time>
      </trkpt>
      <trkpt lat="45.20282" lon="5.72605">
        <ele>508.471</ele>
        <time>2021-03-20T08:39:06Z</time>
      </trkpt>
      <trkpt lat="45.20269" lon="5.72608">
        <ele>506.766</ele>
        <time>2021-03-20T08:39:13Z</time>
      </trkpt>
      <trkpt lat="45.20263" lon="5.72608">
        <ele>505.98</ele>
        <time>2021-03-20T08:39:15Z</time>
      </trkpt>
      <trkpt lat="45.20245" lon="5.72606">
        <ele>503.369</ele>
        <time>2021-03-20T08:39:23Z</time>
      </trkpt>
      <trkpt lat="45.20227" lon="5.72599">
        <ele>500.596</ele>
        <time>2021-03-20T08:39:31Z</time>
      </trkpt>
      <trkpt lat="45.20219" lon="5.72595">
        <ele>499.966</ele>
        <time>2021-03-20T08:39:34Z</time>
      </trkpt>
      <trkpt lat="45.20198" lon="5.72582">
        <ele>495.954</ele>
        <time>2021-03-20T08:39:43Z</time>
      </trkpt>
      <trkpt lat="45.20184" lon="5.72573">
        <ele>494.037</ele>
        <time>2021-03-20T08:39:49Z</time>
      </trkpt>
      <trkpt lat="45.20175" lon="5.72568">
        <ele>491.761</ele>
        <time>2021-03-20T08:39:53Z</time>
      </trkpt>
      <trkpt lat="45.20156" lon="5.72559">
        <ele>489.902</ele>
        <time>2021-03-20T08:40:00Z</time>
      </trkpt>
      <trkpt lat="45.20136" lon="5.72553">
        <ele>487.648</ele>
        <time>2021-03-20T08:40:08Z</time>
      </trkpt>
      <trkpt lat="45.20123" lon="5.72548">
        <ele>484.415</ele>
        <time>2021-03-20T08:40:14Z</time>
      </trkpt>
      <trkpt lat="45.2012" lon="5.72548">
        <ele>484.45</ele>
        <time>2021-03-20T08:40:15Z</time>
      </trkpt>
      <trkpt lat="45.2011" lon="5.72546">
        <ele>481.954</ele>
        <time>2021-03-20T08:40:20Z</time>
      </trkpt>
      <trkpt lat="45.20098" lon="5.72548">
        <ele>478.821</ele>
        <time>2021-03-20T08:40:26Z</time>
      </trkpt>
      <trkpt lat="45.20094" lon="5.72547">
        <ele>478.139</ele>
        <time>2021-03-20T08:40:28Z</time>
      </trkpt>
      <trkpt lat="45.20079" lon="5.72552">
        <ele>475.767</ele>
        <time>2021-03-20T08:40:34Z</time>
      </trkpt>
      <trkpt lat="45.20076" lon="5.72555">
        <ele>475.078</ele>
        <time>2021-03-20T08:40:36Z</time>
      </trkpt>
      <trkpt lat="45.20075" lon="5.72558">
        <ele>473.688</ele>
        <time>2021-03-20T08:40:43Z</time>
      </trkpt>
      <trkpt lat="45.20074" lon="5.72556">
        <ele>474.055</ele>
        <time>2021-03-20T08:40:54Z</time>
      </trkpt>
      <trkpt lat="45.20073" lon="5.72532">
        <ele>475.204</ele>
        <time>2021-03-20T08:41:02Z</time>
      </trkpt>
      <trkpt lat="45.20075" lon="5.72509">
        <ele>476.219</ele>
        <time>2021-03-20T08:41:08Z</time>
      </trkpt>
      <trkpt lat="45.20079" lon="5.72494">
        <ele>473.164</ele>
        <time>2021-03-20T08:41:12Z</time>
      </trkpt>
      <trkpt lat="45.20077" lon="5.72468">
        <ele>473.575</ele>
        <time>2021-03-20T08:41:18Z</time>
      </trkpt>
      <trkpt lat="45.20072" lon="5.7244">
        <ele>471.907</ele>
        <time>2021-03-20T08:41:25Z</time>
      </trkpt>
      <trkpt lat="45.20056" lon="5.7243">
        <ele>470.162</ele>
        <time>2021-03-20T08:41:31Z</time>
      </trkpt>
      <trkpt lat="45.2005" lon="5.7243">
        <ele>468.819</ele>
        <time>2021-03-20T08:41:33Z</time>
      </trkpt>
      <trkpt lat="45.20026" lon="5.72427">
        <ele>467.396</ele>
        <time>2021-03-20T08:41:41Z</time>
      </trkpt>
      <trkpt lat="45.20002" lon="5.72426">
        <ele>464.306</ele>
        <time>2021-03-20T08:41:49Z</time>
      </trkpt>
      <trkpt lat="45.19974" lon="5.72423">
        <ele>461.203</ele>
        <time>2021-03-20T08:41:58Z</time>
      </trkpt>
      <trkpt lat="45.19949" lon="5.72425">
        <ele>459.168</ele>
        <time>2021-03-20T08:42:06Z</time>
      </trkpt>
      <trkpt lat="45.19927" lon="5.7243">
        <ele>458.78</ele>
        <time>2021-03-20T08:42:13Z</time>
      </trkpt>
      <trkpt lat="45.19912" lon="5.72435">
        <ele>460.628</ele>
        <time>2021-03-20T08:42:19Z</time>
      </trkpt>
      <trkpt lat="45.199" lon="5.72441">
        <ele>462.305</ele>
        <time>2021-03-20T08:42:24Z</time>
      </trkpt>
      <trkpt lat="45.19894" lon="5.72456">
        <ele>463.344</ele>
        <time>2021-03-20T08:42:30Z</time>
      </trkpt>
      <trkpt lat="45.19896" lon="5.72473">
        <ele>463.843</ele>
        <time>2021-03-20T08:42:35Z</time>
      </trkpt>
      <trkpt lat="45.19889" lon="5.72481">
        <ele>463.729</ele>
        <time>2021-03-20T08:42:39Z</time>
      </trkpt>
      <trkpt lat="45.19868" lon="5.72485">
        <ele>463.69</ele>
        <time>2021-03-20T08:42:44Z</time>
      </trkpt>
      <trkpt lat="45.19859" lon="5.72512">
        <ele>463.426</ele>
        <time>2021-03-20T08:42:50Z</time>
      </trkpt>
      <trkpt lat="45.19859" lon="5.72537">
        <ele>461.648</ele>
        <time>2021-03-20T08:42:56Z</time>
      </trkpt>
      <trkpt lat="45.1986" lon="5.72541">
        <ele>461.363</ele>
        <time>2021-03-20T08:42:57Z</time>
      </trkpt>
      <trkpt lat="45.1986" lon="5.72552">
        <ele>460.416</ele>
        <time>2021-03-20T08:43:00Z</time>
      </trkpt>
      <trkpt lat="45.19859" lon="5.72546">
        <ele>459.398</ele>
        <time>2021-03-20T08:43:05Z</time>
      </trkpt>
      <trkpt lat="45.19859" lon="5.72537">
        <ele>458.054</ele>
        <time>2021-03-20T08:43:08Z</time>
      </trkpt>
      <trkpt lat="45.1986" lon="5.7253">
        <ele>457.245</ele>
        <time>2021-03-20T08:43:10Z</time>
      </trkpt>
      <trkpt lat="45.1986" lon="5.725">
        <ele>454.148</ele>
        <time>2021-03-20T08:43:17Z</time>
      </trkpt>
      <trkpt lat="45.19857" lon="5.72471">
        <ele>451.312</ele>
        <time>2021-03-20T08:43:24Z</time>
      </trkpt>
      <trkpt lat="45.19856" lon="5.72468">
        <ele>451.187</ele>
        <time>2021-03-20T08:43:25Z</time>
      </trkpt>
      <trkpt lat="45.19855" lon="5.72456">
        <ele>450.041</ele>
        <time>2021-03-20T08:43:28Z</time>
      </trkpt>
      <trkpt lat="45.19845" lon="5.72456">
        <ele>449.558</ele>
        <time>2021-03-20T08:43:33Z</time>
      </trkpt>
      <trkpt lat="45.19835" lon="5.72478">
        <ele>445.235</ele>
        <time>2021-03-20T08:43:40Z</time>
      </trkpt>
      <trkpt lat="45.19834" lon="5.72481">
        <ele>445.246</ele>
        <time>2021-03-20T08:43:41Z</time>
      </trkpt>
      <trkpt lat="45.19829" lon="5.7251">
        <ele>444.665</ele>
        <time>2021-03-20T08:43:49Z</time>
      </trkpt>
      <trkpt lat="45.19828" lon="5.72518">
        <ele>442.82</ele>
        <time>2021-03-20T08:43:51Z</time>
      </trkpt>
      <trkpt lat="45.19827" lon="5.72535">
        <ele>440.993</ele>
        <time>2021-03-20T08:43:56Z</time>
      </trkpt>
      <trkpt lat="45.19827" lon="5.72538">
        <ele>440.697</ele>
        <time>2021-03-20T08:43:57Z</time>
      </trkpt>
      <trkpt lat="45.19827" lon="5.72559">
        <ele>438.491</ele>
        <time>2021-03-20T08:44:03Z</time>
      </trkpt>
      <trkpt lat="45.19828" lon="5.7257">
        <ele>437.897</ele>
        <time>2021-03-20T08:44:06Z</time>
      </trkpt>
      <trkpt lat="45.1983" lon="5.72584">
        <ele>436.945</ele>
        <time>2021-03-20T08:44:10Z</time>
      </trkpt>
      <trkpt lat="45.19833" lon="5.72605">
        <ele>435.015</ele>
        <time>2021-03-20T08:44:17Z</time>
      </trkpt>
      <trkpt lat="45.19839" lon="5.7262">
        <ele>433.936</ele>
        <time>2021-03-20T08:44:23Z</time>
      </trkpt>
      <trkpt lat="45.19841" lon="5.72626">
        <ele>433.986</ele>
        <time>2021-03-20T08:44:25Z</time>
      </trkpt>
      <trkpt lat="45.19847" lon="5.72633">
        <ele>432.687</ele>
        <time>2021-03-20T08:44:29Z</time>
      </trkpt>
      <trkpt lat="45.19856" lon="5.72647">
        <ele>430.042</ele>
        <time>2021-03-20T08:44:36Z</time>
      </trkpt>
      <trkpt lat="45.19857" lon="5.72651">
        <ele>429.134</ele>
        <time>2021-03-20T08:44:38Z</time>
      </trkpt>
      <trkpt lat="45.19845" lon="5.72657">
        <ele>426.874</ele>
        <time>2021-03-20T08:44:47Z</time>
      </trkpt>
      <trkpt lat="45.19833" lon="5.72646">
        <ele>425.26</ele>
        <time>2021-03-20T08:44:54Z</time>
      </trkpt>
      <trkpt lat="45.19821" lon="5.72635">
        <ele>423.072</ele>
        <time>2021-03-20T08:45:01Z</time>
      </trkpt>
      <trkpt lat="45.19806" lon="5.72622">
        <ele>420.967</ele>
        <time>2021-03-20T08:45:08Z</time>
      </trkpt>
      <trkpt lat="45.19798" lon="5.72609">
        <ele>419.547</ele>
        <time>2021-03-20T08:45:13Z</time>
      </trkpt>
      <trkpt lat="45.19798" lon="5.72594">
        <ele>418.295</ele>
        <time>2021-03-20T08:45:19Z</time>
      </trkpt>
      <trkpt lat="45.198" lon="5.7257">
        <ele>415.931</ele>
        <time>2021-03-20T08:45:27Z</time>
      </trkpt>
      <trkpt lat="45.19802" lon="5.72555">
        <ele>414.611</ele>
        <time>2021-03-20T08:45:32Z</time>
      </trkpt>
      <trkpt lat="45.19795" lon="5.72546">
        <ele>413.025</ele>
        <time>2021-03-20T08:45:36Z</time>
      </trkpt>
      <trkpt lat="45.1979" lon="5.72547">
        <ele>412.108</ele>
        <time>2021-03-20T08:45:38Z</time>
      </trkpt>
      <trkpt lat="45.19781" lon="5.72561">
        <ele>410.295</ele>
        <time>2021-03-20T08:45:44Z</time>
      </trkpt>
      <trkpt lat="45.19776" lon="5.72579">
        <ele>408.832</ele>
        <time>2021-03-20T08:45:50Z</time>
      </trkpt>
      <trkpt lat="45.19773" lon="5.7258">
        <ele>408.108</ele>
        <time>2021-03-20T08:45:53Z</time>
      </trkpt>
      <trkpt lat="45.19775" lon="5.72559">
        <ele>405.926</ele>
        <time>2021-03-20T08:46:01Z</time>
      </trkpt>
      <trkpt lat="45.1978" lon="5.72537">
        <ele>404.391</ele>
        <time>2021-03-20T08:46:08Z</time>
      </trkpt>
      <trkpt lat="45.19786" lon="5.72526">
        <ele>403.41</ele>
        <time>2021-03-20T08:46:12Z</time>
      </trkpt>
      <trkpt lat="45.19787" lon="5.72522">
        <ele>402.904</ele>
        <time>2021-03-20T08:46:14Z</time>
      </trkpt>
      <trkpt lat="45.19774" lon="5.7252">
        <ele>401.815</ele>
        <time>2021-03-20T08:46:18Z</time>
      </trkpt>
      <trkpt lat="45.19769" lon="5.72523">
        <ele>400.405</ele>
        <time>2021-03-20T08:46:20Z</time>
      </trkpt>
      <trkpt lat="45.19757" lon="5.7254">
        <ele>399.638</ele>
        <time>2021-03-20T08:46:27Z</time>
      </trkpt>
      <trkpt lat="45.19754" lon="5.7256">
        <ele>399.996</ele>
        <time>2021-03-20T08:46:33Z</time>
      </trkpt>
      <trkpt lat="45.19753" lon="5.72577">
        <ele>400.112</ele>
        <time>2021-03-20T08:46:39Z</time>
      </trkpt>
      <trkpt lat="45.19758" lon="5.72599">
        <ele>400.151</ele>
        <time>2021-03-20T08:46:45Z</time>
      </trkpt>
      <trkpt lat="45.19761" lon="5.72609">
        <ele>399.794</ele>
        <time>2021-03-20T08:46:48Z</time>
      </trkpt>
      <trkpt lat="45.19766" lon="5.72631">
        <ele>400.205</ele>
        <time>2021-03-20T08:46:55Z</time>
      </trkpt>
      <trkpt lat="45.1978" lon="5.72656">
        <ele>399.921</ele>
        <time>2021-03-20T08:47:03Z</time>
      </trkpt>
      <trkpt lat="45.19793" lon="5.72672">
        <ele>400.555</ele>
        <time>2021-03-20T08:47:09Z</time>
      </trkpt>
      <trkpt lat="45.19802" lon="5.72684">
        <ele>400.051</ele>
        <time>2021-03-20T08:47:14Z</time>
      </trkpt>
      <trkpt lat="45.19821" lon="5.72701">
        <ele>400.511</ele>
        <time>2021-03-20T08:47:22Z</time>
      </trkpt>
      <trkpt lat="45.19834" lon="5.72715">
        <ele>400.943</ele>
        <time>2021-03-20T08:47:28Z</time>
      </trkpt>
      <trkpt lat="45.19847" lon="5.72743">
        <ele>401.757</ele>
        <time>2021-03-20T08:47:35Z</time>
      </trkpt>
      <trkpt lat="45.19853" lon="5.72739">
        <ele>399.625</ele>
        <time>2021-03-20T08:47:43Z</time>
      </trkpt>
      <trkpt lat="45.19862" lon="5.72742">
        <ele>397.854</ele>
        <time>2021-03-20T08:47:48Z</time>
      </trkpt>
      <trkpt lat="45.19862" lon="5.72743">
        <ele>397.946</ele>
        <time>2021-03-20T08:47:49Z</time>
      </trkpt>
      <trkpt lat="45.1986" lon="5.72759">
        <ele>396.956</ele>
        <time>2021-03-20T08:47:54Z</time>
      </trkpt>
      <trkpt lat="45.1986" lon="5.72768">
        <ele>397.13</ele>
        <time>2021-03-20T08:47:57Z</time>
      </trkpt>
      <trkpt lat="45.19859" lon="5.72757">
        <ele>393.487</ele>
        <time>2021-03-20T08:48:03Z</time>
      </trkpt>
      <trkpt lat="45.19859" lon="5.72755">
        <ele>391.638</ele>
        <time>2021-03-20T08:48:06Z</time>
      </trkpt>
      <trkpt lat="45.19858" lon="5.72756">
        <ele>391.633</ele>
        <time>2021-03-20T08:48:07Z</time>
      </trkpt>
      <trkpt lat="45.19858" lon="5.72762">
        <ele>390.412</ele>
        <time>2021-03-20T08:48:12Z</time>
      </trkpt>
      <trkpt lat="45.19861" lon="5.72781">
        <ele>387.697</ele>
        <time>2021-03-20T08:48:20Z</time>
      </trkpt>
      <trkpt lat="45.19864" lon="5.72793">
        <ele>384.558</ele>
        <time>2021-03-20T08:48:25Z</time>
      </trkpt>
      <trkpt lat="45.19865" lon="5.72802">
        <ele>380.662</ele>
        <time>2021-03-20T08:48:29Z</time>
      </trkpt>
      <trkpt lat="45.19866" lon="5.72807">
        <ele>379.939</ele>
        <time>2021-03-20T08:48:31Z</time>
      </trkpt>
      <trkpt lat="45.19859" lon="5.72782">
        <ele>378.865</ele>
        <time>2021-03-20T08:48:33Z</time>
      </trkpt>
      <trkpt lat="45.1986" lon="5.72779">
        <ele>378.643</ele>
        <time>2021-03-20T08:48:35Z</time>
      </trkpt>
      <trkpt lat="45.19851" lon="5.72768">
        <ele>373.957</ele>
        <time>2021-03-20T08:48:42Z</time>
      </trkpt>
      <trkpt lat="45.1985" lon="5.72772">
        <ele>372.343</ele>
        <time>2021-03-20T08:48:45Z</time>
      </trkpt>
      <trkpt lat="45.19854" lon="5.7278">
        <ele>371.496</ele>
        <time>2021-03-20T08:48:48Z</time>
      </trkpt>
      <trkpt lat="45.19849" lon="5.72777">
        <ele>370.058</ele>
        <time>2021-03-20T08:48:51Z</time>
      </trkpt>
      <trkpt lat="45.19832" lon="5.72762">
        <ele>369.18</ele>
        <time>2021-03-20T08:48:58Z</time>
      </trkpt>
      <trkpt lat="45.19817" lon="5.7275">
        <ele>367.287</ele>
        <time>2021-03-20T08:49:04Z</time>
      </trkpt>
      <trkpt lat="45.19812" lon="5.72746">
        <ele>366.396</ele>
        <time>2021-03-20T08:49:06Z</time>
      </trkpt>
      <trkpt lat="45.198" lon="5.72735">
        <ele>365.517</ele>
        <time>2021-03-20T08:49:11Z</time>
      </trkpt>
      <trkpt lat="45.19795" lon="5.72743">
        <ele>363.001</ele>
        <time>2021-03-20T08:49:16Z</time>
      </trkpt>
      <trkpt lat="45.19798" lon="5.72745">
        <ele>362.717</ele>
        <time>2021-03-20T08:49:17Z</time>
      </trkpt>
      <trkpt lat="45.198" lon="5.72747">
        <ele>362.728</ele>
        <time>2021-03-20T08:49:18Z</time>
      </trkpt>
      <trkpt lat="45.19812" lon="5.72766">
        <ele>361.018</ele>
        <time>2021-03-20T08:49:24Z</time>
      </trkpt>
      <trkpt lat="45.19821" lon="5.72778">
        <ele>357.926</ele>
        <time>2021-03-20T08:49:29Z</time>
      </trkpt>
      <trkpt lat="45.19825" lon="5.72783">
        <ele>357.225</ele>
        <time>2021-03-20T08:49:31Z</time>
      </trkpt>
      <trkpt lat="45.19844" lon="5.72799">
        <ele>355.203</ele>
        <time>2021-03-20T08:49:39Z</time>
      </trkpt>
      <trkpt lat="45.19846" lon="5.72802">
        <ele>354.689</ele>
        <time>2021-03-20T08:49:40Z</time>
      </trkpt>
      <trkpt lat="45.19833" lon="5.72794">
        <ele>352.606</ele>
        <time>2021-03-20T08:49:46Z</time>
      </trkpt>
      <trkpt lat="45.19817" lon="5.72786">
        <ele>349.523</ele>
        <time>2021-03-20T08:49:52Z</time>
      </trkpt>
      <trkpt lat="45.19804" lon="5.72779">
        <ele>347.654</ele>
        <time>2021-03-20T08:49:57Z</time>
      </trkpt>
      <trkpt lat="45.19816" lon="5.72793">
        <ele>346.74</ele>
        <time>2021-03-20T08:50:03Z</time>
      </trkpt>
      <trkpt lat="45.1983" lon="5.72809">
        <ele>344.537</ele>
        <time>2021-03-20T08:50:09Z</time>
      </trkpt>
      <trkpt lat="45.19835" lon="5.72814">
        <ele>343.389</ele>
        <time>2021-03-20T08:50:11Z</time>
      </trkpt>
      <trkpt lat="45.19848" lon="5.72826">
        <ele>340.797</ele>
        <time>2021-03-20T08:50:16Z</time>
      </trkpt>
      <trkpt lat="45.19848" lon="5.72827">
        <ele>340.166</ele>
        <time>2021-03-20T08:50:18Z</time>
      </trkpt>
      <trkpt lat="45.19842" lon="5.72823">
        <ele>338.802</ele>
        <time>2021-03-20T08:50:20Z</time>
      </trkpt>
      <trkpt lat="45.19834" lon="5.72818">
        <ele>338.441</ele>
        <time>2021-03-20T08:50:23Z</time>
      </trkpt>
      <trkpt lat="45.19821" lon="5.72813">
        <ele>336.312</ele>
        <time>2021-03-20T08:50:27Z</time>
      </trkpt>
      <trkpt lat="45.19824" lon="5.72825">
        <ele>334.989</ele>
        <time>2021-03-20T08:50:31Z</time>
      </trkpt>
      <trkpt lat="45.19835" lon="5.72831">
        <ele>333.977</ele>
        <time>2021-03-20T08:50:35Z</time>
      </trkpt>
      <trkpt lat="45.19837" lon="5.72833">
        <ele>334.081</ele>
        <time>2021-03-20T08:50:39Z</time>
      </trkpt>
      <trkpt lat="45.19835" lon="5.72832">
        <ele>333.212</ele>
        <time>2021-03-20T08:50:40Z</time>
      </trkpt>
      <trkpt lat="45.19818" lon="5.72817">
        <ele>330.673</ele>
        <time>2021-03-20T08:50:47Z</time>
      </trkpt>
      <trkpt lat="45.19798" lon="5.72809">
        <ele>329.312</ele>
        <time>2021-03-20T08:50:53Z</time>
      </trkpt>
      <trkpt lat="45.19802" lon="5.72819">
        <ele>327.412</ele>
        <time>2021-03-20T08:50:58Z</time>
      </trkpt>
      <trkpt lat="45.19822" lon="5.72838">
        <ele>325.403</ele>
        <time>2021-03-20T08:51:05Z</time>
      </trkpt>
      <trkpt lat="45.19827" lon="5.72844">
        <ele>324.945</ele>
        <time>2021-03-20T08:51:08Z</time>
      </trkpt>
      <trkpt lat="45.19814" lon="5.72836">
        <ele>323.615</ele>
        <time>2021-03-20T08:51:14Z</time>
      </trkpt>
      <trkpt lat="45.19791" lon="5.72829">
        <ele>320.477</ele>
        <time>2021-03-20T08:51:21Z</time>
      </trkpt>
      <trkpt lat="45.19788" lon="5.72829">
        <ele>320.342</ele>
        <time>2021-03-20T08:51:22Z</time>
      </trkpt>
      <trkpt lat="45.19772" lon="5.7282">
        <ele>317.927</ele>
        <time>2021-03-20T08:51:28Z</time>
      </trkpt>
      <trkpt lat="45.19767" lon="5.72819">
        <ele>317.466</ele>
        <time>2021-03-20T08:51:29Z</time>
      </trkpt>
      <trkpt lat="45.19757" lon="5.72812">
        <ele>315.735</ele>
        <time>2021-03-20T08:51:33Z</time>
      </trkpt>
      <trkpt lat="45.1976" lon="5.72817">
        <ele>314.321</ele>
        <time>2021-03-20T08:51:38Z</time>
      </trkpt>
      <trkpt lat="45.19763" lon="5.72819">
        <ele>314.125</ele>
        <time>2021-03-20T08:51:39Z</time>
      </trkpt>
      <trkpt lat="45.19765" lon="5.72821">
        <ele>313.786</ele>
        <time>2021-03-20T08:51:40Z</time>
      </trkpt>
      <trkpt lat="45.1978" lon="5.72836">
        <ele>311.289</ele>
        <time>2021-03-20T08:51:47Z</time>
      </trkpt>
      <trkpt lat="45.19795" lon="5.72848">
        <ele>309.341</ele>
        <time>2021-03-20T08:51:54Z</time>
      </trkpt>
      <trkpt lat="45.19803" lon="5.72854">
        <ele>306.276</ele>
        <time>2021-03-20T08:51:58Z</time>
      </trkpt>
      <trkpt lat="45.19807" lon="5.72865">
        <ele>305.148</ele>
        <time>2021-03-20T08:52:02Z</time>
      </trkpt>
      <trkpt lat="45.19802" lon="5.72867">
        <ele>302.899</ele>
        <time>2021-03-20T08:52:07Z</time>
      </trkpt>
      <trkpt lat="45.198" lon="5.72866">
        <ele>302.901</ele>
        <time>2021-03-20T08:52:08Z</time>
      </trkpt>
      <trkpt lat="45.19789" lon="5.72862">
        <ele>301.076</ele>
        <time>2021-03-20T08:52:13Z</time>
      </trkpt>
      <trkpt lat="45.1977" lon="5.7285">
        <ele>298.736</ele>
        <time>2021-03-20T08:52:20Z</time>
      </trkpt>
      <trkpt lat="45.19766" lon="5.72847">
        <ele>297.337</ele>
        <time>2021-03-20T08:52:22Z</time>
      </trkpt>
      <trkpt lat="45.19756" lon="5.72839">
        <ele>296.021</ele>
        <time>2021-03-20T08:52:26Z</time>
      </trkpt>
      <trkpt lat="45.19753" lon="5.7284">
        <ele>295.098</ele>
        <time>2021-03-20T08:52:28Z</time>
      </trkpt>
      <trkpt lat="45.1976" lon="5.72856">
        <ele>293.451</ele>
        <time>2021-03-20T08:52:34Z</time>
      </trkpt>
      <trkpt lat="45.19766" lon="5.72869">
        <ele>291.431</ele>
        <time>2021-03-20T08:52:38Z</time>
      </trkpt>
      <trkpt lat="45.19778" lon="5.72883">
        <ele>288.761</ele>
        <time>2021-03-20T08:52:45Z</time>
      </trkpt>
      <trkpt lat="45.19795" lon="5.72895">
        <ele>286.282</ele>
        <time>2021-03-20T08:52:53Z</time>
      </trkpt>
      <trkpt lat="45.19798" lon="5.72911">
        <ele>283.76</ele>
        <time>2021-03-20T08:52:58Z</time>
      </trkpt>
      <trkpt lat="45.19795" lon="5.72911">
        <ele>283.538</ele>
        <time>2021-03-20T08:53:00Z</time>
      </trkpt>
      <trkpt lat="45.1979" lon="5.72907">
        <ele>281.663</ele>
        <time>2021-03-20T08:53:03Z</time>
      </trkpt>
      <trkpt lat="45.19775" lon="5.72897">
        <ele>279.626</ele>
        <time>2021-03-20T08:53:09Z</time>
      </trkpt>
      <trkpt lat="45.19755" lon="5.72887">
        <ele>277.489</ele>
        <time>2021-03-20T08:53:15Z</time>
      </trkpt>
      <trkpt lat="45.19739" lon="5.72876">
        <ele>275.516</ele>
        <time>2021-03-20T08:53:21Z</time>
      </trkpt>
      <trkpt lat="45.1973" lon="5.7287">
        <ele>273.002</ele>
        <time>2021-03-20T08:53:26Z</time>
      </trkpt>
      <trkpt lat="45.19717" lon="5.72855">
        <ele>271.981</ele>
        <time>2021-03-20T08:53:32Z</time>
      </trkpt>
      <trkpt lat="45.19706" lon="5.72852">
        <ele>270.619</ele>
        <time>2021-03-20T08:53:36Z</time>
      </trkpt>
      <trkpt lat="45.19705" lon="5.72853">
        <ele>269.273</ele>
        <time>2021-03-20T08:53:37Z</time>
      </trkpt>
      <trkpt lat="45.19712" lon="5.72867">
        <ele>266.834</ele>
        <time>2021-03-20T08:53:44Z</time>
      </trkpt>
      <trkpt lat="45.19714" lon="5.72869">
        <ele>266.758</ele>
        <time>2021-03-20T08:53:45Z</time>
      </trkpt>
      <trkpt lat="45.19723" lon="5.72884">
        <ele>264.789</ele>
        <time>2021-03-20T08:53:52Z</time>
      </trkpt>
      <trkpt lat="45.19733" lon="5.72903">
        <ele>262.86</ele>
        <time>2021-03-20T08:54:00Z</time>
      </trkpt>
      <trkpt lat="45.19736" lon="5.7291">
        <ele>262.349</ele>
        <time>2021-03-20T08:54:03Z</time>
      </trkpt>
      <trkpt lat="45.19746" lon="5.72924">
        <ele>259.343</ele>
        <time>2021-03-20T08:54:09Z</time>
      </trkpt>
      <trkpt lat="45.19752" lon="5.72932">
        <ele>257.938</ele>
        <time>2021-03-20T08:54:12Z</time>
      </trkpt>
      <trkpt lat="45.19765" lon="5.72949">
        <ele>256.69</ele>
        <time>2021-03-20T08:54:18Z</time>
      </trkpt>
      <trkpt lat="45.19778" lon="5.72967">
        <ele>253.139</ele>
        <time>2021-03-20T08:54:24Z</time>
      </trkpt>
      <trkpt lat="45.19794" lon="5.72977">
        <ele>251.339</ele>
        <time>2021-03-20T08:54:30Z</time>
      </trkpt>
      <trkpt lat="45.19796" lon="5.72978">
        <ele>251.551</ele>
        <time>2021-03-20T08:54:31Z</time>
      </trkpt>
      <trkpt lat="45.19801" lon="5.72986">
        <ele>250.432</ele>
        <time>2021-03-20T08:54:35Z</time>
      </trkpt>
      <trkpt lat="45.19798" lon="5.72988">
        <ele>249.174</ele>
        <time>2021-03-20T08:54:38Z</time>
      </trkpt>
      <trkpt lat="45.19794" lon="5.72989">
        <ele>247.624</ele>
        <time>2021-03-20T08:54:40Z</time>
      </trkpt>
      <trkpt lat="45.1978" lon="5.73">
        <ele>245.528</ele>
        <time>2021-03-20T08:54:48Z</time>
      </trkpt>
      <trkpt lat="45.19774" lon="5.73">
        <ele>245.248</ele>
        <time>2021-03-20T08:54:50Z</time>
      </trkpt>
      <trkpt lat="45.19772" lon="5.73003">
        <ele>244.085</ele>
        <time>2021-03-20T08:54:52Z</time>
      </trkpt>
      <trkpt lat="45.19781" lon="5.73011">
        <ele>243.071</ele>
        <time>2021-03-20T08:54:56Z</time>
      </trkpt>
      <trkpt lat="45.19792" lon="5.73018">
        <ele>241.475</ele>
        <time>2021-03-20T08:55:00Z</time>
      </trkpt>
      <trkpt lat="45.19806" lon="5.73029">
        <ele>240.251</ele>
        <time>2021-03-20T08:55:06Z</time>
      </trkpt>
      <trkpt lat="45.19807" lon="5.73039">
        <ele>238.472</ele>
        <time>2021-03-20T08:55:10Z</time>
      </trkpt>
      <trkpt lat="45.19801" lon="5.73037">
        <ele>236.911</ele>
        <time>2021-03-20T08:55:14Z</time>
      </trkpt>
      <trkpt lat="45.19793" lon="5.73036">
        <ele>235.076</ele>
        <time>2021-03-20T08:55:17Z</time>
      </trkpt>
      <trkpt lat="45.19778" lon="5.73031">
        <ele>234.353</ele>
        <time>2021-03-20T08:55:23Z</time>
      </trkpt>
      <trkpt lat="45.19766" lon="5.73027">
        <ele>232.575</ele>
        <time>2021-03-20T08:55:28Z</time>
      </trkpt>
      <trkpt lat="45.1977" lon="5.73035">
        <ele>231.432</ele>
        <time>2021-03-20T08:55:32Z</time>
      </trkpt>
      <trkpt lat="45.1978" lon="5.73042">
        <ele>229.742</ele>
        <time>2021-03-20T08:55:38Z</time>
      </trkpt>
      <trkpt lat="45.19783" lon="5.73043">
        <ele>229.762</ele>
        <time>2021-03-20T08:55:40Z</time>
      </trkpt>
      <trkpt lat="45.19792" lon="5.7305">
        <ele>228.443</ele>
        <time>2021-03-20T08:55:45Z</time>
      </trkpt>
      <trkpt lat="45.19798" lon="5.73054">
        <ele>227.142</ele>
        <time>2021-03-20T08:55:48Z</time>
      </trkpt>
      <trkpt lat="45.19798" lon="5.73058">
        <ele>227.083</ele>
        <time>2021-03-20T08:55:50Z</time>
      </trkpt>
      <trkpt lat="45.19791" lon="5.7306">
        <ele>224.165</ele>
        <time>2021-03-20T08:55:58Z</time>
      </trkpt>
      <trkpt lat="45.19788" lon="5.73058">
        <ele>223.988</ele>
        <time>2021-03-20T08:55:59Z</time>
      </trkpt>
      <trkpt lat="45.19781" lon="5.73055">
        <ele>223.23</ele>
        <time>2021-03-20T08:56:02Z</time>
      </trkpt>
      <trkpt lat="45.19777" lon="5.73054">
        <ele>222.612</ele>
        <time>2021-03-20T08:56:04Z</time>
      </trkpt>
      <trkpt lat="45.19766" lon="5.73053">
        <ele>220.837</ele>
        <time>2021-03-20T08:56:07Z</time>
      </trkpt>
      <trkpt lat="45.1977" lon="5.73064">
        <ele>218.845</ele>
        <time>2021-03-20T08:56:13Z</time>
      </trkpt>
      <trkpt lat="45.19772" lon="5.73065">
        <ele>219.276</ele>
        <time>2021-03-20T08:56:14Z</time>
      </trkpt>
      <trkpt lat="45.19776" lon="5.73067">
        <ele>217.56</ele>
        <time>2021-03-20T08:56:17Z</time>
      </trkpt>
      <trkpt lat="45.19793" lon="5.73076">
        <ele>215.361</ele>
        <time>2021-03-20T08:56:24Z</time>
      </trkpt>
      <trkpt lat="45.19799" lon="5.73078">
        <ele>213.869</ele>
        <time>2021-03-20T08:56:27Z</time>
      </trkpt>
      <trkpt lat="45.19803" lon="5.73093">
        <ele>213.076</ele>
        <time>2021-03-20T08:56:32Z</time>
      </trkpt>
      <trkpt lat="45.19803" lon="5.73094">
        <ele>212.419</ele>
        <time>2021-03-20T08:56:33Z</time>
      </trkpt>
      <trkpt lat="45.19799" lon="5.73094">
        <ele>211.465</ele>
        <time>2021-03-20T08:56:35Z</time>
      </trkpt>
      <trkpt lat="45.19783" lon="5.73087">
        <ele>209.325</ele>
        <time>2021-03-20T08:56:42Z</time>
      </trkpt>
      <trkpt lat="45.19773" lon="5.73085">
        <ele>208.702</ele>
        <time>2021-03-20T08:56:46Z</time>
      </trkpt>
      <trkpt lat="45.19772" lon="5.73096">
        <ele>206.362</ele>
        <time>2021-03-20T08:56:51Z</time>
      </trkpt>
      <trkpt lat="45.19773" lon="5.73098">
        <ele>206.666</ele>
        <time>2021-03-20T08:56:52Z</time>
      </trkpt>
      <trkpt lat="45.19776" lon="5.73101">
        <ele>205.433</ele>
        <time>2021-03-20T08:56:55Z</time>
      </trkpt>
      <trkpt lat="45.19781" lon="5.73103">
        <ele>204.685</ele>
        <time>2021-03-20T08:56:57Z</time>
      </trkpt>
      <trkpt lat="45.19798" lon="5.73115">
        <ele>202.833</ele>
        <time>2021-03-20T08:57:03Z</time>
      </trkpt>
      <trkpt lat="45.19805" lon="5.73119">
        <ele>201.204</ele>
        <time>2021-03-20T08:57:06Z</time>
      </trkpt>
      <trkpt lat="45.19804" lon="5.73121">
        <ele>202.086</ele>
        <time>2021-03-20T08:57:08Z</time>
      </trkpt>
      <trkpt lat="45.1979" lon="5.7313">
        <ele>200.17</ele>
        <time>2021-03-20T08:57:14Z</time>
      </trkpt>
      <trkpt lat="45.19788" lon="5.73133">
        <ele>199.928</ele>
        <time>2021-03-20T08:57:15Z</time>
      </trkpt>
      <trkpt lat="45.19784" lon="5.7314">
        <ele>198.938</ele>
        <time>2021-03-20T08:57:17Z</time>
      </trkpt>
      <trkpt lat="45.19776" lon="5.73158">
        <ele>196.248</ele>
        <time>2021-03-20T08:57:22Z</time>
      </trkpt>
      <trkpt lat="45.19775" lon="5.73169">
        <ele>194.977</ele>
        <time>2021-03-20T08:57:24Z</time>
      </trkpt>
      <trkpt lat="45.19776" lon="5.73178">
        <ele>194.075</ele>
        <time>2021-03-20T08:57:26Z</time>
      </trkpt>
      <trkpt lat="45.19779" lon="5.73201">
        <ele>194.725</ele>
        <time>2021-03-20T08:57:31Z</time>
      </trkpt>
      <trkpt lat="45.1978" lon="5.73205">
        <ele>194.226</ele>
        <time>2021-03-20T08:57:32Z</time>
      </trkpt>
      <trkpt lat="45.19771" lon="5.7323">
        <ele>195.355</ele>
        <time>2021-03-20T08:57:40Z</time>
      </trkpt>
      <trkpt lat="45.1976" lon="5.73259">
        <ele>195.898</ele>
        <time>2021-03-20T08:57:49Z</time>
      </trkpt>
      <trkpt lat="45.19753" lon="5.73285">
        <ele>197.325</ele>
        <time>2021-03-20T08:57:58Z</time>
      </trkpt>
      <trkpt lat="45.19747" lon="5.73307">
        <ele>198.737</ele>
        <time>2021-03-20T08:58:06Z</time>
      </trkpt>
      <trkpt lat="45.19742" lon="5.73328">
        <ele>198.245</ele>
        <time>2021-03-20T08:58:14Z</time>
      </trkpt>
      <trkpt lat="45.19737" lon="5.73347">
        <ele>198.098</ele>
        <time>2021-03-20T08:58:20Z</time>
      </trkpt>
      <trkpt lat="45.19735" lon="5.73356">
        <ele>197.772</ele>
        <time>2021-03-20T08:58:23Z</time>
      </trkpt>
      <trkpt lat="45.19745" lon="5.73366">
        <ele>196.46</ele>
        <time>2021-03-20T08:58:29Z</time>
      </trkpt>
      <trkpt lat="45.19758" lon="5.73371">
        <ele>195.875</ele>
        <time>2021-03-20T08:58:35Z</time>
      </trkpt>
      <trkpt lat="45.19778" lon="5.73376">
        <ele>194.895</ele>
        <time>2021-03-20T08:58:43Z</time>
      </trkpt>
      <trkpt lat="45.19796" lon="5.73381">
        <ele>195.644</ele>
        <time>2021-03-20T08:58:51Z</time>
      </trkpt>
      <trkpt lat="45.19818" lon="5.73386">
        <ele>195.429</ele>
        <time>2021-03-20T08:58:59Z</time>
      </trkpt>
      <trkpt lat="45.1983" lon="5.7339">
        <ele>195.697</ele>
        <time>2021-03-20T08:59:04Z</time>
      </trkpt>
      <trkpt lat="45.19851" lon="5.73395">
        <ele>196.148</ele>
        <time>2021-03-20T08:59:12Z</time>
      </trkpt>
      <trkpt lat="45.19867" lon="5.73399">
        <ele>195.584</ele>
        <time>2021-03-20T08:59:18Z</time>
      </trkpt>
      <trkpt lat="45.19883" lon="5.73404">
        <ele>195.961</ele>
        <time>2021-03-20T08:59:25Z</time>
      </trkpt>
      <trkpt lat="45.19902" lon="5.73409">
        <ele>195.787</ele>
        <time>2021-03-20T08:59:32Z</time>
      </trkpt>
      <trkpt lat="45.19916" lon="5.73415">
        <ele>196</ele>
        <time>2021-03-20T08:59:38Z</time>
      </trkpt>
      <trkpt lat="45.19935" lon="5.73417">
        <ele>195.979</ele>
        <time>2021-03-20T08:59:44Z</time>
      </trkpt>
      <trkpt lat="45.19955" lon="5.73422">
        <ele>197.014</ele>
        <time>2021-03-20T08:59:51Z</time>
      </trkpt>
      <trkpt lat="45.1998" lon="5.73427">
        <ele>196.176</ele>
        <time>2021-03-20T09:00:00Z</time>
      </trkpt>
      <trkpt lat="45.19997" lon="5.73439">
        <ele>196.704</ele>
        <time>2021-03-20T09:00:07Z</time>
      </trkpt>
      <trkpt lat="45.20013" lon="5.73449">
        <ele>196.513</ele>
        <time>2021-03-20T09:00:13Z</time>
      </trkpt>
      <trkpt lat="45.20028" lon="5.73459">
        <ele>196.134</ele>
        <time>2021-03-20T09:00:18Z</time>
      </trkpt>
      <trkpt lat="45.20042" lon="5.73472">
        <ele>197.085</ele>
        <time>2021-03-20T09:00:25Z</time>
      </trkpt>
      <trkpt lat="45.2005" lon="5.73481">
        <ele>197.977</ele>
        <time>2021-03-20T09:00:29Z</time>
      </trkpt>
      <trkpt lat="45.20065" lon="5.73508">
        <ele>197.777</ele>
        <time>2021-03-20T09:00:37Z</time>
      </trkpt>
      <trkpt lat="45.20069" lon="5.73514">
        <ele>197.889</ele>
        <time>2021-03-20T09:00:39Z</time>
      </trkpt>
      <trkpt lat="45.20098" lon="5.73531">
        <ele>198.086</ele>
        <time>2021-03-20T09:00:49Z</time>
      </trkpt>
      <trkpt lat="45.20112" lon="5.73546">
        <ele>197.274</ele>
        <time>2021-03-20T09:00:56Z</time>
      </trkpt>
      <trkpt lat="45.20126" lon="5.7356">
        <ele>198.366</ele>
        <time>2021-03-20T09:01:03Z</time>
      </trkpt>
      <trkpt lat="45.20137" lon="5.73573">
        <ele>198.214</ele>
        <time>2021-03-20T09:01:10Z</time>
      </trkpt>
      <trkpt lat="45.20141" lon="5.73576">
        <ele>197.868</ele>
        <time>2021-03-20T09:01:12Z</time>
      </trkpt>
      <trkpt lat="45.20148" lon="5.73592">
        <ele>198.064</ele>
        <time>2021-03-20T09:01:19Z</time>
      </trkpt>
      <trkpt lat="45.20149" lon="5.73595">
        <ele>197.687</ele>
        <time>2021-03-20T09:01:20Z</time>
      </trkpt>
      <trkpt lat="45.20157" lon="5.73614">
        <ele>197.434</ele>
        <time>2021-03-20T09:01:27Z</time>
      </trkpt>
      <trkpt lat="45.20164" lon="5.73639">
        <ele>197.555</ele>
        <time>2021-03-20T09:01:35Z</time>
      </trkpt>
      <trkpt lat="45.20167" lon="5.73663">
        <ele>197.283</ele>
        <time>2021-03-20T09:01:42Z</time>
      </trkpt>
      <trkpt lat="45.20171" lon="5.73689">
        <ele>197.21</ele>
        <time>2021-03-20T09:01:49Z</time>
      </trkpt>
      <trkpt lat="45.20173" lon="5.73718">
        <ele>197.189</ele>
        <time>2021-03-20T09:01:56Z</time>
      </trkpt>
      <trkpt lat="45.20172" lon="5.73752">
        <ele>196.746</ele>
        <time>2021-03-20T09:02:04Z</time>
      </trkpt>
      <trkpt lat="45.20172" lon="5.73784">
        <ele>196.71</ele>
        <time>2021-03-20T09:02:12Z</time>
      </trkpt>
      <trkpt lat="45.20172" lon="5.73796">
        <ele>196.274</ele>
        <time>2021-03-20T09:02:15Z</time>
      </trkpt>
      <trkpt lat="45.20174" lon="5.73807">
        <ele>195.349</ele>
        <time>2021-03-20T09:02:19Z</time>
      </trkpt>
      <trkpt lat="45.2017" lon="5.73838">
        <ele>193.917</ele>
        <time>2021-03-20T09:02:26Z</time>
      </trkpt>
      <trkpt lat="45.20166" lon="5.73869">
        <ele>194.683</ele>
        <time>2021-03-20T09:02:33Z</time>
      </trkpt>
      <trkpt lat="45.20157" lon="5.73891">
        <ele>195.057</ele>
        <time>2021-03-20T09:02:40Z</time>
      </trkpt>
      <trkpt lat="45.20145" lon="5.73913">
        <ele>195.249</ele>
        <time>2021-03-20T09:02:47Z</time>
      </trkpt>
      <trkpt lat="45.20136" lon="5.73928">
        <ele>195.759</ele>
        <time>2021-03-20T09:02:52Z</time>
      </trkpt>
      <trkpt lat="45.20126" lon="5.73944">
        <ele>196.247</ele>
        <time>2021-03-20T09:02:58Z</time>
      </trkpt>
      <trkpt lat="45.20117" lon="5.73958">
        <ele>195.497</ele>
        <time>2021-03-20T09:03:04Z</time>
      </trkpt>
      <trkpt lat="45.20098" lon="5.73976">
        <ele>195.153</ele>
        <time>2021-03-20T09:03:12Z</time>
      </trkpt>
      <trkpt lat="45.20094" lon="5.73978">
        <ele>195.052</ele>
        <time>2021-03-20T09:03:13Z</time>
      </trkpt>
      <trkpt lat="45.20081" lon="5.73993">
        <ele>194.867</ele>
        <time>2021-03-20T09:03:20Z</time>
      </trkpt>
      <trkpt lat="45.20072" lon="5.74006">
        <ele>194.601</ele>
        <time>2021-03-20T09:03:25Z</time>
      </trkpt>
      <trkpt lat="45.20061" lon="5.74028">
        <ele>195.251</ele>
        <time>2021-03-20T09:03:32Z</time>
      </trkpt>
      <trkpt lat="45.20049" lon="5.74049">
        <ele>195.729</ele>
        <time>2021-03-20T09:03:39Z</time>
      </trkpt>
      <trkpt lat="45.20045" lon="5.74053">
        <ele>195.997</ele>
        <time>2021-03-20T09:03:42Z</time>
      </trkpt>
      <trkpt lat="45.20037" lon="5.74062">
        <ele>195.783</ele>
        <time>2021-03-20T09:03:48Z</time>
      </trkpt>
      <trkpt lat="45.20032" lon="5.74063">
        <ele>195.712</ele>
        <time>2021-03-20T09:03:50Z</time>
      </trkpt>
      <trkpt lat="45.20024" lon="5.74067">
        <ele>196.215</ele>
        <time>2021-03-20T09:03:53Z</time>
      </trkpt>
      <trkpt lat="45.20014" lon="5.74073">
        <ele>196.446</ele>
        <time>2021-03-20T09:03:56Z</time>
      </trkpt>
      <trkpt lat="45.19995" lon="5.74093">
        <ele>196.826</ele>
        <time>2021-03-20T09:04:03Z</time>
      </trkpt>
      <trkpt lat="45.1999" lon="5.74102">
        <ele>198.227</ele>
        <time>2021-03-20T09:04:06Z</time>
      </trkpt>
      <trkpt lat="45.19977" lon="5.74117">
        <ele>198.057</ele>
        <time>2021-03-20T09:04:12Z</time>
      </trkpt>
      <trkpt lat="45.19962" lon="5.74142">
        <ele>197.896</ele>
        <time>2021-03-20T09:04:19Z</time>
      </trkpt>
      <trkpt lat="45.19946" lon="5.74161">
        <ele>197.973</ele>
        <time>2021-03-20T09:04:26Z</time>
      </trkpt>
      <trkpt lat="45.19919" lon="5.74183">
        <ele>197.627</ele>
        <time>2021-03-20T09:04:37Z</time>
      </trkpt>
      <trkpt lat="45.199" lon="5.74195">
        <ele>197.714</ele>
        <time>2021-03-20T09:04:44Z</time>
      </trkpt>
      <trkpt lat="45.1988" lon="5.74207">
        <ele>198.333</ele>
        <time>2021-03-20T09:04:51Z</time>
      </trkpt>
      <trkpt lat="45.19855" lon="5.74218">
        <ele>198.432</ele>
        <time>2021-03-20T09:05:00Z</time>
      </trkpt>
      <trkpt lat="45.19829" lon="5.74228">
        <ele>198.277</ele>
        <time>2021-03-20T09:05:09Z</time>
      </trkpt>
      <trkpt lat="45.19812" lon="5.74232">
        <ele>198.317</ele>
        <time>2021-03-20T09:05:15Z</time>
      </trkpt>
      <trkpt lat="45.19791" lon="5.74239">
        <ele>198.242</ele>
        <time>2021-03-20T09:05:22Z</time>
      </trkpt>
      <trkpt lat="45.19773" lon="5.74243">
        <ele>198.148</ele>
        <time>2021-03-20T09:05:28Z</time>
      </trkpt>
      <trkpt lat="45.19756" lon="5.74245">
        <ele>198.125</ele>
        <time>2021-03-20T09:05:34Z</time>
      </trkpt>
      <trkpt lat="45.19738" lon="5.74244">
        <ele>198.665</ele>
        <time>2021-03-20T09:05:41Z</time>
      </trkpt>
      <trkpt lat="45.19738" lon="5.74242">
        <ele>197.757</ele>
        <time>2021-03-20T09:05:43Z</time>
      </trkpt>
      <trkpt lat="45.19738" lon="5.7422">
        <ele>196.456</ele>
        <time>2021-03-20T09:05:51Z</time>
      </trkpt>
      <trkpt lat="45.19733" lon="5.74204">
        <ele>197.368</ele>
        <time>2021-03-20T09:05:55Z</time>
      </trkpt>
      <trkpt lat="45.1973" lon="5.74199">
        <ele>193.338</ele>
        <time>2021-03-20T09:05:57Z</time>
      </trkpt>
      <trkpt lat="45.19729" lon="5.74197">
        <ele>199.265</ele>
        <time>2021-03-20T09:05:58Z</time>
      </trkpt>
      <trkpt lat="45.19728" lon="5.74193">
        <ele>198.296</ele>
        <time>2021-03-20T09:05:59Z</time>
      </trkpt>
      <trkpt lat="45.19726" lon="5.74186">
        <ele>197.031</ele>
        <time>2021-03-20T09:06:01Z</time>
      </trkpt>
      <trkpt lat="45.19719" lon="5.74157">
        <ele>197.046</ele>
        <time>2021-03-20T09:06:09Z</time>
      </trkpt>
      <trkpt lat="45.19718" lon="5.74147">
        <ele>197.264</ele>
        <time>2021-03-20T09:06:12Z</time>
      </trkpt>
      <trkpt lat="45.19711" lon="5.74122">
        <ele>197.601</ele>
        <time>2021-03-20T09:06:17Z</time>
      </trkpt>
      <trkpt lat="45.1971" lon="5.74118">
        <ele>197.749</ele>
        <time>2021-03-20T09:06:18Z</time>
      </trkpt>
      <trkpt lat="45.19704" lon="5.74095">
        <ele>197.742</ele>
        <time>2021-03-20T09:06:24Z</time>
      </trkpt>
      <trkpt lat="45.19702" lon="5.74091">
        <ele>197.502</ele>
        <time>2021-03-20T09:06:25Z</time>
      </trkpt>
      <trkpt lat="45.197" lon="5.74081">
        <ele>197.268</ele>
        <time>2021-03-20T09:06:28Z</time>
      </trkpt>
      <trkpt lat="45.19695" lon="5.74063">
        <ele>197.887</ele>
        <time>2021-03-20T09:06:33Z</time>
      </trkpt>
      <trkpt lat="45.19692" lon="5.74043">
        <ele>197.436</ele>
        <time>2021-03-20T09:06:39Z</time>
      </trkpt>
      <trkpt lat="45.19686" lon="5.74024">
        <ele>197.548</ele>
        <time>2021-03-20T09:06:46Z</time>
      </trkpt>
      <trkpt lat="45.19679" lon="5.74003">
        <ele>197.38</ele>
        <time>2021-03-20T09:06:52Z</time>
      </trkpt>
      <trkpt lat="45.19663" lon="5.73997">
        <ele>197.492</ele>
        <time>2021-03-20T09:06:58Z</time>
      </trkpt>
      <trkpt lat="45.19653" lon="5.73993">
        <ele>197.3</ele>
        <time>2021-03-20T09:07:02Z</time>
      </trkpt>
      <trkpt lat="45.1965" lon="5.73992">
        <ele>197.135</ele>
        <time>2021-03-20T09:07:04Z</time>
      </trkpt>
      <trkpt lat="45.19636" lon="5.73991">
        <ele>197.631</ele>
        <time>2021-03-20T09:07:10Z</time>
      </trkpt>
      <trkpt lat="45.19624" lon="5.73987">
        <ele>197.502</ele>
        <time>2021-03-20T09:07:14Z</time>
      </trkpt>
      <trkpt lat="45.1962" lon="5.73982">
        <ele>197.516</ele>
        <time>2021-03-20T09:07:16Z</time>
      </trkpt>
      <trkpt lat="45.19618" lon="5.73966">
        <ele>197.547</ele>
        <time>2021-03-20T09:07:22Z</time>
      </trkpt>
      <trkpt lat="45.1963" lon="5.73956">
        <ele>198.906</ele>
        <time>2021-03-20T09:07:30Z</time>
      </trkpt>
      <trkpt lat="45.1964" lon="5.73962">
        <ele>198.453</ele>
        <time>2021-03-20T09:07:36Z</time>
      </trkpt>
      <trkpt lat="45.19645" lon="5.73963">
        <ele>198.191</ele>
        <time>2021-03-20T09:07:41Z</time>
      </trkpt>
      <trkpt lat="45.1965" lon="5.73956">
        <ele>198.993</ele>
        <time>2021-03-20T09:07:49Z</time>
      </trkpt>
      <trkpt lat="45.1965" lon="5.7395">
        <ele>199.056</ele>
        <time>2021-03-20T09:07:55Z</time>
      </trkpt>
      <trkpt lat="45.19655" lon="5.73934">
        <ele>201.426</ele>
        <time>2021-03-20T09:08:01Z</time>
      </trkpt>
      <trkpt lat="45.1965" lon="5.73967">
        <ele>201.762</ele>
        <time>2021-03-20T09:08:07Z</time>
      </trkpt>
      <trkpt lat="45.19647" lon="5.73963">
        <ele>205.17</ele>
        <time>2021-03-20T09:08:13Z</time>
      </trkpt>
      <trkpt lat="45.19642" lon="5.73966">
        <ele>206.589</ele>
        <time>2021-03-20T09:08:19Z</time>
      </trkpt>
      <trkpt lat="45.1964" lon="5.73959">
        <ele>207.798</ele>
        <time>2021-03-20T09:08:26Z</time>
      </trkpt>
      <trkpt lat="45.19643" lon="5.73955">
        <ele>208.873</ele>
        <time>2021-03-20T09:08:30Z</time>
      </trkpt>
    </trkseg>
  </trk>
</gpx>